<?xml version="1.0" encoding="UTF-8" standalone="no" ?>
<gpx xmlns="http://www.topografix.com/GPX/1/1" xmlns:xsi="http://www.w3.org/2001/XMLSchema-instance" xsi:schemaLocation="http://www.topografix.com/GPX/1/1 http://www.topografix.com/GPX/1/1/gpx.xsd" version="1.1" creator="VisuGPX - https://www.visugpx.com">
  <metadata>
    <name>Lot&amp;Bike VTT Circuit Rouge 19 Kms 630 D+</name>
  </metadata>
  <trk>
    <name><![CDATA[Lot&Bike VTT Circuit Rouge 19 Kms 630 D+]]></name>
    <trkseg>
      <trkpt lat="44.48637" lon="1.84317">
        <ele>159.4</ele>
        <time>2020-06-24T06:45:15Z</time>
      </trkpt>
      <trkpt lat="44.48633" lon="1.8432">
        <ele>159.4</ele>
        <time>2020-06-24T06:45:17Z</time>
      </trkpt>
      <trkpt lat="44.48631" lon="1.84321">
        <ele>158.8</ele>
        <time>2020-06-24T06:45:20Z</time>
      </trkpt>
      <trkpt lat="44.48628" lon="1.84322">
        <ele>158.4</ele>
        <time>2020-06-24T06:45:21Z</time>
      </trkpt>
      <trkpt lat="44.48626" lon="1.84324">
        <ele>158</ele>
        <time>2020-06-24T06:45:22Z</time>
      </trkpt>
      <trkpt lat="44.48615" lon="1.84333">
        <ele>158</ele>
        <time>2020-06-24T06:45:26Z</time>
      </trkpt>
      <trkpt lat="44.48598" lon="1.84347">
        <ele>158</ele>
        <time>2020-06-24T06:45:32Z</time>
      </trkpt>
      <trkpt lat="44.48572" lon="1.84371">
        <ele>158</ele>
        <time>2020-06-24T06:45:40Z</time>
      </trkpt>
      <trkpt lat="44.48551" lon="1.84382">
        <ele>158</ele>
        <time>2020-06-24T06:45:46Z</time>
      </trkpt>
      <trkpt lat="44.48528" lon="1.84387">
        <ele>158</ele>
        <time>2020-06-24T06:45:52Z</time>
      </trkpt>
      <trkpt lat="44.48505" lon="1.8438">
        <ele>158</ele>
        <time>2020-06-24T06:45:58Z</time>
      </trkpt>
      <trkpt lat="44.48487" lon="1.84369">
        <ele>158</ele>
        <time>2020-06-24T06:46:03Z</time>
      </trkpt>
      <trkpt lat="44.48484" lon="1.84365">
        <ele>158</ele>
        <time>2020-06-24T06:46:04Z</time>
      </trkpt>
      <trkpt lat="44.48465" lon="1.84362">
        <ele>158</ele>
        <time>2020-06-24T06:46:09Z</time>
      </trkpt>
      <trkpt lat="44.48461" lon="1.84364">
        <ele>158</ele>
        <time>2020-06-24T06:46:10Z</time>
      </trkpt>
      <trkpt lat="44.48433" lon="1.84378">
        <ele>158</ele>
        <time>2020-06-24T06:46:17Z</time>
      </trkpt>
      <trkpt lat="44.48403" lon="1.84394">
        <ele>158</ele>
        <time>2020-06-24T06:46:24Z</time>
      </trkpt>
      <trkpt lat="44.48364" lon="1.84415">
        <ele>158</ele>
        <time>2020-06-24T06:46:33Z</time>
      </trkpt>
      <trkpt lat="44.48331" lon="1.84433">
        <ele>158</ele>
        <time>2020-06-24T06:46:40Z</time>
      </trkpt>
      <trkpt lat="44.48322" lon="1.84438">
        <ele>158</ele>
        <time>2020-06-24T06:46:42Z</time>
      </trkpt>
      <trkpt lat="44.48317" lon="1.8444">
        <ele>158.6</ele>
        <time>2020-06-24T06:46:43Z</time>
      </trkpt>
      <trkpt lat="44.48312" lon="1.84442">
        <ele>159.4</ele>
        <time>2020-06-24T06:46:44Z</time>
      </trkpt>
      <trkpt lat="44.48308" lon="1.84444">
        <ele>160</ele>
        <time>2020-06-24T06:46:45Z</time>
      </trkpt>
      <trkpt lat="44.48304" lon="1.84446">
        <ele>160.6</ele>
        <time>2020-06-24T06:46:46Z</time>
      </trkpt>
      <trkpt lat="44.483" lon="1.84448">
        <ele>161.4</ele>
        <time>2020-06-24T06:46:47Z</time>
      </trkpt>
      <trkpt lat="44.48286" lon="1.84455">
        <ele>161.4</ele>
        <time>2020-06-24T06:46:50Z</time>
      </trkpt>
      <trkpt lat="44.48242" lon="1.84478">
        <ele>161.4</ele>
        <time>2020-06-24T06:46:59Z</time>
      </trkpt>
      <trkpt lat="44.48216" lon="1.84486">
        <ele>161.4</ele>
        <time>2020-06-24T06:47:04Z</time>
      </trkpt>
      <trkpt lat="44.48212" lon="1.84481">
        <ele>161.4</ele>
        <time>2020-06-24T06:47:05Z</time>
      </trkpt>
      <trkpt lat="44.48202" lon="1.84458">
        <ele>160.8</ele>
        <time>2020-06-24T06:47:08Z</time>
      </trkpt>
      <trkpt lat="44.482" lon="1.84448">
        <ele>160.4</ele>
        <time>2020-06-24T06:47:09Z</time>
      </trkpt>
      <trkpt lat="44.48197" lon="1.84439">
        <ele>160</ele>
        <time>2020-06-24T06:47:10Z</time>
      </trkpt>
      <trkpt lat="44.48195" lon="1.8443">
        <ele>159.6</ele>
        <time>2020-06-24T06:47:11Z</time>
      </trkpt>
      <trkpt lat="44.48192" lon="1.84422">
        <ele>159.2</ele>
        <time>2020-06-24T06:47:12Z</time>
      </trkpt>
      <trkpt lat="44.48181" lon="1.84398">
        <ele>159.2</ele>
        <time>2020-06-24T06:47:15Z</time>
      </trkpt>
      <trkpt lat="44.48176" lon="1.84392">
        <ele>159.2</ele>
        <time>2020-06-24T06:47:16Z</time>
      </trkpt>
      <trkpt lat="44.48164" lon="1.84381">
        <ele>159.2</ele>
        <time>2020-06-24T06:47:18Z</time>
      </trkpt>
      <trkpt lat="44.48129" lon="1.8435">
        <ele>159.2</ele>
        <time>2020-06-24T06:47:25Z</time>
      </trkpt>
      <trkpt lat="44.48119" lon="1.84344">
        <ele>159.2</ele>
        <time>2020-06-24T06:47:27Z</time>
      </trkpt>
      <trkpt lat="44.48102" lon="1.8434">
        <ele>159.2</ele>
        <time>2020-06-24T06:47:30Z</time>
      </trkpt>
      <trkpt lat="44.48084" lon="1.84342">
        <ele>159.2</ele>
        <time>2020-06-24T06:47:33Z</time>
      </trkpt>
      <trkpt lat="44.48073" lon="1.84345">
        <ele>159.2</ele>
        <time>2020-06-24T06:47:35Z</time>
      </trkpt>
      <trkpt lat="44.48038" lon="1.84357">
        <ele>159.2</ele>
        <time>2020-06-24T06:47:41Z</time>
      </trkpt>
      <trkpt lat="44.47999" lon="1.84374">
        <ele>159.2</ele>
        <time>2020-06-24T06:47:48Z</time>
      </trkpt>
      <trkpt lat="44.47975" lon="1.8438">
        <ele>159.2</ele>
        <time>2020-06-24T06:47:52Z</time>
      </trkpt>
      <trkpt lat="44.47962" lon="1.84382">
        <ele>159.2</ele>
        <time>2020-06-24T06:47:54Z</time>
      </trkpt>
      <trkpt lat="44.47912" lon="1.84383">
        <ele>159.2</ele>
        <time>2020-06-24T06:48:02Z</time>
      </trkpt>
      <trkpt lat="44.47859" lon="1.84383">
        <ele>159.2</ele>
        <time>2020-06-24T06:48:10Z</time>
      </trkpt>
      <trkpt lat="44.47813" lon="1.84393">
        <ele>159.2</ele>
        <time>2020-06-24T06:48:17Z</time>
      </trkpt>
      <trkpt lat="44.47766" lon="1.84413">
        <ele>159.2</ele>
        <time>2020-06-24T06:48:24Z</time>
      </trkpt>
      <trkpt lat="44.47716" lon="1.84438">
        <ele>159.2</ele>
        <time>2020-06-24T06:48:32Z</time>
      </trkpt>
      <trkpt lat="44.47665" lon="1.84465">
        <ele>159.2</ele>
        <time>2020-06-24T06:48:40Z</time>
      </trkpt>
      <trkpt lat="44.47619" lon="1.84484">
        <ele>159.2</ele>
        <time>2020-06-24T06:48:47Z</time>
      </trkpt>
      <trkpt lat="44.47569" lon="1.84497">
        <ele>159.2</ele>
        <time>2020-06-24T06:48:54Z</time>
      </trkpt>
      <trkpt lat="44.47512" lon="1.84506">
        <ele>159.2</ele>
        <time>2020-06-24T06:49:02Z</time>
      </trkpt>
      <trkpt lat="44.47475" lon="1.84522">
        <ele>159.2</ele>
        <time>2020-06-24T06:49:08Z</time>
      </trkpt>
      <trkpt lat="44.47455" lon="1.84539">
        <ele>159.2</ele>
        <time>2020-06-24T06:49:12Z</time>
      </trkpt>
      <trkpt lat="44.47451" lon="1.84549">
        <ele>159.2</ele>
        <time>2020-06-24T06:49:14Z</time>
      </trkpt>
      <trkpt lat="44.47452" lon="1.84571">
        <ele>159.2</ele>
        <time>2020-06-24T06:49:18Z</time>
      </trkpt>
      <trkpt lat="44.47461" lon="1.84614">
        <ele>159.2</ele>
        <time>2020-06-24T06:49:25Z</time>
      </trkpt>
      <trkpt lat="44.47472" lon="1.84671">
        <ele>159.2</ele>
        <time>2020-06-24T06:49:34Z</time>
      </trkpt>
      <trkpt lat="44.47478" lon="1.84703">
        <ele>159.2</ele>
        <time>2020-06-24T06:49:40Z</time>
      </trkpt>
      <trkpt lat="44.47477" lon="1.84705">
        <ele>159.6</ele>
        <time>2020-06-24T06:49:41Z</time>
      </trkpt>
      <trkpt lat="44.47474" lon="1.84706">
        <ele>160</ele>
        <time>2020-06-24T06:49:42Z</time>
      </trkpt>
      <trkpt lat="44.47471" lon="1.84706">
        <ele>160.4</ele>
        <time>2020-06-24T06:49:43Z</time>
      </trkpt>
      <trkpt lat="44.47467" lon="1.84705">
        <ele>160.8</ele>
        <time>2020-06-24T06:49:44Z</time>
      </trkpt>
      <trkpt lat="44.47463" lon="1.84705">
        <ele>161.4</ele>
        <time>2020-06-24T06:49:45Z</time>
      </trkpt>
      <trkpt lat="44.47459" lon="1.84706">
        <ele>161.4</ele>
        <time>2020-06-24T06:49:46Z</time>
      </trkpt>
      <trkpt lat="44.47448" lon="1.84705">
        <ele>161.4</ele>
        <time>2020-06-24T06:49:49Z</time>
      </trkpt>
      <trkpt lat="44.47412" lon="1.84706">
        <ele>161.4</ele>
        <time>2020-06-24T06:49:57Z</time>
      </trkpt>
      <trkpt lat="44.47377" lon="1.84704">
        <ele>161.4</ele>
        <time>2020-06-24T06:50:04Z</time>
      </trkpt>
      <trkpt lat="44.47359" lon="1.84702">
        <ele>161.4</ele>
        <time>2020-06-24T06:50:07Z</time>
      </trkpt>
      <trkpt lat="44.47342" lon="1.84703">
        <ele>161.4</ele>
        <time>2020-06-24T06:50:10Z</time>
      </trkpt>
      <trkpt lat="44.47306" lon="1.84709">
        <ele>161.4</ele>
        <time>2020-06-24T06:50:16Z</time>
      </trkpt>
      <trkpt lat="44.47261" lon="1.84717">
        <ele>161.4</ele>
        <time>2020-06-24T06:50:23Z</time>
      </trkpt>
      <trkpt lat="44.47255" lon="1.84719">
        <ele>161.4</ele>
        <time>2020-06-24T06:50:24Z</time>
      </trkpt>
      <trkpt lat="44.47231" lon="1.84733">
        <ele>161.4</ele>
        <time>2020-06-24T06:50:28Z</time>
      </trkpt>
      <trkpt lat="44.47181" lon="1.84757">
        <ele>161.4</ele>
        <time>2020-06-24T06:50:36Z</time>
      </trkpt>
      <trkpt lat="44.47132" lon="1.84781">
        <ele>161.4</ele>
        <time>2020-06-24T06:50:44Z</time>
      </trkpt>
      <trkpt lat="44.47086" lon="1.84804">
        <ele>161.4</ele>
        <time>2020-06-24T06:50:52Z</time>
      </trkpt>
      <trkpt lat="44.47055" lon="1.84816">
        <ele>161.8</ele>
        <time>2020-06-24T06:50:58Z</time>
      </trkpt>
      <trkpt lat="44.4705" lon="1.84817">
        <ele>162.2</ele>
        <time>2020-06-24T06:50:59Z</time>
      </trkpt>
      <trkpt lat="44.47044" lon="1.84818">
        <ele>162.6</ele>
        <time>2020-06-24T06:51:00Z</time>
      </trkpt>
      <trkpt lat="44.47039" lon="1.84821">
        <ele>163</ele>
        <time>2020-06-24T06:51:01Z</time>
      </trkpt>
      <trkpt lat="44.47034" lon="1.84821">
        <ele>163.4</ele>
        <time>2020-06-24T06:51:02Z</time>
      </trkpt>
      <trkpt lat="44.4703" lon="1.84822">
        <ele>163.4</ele>
        <time>2020-06-24T06:51:03Z</time>
      </trkpt>
      <trkpt lat="44.47015" lon="1.84825">
        <ele>163.8</ele>
        <time>2020-06-24T06:51:06Z</time>
      </trkpt>
      <trkpt lat="44.47011" lon="1.84826">
        <ele>164.2</ele>
        <time>2020-06-24T06:51:07Z</time>
      </trkpt>
      <trkpt lat="44.47006" lon="1.84826">
        <ele>164.6</ele>
        <time>2020-06-24T06:51:08Z</time>
      </trkpt>
      <trkpt lat="44.47001" lon="1.84826">
        <ele>165</ele>
        <time>2020-06-24T06:51:09Z</time>
      </trkpt>
      <trkpt lat="44.46996" lon="1.84826">
        <ele>165.4</ele>
        <time>2020-06-24T06:51:10Z</time>
      </trkpt>
      <trkpt lat="44.46982" lon="1.84827">
        <ele>166</ele>
        <time>2020-06-24T06:51:13Z</time>
      </trkpt>
      <trkpt lat="44.46977" lon="1.84827">
        <ele>166.4</ele>
        <time>2020-06-24T06:51:14Z</time>
      </trkpt>
      <trkpt lat="44.46973" lon="1.84827">
        <ele>166.8</ele>
        <time>2020-06-24T06:51:15Z</time>
      </trkpt>
      <trkpt lat="44.46968" lon="1.84827">
        <ele>167.2</ele>
        <time>2020-06-24T06:51:16Z</time>
      </trkpt>
      <trkpt lat="44.46964" lon="1.84828">
        <ele>167.6</ele>
        <time>2020-06-24T06:51:17Z</time>
      </trkpt>
      <trkpt lat="44.4696" lon="1.84828">
        <ele>167.6</ele>
        <time>2020-06-24T06:51:18Z</time>
      </trkpt>
      <trkpt lat="44.46938" lon="1.84831">
        <ele>168</ele>
        <time>2020-06-24T06:51:23Z</time>
      </trkpt>
      <trkpt lat="44.46934" lon="1.84831">
        <ele>168.4</ele>
        <time>2020-06-24T06:51:24Z</time>
      </trkpt>
      <trkpt lat="44.46929" lon="1.84831">
        <ele>168.8</ele>
        <time>2020-06-24T06:51:25Z</time>
      </trkpt>
      <trkpt lat="44.46925" lon="1.84831">
        <ele>169.2</ele>
        <time>2020-06-24T06:51:26Z</time>
      </trkpt>
      <trkpt lat="44.46921" lon="1.84832">
        <ele>169.6</ele>
        <time>2020-06-24T06:51:27Z</time>
      </trkpt>
      <trkpt lat="44.46898" lon="1.84834">
        <ele>169.6</ele>
        <time>2020-06-24T06:51:32Z</time>
      </trkpt>
      <trkpt lat="44.46858" lon="1.84835">
        <ele>170</ele>
        <time>2020-06-24T06:51:41Z</time>
      </trkpt>
      <trkpt lat="44.46853" lon="1.84835">
        <ele>170.4</ele>
        <time>2020-06-24T06:51:42Z</time>
      </trkpt>
      <trkpt lat="44.46849" lon="1.84833">
        <ele>171</ele>
        <time>2020-06-24T06:51:43Z</time>
      </trkpt>
      <trkpt lat="44.46845" lon="1.84833">
        <ele>171.4</ele>
        <time>2020-06-24T06:51:44Z</time>
      </trkpt>
      <trkpt lat="44.46841" lon="1.84833">
        <ele>171.8</ele>
        <time>2020-06-24T06:51:45Z</time>
      </trkpt>
      <trkpt lat="44.46837" lon="1.84834">
        <ele>171.8</ele>
        <time>2020-06-24T06:51:46Z</time>
      </trkpt>
      <trkpt lat="44.46832" lon="1.84834">
        <ele>171.8</ele>
        <time>2020-06-24T06:51:47Z</time>
      </trkpt>
      <trkpt lat="44.46807" lon="1.84833">
        <ele>171.8</ele>
        <time>2020-06-24T06:51:53Z</time>
      </trkpt>
      <trkpt lat="44.46798" lon="1.84833">
        <ele>172.2</ele>
        <time>2020-06-24T06:51:55Z</time>
      </trkpt>
      <trkpt lat="44.46795" lon="1.84834">
        <ele>172.6</ele>
        <time>2020-06-24T06:51:56Z</time>
      </trkpt>
      <trkpt lat="44.46791" lon="1.84838">
        <ele>173</ele>
        <time>2020-06-24T06:51:57Z</time>
      </trkpt>
      <trkpt lat="44.46787" lon="1.84842">
        <ele>173.4</ele>
        <time>2020-06-24T06:51:58Z</time>
      </trkpt>
      <trkpt lat="44.46785" lon="1.84848">
        <ele>173.8</ele>
        <time>2020-06-24T06:51:59Z</time>
      </trkpt>
      <trkpt lat="44.46778" lon="1.8487">
        <ele>173.8</ele>
        <time>2020-06-24T06:52:02Z</time>
      </trkpt>
      <trkpt lat="44.46776" lon="1.84878">
        <ele>173.8</ele>
        <time>2020-06-24T06:52:03Z</time>
      </trkpt>
      <trkpt lat="44.46771" lon="1.84904">
        <ele>173.4</ele>
        <time>2020-06-24T06:52:06Z</time>
      </trkpt>
      <trkpt lat="44.46769" lon="1.84913">
        <ele>173</ele>
        <time>2020-06-24T06:52:07Z</time>
      </trkpt>
      <trkpt lat="44.46767" lon="1.84922">
        <ele>172.4</ele>
        <time>2020-06-24T06:52:08Z</time>
      </trkpt>
      <trkpt lat="44.46765" lon="1.84931">
        <ele>172</ele>
        <time>2020-06-24T06:52:09Z</time>
      </trkpt>
      <trkpt lat="44.46762" lon="1.8494">
        <ele>171.6</ele>
        <time>2020-06-24T06:52:10Z</time>
      </trkpt>
      <trkpt lat="44.46754" lon="1.84966">
        <ele>171.2</ele>
        <time>2020-06-24T06:52:13Z</time>
      </trkpt>
      <trkpt lat="44.46752" lon="1.84975">
        <ele>170.8</ele>
        <time>2020-06-24T06:52:14Z</time>
      </trkpt>
      <trkpt lat="44.46749" lon="1.84984">
        <ele>170.4</ele>
        <time>2020-06-24T06:52:15Z</time>
      </trkpt>
      <trkpt lat="44.46745" lon="1.84993">
        <ele>170</ele>
        <time>2020-06-24T06:52:16Z</time>
      </trkpt>
      <trkpt lat="44.46741" lon="1.85002">
        <ele>169.6</ele>
        <time>2020-06-24T06:52:17Z</time>
      </trkpt>
      <trkpt lat="44.46725" lon="1.85035">
        <ele>169.2</ele>
        <time>2020-06-24T06:52:21Z</time>
      </trkpt>
      <trkpt lat="44.4672" lon="1.85042">
        <ele>168.8</ele>
        <time>2020-06-24T06:52:22Z</time>
      </trkpt>
      <trkpt lat="44.46714" lon="1.85048">
        <ele>168.2</ele>
        <time>2020-06-24T06:52:23Z</time>
      </trkpt>
      <trkpt lat="44.46708" lon="1.85054">
        <ele>167.8</ele>
        <time>2020-06-24T06:52:24Z</time>
      </trkpt>
      <trkpt lat="44.46702" lon="1.85059">
        <ele>167.4</ele>
        <time>2020-06-24T06:52:25Z</time>
      </trkpt>
      <trkpt lat="44.46696" lon="1.85063">
        <ele>167.4</ele>
        <time>2020-06-24T06:52:26Z</time>
      </trkpt>
      <trkpt lat="44.46682" lon="1.85071">
        <ele>167.4</ele>
        <time>2020-06-24T06:52:28Z</time>
      </trkpt>
      <trkpt lat="44.46668" lon="1.85078">
        <ele>167</ele>
        <time>2020-06-24T06:52:30Z</time>
      </trkpt>
      <trkpt lat="44.46661" lon="1.85082">
        <ele>166.6</ele>
        <time>2020-06-24T06:52:31Z</time>
      </trkpt>
      <trkpt lat="44.46653" lon="1.85085">
        <ele>166.2</ele>
        <time>2020-06-24T06:52:32Z</time>
      </trkpt>
      <trkpt lat="44.46646" lon="1.85087">
        <ele>165.8</ele>
        <time>2020-06-24T06:52:33Z</time>
      </trkpt>
      <trkpt lat="44.46638" lon="1.85089">
        <ele>165.4</ele>
        <time>2020-06-24T06:52:34Z</time>
      </trkpt>
      <trkpt lat="44.46615" lon="1.85091">
        <ele>165.4</ele>
        <time>2020-06-24T06:52:37Z</time>
      </trkpt>
      <trkpt lat="44.4657" lon="1.85086">
        <ele>165.4</ele>
        <time>2020-06-24T06:52:43Z</time>
      </trkpt>
      <trkpt lat="44.46555" lon="1.85082">
        <ele>165</ele>
        <time>2020-06-24T06:52:45Z</time>
      </trkpt>
      <trkpt lat="44.46547" lon="1.8508">
        <ele>164.6</ele>
        <time>2020-06-24T06:52:46Z</time>
      </trkpt>
      <trkpt lat="44.4654" lon="1.85079">
        <ele>164.2</ele>
        <time>2020-06-24T06:52:47Z</time>
      </trkpt>
      <trkpt lat="44.46533" lon="1.85078">
        <ele>163.8</ele>
        <time>2020-06-24T06:52:48Z</time>
      </trkpt>
      <trkpt lat="44.46525" lon="1.8508">
        <ele>163.4</ele>
        <time>2020-06-24T06:52:49Z</time>
      </trkpt>
      <trkpt lat="44.46496" lon="1.85097">
        <ele>163.4</ele>
        <time>2020-06-24T06:52:53Z</time>
      </trkpt>
      <trkpt lat="44.46489" lon="1.85103">
        <ele>163.4</ele>
        <time>2020-06-24T06:52:54Z</time>
      </trkpt>
      <trkpt lat="44.4647" lon="1.85122">
        <ele>163</ele>
        <time>2020-06-24T06:52:57Z</time>
      </trkpt>
      <trkpt lat="44.46466" lon="1.85129">
        <ele>162.6</ele>
        <time>2020-06-24T06:52:58Z</time>
      </trkpt>
      <trkpt lat="44.46462" lon="1.85138">
        <ele>162.2</ele>
        <time>2020-06-24T06:52:59Z</time>
      </trkpt>
      <trkpt lat="44.46459" lon="1.85147">
        <ele>161.6</ele>
        <time>2020-06-24T06:53:00Z</time>
      </trkpt>
      <trkpt lat="44.46455" lon="1.85156">
        <ele>161.2</ele>
        <time>2020-06-24T06:53:01Z</time>
      </trkpt>
      <trkpt lat="44.46449" lon="1.85173">
        <ele>161.2</ele>
        <time>2020-06-24T06:53:03Z</time>
      </trkpt>
      <trkpt lat="44.4644" lon="1.85188">
        <ele>161.2</ele>
        <time>2020-06-24T06:53:05Z</time>
      </trkpt>
      <trkpt lat="44.46427" lon="1.85211">
        <ele>161.2</ele>
        <time>2020-06-24T06:53:08Z</time>
      </trkpt>
      <trkpt lat="44.46394" lon="1.85263">
        <ele>161.2</ele>
        <time>2020-06-24T06:53:15Z</time>
      </trkpt>
      <trkpt lat="44.46363" lon="1.8531">
        <ele>160.8</ele>
        <time>2020-06-24T06:53:22Z</time>
      </trkpt>
      <trkpt lat="44.46359" lon="1.85314">
        <ele>160.4</ele>
        <time>2020-06-24T06:53:23Z</time>
      </trkpt>
      <trkpt lat="44.46354" lon="1.85319">
        <ele>160</ele>
        <time>2020-06-24T06:53:24Z</time>
      </trkpt>
      <trkpt lat="44.4635" lon="1.85322">
        <ele>159.6</ele>
        <time>2020-06-24T06:53:25Z</time>
      </trkpt>
      <trkpt lat="44.46347" lon="1.85324">
        <ele>159.2</ele>
        <time>2020-06-24T06:53:26Z</time>
      </trkpt>
      <trkpt lat="44.46344" lon="1.85326">
        <ele>159.2</ele>
        <time>2020-06-24T06:53:27Z</time>
      </trkpt>
      <trkpt lat="44.4634" lon="1.85331">
        <ele>159.2</ele>
        <time>2020-06-24T06:53:31Z</time>
      </trkpt>
      <trkpt lat="44.46342" lon="1.85333">
        <ele>159.2</ele>
        <time>2020-06-24T06:53:32Z</time>
      </trkpt>
      <trkpt lat="44.46345" lon="1.85339">
        <ele>159.2</ele>
        <time>2020-06-24T06:53:34Z</time>
      </trkpt>
      <trkpt lat="44.46347" lon="1.85346">
        <ele>159.6</ele>
        <time>2020-06-24T06:53:37Z</time>
      </trkpt>
      <trkpt lat="44.46347" lon="1.85348">
        <ele>160</ele>
        <time>2020-06-24T06:53:38Z</time>
      </trkpt>
      <trkpt lat="44.46348" lon="1.8535">
        <ele>160.6</ele>
        <time>2020-06-24T06:53:39Z</time>
      </trkpt>
      <trkpt lat="44.46348" lon="1.85352">
        <ele>161</ele>
        <time>2020-06-24T06:53:40Z</time>
      </trkpt>
      <trkpt lat="44.46349" lon="1.85355">
        <ele>161.4</ele>
        <time>2020-06-24T06:53:41Z</time>
      </trkpt>
      <trkpt lat="44.46349" lon="1.85358">
        <ele>161.8</ele>
        <time>2020-06-24T06:53:42Z</time>
      </trkpt>
      <trkpt lat="44.46349" lon="1.8536">
        <ele>162.2</ele>
        <time>2020-06-24T06:53:43Z</time>
      </trkpt>
      <trkpt lat="44.4635" lon="1.85363">
        <ele>162.8</ele>
        <time>2020-06-24T06:53:44Z</time>
      </trkpt>
      <trkpt lat="44.46351" lon="1.85365">
        <ele>163.2</ele>
        <time>2020-06-24T06:53:45Z</time>
      </trkpt>
      <trkpt lat="44.46352" lon="1.85368">
        <ele>163.6</ele>
        <time>2020-06-24T06:53:46Z</time>
      </trkpt>
      <trkpt lat="44.46353" lon="1.85372">
        <ele>164</ele>
        <time>2020-06-24T06:53:48Z</time>
      </trkpt>
      <trkpt lat="44.46354" lon="1.85374">
        <ele>164.6</ele>
        <time>2020-06-24T06:53:49Z</time>
      </trkpt>
      <trkpt lat="44.46355" lon="1.85376">
        <ele>165</ele>
        <time>2020-06-24T06:53:50Z</time>
      </trkpt>
      <trkpt lat="44.46356" lon="1.85377">
        <ele>165.4</ele>
        <time>2020-06-24T06:53:51Z</time>
      </trkpt>
      <trkpt lat="44.46357" lon="1.85378">
        <ele>166</ele>
        <time>2020-06-24T06:53:52Z</time>
      </trkpt>
      <trkpt lat="44.46362" lon="1.85382">
        <ele>166</ele>
        <time>2020-06-24T06:53:55Z</time>
      </trkpt>
      <trkpt lat="44.46363" lon="1.85382">
        <ele>166.4</ele>
        <time>2020-06-24T06:53:56Z</time>
      </trkpt>
      <trkpt lat="44.46364" lon="1.85384">
        <ele>166.8</ele>
        <time>2020-06-24T06:53:57Z</time>
      </trkpt>
      <trkpt lat="44.46365" lon="1.85386">
        <ele>167.2</ele>
        <time>2020-06-24T06:53:58Z</time>
      </trkpt>
      <trkpt lat="44.46367" lon="1.85388">
        <ele>167.6</ele>
        <time>2020-06-24T06:53:59Z</time>
      </trkpt>
      <trkpt lat="44.46368" lon="1.85389">
        <ele>168</ele>
        <time>2020-06-24T06:54:00Z</time>
      </trkpt>
      <trkpt lat="44.4637" lon="1.85393">
        <ele>168</ele>
        <time>2020-06-24T06:54:02Z</time>
      </trkpt>
      <trkpt lat="44.46371" lon="1.85397">
        <ele>168.4</ele>
        <time>2020-06-24T06:54:04Z</time>
      </trkpt>
      <trkpt lat="44.46373" lon="1.85399">
        <ele>168.8</ele>
        <time>2020-06-24T06:54:05Z</time>
      </trkpt>
      <trkpt lat="44.46373" lon="1.854">
        <ele>169.2</ele>
        <time>2020-06-24T06:54:06Z</time>
      </trkpt>
      <trkpt lat="44.46374" lon="1.85402">
        <ele>170.2</ele>
        <time>2020-06-24T06:54:07Z</time>
      </trkpt>
      <trkpt lat="44.46374" lon="1.85406">
        <ele>170.2</ele>
        <time>2020-06-24T06:54:09Z</time>
      </trkpt>
      <trkpt lat="44.46375" lon="1.85409">
        <ele>170.6</ele>
        <time>2020-06-24T06:54:11Z</time>
      </trkpt>
      <trkpt lat="44.46375" lon="1.85411">
        <ele>171</ele>
        <time>2020-06-24T06:54:12Z</time>
      </trkpt>
      <trkpt lat="44.46376" lon="1.85412">
        <ele>171.4</ele>
        <time>2020-06-24T06:54:13Z</time>
      </trkpt>
      <trkpt lat="44.46376" lon="1.85413">
        <ele>171.8</ele>
        <time>2020-06-24T06:54:14Z</time>
      </trkpt>
      <trkpt lat="44.46377" lon="1.85414">
        <ele>172.2</ele>
        <time>2020-06-24T06:54:15Z</time>
      </trkpt>
      <trkpt lat="44.46377" lon="1.85416">
        <ele>172.2</ele>
        <time>2020-06-24T06:54:16Z</time>
      </trkpt>
      <trkpt lat="44.46379" lon="1.85421">
        <ele>172.6</ele>
        <time>2020-06-24T06:54:19Z</time>
      </trkpt>
      <trkpt lat="44.4638" lon="1.85422">
        <ele>173.2</ele>
        <time>2020-06-24T06:54:20Z</time>
      </trkpt>
      <trkpt lat="44.4638" lon="1.85425">
        <ele>173.6</ele>
        <time>2020-06-24T06:54:21Z</time>
      </trkpt>
      <trkpt lat="44.4638" lon="1.85427">
        <ele>174</ele>
        <time>2020-06-24T06:54:22Z</time>
      </trkpt>
      <trkpt lat="44.46381" lon="1.85428">
        <ele>174.4</ele>
        <time>2020-06-24T06:54:23Z</time>
      </trkpt>
      <trkpt lat="44.46388" lon="1.85439">
        <ele>174.4</ele>
        <time>2020-06-24T06:54:28Z</time>
      </trkpt>
      <trkpt lat="44.4639" lon="1.85443">
        <ele>174.8</ele>
        <time>2020-06-24T06:54:30Z</time>
      </trkpt>
      <trkpt lat="44.46391" lon="1.85445">
        <ele>175.6</ele>
        <time>2020-06-24T06:54:31Z</time>
      </trkpt>
      <trkpt lat="44.46392" lon="1.85447">
        <ele>176</ele>
        <time>2020-06-24T06:54:32Z</time>
      </trkpt>
      <trkpt lat="44.46392" lon="1.85449">
        <ele>176.4</ele>
        <time>2020-06-24T06:54:33Z</time>
      </trkpt>
      <trkpt lat="44.46394" lon="1.85453">
        <ele>176.4</ele>
        <time>2020-06-24T06:54:35Z</time>
      </trkpt>
      <trkpt lat="44.46397" lon="1.85459">
        <ele>177</ele>
        <time>2020-06-24T06:54:39Z</time>
      </trkpt>
      <trkpt lat="44.46399" lon="1.85462">
        <ele>177.4</ele>
        <time>2020-06-24T06:54:40Z</time>
      </trkpt>
      <trkpt lat="44.464" lon="1.85463">
        <ele>177.8</ele>
        <time>2020-06-24T06:54:41Z</time>
      </trkpt>
      <trkpt lat="44.46401" lon="1.85464">
        <ele>178.2</ele>
        <time>2020-06-24T06:54:42Z</time>
      </trkpt>
      <trkpt lat="44.464" lon="1.85466">
        <ele>178.6</ele>
        <time>2020-06-24T06:54:43Z</time>
      </trkpt>
      <trkpt lat="44.46401" lon="1.85468">
        <ele>178.6</ele>
        <time>2020-06-24T06:54:44Z</time>
      </trkpt>
      <trkpt lat="44.46406" lon="1.85477">
        <ele>178.6</ele>
        <time>2020-06-24T06:54:49Z</time>
      </trkpt>
      <trkpt lat="44.46407" lon="1.85479">
        <ele>179</ele>
        <time>2020-06-24T06:54:50Z</time>
      </trkpt>
      <trkpt lat="44.46408" lon="1.85481">
        <ele>179.4</ele>
        <time>2020-06-24T06:54:51Z</time>
      </trkpt>
      <trkpt lat="44.46408" lon="1.85483">
        <ele>179.8</ele>
        <time>2020-06-24T06:54:52Z</time>
      </trkpt>
      <trkpt lat="44.46409" lon="1.85485">
        <ele>180.4</ele>
        <time>2020-06-24T06:54:53Z</time>
      </trkpt>
      <trkpt lat="44.46409" lon="1.85486">
        <ele>180.8</ele>
        <time>2020-06-24T06:54:54Z</time>
      </trkpt>
      <trkpt lat="44.46412" lon="1.85492">
        <ele>180.8</ele>
        <time>2020-06-24T06:54:57Z</time>
      </trkpt>
      <trkpt lat="44.46414" lon="1.85497">
        <ele>181.2</ele>
        <time>2020-06-24T06:54:59Z</time>
      </trkpt>
      <trkpt lat="44.46415" lon="1.85499">
        <ele>181.6</ele>
        <time>2020-06-24T06:55:00Z</time>
      </trkpt>
      <trkpt lat="44.46416" lon="1.85501">
        <ele>182</ele>
        <time>2020-06-24T06:55:01Z</time>
      </trkpt>
      <trkpt lat="44.46416" lon="1.85504">
        <ele>182.4</ele>
        <time>2020-06-24T06:55:02Z</time>
      </trkpt>
      <trkpt lat="44.46417" lon="1.85507">
        <ele>182.8</ele>
        <time>2020-06-24T06:55:03Z</time>
      </trkpt>
      <trkpt lat="44.46418" lon="1.85509">
        <ele>182.8</ele>
        <time>2020-06-24T06:55:04Z</time>
      </trkpt>
      <trkpt lat="44.46423" lon="1.85528">
        <ele>182.8</ele>
        <time>2020-06-24T06:55:12Z</time>
      </trkpt>
      <trkpt lat="44.46423" lon="1.85532">
        <ele>183.4</ele>
        <time>2020-06-24T06:55:14Z</time>
      </trkpt>
      <trkpt lat="44.46424" lon="1.85534">
        <ele>183.8</ele>
        <time>2020-06-24T06:55:15Z</time>
      </trkpt>
      <trkpt lat="44.46425" lon="1.85537">
        <ele>184.2</ele>
        <time>2020-06-24T06:55:16Z</time>
      </trkpt>
      <trkpt lat="44.46425" lon="1.85539">
        <ele>184.6</ele>
        <time>2020-06-24T06:55:17Z</time>
      </trkpt>
      <trkpt lat="44.46425" lon="1.85541">
        <ele>185</ele>
        <time>2020-06-24T06:55:18Z</time>
      </trkpt>
      <trkpt lat="44.46425" lon="1.85545">
        <ele>185</ele>
        <time>2020-06-24T06:55:20Z</time>
      </trkpt>
      <trkpt lat="44.46429" lon="1.85561">
        <ele>185</ele>
        <time>2020-06-24T06:55:26Z</time>
      </trkpt>
      <trkpt lat="44.46429" lon="1.85564">
        <ele>185.4</ele>
        <time>2020-06-24T06:55:27Z</time>
      </trkpt>
      <trkpt lat="44.46429" lon="1.85567">
        <ele>185.8</ele>
        <time>2020-06-24T06:55:28Z</time>
      </trkpt>
      <trkpt lat="44.4643" lon="1.8557">
        <ele>186.2</ele>
        <time>2020-06-24T06:55:29Z</time>
      </trkpt>
      <trkpt lat="44.46431" lon="1.85572">
        <ele>186.6</ele>
        <time>2020-06-24T06:55:30Z</time>
      </trkpt>
      <trkpt lat="44.46432" lon="1.85575">
        <ele>187</ele>
        <time>2020-06-24T06:55:31Z</time>
      </trkpt>
      <trkpt lat="44.46435" lon="1.85583">
        <ele>187</ele>
        <time>2020-06-24T06:55:34Z</time>
      </trkpt>
      <trkpt lat="44.46442" lon="1.85598">
        <ele>187.4</ele>
        <time>2020-06-24T06:55:40Z</time>
      </trkpt>
      <trkpt lat="44.46443" lon="1.856">
        <ele>187.8</ele>
        <time>2020-06-24T06:55:41Z</time>
      </trkpt>
      <trkpt lat="44.46444" lon="1.85603">
        <ele>188.2</ele>
        <time>2020-06-24T06:55:42Z</time>
      </trkpt>
      <trkpt lat="44.46444" lon="1.85605">
        <ele>188.6</ele>
        <time>2020-06-24T06:55:43Z</time>
      </trkpt>
      <trkpt lat="44.46446" lon="1.85607">
        <ele>189</ele>
        <time>2020-06-24T06:55:44Z</time>
      </trkpt>
      <trkpt lat="44.46454" lon="1.85614">
        <ele>189</ele>
        <time>2020-06-24T06:55:48Z</time>
      </trkpt>
      <trkpt lat="44.46457" lon="1.85617">
        <ele>189.4</ele>
        <time>2020-06-24T06:55:50Z</time>
      </trkpt>
      <trkpt lat="44.46458" lon="1.85619">
        <ele>190</ele>
        <time>2020-06-24T06:55:51Z</time>
      </trkpt>
      <trkpt lat="44.4646" lon="1.85621">
        <ele>190.4</ele>
        <time>2020-06-24T06:55:52Z</time>
      </trkpt>
      <trkpt lat="44.46462" lon="1.85623">
        <ele>190.8</ele>
        <time>2020-06-24T06:55:53Z</time>
      </trkpt>
      <trkpt lat="44.46464" lon="1.85624">
        <ele>191.2</ele>
        <time>2020-06-24T06:55:54Z</time>
      </trkpt>
      <trkpt lat="44.46467" lon="1.85628">
        <ele>191.2</ele>
        <time>2020-06-24T06:55:56Z</time>
      </trkpt>
      <trkpt lat="44.46471" lon="1.85631">
        <ele>191.6</ele>
        <time>2020-06-24T06:55:59Z</time>
      </trkpt>
      <trkpt lat="44.46472" lon="1.85633">
        <ele>192</ele>
        <time>2020-06-24T06:56:00Z</time>
      </trkpt>
      <trkpt lat="44.46474" lon="1.85634">
        <ele>192.4</ele>
        <time>2020-06-24T06:56:01Z</time>
      </trkpt>
      <trkpt lat="44.46476" lon="1.85635">
        <ele>192.8</ele>
        <time>2020-06-24T06:56:02Z</time>
      </trkpt>
      <trkpt lat="44.46478" lon="1.85637">
        <ele>193.4</ele>
        <time>2020-06-24T06:56:03Z</time>
      </trkpt>
      <trkpt lat="44.46483" lon="1.85641">
        <ele>193.8</ele>
        <time>2020-06-24T06:56:06Z</time>
      </trkpt>
      <trkpt lat="44.46486" lon="1.85642">
        <ele>194.2</ele>
        <time>2020-06-24T06:56:07Z</time>
      </trkpt>
      <trkpt lat="44.46488" lon="1.85644">
        <ele>194.6</ele>
        <time>2020-06-24T06:56:08Z</time>
      </trkpt>
      <trkpt lat="44.46489" lon="1.85645">
        <ele>195.4</ele>
        <time>2020-06-24T06:56:09Z</time>
      </trkpt>
      <trkpt lat="44.46494" lon="1.8565">
        <ele>195.4</ele>
        <time>2020-06-24T06:56:12Z</time>
      </trkpt>
      <trkpt lat="44.46496" lon="1.85651">
        <ele>195.8</ele>
        <time>2020-06-24T06:56:13Z</time>
      </trkpt>
      <trkpt lat="44.46498" lon="1.85653">
        <ele>196.2</ele>
        <time>2020-06-24T06:56:14Z</time>
      </trkpt>
      <trkpt lat="44.46499" lon="1.85655">
        <ele>196.6</ele>
        <time>2020-06-24T06:56:15Z</time>
      </trkpt>
      <trkpt lat="44.46501" lon="1.85656">
        <ele>197</ele>
        <time>2020-06-24T06:56:16Z</time>
      </trkpt>
      <trkpt lat="44.46502" lon="1.85657">
        <ele>197.4</ele>
        <time>2020-06-24T06:56:17Z</time>
      </trkpt>
      <trkpt lat="44.4651" lon="1.85662">
        <ele>197.8</ele>
        <time>2020-06-24T06:56:21Z</time>
      </trkpt>
      <trkpt lat="44.46512" lon="1.85663">
        <ele>198.2</ele>
        <time>2020-06-24T06:56:22Z</time>
      </trkpt>
      <trkpt lat="44.46513" lon="1.85664">
        <ele>198.8</ele>
        <time>2020-06-24T06:56:23Z</time>
      </trkpt>
      <trkpt lat="44.46515" lon="1.85665">
        <ele>199.2</ele>
        <time>2020-06-24T06:56:24Z</time>
      </trkpt>
      <trkpt lat="44.46517" lon="1.85665">
        <ele>199.6</ele>
        <time>2020-06-24T06:56:25Z</time>
      </trkpt>
      <trkpt lat="44.46526" lon="1.85669">
        <ele>200</ele>
        <time>2020-06-24T06:56:30Z</time>
      </trkpt>
      <trkpt lat="44.46528" lon="1.8567">
        <ele>200.6</ele>
        <time>2020-06-24T06:56:31Z</time>
      </trkpt>
      <trkpt lat="44.46529" lon="1.85671">
        <ele>201.4</ele>
        <time>2020-06-24T06:56:32Z</time>
      </trkpt>
      <trkpt lat="44.46531" lon="1.85672">
        <ele>201.8</ele>
        <time>2020-06-24T06:56:33Z</time>
      </trkpt>
      <trkpt lat="44.46536" lon="1.85675">
        <ele>202.2</ele>
        <time>2020-06-24T06:56:36Z</time>
      </trkpt>
      <trkpt lat="44.46538" lon="1.85677">
        <ele>202.8</ele>
        <time>2020-06-24T06:56:37Z</time>
      </trkpt>
      <trkpt lat="44.46539" lon="1.85678">
        <ele>203.2</ele>
        <time>2020-06-24T06:56:38Z</time>
      </trkpt>
      <trkpt lat="44.46541" lon="1.85679">
        <ele>203.6</ele>
        <time>2020-06-24T06:56:39Z</time>
      </trkpt>
      <trkpt lat="44.46542" lon="1.8568">
        <ele>204</ele>
        <time>2020-06-24T06:56:40Z</time>
      </trkpt>
      <trkpt lat="44.46551" lon="1.85687">
        <ele>204.6</ele>
        <time>2020-06-24T06:56:46Z</time>
      </trkpt>
      <trkpt lat="44.46552" lon="1.85688">
        <ele>205</ele>
        <time>2020-06-24T06:56:47Z</time>
      </trkpt>
      <trkpt lat="44.46554" lon="1.85689">
        <ele>205.4</ele>
        <time>2020-06-24T06:56:48Z</time>
      </trkpt>
      <trkpt lat="44.46555" lon="1.85691">
        <ele>205.8</ele>
        <time>2020-06-24T06:56:49Z</time>
      </trkpt>
      <trkpt lat="44.46557" lon="1.85692">
        <ele>206.4</ele>
        <time>2020-06-24T06:56:50Z</time>
      </trkpt>
      <trkpt lat="44.46559" lon="1.85695">
        <ele>206.4</ele>
        <time>2020-06-24T06:56:52Z</time>
      </trkpt>
      <trkpt lat="44.46562" lon="1.85697">
        <ele>206.8</ele>
        <time>2020-06-24T06:56:54Z</time>
      </trkpt>
      <trkpt lat="44.46563" lon="1.85698">
        <ele>207.2</ele>
        <time>2020-06-24T06:56:55Z</time>
      </trkpt>
      <trkpt lat="44.46564" lon="1.857">
        <ele>208</ele>
        <time>2020-06-24T06:56:56Z</time>
      </trkpt>
      <trkpt lat="44.46565" lon="1.85701">
        <ele>208.4</ele>
        <time>2020-06-24T06:56:57Z</time>
      </trkpt>
      <trkpt lat="44.46569" lon="1.85705">
        <ele>208.4</ele>
        <time>2020-06-24T06:57:00Z</time>
      </trkpt>
      <trkpt lat="44.4657" lon="1.85707">
        <ele>208.8</ele>
        <time>2020-06-24T06:57:01Z</time>
      </trkpt>
      <trkpt lat="44.46571" lon="1.85708">
        <ele>209.2</ele>
        <time>2020-06-24T06:57:02Z</time>
      </trkpt>
      <trkpt lat="44.46572" lon="1.8571">
        <ele>209.8</ele>
        <time>2020-06-24T06:57:03Z</time>
      </trkpt>
      <trkpt lat="44.46572" lon="1.85712">
        <ele>210.2</ele>
        <time>2020-06-24T06:57:04Z</time>
      </trkpt>
      <trkpt lat="44.46573" lon="1.85714">
        <ele>210.6</ele>
        <time>2020-06-24T06:57:05Z</time>
      </trkpt>
      <trkpt lat="44.46575" lon="1.8572">
        <ele>210.6</ele>
        <time>2020-06-24T06:57:09Z</time>
      </trkpt>
      <trkpt lat="44.46576" lon="1.85722">
        <ele>211</ele>
        <time>2020-06-24T06:57:10Z</time>
      </trkpt>
      <trkpt lat="44.46576" lon="1.85724">
        <ele>211.6</ele>
        <time>2020-06-24T06:57:11Z</time>
      </trkpt>
      <trkpt lat="44.46577" lon="1.85725">
        <ele>212</ele>
        <time>2020-06-24T06:57:12Z</time>
      </trkpt>
      <trkpt lat="44.46578" lon="1.85727">
        <ele>212.4</ele>
        <time>2020-06-24T06:57:13Z</time>
      </trkpt>
      <trkpt lat="44.46579" lon="1.85729">
        <ele>212.8</ele>
        <time>2020-06-24T06:57:14Z</time>
      </trkpt>
      <trkpt lat="44.46581" lon="1.85734">
        <ele>212.8</ele>
        <time>2020-06-24T06:57:17Z</time>
      </trkpt>
      <trkpt lat="44.46582" lon="1.85737">
        <ele>213.2</ele>
        <time>2020-06-24T06:57:19Z</time>
      </trkpt>
      <trkpt lat="44.46583" lon="1.85739">
        <ele>213.8</ele>
        <time>2020-06-24T06:57:20Z</time>
      </trkpt>
      <trkpt lat="44.46583" lon="1.85741">
        <ele>214.2</ele>
        <time>2020-06-24T06:57:21Z</time>
      </trkpt>
      <trkpt lat="44.46584" lon="1.85743">
        <ele>215</ele>
        <time>2020-06-24T06:57:22Z</time>
      </trkpt>
      <trkpt lat="44.46586" lon="1.85748">
        <ele>215</ele>
        <time>2020-06-24T06:57:25Z</time>
      </trkpt>
      <trkpt lat="44.46587" lon="1.8575">
        <ele>215.4</ele>
        <time>2020-06-24T06:57:26Z</time>
      </trkpt>
      <trkpt lat="44.46587" lon="1.85752">
        <ele>216</ele>
        <time>2020-06-24T06:57:27Z</time>
      </trkpt>
      <trkpt lat="44.46588" lon="1.85753">
        <ele>216.4</ele>
        <time>2020-06-24T06:57:28Z</time>
      </trkpt>
      <trkpt lat="44.46588" lon="1.85755">
        <ele>216.8</ele>
        <time>2020-06-24T06:57:29Z</time>
      </trkpt>
      <trkpt lat="44.46589" lon="1.85757">
        <ele>217.2</ele>
        <time>2020-06-24T06:57:30Z</time>
      </trkpt>
      <trkpt lat="44.4659" lon="1.85761">
        <ele>217.2</ele>
        <time>2020-06-24T06:57:32Z</time>
      </trkpt>
      <trkpt lat="44.46592" lon="1.85764">
        <ele>217.6</ele>
        <time>2020-06-24T06:57:34Z</time>
      </trkpt>
      <trkpt lat="44.46592" lon="1.85766">
        <ele>218.2</ele>
        <time>2020-06-24T06:57:35Z</time>
      </trkpt>
      <trkpt lat="44.46593" lon="1.85768">
        <ele>218.6</ele>
        <time>2020-06-24T06:57:36Z</time>
      </trkpt>
      <trkpt lat="44.46594" lon="1.8577">
        <ele>219</ele>
        <time>2020-06-24T06:57:37Z</time>
      </trkpt>
      <trkpt lat="44.46594" lon="1.85771">
        <ele>219.6</ele>
        <time>2020-06-24T06:57:38Z</time>
      </trkpt>
      <trkpt lat="44.46595" lon="1.85775">
        <ele>219.6</ele>
        <time>2020-06-24T06:57:40Z</time>
      </trkpt>
      <trkpt lat="44.46595" lon="1.85777">
        <ele>220</ele>
        <time>2020-06-24T06:57:41Z</time>
      </trkpt>
      <trkpt lat="44.46594" lon="1.85779">
        <ele>220.4</ele>
        <time>2020-06-24T06:57:42Z</time>
      </trkpt>
      <trkpt lat="44.46594" lon="1.85781">
        <ele>220.8</ele>
        <time>2020-06-24T06:57:43Z</time>
      </trkpt>
      <trkpt lat="44.46594" lon="1.85782">
        <ele>221.2</ele>
        <time>2020-06-24T06:57:44Z</time>
      </trkpt>
      <trkpt lat="44.46594" lon="1.85783">
        <ele>221.6</ele>
        <time>2020-06-24T06:57:45Z</time>
      </trkpt>
      <trkpt lat="44.46595" lon="1.85787">
        <ele>222</ele>
        <time>2020-06-24T06:57:47Z</time>
      </trkpt>
      <trkpt lat="44.46595" lon="1.85789">
        <ele>222.4</ele>
        <time>2020-06-24T06:57:48Z</time>
      </trkpt>
      <trkpt lat="44.46594" lon="1.8579">
        <ele>222.8</ele>
        <time>2020-06-24T06:57:49Z</time>
      </trkpt>
      <trkpt lat="44.46594" lon="1.85792">
        <ele>223.2</ele>
        <time>2020-06-24T06:57:50Z</time>
      </trkpt>
      <trkpt lat="44.46594" lon="1.85794">
        <ele>223.6</ele>
        <time>2020-06-24T06:57:51Z</time>
      </trkpt>
      <trkpt lat="44.46594" lon="1.85798">
        <ele>224</ele>
        <time>2020-06-24T06:57:53Z</time>
      </trkpt>
      <trkpt lat="44.46594" lon="1.858">
        <ele>224.4</ele>
        <time>2020-06-24T06:57:54Z</time>
      </trkpt>
      <trkpt lat="44.46594" lon="1.85802">
        <ele>224.8</ele>
        <time>2020-06-24T06:57:55Z</time>
      </trkpt>
      <trkpt lat="44.46594" lon="1.85803">
        <ele>225.2</ele>
        <time>2020-06-24T06:57:56Z</time>
      </trkpt>
      <trkpt lat="44.46595" lon="1.85805">
        <ele>225.6</ele>
        <time>2020-06-24T06:57:57Z</time>
      </trkpt>
      <trkpt lat="44.46595" lon="1.85807">
        <ele>226.2</ele>
        <time>2020-06-24T06:57:58Z</time>
      </trkpt>
      <trkpt lat="44.46594" lon="1.85809">
        <ele>226.6</ele>
        <time>2020-06-24T06:57:59Z</time>
      </trkpt>
      <trkpt lat="44.46594" lon="1.8581">
        <ele>227</ele>
        <time>2020-06-24T06:58:00Z</time>
      </trkpt>
      <trkpt lat="44.46594" lon="1.85811">
        <ele>227.6</ele>
        <time>2020-06-24T06:58:01Z</time>
      </trkpt>
      <trkpt lat="44.46593" lon="1.85813">
        <ele>228</ele>
        <time>2020-06-24T06:58:02Z</time>
      </trkpt>
      <trkpt lat="44.46589" lon="1.8582">
        <ele>228</ele>
        <time>2020-06-24T06:58:07Z</time>
      </trkpt>
      <trkpt lat="44.46587" lon="1.85826">
        <ele>228.4</ele>
        <time>2020-06-24T06:58:10Z</time>
      </trkpt>
      <trkpt lat="44.46587" lon="1.85827">
        <ele>229.2</ele>
        <time>2020-06-24T06:58:11Z</time>
      </trkpt>
      <trkpt lat="44.46587" lon="1.85829">
        <ele>229.6</ele>
        <time>2020-06-24T06:58:12Z</time>
      </trkpt>
      <trkpt lat="44.46587" lon="1.85831">
        <ele>230</ele>
        <time>2020-06-24T06:58:13Z</time>
      </trkpt>
      <trkpt lat="44.46587" lon="1.85835">
        <ele>230</ele>
        <time>2020-06-24T06:58:15Z</time>
      </trkpt>
      <trkpt lat="44.46586" lon="1.85838">
        <ele>230</ele>
        <time>2020-06-24T06:58:17Z</time>
      </trkpt>
      <trkpt lat="44.46584" lon="1.85843">
        <ele>230.4</ele>
        <time>2020-06-24T06:58:20Z</time>
      </trkpt>
      <trkpt lat="44.46583" lon="1.85845">
        <ele>230.8</ele>
        <time>2020-06-24T06:58:21Z</time>
      </trkpt>
      <trkpt lat="44.46582" lon="1.85847">
        <ele>231.2</ele>
        <time>2020-06-24T06:58:22Z</time>
      </trkpt>
      <trkpt lat="44.46581" lon="1.85848">
        <ele>231.6</ele>
        <time>2020-06-24T06:58:23Z</time>
      </trkpt>
      <trkpt lat="44.46581" lon="1.8585">
        <ele>232</ele>
        <time>2020-06-24T06:58:24Z</time>
      </trkpt>
      <trkpt lat="44.46578" lon="1.85858">
        <ele>232</ele>
        <time>2020-06-24T06:58:29Z</time>
      </trkpt>
      <trkpt lat="44.46576" lon="1.85862">
        <ele>232.4</ele>
        <time>2020-06-24T06:58:32Z</time>
      </trkpt>
      <trkpt lat="44.46575" lon="1.85864">
        <ele>232.8</ele>
        <time>2020-06-24T06:58:33Z</time>
      </trkpt>
      <trkpt lat="44.46575" lon="1.85866">
        <ele>233.2</ele>
        <time>2020-06-24T06:58:34Z</time>
      </trkpt>
      <trkpt lat="44.46574" lon="1.85867">
        <ele>234.2</ele>
        <time>2020-06-24T06:58:35Z</time>
      </trkpt>
      <trkpt lat="44.46573" lon="1.85873">
        <ele>234.2</ele>
        <time>2020-06-24T06:58:38Z</time>
      </trkpt>
      <trkpt lat="44.46572" lon="1.85879">
        <ele>234.6</ele>
        <time>2020-06-24T06:58:42Z</time>
      </trkpt>
      <trkpt lat="44.46572" lon="1.85882">
        <ele>235</ele>
        <time>2020-06-24T06:58:43Z</time>
      </trkpt>
      <trkpt lat="44.46571" lon="1.85884">
        <ele>235.4</ele>
        <time>2020-06-24T06:58:44Z</time>
      </trkpt>
      <trkpt lat="44.46571" lon="1.85887">
        <ele>235.8</ele>
        <time>2020-06-24T06:58:45Z</time>
      </trkpt>
      <trkpt lat="44.46571" lon="1.85889">
        <ele>236.2</ele>
        <time>2020-06-24T06:58:46Z</time>
      </trkpt>
      <trkpt lat="44.46568" lon="1.85899">
        <ele>236.2</ele>
        <time>2020-06-24T06:58:51Z</time>
      </trkpt>
      <trkpt lat="44.46567" lon="1.85906">
        <ele>236.6</ele>
        <time>2020-06-24T06:58:54Z</time>
      </trkpt>
      <trkpt lat="44.46566" lon="1.85909">
        <ele>237</ele>
        <time>2020-06-24T06:58:55Z</time>
      </trkpt>
      <trkpt lat="44.46566" lon="1.85911">
        <ele>237.4</ele>
        <time>2020-06-24T06:58:56Z</time>
      </trkpt>
      <trkpt lat="44.46566" lon="1.85914">
        <ele>237.8</ele>
        <time>2020-06-24T06:58:57Z</time>
      </trkpt>
      <trkpt lat="44.46566" lon="1.85916">
        <ele>238.4</ele>
        <time>2020-06-24T06:58:58Z</time>
      </trkpt>
      <trkpt lat="44.46566" lon="1.85918">
        <ele>238.4</ele>
        <time>2020-06-24T06:58:59Z</time>
      </trkpt>
      <trkpt lat="44.46566" lon="1.85927">
        <ele>238.8</ele>
        <time>2020-06-24T06:59:03Z</time>
      </trkpt>
      <trkpt lat="44.46566" lon="1.85928">
        <ele>239.2</ele>
        <time>2020-06-24T06:59:04Z</time>
      </trkpt>
      <trkpt lat="44.46566" lon="1.8593">
        <ele>239.6</ele>
        <time>2020-06-24T06:59:05Z</time>
      </trkpt>
      <trkpt lat="44.46566" lon="1.85932">
        <ele>240</ele>
        <time>2020-06-24T06:59:06Z</time>
      </trkpt>
      <trkpt lat="44.46566" lon="1.85935">
        <ele>240.6</ele>
        <time>2020-06-24T06:59:07Z</time>
      </trkpt>
      <trkpt lat="44.46561" lon="1.85945">
        <ele>241</ele>
        <time>2020-06-24T06:59:12Z</time>
      </trkpt>
      <trkpt lat="44.4656" lon="1.85946">
        <ele>241.4</ele>
        <time>2020-06-24T06:59:13Z</time>
      </trkpt>
      <trkpt lat="44.4656" lon="1.85948">
        <ele>241.8</ele>
        <time>2020-06-24T06:59:14Z</time>
      </trkpt>
      <trkpt lat="44.46559" lon="1.8595">
        <ele>242.2</ele>
        <time>2020-06-24T06:59:15Z</time>
      </trkpt>
      <trkpt lat="44.46558" lon="1.85952">
        <ele>242.6</ele>
        <time>2020-06-24T06:59:16Z</time>
      </trkpt>
      <trkpt lat="44.46554" lon="1.85958">
        <ele>242.6</ele>
        <time>2020-06-24T06:59:19Z</time>
      </trkpt>
      <trkpt lat="44.46551" lon="1.85964">
        <ele>243</ele>
        <time>2020-06-24T06:59:22Z</time>
      </trkpt>
      <trkpt lat="44.4655" lon="1.85966">
        <ele>243.4</ele>
        <time>2020-06-24T06:59:23Z</time>
      </trkpt>
      <trkpt lat="44.46549" lon="1.85968">
        <ele>244</ele>
        <time>2020-06-24T06:59:24Z</time>
      </trkpt>
      <trkpt lat="44.46548" lon="1.8597">
        <ele>244.8</ele>
        <time>2020-06-24T06:59:25Z</time>
      </trkpt>
      <trkpt lat="44.46547" lon="1.85971">
        <ele>244.8</ele>
        <time>2020-06-24T06:59:26Z</time>
      </trkpt>
      <trkpt lat="44.46542" lon="1.8598">
        <ele>245.2</ele>
        <time>2020-06-24T06:59:31Z</time>
      </trkpt>
      <trkpt lat="44.46541" lon="1.85981">
        <ele>245.6</ele>
        <time>2020-06-24T06:59:32Z</time>
      </trkpt>
      <trkpt lat="44.4654" lon="1.85984">
        <ele>246</ele>
        <time>2020-06-24T06:59:33Z</time>
      </trkpt>
      <trkpt lat="44.4654" lon="1.85986">
        <ele>246.6</ele>
        <time>2020-06-24T06:59:34Z</time>
      </trkpt>
      <trkpt lat="44.46539" lon="1.85988">
        <ele>247</ele>
        <time>2020-06-24T06:59:35Z</time>
      </trkpt>
      <trkpt lat="44.46534" lon="1.86001">
        <ele>247</ele>
        <time>2020-06-24T06:59:41Z</time>
      </trkpt>
      <trkpt lat="44.46533" lon="1.86005">
        <ele>247.4</ele>
        <time>2020-06-24T06:59:43Z</time>
      </trkpt>
      <trkpt lat="44.46533" lon="1.86008">
        <ele>247.8</ele>
        <time>2020-06-24T06:59:44Z</time>
      </trkpt>
      <trkpt lat="44.46532" lon="1.8601">
        <ele>248.4</ele>
        <time>2020-06-24T06:59:45Z</time>
      </trkpt>
      <trkpt lat="44.46531" lon="1.86012">
        <ele>248.8</ele>
        <time>2020-06-24T06:59:46Z</time>
      </trkpt>
      <trkpt lat="44.46531" lon="1.86014">
        <ele>249.2</ele>
        <time>2020-06-24T06:59:47Z</time>
      </trkpt>
      <trkpt lat="44.46529" lon="1.86018">
        <ele>249.2</ele>
        <time>2020-06-24T06:59:49Z</time>
      </trkpt>
      <trkpt lat="44.46527" lon="1.86025">
        <ele>249.6</ele>
        <time>2020-06-24T06:59:52Z</time>
      </trkpt>
      <trkpt lat="44.46527" lon="1.86027">
        <ele>250</ele>
        <time>2020-06-24T06:59:53Z</time>
      </trkpt>
      <trkpt lat="44.46526" lon="1.86029">
        <ele>250.4</ele>
        <time>2020-06-24T06:59:54Z</time>
      </trkpt>
      <trkpt lat="44.46526" lon="1.86031">
        <ele>250.8</ele>
        <time>2020-06-24T06:59:55Z</time>
      </trkpt>
      <trkpt lat="44.46526" lon="1.86033">
        <ele>251.2</ele>
        <time>2020-06-24T06:59:56Z</time>
      </trkpt>
      <trkpt lat="44.4652" lon="1.86044">
        <ele>251.8</ele>
        <time>2020-06-24T07:00:02Z</time>
      </trkpt>
      <trkpt lat="44.46519" lon="1.86046">
        <ele>252.2</ele>
        <time>2020-06-24T07:00:03Z</time>
      </trkpt>
      <trkpt lat="44.46518" lon="1.86048">
        <ele>252.6</ele>
        <time>2020-06-24T07:00:04Z</time>
      </trkpt>
      <trkpt lat="44.46517" lon="1.8605">
        <ele>253</ele>
        <time>2020-06-24T07:00:05Z</time>
      </trkpt>
      <trkpt lat="44.46516" lon="1.86052">
        <ele>253.6</ele>
        <time>2020-06-24T07:00:06Z</time>
      </trkpt>
      <trkpt lat="44.46512" lon="1.86061">
        <ele>254</ele>
        <time>2020-06-24T07:00:10Z</time>
      </trkpt>
      <trkpt lat="44.46511" lon="1.86062">
        <ele>254.4</ele>
        <time>2020-06-24T07:00:11Z</time>
      </trkpt>
      <trkpt lat="44.4651" lon="1.86063">
        <ele>254.8</ele>
        <time>2020-06-24T07:00:12Z</time>
      </trkpt>
      <trkpt lat="44.46508" lon="1.86065">
        <ele>255.2</ele>
        <time>2020-06-24T07:00:13Z</time>
      </trkpt>
      <trkpt lat="44.46507" lon="1.86066">
        <ele>255.6</ele>
        <time>2020-06-24T07:00:14Z</time>
      </trkpt>
      <trkpt lat="44.46502" lon="1.86072">
        <ele>256</ele>
        <time>2020-06-24T07:00:18Z</time>
      </trkpt>
      <trkpt lat="44.465" lon="1.86073">
        <ele>256.4</ele>
        <time>2020-06-24T07:00:19Z</time>
      </trkpt>
      <trkpt lat="44.46498" lon="1.86074">
        <ele>256.8</ele>
        <time>2020-06-24T07:00:20Z</time>
      </trkpt>
      <trkpt lat="44.46497" lon="1.86075">
        <ele>257.2</ele>
        <time>2020-06-24T07:00:21Z</time>
      </trkpt>
      <trkpt lat="44.46495" lon="1.86076">
        <ele>257.6</ele>
        <time>2020-06-24T07:00:22Z</time>
      </trkpt>
      <trkpt lat="44.46486" lon="1.8608">
        <ele>257.6</ele>
        <time>2020-06-24T07:00:27Z</time>
      </trkpt>
      <trkpt lat="44.46477" lon="1.86084">
        <ele>258.2</ele>
        <time>2020-06-24T07:00:33Z</time>
      </trkpt>
      <trkpt lat="44.46475" lon="1.86085">
        <ele>258.6</ele>
        <time>2020-06-24T07:00:34Z</time>
      </trkpt>
      <trkpt lat="44.46474" lon="1.86086">
        <ele>259</ele>
        <time>2020-06-24T07:00:35Z</time>
      </trkpt>
      <trkpt lat="44.46472" lon="1.86087">
        <ele>259.4</ele>
        <time>2020-06-24T07:00:36Z</time>
      </trkpt>
      <trkpt lat="44.4647" lon="1.86088">
        <ele>259.8</ele>
        <time>2020-06-24T07:00:37Z</time>
      </trkpt>
      <trkpt lat="44.46465" lon="1.86091">
        <ele>260.2</ele>
        <time>2020-06-24T07:00:41Z</time>
      </trkpt>
      <trkpt lat="44.46463" lon="1.86092">
        <ele>260.6</ele>
        <time>2020-06-24T07:00:42Z</time>
      </trkpt>
      <trkpt lat="44.46461" lon="1.86093">
        <ele>261</ele>
        <time>2020-06-24T07:00:43Z</time>
      </trkpt>
      <trkpt lat="44.4646" lon="1.86094">
        <ele>261.4</ele>
        <time>2020-06-24T07:00:44Z</time>
      </trkpt>
      <trkpt lat="44.46458" lon="1.86095">
        <ele>261.8</ele>
        <time>2020-06-24T07:00:45Z</time>
      </trkpt>
      <trkpt lat="44.46447" lon="1.86102">
        <ele>261.8</ele>
        <time>2020-06-24T07:00:52Z</time>
      </trkpt>
      <trkpt lat="44.46445" lon="1.86103">
        <ele>262.2</ele>
        <time>2020-06-24T07:00:53Z</time>
      </trkpt>
      <trkpt lat="44.46444" lon="1.86104">
        <ele>262.6</ele>
        <time>2020-06-24T07:00:54Z</time>
      </trkpt>
      <trkpt lat="44.46442" lon="1.86105">
        <ele>263</ele>
        <time>2020-06-24T07:00:55Z</time>
      </trkpt>
      <trkpt lat="44.4644" lon="1.86105">
        <ele>263.6</ele>
        <time>2020-06-24T07:00:56Z</time>
      </trkpt>
      <trkpt lat="44.46439" lon="1.86106">
        <ele>264</ele>
        <time>2020-06-24T07:00:57Z</time>
      </trkpt>
      <trkpt lat="44.46437" lon="1.86108">
        <ele>264</ele>
        <time>2020-06-24T07:00:58Z</time>
      </trkpt>
      <trkpt lat="44.4643" lon="1.86114">
        <ele>264.4</ele>
        <time>2020-06-24T07:01:03Z</time>
      </trkpt>
      <trkpt lat="44.46428" lon="1.86115">
        <ele>264.8</ele>
        <time>2020-06-24T07:01:04Z</time>
      </trkpt>
      <trkpt lat="44.46427" lon="1.86116">
        <ele>265.2</ele>
        <time>2020-06-24T07:01:05Z</time>
      </trkpt>
      <trkpt lat="44.46425" lon="1.86118">
        <ele>265.6</ele>
        <time>2020-06-24T07:01:06Z</time>
      </trkpt>
      <trkpt lat="44.46424" lon="1.86119">
        <ele>266.2</ele>
        <time>2020-06-24T07:01:07Z</time>
      </trkpt>
      <trkpt lat="44.46416" lon="1.86128">
        <ele>266.6</ele>
        <time>2020-06-24T07:01:13Z</time>
      </trkpt>
      <trkpt lat="44.46415" lon="1.86129">
        <ele>267</ele>
        <time>2020-06-24T07:01:14Z</time>
      </trkpt>
      <trkpt lat="44.46413" lon="1.86131">
        <ele>267.4</ele>
        <time>2020-06-24T07:01:15Z</time>
      </trkpt>
      <trkpt lat="44.46412" lon="1.86132">
        <ele>267.8</ele>
        <time>2020-06-24T07:01:16Z</time>
      </trkpt>
      <trkpt lat="44.46411" lon="1.86133">
        <ele>268.2</ele>
        <time>2020-06-24T07:01:17Z</time>
      </trkpt>
      <trkpt lat="44.46405" lon="1.86139">
        <ele>268.6</ele>
        <time>2020-06-24T07:01:21Z</time>
      </trkpt>
      <trkpt lat="44.46404" lon="1.8614">
        <ele>269</ele>
        <time>2020-06-24T07:01:22Z</time>
      </trkpt>
      <trkpt lat="44.46402" lon="1.86141">
        <ele>269.4</ele>
        <time>2020-06-24T07:01:23Z</time>
      </trkpt>
      <trkpt lat="44.46401" lon="1.86142">
        <ele>269.8</ele>
        <time>2020-06-24T07:01:24Z</time>
      </trkpt>
      <trkpt lat="44.464" lon="1.86143">
        <ele>270.2</ele>
        <time>2020-06-24T07:01:25Z</time>
      </trkpt>
      <trkpt lat="44.46398" lon="1.86144">
        <ele>270.2</ele>
        <time>2020-06-24T07:01:26Z</time>
      </trkpt>
      <trkpt lat="44.46395" lon="1.86146">
        <ele>270.6</ele>
        <time>2020-06-24T07:01:28Z</time>
      </trkpt>
      <trkpt lat="44.46394" lon="1.86147">
        <ele>271.2</ele>
        <time>2020-06-24T07:01:29Z</time>
      </trkpt>
      <trkpt lat="44.46392" lon="1.86147">
        <ele>271.6</ele>
        <time>2020-06-24T07:01:30Z</time>
      </trkpt>
      <trkpt lat="44.46391" lon="1.86148">
        <ele>272</ele>
        <time>2020-06-24T07:01:31Z</time>
      </trkpt>
      <trkpt lat="44.4639" lon="1.86149">
        <ele>272.4</ele>
        <time>2020-06-24T07:01:32Z</time>
      </trkpt>
      <trkpt lat="44.46389" lon="1.8615">
        <ele>272.4</ele>
        <time>2020-06-24T07:01:33Z</time>
      </trkpt>
      <trkpt lat="44.46384" lon="1.86154">
        <ele>272.8</ele>
        <time>2020-06-24T07:01:37Z</time>
      </trkpt>
      <trkpt lat="44.46383" lon="1.86155">
        <ele>273.2</ele>
        <time>2020-06-24T07:01:38Z</time>
      </trkpt>
      <trkpt lat="44.46381" lon="1.86156">
        <ele>273.8</ele>
        <time>2020-06-24T07:01:39Z</time>
      </trkpt>
      <trkpt lat="44.46379" lon="1.86156">
        <ele>274.2</ele>
        <time>2020-06-24T07:01:40Z</time>
      </trkpt>
      <trkpt lat="44.46378" lon="1.86157">
        <ele>274.6</ele>
        <time>2020-06-24T07:01:41Z</time>
      </trkpt>
      <trkpt lat="44.46373" lon="1.86159">
        <ele>275</ele>
        <time>2020-06-24T07:01:45Z</time>
      </trkpt>
      <trkpt lat="44.46371" lon="1.8616">
        <ele>275.4</ele>
        <time>2020-06-24T07:01:46Z</time>
      </trkpt>
      <trkpt lat="44.4637" lon="1.8616">
        <ele>275.8</ele>
        <time>2020-06-24T07:01:47Z</time>
      </trkpt>
      <trkpt lat="44.46368" lon="1.86161">
        <ele>276.2</ele>
        <time>2020-06-24T07:01:48Z</time>
      </trkpt>
      <trkpt lat="44.46367" lon="1.86161">
        <ele>276.8</ele>
        <time>2020-06-24T07:01:49Z</time>
      </trkpt>
      <trkpt lat="44.46362" lon="1.86165">
        <ele>277.2</ele>
        <time>2020-06-24T07:01:53Z</time>
      </trkpt>
      <trkpt lat="44.46361" lon="1.86166">
        <ele>277.6</ele>
        <time>2020-06-24T07:01:54Z</time>
      </trkpt>
      <trkpt lat="44.4636" lon="1.86168">
        <ele>278</ele>
        <time>2020-06-24T07:01:55Z</time>
      </trkpt>
      <trkpt lat="44.46359" lon="1.86169">
        <ele>278.4</ele>
        <time>2020-06-24T07:01:56Z</time>
      </trkpt>
      <trkpt lat="44.46357" lon="1.8617">
        <ele>278.8</ele>
        <time>2020-06-24T07:01:57Z</time>
      </trkpt>
      <trkpt lat="44.46352" lon="1.86175">
        <ele>279.2</ele>
        <time>2020-06-24T07:02:01Z</time>
      </trkpt>
      <trkpt lat="44.46351" lon="1.86176">
        <ele>279.6</ele>
        <time>2020-06-24T07:02:02Z</time>
      </trkpt>
      <trkpt lat="44.4635" lon="1.86177">
        <ele>280</ele>
        <time>2020-06-24T07:02:03Z</time>
      </trkpt>
      <trkpt lat="44.46349" lon="1.86179">
        <ele>280.4</ele>
        <time>2020-06-24T07:02:04Z</time>
      </trkpt>
      <trkpt lat="44.46348" lon="1.8618">
        <ele>280.8</ele>
        <time>2020-06-24T07:02:05Z</time>
      </trkpt>
      <trkpt lat="44.46345" lon="1.86188">
        <ele>281.4</ele>
        <time>2020-06-24T07:02:09Z</time>
      </trkpt>
      <trkpt lat="44.46344" lon="1.8619">
        <ele>281.8</ele>
        <time>2020-06-24T07:02:10Z</time>
      </trkpt>
      <trkpt lat="44.46344" lon="1.86191">
        <ele>282.2</ele>
        <time>2020-06-24T07:02:11Z</time>
      </trkpt>
      <trkpt lat="44.46343" lon="1.86192">
        <ele>282.6</ele>
        <time>2020-06-24T07:02:12Z</time>
      </trkpt>
      <trkpt lat="44.46343" lon="1.86195">
        <ele>283.2</ele>
        <time>2020-06-24T07:02:13Z</time>
      </trkpt>
      <trkpt lat="44.46343" lon="1.86202">
        <ele>283.6</ele>
        <time>2020-06-24T07:02:16Z</time>
      </trkpt>
      <trkpt lat="44.46343" lon="1.86204">
        <ele>284.4</ele>
        <time>2020-06-24T07:02:17Z</time>
      </trkpt>
      <trkpt lat="44.46343" lon="1.86206">
        <ele>284.8</ele>
        <time>2020-06-24T07:02:18Z</time>
      </trkpt>
      <trkpt lat="44.46345" lon="1.86207">
        <ele>285.2</ele>
        <time>2020-06-24T07:02:19Z</time>
      </trkpt>
      <trkpt lat="44.46348" lon="1.86211">
        <ele>285.2</ele>
        <time>2020-06-24T07:02:22Z</time>
      </trkpt>
      <trkpt lat="44.4635" lon="1.86214">
        <ele>285.6</ele>
        <time>2020-06-24T07:02:24Z</time>
      </trkpt>
      <trkpt lat="44.46351" lon="1.86215">
        <ele>286</ele>
        <time>2020-06-24T07:02:25Z</time>
      </trkpt>
      <trkpt lat="44.46351" lon="1.86216">
        <ele>286.6</ele>
        <time>2020-06-24T07:02:26Z</time>
      </trkpt>
      <trkpt lat="44.46351" lon="1.86217">
        <ele>287</ele>
        <time>2020-06-24T07:02:27Z</time>
      </trkpt>
      <trkpt lat="44.46351" lon="1.86218">
        <ele>287.4</ele>
        <time>2020-06-24T07:02:28Z</time>
      </trkpt>
      <trkpt lat="44.4635" lon="1.86218">
        <ele>287.4</ele>
        <time>2020-06-24T07:02:29Z</time>
      </trkpt>
      <trkpt lat="44.46347" lon="1.86217">
        <ele>287.4</ele>
        <time>2020-06-24T07:02:32Z</time>
      </trkpt>
      <trkpt lat="44.46344" lon="1.86217">
        <ele>287.4</ele>
        <time>2020-06-24T07:02:34Z</time>
      </trkpt>
      <trkpt lat="44.46339" lon="1.86216">
        <ele>287.4</ele>
        <time>2020-06-24T07:02:40Z</time>
      </trkpt>
      <trkpt lat="44.46338" lon="1.86216">
        <ele>287.4</ele>
        <time>2020-06-24T07:02:41Z</time>
      </trkpt>
      <trkpt lat="44.46334" lon="1.86215">
        <ele>287.8</ele>
        <time>2020-06-24T07:02:45Z</time>
      </trkpt>
      <trkpt lat="44.46333" lon="1.86214">
        <ele>288.2</ele>
        <time>2020-06-24T07:02:46Z</time>
      </trkpt>
      <trkpt lat="44.46332" lon="1.86214">
        <ele>288.6</ele>
        <time>2020-06-24T07:02:47Z</time>
      </trkpt>
      <trkpt lat="44.46331" lon="1.86213">
        <ele>289</ele>
        <time>2020-06-24T07:02:48Z</time>
      </trkpt>
      <trkpt lat="44.4633" lon="1.86213">
        <ele>289.4</ele>
        <time>2020-06-24T07:02:49Z</time>
      </trkpt>
      <trkpt lat="44.46324" lon="1.86212">
        <ele>289.4</ele>
        <time>2020-06-24T07:02:54Z</time>
      </trkpt>
      <trkpt lat="44.46314" lon="1.8621">
        <ele>290</ele>
        <time>2020-06-24T07:03:03Z</time>
      </trkpt>
      <trkpt lat="44.46312" lon="1.86209">
        <ele>290.4</ele>
        <time>2020-06-24T07:03:04Z</time>
      </trkpt>
      <trkpt lat="44.46311" lon="1.86208">
        <ele>290.8</ele>
        <time>2020-06-24T07:03:05Z</time>
      </trkpt>
      <trkpt lat="44.4631" lon="1.86208">
        <ele>291.2</ele>
        <time>2020-06-24T07:03:06Z</time>
      </trkpt>
      <trkpt lat="44.46309" lon="1.86208">
        <ele>291.6</ele>
        <time>2020-06-24T07:03:07Z</time>
      </trkpt>
      <trkpt lat="44.46307" lon="1.86208">
        <ele>291.6</ele>
        <time>2020-06-24T07:03:08Z</time>
      </trkpt>
      <trkpt lat="44.46299" lon="1.86208">
        <ele>292</ele>
        <time>2020-06-24T07:03:13Z</time>
      </trkpt>
      <trkpt lat="44.46298" lon="1.86208">
        <ele>292.4</ele>
        <time>2020-06-24T07:03:14Z</time>
      </trkpt>
      <trkpt lat="44.46296" lon="1.86207">
        <ele>292.8</ele>
        <time>2020-06-24T07:03:15Z</time>
      </trkpt>
      <trkpt lat="44.46295" lon="1.86207">
        <ele>293.2</ele>
        <time>2020-06-24T07:03:16Z</time>
      </trkpt>
      <trkpt lat="44.46294" lon="1.86207">
        <ele>293.6</ele>
        <time>2020-06-24T07:03:17Z</time>
      </trkpt>
      <trkpt lat="44.46282" lon="1.86209">
        <ele>293.6</ele>
        <time>2020-06-24T07:03:24Z</time>
      </trkpt>
      <trkpt lat="44.46279" lon="1.86209">
        <ele>294</ele>
        <time>2020-06-24T07:03:26Z</time>
      </trkpt>
      <trkpt lat="44.46278" lon="1.86209">
        <ele>294.4</ele>
        <time>2020-06-24T07:03:27Z</time>
      </trkpt>
      <trkpt lat="44.46276" lon="1.86209">
        <ele>294.8</ele>
        <time>2020-06-24T07:03:28Z</time>
      </trkpt>
      <trkpt lat="44.46275" lon="1.8621">
        <ele>295.2</ele>
        <time>2020-06-24T07:03:29Z</time>
      </trkpt>
      <trkpt lat="44.46273" lon="1.8621">
        <ele>295.6</ele>
        <time>2020-06-24T07:03:30Z</time>
      </trkpt>
      <trkpt lat="44.4627" lon="1.8621">
        <ele>295.6</ele>
        <time>2020-06-24T07:03:32Z</time>
      </trkpt>
      <trkpt lat="44.46264" lon="1.8621">
        <ele>296</ele>
        <time>2020-06-24T07:03:36Z</time>
      </trkpt>
      <trkpt lat="44.46263" lon="1.86211">
        <ele>296.4</ele>
        <time>2020-06-24T07:03:37Z</time>
      </trkpt>
      <trkpt lat="44.46261" lon="1.86211">
        <ele>296.8</ele>
        <time>2020-06-24T07:03:38Z</time>
      </trkpt>
      <trkpt lat="44.46259" lon="1.86211">
        <ele>297.2</ele>
        <time>2020-06-24T07:03:39Z</time>
      </trkpt>
      <trkpt lat="44.46257" lon="1.86211">
        <ele>297.8</ele>
        <time>2020-06-24T07:03:40Z</time>
      </trkpt>
      <trkpt lat="44.46251" lon="1.86212">
        <ele>297.8</ele>
        <time>2020-06-24T07:03:44Z</time>
      </trkpt>
      <trkpt lat="44.46248" lon="1.86213">
        <ele>298.2</ele>
        <time>2020-06-24T07:03:46Z</time>
      </trkpt>
      <trkpt lat="44.46246" lon="1.86213">
        <ele>298.6</ele>
        <time>2020-06-24T07:03:47Z</time>
      </trkpt>
      <trkpt lat="44.46245" lon="1.86213">
        <ele>299</ele>
        <time>2020-06-24T07:03:48Z</time>
      </trkpt>
      <trkpt lat="44.46243" lon="1.86213">
        <ele>299.4</ele>
        <time>2020-06-24T07:03:49Z</time>
      </trkpt>
      <trkpt lat="44.46242" lon="1.86213">
        <ele>299.8</ele>
        <time>2020-06-24T07:03:50Z</time>
      </trkpt>
      <trkpt lat="44.4624" lon="1.86213">
        <ele>299.8</ele>
        <time>2020-06-24T07:03:51Z</time>
      </trkpt>
      <trkpt lat="44.46239" lon="1.86213">
        <ele>299.8</ele>
        <time>2020-06-24T07:03:52Z</time>
      </trkpt>
      <trkpt lat="44.46233" lon="1.86214">
        <ele>300.6</ele>
        <time>2020-06-24T07:03:56Z</time>
      </trkpt>
      <trkpt lat="44.46231" lon="1.86214">
        <ele>301</ele>
        <time>2020-06-24T07:03:57Z</time>
      </trkpt>
      <trkpt lat="44.4623" lon="1.86213">
        <ele>301.4</ele>
        <time>2020-06-24T07:03:58Z</time>
      </trkpt>
      <trkpt lat="44.46228" lon="1.86213">
        <ele>302</ele>
        <time>2020-06-24T07:03:59Z</time>
      </trkpt>
      <trkpt lat="44.46222" lon="1.86215">
        <ele>302.4</ele>
        <time>2020-06-24T07:04:03Z</time>
      </trkpt>
      <trkpt lat="44.4622" lon="1.86215">
        <ele>302.8</ele>
        <time>2020-06-24T07:04:04Z</time>
      </trkpt>
      <trkpt lat="44.46219" lon="1.86215">
        <ele>303.2</ele>
        <time>2020-06-24T07:04:05Z</time>
      </trkpt>
      <trkpt lat="44.46217" lon="1.86215">
        <ele>303.6</ele>
        <time>2020-06-24T07:04:06Z</time>
      </trkpt>
      <trkpt lat="44.46215" lon="1.86216">
        <ele>304</ele>
        <time>2020-06-24T07:04:07Z</time>
      </trkpt>
      <trkpt lat="44.46204" lon="1.86217">
        <ele>304.4</ele>
        <time>2020-06-24T07:04:13Z</time>
      </trkpt>
      <trkpt lat="44.46202" lon="1.86218">
        <ele>304.8</ele>
        <time>2020-06-24T07:04:14Z</time>
      </trkpt>
      <trkpt lat="44.46201" lon="1.86218">
        <ele>305.2</ele>
        <time>2020-06-24T07:04:15Z</time>
      </trkpt>
      <trkpt lat="44.46199" lon="1.86218">
        <ele>305.6</ele>
        <time>2020-06-24T07:04:16Z</time>
      </trkpt>
      <trkpt lat="44.46197" lon="1.86219">
        <ele>306</ele>
        <time>2020-06-24T07:04:17Z</time>
      </trkpt>
      <trkpt lat="44.46191" lon="1.86219">
        <ele>306</ele>
        <time>2020-06-24T07:04:20Z</time>
      </trkpt>
      <trkpt lat="44.46188" lon="1.8622">
        <ele>306.4</ele>
        <time>2020-06-24T07:04:22Z</time>
      </trkpt>
      <trkpt lat="44.46186" lon="1.8622">
        <ele>306.8</ele>
        <time>2020-06-24T07:04:23Z</time>
      </trkpt>
      <trkpt lat="44.46184" lon="1.8622">
        <ele>307.2</ele>
        <time>2020-06-24T07:04:24Z</time>
      </trkpt>
      <trkpt lat="44.46183" lon="1.8622">
        <ele>307.6</ele>
        <time>2020-06-24T07:04:25Z</time>
      </trkpt>
      <trkpt lat="44.46181" lon="1.8622">
        <ele>308</ele>
        <time>2020-06-24T07:04:26Z</time>
      </trkpt>
      <trkpt lat="44.46177" lon="1.86221">
        <ele>308</ele>
        <time>2020-06-24T07:04:28Z</time>
      </trkpt>
      <trkpt lat="44.46167" lon="1.86222">
        <ele>308</ele>
        <time>2020-06-24T07:04:34Z</time>
      </trkpt>
      <trkpt lat="44.46159" lon="1.86223">
        <ele>308</ele>
        <time>2020-06-24T07:04:39Z</time>
      </trkpt>
      <trkpt lat="44.46158" lon="1.86223">
        <ele>308.6</ele>
        <time>2020-06-24T07:04:40Z</time>
      </trkpt>
      <trkpt lat="44.46157" lon="1.86223">
        <ele>309</ele>
        <time>2020-06-24T07:04:41Z</time>
      </trkpt>
      <trkpt lat="44.46155" lon="1.86222">
        <ele>309.4</ele>
        <time>2020-06-24T07:04:42Z</time>
      </trkpt>
      <trkpt lat="44.46154" lon="1.86222">
        <ele>309.8</ele>
        <time>2020-06-24T07:04:43Z</time>
      </trkpt>
      <trkpt lat="44.46152" lon="1.86222">
        <ele>310.2</ele>
        <time>2020-06-24T07:04:44Z</time>
      </trkpt>
      <trkpt lat="44.46149" lon="1.86222">
        <ele>310.2</ele>
        <time>2020-06-24T07:04:46Z</time>
      </trkpt>
      <trkpt lat="44.46142" lon="1.86214">
        <ele>310.2</ele>
        <time>2020-06-24T07:04:52Z</time>
      </trkpt>
      <trkpt lat="44.46138" lon="1.86201">
        <ele>310.2</ele>
        <time>2020-06-24T07:04:58Z</time>
      </trkpt>
      <trkpt lat="44.46132" lon="1.86178">
        <ele>310.2</ele>
        <time>2020-06-24T07:05:04Z</time>
      </trkpt>
      <trkpt lat="44.46129" lon="1.86145">
        <ele>310.2</ele>
        <time>2020-06-24T07:05:11Z</time>
      </trkpt>
      <trkpt lat="44.46124" lon="1.86112">
        <ele>310.2</ele>
        <time>2020-06-24T07:05:17Z</time>
      </trkpt>
      <trkpt lat="44.46118" lon="1.86074">
        <ele>310.2</ele>
        <time>2020-06-24T07:05:23Z</time>
      </trkpt>
      <trkpt lat="44.46117" lon="1.86067">
        <ele>309.8</ele>
        <time>2020-06-24T07:05:24Z</time>
      </trkpt>
      <trkpt lat="44.46115" lon="1.8606">
        <ele>309.4</ele>
        <time>2020-06-24T07:05:25Z</time>
      </trkpt>
      <trkpt lat="44.46114" lon="1.86054">
        <ele>309</ele>
        <time>2020-06-24T07:05:26Z</time>
      </trkpt>
      <trkpt lat="44.46113" lon="1.86047">
        <ele>308.6</ele>
        <time>2020-06-24T07:05:27Z</time>
      </trkpt>
      <trkpt lat="44.46112" lon="1.8604">
        <ele>308.2</ele>
        <time>2020-06-24T07:05:28Z</time>
      </trkpt>
      <trkpt lat="44.46111" lon="1.86032">
        <ele>308.2</ele>
        <time>2020-06-24T07:05:29Z</time>
      </trkpt>
      <trkpt lat="44.4611" lon="1.86025">
        <ele>308.2</ele>
        <time>2020-06-24T07:05:30Z</time>
      </trkpt>
      <trkpt lat="44.46107" lon="1.86011">
        <ele>307.8</ele>
        <time>2020-06-24T07:05:32Z</time>
      </trkpt>
      <trkpt lat="44.46105" lon="1.86004">
        <ele>307.4</ele>
        <time>2020-06-24T07:05:33Z</time>
      </trkpt>
      <trkpt lat="44.46102" lon="1.85997">
        <ele>307</ele>
        <time>2020-06-24T07:05:34Z</time>
      </trkpt>
      <trkpt lat="44.46098" lon="1.85991">
        <ele>306.2</ele>
        <time>2020-06-24T07:05:35Z</time>
      </trkpt>
      <trkpt lat="44.4609" lon="1.8598">
        <ele>306.2</ele>
        <time>2020-06-24T07:05:37Z</time>
      </trkpt>
      <trkpt lat="44.4608" lon="1.85971">
        <ele>305.8</ele>
        <time>2020-06-24T07:05:39Z</time>
      </trkpt>
      <trkpt lat="44.46075" lon="1.85967">
        <ele>305.4</ele>
        <time>2020-06-24T07:05:40Z</time>
      </trkpt>
      <trkpt lat="44.4607" lon="1.85964">
        <ele>304.8</ele>
        <time>2020-06-24T07:05:41Z</time>
      </trkpt>
      <trkpt lat="44.46065" lon="1.8596">
        <ele>304.4</ele>
        <time>2020-06-24T07:05:42Z</time>
      </trkpt>
      <trkpt lat="44.4606" lon="1.85957">
        <ele>304</ele>
        <time>2020-06-24T07:05:43Z</time>
      </trkpt>
      <trkpt lat="44.46038" lon="1.85946">
        <ele>303.6</ele>
        <time>2020-06-24T07:05:47Z</time>
      </trkpt>
      <trkpt lat="44.46032" lon="1.85943">
        <ele>303.2</ele>
        <time>2020-06-24T07:05:48Z</time>
      </trkpt>
      <trkpt lat="44.46027" lon="1.8594">
        <ele>302.8</ele>
        <time>2020-06-24T07:05:49Z</time>
      </trkpt>
      <trkpt lat="44.46022" lon="1.85941">
        <ele>302.4</ele>
        <time>2020-06-24T07:05:50Z</time>
      </trkpt>
      <trkpt lat="44.46018" lon="1.85945">
        <ele>302</ele>
        <time>2020-06-24T07:05:51Z</time>
      </trkpt>
      <trkpt lat="44.46008" lon="1.85962">
        <ele>302</ele>
        <time>2020-06-24T07:05:55Z</time>
      </trkpt>
      <trkpt lat="44.46005" lon="1.85967">
        <ele>302</ele>
        <time>2020-06-24T07:05:56Z</time>
      </trkpt>
      <trkpt lat="44.45992" lon="1.85988">
        <ele>302</ele>
        <time>2020-06-24T07:06:01Z</time>
      </trkpt>
      <trkpt lat="44.45978" lon="1.86006">
        <ele>302</ele>
        <time>2020-06-24T07:06:06Z</time>
      </trkpt>
      <trkpt lat="44.45971" lon="1.86">
        <ele>302</ele>
        <time>2020-06-24T07:06:09Z</time>
      </trkpt>
      <trkpt lat="44.45968" lon="1.85997">
        <ele>302</ele>
        <time>2020-06-24T07:06:10Z</time>
      </trkpt>
      <trkpt lat="44.45962" lon="1.85983">
        <ele>302</ele>
        <time>2020-06-24T07:06:13Z</time>
      </trkpt>
      <trkpt lat="44.45959" lon="1.85978">
        <ele>302</ele>
        <time>2020-06-24T07:06:14Z</time>
      </trkpt>
      <trkpt lat="44.45951" lon="1.85968">
        <ele>302</ele>
        <time>2020-06-24T07:06:16Z</time>
      </trkpt>
      <trkpt lat="44.45946" lon="1.85963">
        <ele>301.6</ele>
        <time>2020-06-24T07:06:17Z</time>
      </trkpt>
      <trkpt lat="44.45941" lon="1.85959">
        <ele>301.2</ele>
        <time>2020-06-24T07:06:18Z</time>
      </trkpt>
      <trkpt lat="44.45937" lon="1.85954">
        <ele>300.8</ele>
        <time>2020-06-24T07:06:19Z</time>
      </trkpt>
      <trkpt lat="44.45931" lon="1.85949">
        <ele>300.4</ele>
        <time>2020-06-24T07:06:20Z</time>
      </trkpt>
      <trkpt lat="44.45926" lon="1.85943">
        <ele>299.8</ele>
        <time>2020-06-24T07:06:21Z</time>
      </trkpt>
      <trkpt lat="44.45915" lon="1.85932">
        <ele>299.4</ele>
        <time>2020-06-24T07:06:23Z</time>
      </trkpt>
      <trkpt lat="44.45909" lon="1.85925">
        <ele>298.4</ele>
        <time>2020-06-24T07:06:24Z</time>
      </trkpt>
      <trkpt lat="44.45904" lon="1.85919">
        <ele>298</ele>
        <time>2020-06-24T07:06:25Z</time>
      </trkpt>
      <trkpt lat="44.45899" lon="1.85914">
        <ele>297.4</ele>
        <time>2020-06-24T07:06:26Z</time>
      </trkpt>
      <trkpt lat="44.45895" lon="1.85909">
        <ele>296.6</ele>
        <time>2020-06-24T07:06:27Z</time>
      </trkpt>
      <trkpt lat="44.45891" lon="1.85905">
        <ele>296</ele>
        <time>2020-06-24T07:06:28Z</time>
      </trkpt>
      <trkpt lat="44.45888" lon="1.85902">
        <ele>295.2</ele>
        <time>2020-06-24T07:06:29Z</time>
      </trkpt>
      <trkpt lat="44.45885" lon="1.85899">
        <ele>294.4</ele>
        <time>2020-06-24T07:06:30Z</time>
      </trkpt>
      <trkpt lat="44.45883" lon="1.85895">
        <ele>293.8</ele>
        <time>2020-06-24T07:06:31Z</time>
      </trkpt>
      <trkpt lat="44.4588" lon="1.85891">
        <ele>293</ele>
        <time>2020-06-24T07:06:32Z</time>
      </trkpt>
      <trkpt lat="44.45877" lon="1.85886">
        <ele>292.2</ele>
        <time>2020-06-24T07:06:33Z</time>
      </trkpt>
      <trkpt lat="44.45873" lon="1.85882">
        <ele>291.4</ele>
        <time>2020-06-24T07:06:34Z</time>
      </trkpt>
      <trkpt lat="44.45871" lon="1.85878">
        <ele>290.6</ele>
        <time>2020-06-24T07:06:35Z</time>
      </trkpt>
      <trkpt lat="44.45868" lon="1.85874">
        <ele>289.8</ele>
        <time>2020-06-24T07:06:36Z</time>
      </trkpt>
      <trkpt lat="44.45866" lon="1.85869">
        <ele>288.8</ele>
        <time>2020-06-24T07:06:37Z</time>
      </trkpt>
      <trkpt lat="44.45864" lon="1.85863">
        <ele>287.8</ele>
        <time>2020-06-24T07:06:38Z</time>
      </trkpt>
      <trkpt lat="44.45861" lon="1.85858">
        <ele>286.8</ele>
        <time>2020-06-24T07:06:39Z</time>
      </trkpt>
      <trkpt lat="44.45858" lon="1.85854">
        <ele>285.8</ele>
        <time>2020-06-24T07:06:40Z</time>
      </trkpt>
      <trkpt lat="44.45855" lon="1.8585">
        <ele>284.6</ele>
        <time>2020-06-24T07:06:41Z</time>
      </trkpt>
      <trkpt lat="44.45851" lon="1.85846">
        <ele>283.6</ele>
        <time>2020-06-24T07:06:42Z</time>
      </trkpt>
      <trkpt lat="44.45848" lon="1.85842">
        <ele>282.4</ele>
        <time>2020-06-24T07:06:43Z</time>
      </trkpt>
      <trkpt lat="44.45845" lon="1.85837">
        <ele>281.2</ele>
        <time>2020-06-24T07:06:44Z</time>
      </trkpt>
      <trkpt lat="44.45842" lon="1.85832">
        <ele>280.2</ele>
        <time>2020-06-24T07:06:45Z</time>
      </trkpt>
      <trkpt lat="44.45838" lon="1.85826">
        <ele>279</ele>
        <time>2020-06-24T07:06:46Z</time>
      </trkpt>
      <trkpt lat="44.45833" lon="1.85819">
        <ele>277.8</ele>
        <time>2020-06-24T07:06:47Z</time>
      </trkpt>
      <trkpt lat="44.45828" lon="1.85812">
        <ele>275.6</ele>
        <time>2020-06-24T07:06:48Z</time>
      </trkpt>
      <trkpt lat="44.45823" lon="1.85805">
        <ele>274.4</ele>
        <time>2020-06-24T07:06:49Z</time>
      </trkpt>
      <trkpt lat="44.45818" lon="1.85798">
        <ele>273.2</ele>
        <time>2020-06-24T07:06:50Z</time>
      </trkpt>
      <trkpt lat="44.45814" lon="1.85792">
        <ele>272</ele>
        <time>2020-06-24T07:06:51Z</time>
      </trkpt>
      <trkpt lat="44.4581" lon="1.85785">
        <ele>270.6</ele>
        <time>2020-06-24T07:06:52Z</time>
      </trkpt>
      <trkpt lat="44.45805" lon="1.8578">
        <ele>269.4</ele>
        <time>2020-06-24T07:06:53Z</time>
      </trkpt>
      <trkpt lat="44.45799" lon="1.85775">
        <ele>268</ele>
        <time>2020-06-24T07:06:54Z</time>
      </trkpt>
      <trkpt lat="44.45794" lon="1.85772">
        <ele>266.6</ele>
        <time>2020-06-24T07:06:55Z</time>
      </trkpt>
      <trkpt lat="44.45788" lon="1.85768">
        <ele>265.2</ele>
        <time>2020-06-24T07:06:56Z</time>
      </trkpt>
      <trkpt lat="44.45782" lon="1.85764">
        <ele>264</ele>
        <time>2020-06-24T07:06:57Z</time>
      </trkpt>
      <trkpt lat="44.45776" lon="1.8576">
        <ele>262.6</ele>
        <time>2020-06-24T07:06:58Z</time>
      </trkpt>
      <trkpt lat="44.4577" lon="1.85757">
        <ele>261.2</ele>
        <time>2020-06-24T07:06:59Z</time>
      </trkpt>
      <trkpt lat="44.45764" lon="1.85753">
        <ele>259.8</ele>
        <time>2020-06-24T07:07:00Z</time>
      </trkpt>
      <trkpt lat="44.45758" lon="1.85751">
        <ele>258.4</ele>
        <time>2020-06-24T07:07:01Z</time>
      </trkpt>
      <trkpt lat="44.45753" lon="1.85749">
        <ele>257</ele>
        <time>2020-06-24T07:07:02Z</time>
      </trkpt>
      <trkpt lat="44.45748" lon="1.85748">
        <ele>255.6</ele>
        <time>2020-06-24T07:07:03Z</time>
      </trkpt>
      <trkpt lat="44.45743" lon="1.85746">
        <ele>254.2</ele>
        <time>2020-06-24T07:07:04Z</time>
      </trkpt>
      <trkpt lat="44.45739" lon="1.85743">
        <ele>252.8</ele>
        <time>2020-06-24T07:07:05Z</time>
      </trkpt>
      <trkpt lat="44.45734" lon="1.85741">
        <ele>251.6</ele>
        <time>2020-06-24T07:07:06Z</time>
      </trkpt>
      <trkpt lat="44.45729" lon="1.85739">
        <ele>250.2</ele>
        <time>2020-06-24T07:07:07Z</time>
      </trkpt>
      <trkpt lat="44.45723" lon="1.85737">
        <ele>248.8</ele>
        <time>2020-06-24T07:07:08Z</time>
      </trkpt>
      <trkpt lat="44.45717" lon="1.85735">
        <ele>247.6</ele>
        <time>2020-06-24T07:07:09Z</time>
      </trkpt>
      <trkpt lat="44.45712" lon="1.85733">
        <ele>246.2</ele>
        <time>2020-06-24T07:07:10Z</time>
      </trkpt>
      <trkpt lat="44.45706" lon="1.8573">
        <ele>244.8</ele>
        <time>2020-06-24T07:07:11Z</time>
      </trkpt>
      <trkpt lat="44.45701" lon="1.85728">
        <ele>243.4</ele>
        <time>2020-06-24T07:07:12Z</time>
      </trkpt>
      <trkpt lat="44.45696" lon="1.85727">
        <ele>240.4</ele>
        <time>2020-06-24T07:07:13Z</time>
      </trkpt>
      <trkpt lat="44.45691" lon="1.85726">
        <ele>239</ele>
        <time>2020-06-24T07:07:14Z</time>
      </trkpt>
      <trkpt lat="44.45686" lon="1.85725">
        <ele>237.4</ele>
        <time>2020-06-24T07:07:15Z</time>
      </trkpt>
      <trkpt lat="44.45681" lon="1.85725">
        <ele>235.8</ele>
        <time>2020-06-24T07:07:16Z</time>
      </trkpt>
      <trkpt lat="44.45676" lon="1.85724">
        <ele>234.2</ele>
        <time>2020-06-24T07:07:17Z</time>
      </trkpt>
      <trkpt lat="44.45672" lon="1.85723">
        <ele>232.8</ele>
        <time>2020-06-24T07:07:18Z</time>
      </trkpt>
      <trkpt lat="44.45666" lon="1.85723">
        <ele>231.2</ele>
        <time>2020-06-24T07:07:19Z</time>
      </trkpt>
      <trkpt lat="44.4566" lon="1.85722">
        <ele>229.6</ele>
        <time>2020-06-24T07:07:20Z</time>
      </trkpt>
      <trkpt lat="44.45655" lon="1.85721">
        <ele>228</ele>
        <time>2020-06-24T07:07:21Z</time>
      </trkpt>
      <trkpt lat="44.4565" lon="1.85721">
        <ele>226.6</ele>
        <time>2020-06-24T07:07:22Z</time>
      </trkpt>
      <trkpt lat="44.45646" lon="1.8572">
        <ele>224.8</ele>
        <time>2020-06-24T07:07:23Z</time>
      </trkpt>
      <trkpt lat="44.45641" lon="1.8572">
        <ele>223.2</ele>
        <time>2020-06-24T07:07:24Z</time>
      </trkpt>
      <trkpt lat="44.45637" lon="1.85721">
        <ele>221.6</ele>
        <time>2020-06-24T07:07:25Z</time>
      </trkpt>
      <trkpt lat="44.45632" lon="1.85721">
        <ele>220</ele>
        <time>2020-06-24T07:07:26Z</time>
      </trkpt>
      <trkpt lat="44.45628" lon="1.85721">
        <ele>218.4</ele>
        <time>2020-06-24T07:07:27Z</time>
      </trkpt>
      <trkpt lat="44.45624" lon="1.8572">
        <ele>216.8</ele>
        <time>2020-06-24T07:07:28Z</time>
      </trkpt>
      <trkpt lat="44.4562" lon="1.8572">
        <ele>215</ele>
        <time>2020-06-24T07:07:29Z</time>
      </trkpt>
      <trkpt lat="44.45616" lon="1.8572">
        <ele>213.4</ele>
        <time>2020-06-24T07:07:30Z</time>
      </trkpt>
      <trkpt lat="44.45612" lon="1.8572">
        <ele>211.8</ele>
        <time>2020-06-24T07:07:31Z</time>
      </trkpt>
      <trkpt lat="44.45608" lon="1.85719">
        <ele>210.2</ele>
        <time>2020-06-24T07:07:32Z</time>
      </trkpt>
      <trkpt lat="44.45604" lon="1.85718">
        <ele>208.6</ele>
        <time>2020-06-24T07:07:33Z</time>
      </trkpt>
      <trkpt lat="44.45599" lon="1.85718">
        <ele>206.8</ele>
        <time>2020-06-24T07:07:34Z</time>
      </trkpt>
      <trkpt lat="44.45594" lon="1.85717">
        <ele>205.2</ele>
        <time>2020-06-24T07:07:35Z</time>
      </trkpt>
      <trkpt lat="44.45589" lon="1.85716">
        <ele>203.6</ele>
        <time>2020-06-24T07:07:36Z</time>
      </trkpt>
      <trkpt lat="44.45584" lon="1.85715">
        <ele>201.8</ele>
        <time>2020-06-24T07:07:37Z</time>
      </trkpt>
      <trkpt lat="44.4558" lon="1.85715">
        <ele>198</ele>
        <time>2020-06-24T07:07:38Z</time>
      </trkpt>
      <trkpt lat="44.45575" lon="1.85715">
        <ele>196.2</ele>
        <time>2020-06-24T07:07:39Z</time>
      </trkpt>
      <trkpt lat="44.45571" lon="1.85716">
        <ele>194.4</ele>
        <time>2020-06-24T07:07:40Z</time>
      </trkpt>
      <trkpt lat="44.45567" lon="1.85717">
        <ele>192.6</ele>
        <time>2020-06-24T07:07:41Z</time>
      </trkpt>
      <trkpt lat="44.45563" lon="1.85719">
        <ele>191</ele>
        <time>2020-06-24T07:07:42Z</time>
      </trkpt>
      <trkpt lat="44.45559" lon="1.85721">
        <ele>189.2</ele>
        <time>2020-06-24T07:07:43Z</time>
      </trkpt>
      <trkpt lat="44.45554" lon="1.85723">
        <ele>187.6</ele>
        <time>2020-06-24T07:07:44Z</time>
      </trkpt>
      <trkpt lat="44.45549" lon="1.85725">
        <ele>186</ele>
        <time>2020-06-24T07:07:45Z</time>
      </trkpt>
      <trkpt lat="44.45545" lon="1.85728">
        <ele>184.4</ele>
        <time>2020-06-24T07:07:46Z</time>
      </trkpt>
      <trkpt lat="44.45541" lon="1.8573">
        <ele>183</ele>
        <time>2020-06-24T07:07:47Z</time>
      </trkpt>
      <trkpt lat="44.45537" lon="1.85733">
        <ele>181.4</ele>
        <time>2020-06-24T07:07:48Z</time>
      </trkpt>
      <trkpt lat="44.45534" lon="1.85735">
        <ele>180</ele>
        <time>2020-06-24T07:07:49Z</time>
      </trkpt>
      <trkpt lat="44.4553" lon="1.85736">
        <ele>178.6</ele>
        <time>2020-06-24T07:07:50Z</time>
      </trkpt>
      <trkpt lat="44.45528" lon="1.85734">
        <ele>177.2</ele>
        <time>2020-06-24T07:07:51Z</time>
      </trkpt>
      <trkpt lat="44.45525" lon="1.85732">
        <ele>176</ele>
        <time>2020-06-24T07:07:52Z</time>
      </trkpt>
      <trkpt lat="44.45523" lon="1.85728">
        <ele>174.8</ele>
        <time>2020-06-24T07:07:53Z</time>
      </trkpt>
      <trkpt lat="44.45522" lon="1.85723">
        <ele>173.6</ele>
        <time>2020-06-24T07:07:54Z</time>
      </trkpt>
      <trkpt lat="44.45522" lon="1.85718">
        <ele>172.6</ele>
        <time>2020-06-24T07:07:55Z</time>
      </trkpt>
      <trkpt lat="44.45522" lon="1.85714">
        <ele>171.4</ele>
        <time>2020-06-24T07:07:56Z</time>
      </trkpt>
      <trkpt lat="44.45522" lon="1.85708">
        <ele>170.2</ele>
        <time>2020-06-24T07:07:57Z</time>
      </trkpt>
      <trkpt lat="44.45524" lon="1.85692">
        <ele>170.2</ele>
        <time>2020-06-24T07:08:01Z</time>
      </trkpt>
      <trkpt lat="44.45525" lon="1.85688">
        <ele>170.2</ele>
        <time>2020-06-24T07:08:05Z</time>
      </trkpt>
      <trkpt lat="44.45525" lon="1.85688">
        <ele>170.2</ele>
        <time>2020-06-24T07:08:17Z</time>
      </trkpt>
      <trkpt lat="44.45526" lon="1.85681">
        <ele>170.2</ele>
        <time>2020-06-24T07:08:27Z</time>
      </trkpt>
      <trkpt lat="44.45527" lon="1.85678">
        <ele>169.8</ele>
        <time>2020-06-24T07:08:29Z</time>
      </trkpt>
      <trkpt lat="44.45527" lon="1.85675">
        <ele>169.4</ele>
        <time>2020-06-24T07:08:30Z</time>
      </trkpt>
      <trkpt lat="44.45528" lon="1.85673">
        <ele>169</ele>
        <time>2020-06-24T07:08:31Z</time>
      </trkpt>
      <trkpt lat="44.45529" lon="1.8567">
        <ele>168.6</ele>
        <time>2020-06-24T07:08:32Z</time>
      </trkpt>
      <trkpt lat="44.4553" lon="1.85667">
        <ele>168.2</ele>
        <time>2020-06-24T07:08:33Z</time>
      </trkpt>
      <trkpt lat="44.45542" lon="1.85638">
        <ele>168.2</ele>
        <time>2020-06-24T07:08:41Z</time>
      </trkpt>
      <trkpt lat="44.45551" lon="1.85605">
        <ele>168.2</ele>
        <time>2020-06-24T07:08:48Z</time>
      </trkpt>
      <trkpt lat="44.45555" lon="1.85567">
        <ele>168.2</ele>
        <time>2020-06-24T07:08:55Z</time>
      </trkpt>
      <trkpt lat="44.4556" lon="1.85525">
        <ele>168.2</ele>
        <time>2020-06-24T07:09:02Z</time>
      </trkpt>
      <trkpt lat="44.4556" lon="1.85519">
        <ele>168.2</ele>
        <time>2020-06-24T07:09:03Z</time>
      </trkpt>
      <trkpt lat="44.45561" lon="1.85507">
        <ele>168.2</ele>
        <time>2020-06-24T07:09:05Z</time>
      </trkpt>
      <trkpt lat="44.45561" lon="1.85489">
        <ele>167.8</ele>
        <time>2020-06-24T07:09:08Z</time>
      </trkpt>
      <trkpt lat="44.45561" lon="1.85483">
        <ele>167.4</ele>
        <time>2020-06-24T07:09:09Z</time>
      </trkpt>
      <trkpt lat="44.45561" lon="1.85476">
        <ele>167</ele>
        <time>2020-06-24T07:09:10Z</time>
      </trkpt>
      <trkpt lat="44.45562" lon="1.8547">
        <ele>166.6</ele>
        <time>2020-06-24T07:09:11Z</time>
      </trkpt>
      <trkpt lat="44.45563" lon="1.85463">
        <ele>166.2</ele>
        <time>2020-06-24T07:09:12Z</time>
      </trkpt>
      <trkpt lat="44.4557" lon="1.85435">
        <ele>166.2</ele>
        <time>2020-06-24T07:09:17Z</time>
      </trkpt>
      <trkpt lat="44.45587" lon="1.85397">
        <ele>166.2</ele>
        <time>2020-06-24T07:09:24Z</time>
      </trkpt>
      <trkpt lat="44.4559" lon="1.85392">
        <ele>166.2</ele>
        <time>2020-06-24T07:09:25Z</time>
      </trkpt>
      <trkpt lat="44.45606" lon="1.85367">
        <ele>165.8</ele>
        <time>2020-06-24T07:09:30Z</time>
      </trkpt>
      <trkpt lat="44.45609" lon="1.85362">
        <ele>165.4</ele>
        <time>2020-06-24T07:09:31Z</time>
      </trkpt>
      <trkpt lat="44.45612" lon="1.85357">
        <ele>165</ele>
        <time>2020-06-24T07:09:32Z</time>
      </trkpt>
      <trkpt lat="44.45616" lon="1.85353">
        <ele>164.6</ele>
        <time>2020-06-24T07:09:33Z</time>
      </trkpt>
      <trkpt lat="44.45619" lon="1.85348">
        <ele>164.2</ele>
        <time>2020-06-24T07:09:34Z</time>
      </trkpt>
      <trkpt lat="44.45629" lon="1.85335">
        <ele>164.2</ele>
        <time>2020-06-24T07:09:37Z</time>
      </trkpt>
      <trkpt lat="44.45635" lon="1.85323">
        <ele>164.2</ele>
        <time>2020-06-24T07:09:39Z</time>
      </trkpt>
      <trkpt lat="44.45637" lon="1.85309">
        <ele>164.2</ele>
        <time>2020-06-24T07:09:41Z</time>
      </trkpt>
      <trkpt lat="44.45633" lon="1.8528">
        <ele>164.2</ele>
        <time>2020-06-24T07:09:45Z</time>
      </trkpt>
      <trkpt lat="44.45631" lon="1.85273">
        <ele>164.2</ele>
        <time>2020-06-24T07:09:46Z</time>
      </trkpt>
      <trkpt lat="44.45621" lon="1.8524">
        <ele>163.8</ele>
        <time>2020-06-24T07:09:51Z</time>
      </trkpt>
      <trkpt lat="44.4562" lon="1.85233">
        <ele>163.2</ele>
        <time>2020-06-24T07:09:52Z</time>
      </trkpt>
      <trkpt lat="44.45619" lon="1.85226">
        <ele>162.8</ele>
        <time>2020-06-24T07:09:53Z</time>
      </trkpt>
      <trkpt lat="44.45619" lon="1.85219">
        <ele>162.4</ele>
        <time>2020-06-24T07:09:54Z</time>
      </trkpt>
      <trkpt lat="44.4562" lon="1.85211">
        <ele>162</ele>
        <time>2020-06-24T07:09:55Z</time>
      </trkpt>
      <trkpt lat="44.45621" lon="1.85204">
        <ele>162</ele>
        <time>2020-06-24T07:09:56Z</time>
      </trkpt>
      <trkpt lat="44.45628" lon="1.85185">
        <ele>162</ele>
        <time>2020-06-24T07:09:59Z</time>
      </trkpt>
      <trkpt lat="44.45634" lon="1.85173">
        <ele>162</ele>
        <time>2020-06-24T07:10:01Z</time>
      </trkpt>
      <trkpt lat="44.45652" lon="1.85139">
        <ele>162</ele>
        <time>2020-06-24T07:10:08Z</time>
      </trkpt>
      <trkpt lat="44.45657" lon="1.8513">
        <ele>162.4</ele>
        <time>2020-06-24T07:10:10Z</time>
      </trkpt>
      <trkpt lat="44.45659" lon="1.85126">
        <ele>162.8</ele>
        <time>2020-06-24T07:10:11Z</time>
      </trkpt>
      <trkpt lat="44.45661" lon="1.85122">
        <ele>163.4</ele>
        <time>2020-06-24T07:10:12Z</time>
      </trkpt>
      <trkpt lat="44.45663" lon="1.85117">
        <ele>163.8</ele>
        <time>2020-06-24T07:10:13Z</time>
      </trkpt>
      <trkpt lat="44.45664" lon="1.85112">
        <ele>164.2</ele>
        <time>2020-06-24T07:10:14Z</time>
      </trkpt>
      <trkpt lat="44.45666" lon="1.85108">
        <ele>164.2</ele>
        <time>2020-06-24T07:10:15Z</time>
      </trkpt>
      <trkpt lat="44.45669" lon="1.85099">
        <ele>164.6</ele>
        <time>2020-06-24T07:10:17Z</time>
      </trkpt>
      <trkpt lat="44.4567" lon="1.85094">
        <ele>165</ele>
        <time>2020-06-24T07:10:18Z</time>
      </trkpt>
      <trkpt lat="44.45671" lon="1.8509">
        <ele>165.4</ele>
        <time>2020-06-24T07:10:19Z</time>
      </trkpt>
      <trkpt lat="44.45671" lon="1.85086">
        <ele>166</ele>
        <time>2020-06-24T07:10:20Z</time>
      </trkpt>
      <trkpt lat="44.45672" lon="1.85081">
        <ele>166.4</ele>
        <time>2020-06-24T07:10:21Z</time>
      </trkpt>
      <trkpt lat="44.4568" lon="1.85058">
        <ele>166.4</ele>
        <time>2020-06-24T07:10:27Z</time>
      </trkpt>
      <trkpt lat="44.45683" lon="1.8505">
        <ele>166.8</ele>
        <time>2020-06-24T07:10:29Z</time>
      </trkpt>
      <trkpt lat="44.45685" lon="1.85047">
        <ele>167.2</ele>
        <time>2020-06-24T07:10:30Z</time>
      </trkpt>
      <trkpt lat="44.45687" lon="1.85044">
        <ele>168</ele>
        <time>2020-06-24T07:10:31Z</time>
      </trkpt>
      <trkpt lat="44.45689" lon="1.85041">
        <ele>168.4</ele>
        <time>2020-06-24T07:10:32Z</time>
      </trkpt>
      <trkpt lat="44.45696" lon="1.85033">
        <ele>168.4</ele>
        <time>2020-06-24T07:10:35Z</time>
      </trkpt>
      <trkpt lat="44.45716" lon="1.85014">
        <ele>168.4</ele>
        <time>2020-06-24T07:10:41Z</time>
      </trkpt>
      <trkpt lat="44.4574" lon="1.84982">
        <ele>168</ele>
        <time>2020-06-24T07:10:47Z</time>
      </trkpt>
      <trkpt lat="44.45744" lon="1.84976">
        <ele>167.6</ele>
        <time>2020-06-24T07:10:48Z</time>
      </trkpt>
      <trkpt lat="44.45749" lon="1.84969">
        <ele>167.2</ele>
        <time>2020-06-24T07:10:49Z</time>
      </trkpt>
      <trkpt lat="44.45754" lon="1.84963">
        <ele>166.8</ele>
        <time>2020-06-24T07:10:50Z</time>
      </trkpt>
      <trkpt lat="44.45759" lon="1.84956">
        <ele>166.4</ele>
        <time>2020-06-24T07:10:51Z</time>
      </trkpt>
      <trkpt lat="44.45766" lon="1.84943">
        <ele>166.4</ele>
        <time>2020-06-24T07:10:53Z</time>
      </trkpt>
      <trkpt lat="44.45773" lon="1.84913">
        <ele>166.4</ele>
        <time>2020-06-24T07:10:57Z</time>
      </trkpt>
      <trkpt lat="44.45774" lon="1.84905">
        <ele>166.4</ele>
        <time>2020-06-24T07:10:58Z</time>
      </trkpt>
      <trkpt lat="44.45774" lon="1.84898">
        <ele>166.4</ele>
        <time>2020-06-24T07:10:59Z</time>
      </trkpt>
      <trkpt lat="44.45773" lon="1.84866">
        <ele>166.4</ele>
        <time>2020-06-24T07:11:03Z</time>
      </trkpt>
      <trkpt lat="44.45766" lon="1.84834">
        <ele>166.4</ele>
        <time>2020-06-24T07:11:08Z</time>
      </trkpt>
      <trkpt lat="44.4575" lon="1.84806">
        <ele>166.4</ele>
        <time>2020-06-24T07:11:13Z</time>
      </trkpt>
      <trkpt lat="44.4573" lon="1.84768">
        <ele>166.4</ele>
        <time>2020-06-24T07:11:20Z</time>
      </trkpt>
      <trkpt lat="44.45731" lon="1.84751">
        <ele>166.4</ele>
        <time>2020-06-24T07:11:23Z</time>
      </trkpt>
      <trkpt lat="44.45741" lon="1.84733">
        <ele>166.4</ele>
        <time>2020-06-24T07:11:28Z</time>
      </trkpt>
      <trkpt lat="44.45743" lon="1.8473">
        <ele>166.4</ele>
        <time>2020-06-24T07:11:29Z</time>
      </trkpt>
      <trkpt lat="44.45752" lon="1.84724">
        <ele>166.4</ele>
        <time>2020-06-24T07:11:33Z</time>
      </trkpt>
      <trkpt lat="44.45754" lon="1.84723">
        <ele>166.8</ele>
        <time>2020-06-24T07:11:34Z</time>
      </trkpt>
      <trkpt lat="44.45756" lon="1.84721">
        <ele>167.2</ele>
        <time>2020-06-24T07:11:35Z</time>
      </trkpt>
      <trkpt lat="44.45759" lon="1.84721">
        <ele>167.6</ele>
        <time>2020-06-24T07:11:36Z</time>
      </trkpt>
      <trkpt lat="44.45761" lon="1.8472">
        <ele>168</ele>
        <time>2020-06-24T07:11:37Z</time>
      </trkpt>
      <trkpt lat="44.45763" lon="1.84719">
        <ele>168.4</ele>
        <time>2020-06-24T07:11:38Z</time>
      </trkpt>
      <trkpt lat="44.45765" lon="1.84719">
        <ele>168.4</ele>
        <time>2020-06-24T07:11:39Z</time>
      </trkpt>
      <trkpt lat="44.45773" lon="1.8472">
        <ele>169</ele>
        <time>2020-06-24T07:11:42Z</time>
      </trkpt>
      <trkpt lat="44.45775" lon="1.8472">
        <ele>169.4</ele>
        <time>2020-06-24T07:11:43Z</time>
      </trkpt>
      <trkpt lat="44.45777" lon="1.8472">
        <ele>169.8</ele>
        <time>2020-06-24T07:11:44Z</time>
      </trkpt>
      <trkpt lat="44.45779" lon="1.84721">
        <ele>170.2</ele>
        <time>2020-06-24T07:11:45Z</time>
      </trkpt>
      <trkpt lat="44.45781" lon="1.84722">
        <ele>170.8</ele>
        <time>2020-06-24T07:11:46Z</time>
      </trkpt>
      <trkpt lat="44.45789" lon="1.84726">
        <ele>171.2</ele>
        <time>2020-06-24T07:11:50Z</time>
      </trkpt>
      <trkpt lat="44.45791" lon="1.84728">
        <ele>171.6</ele>
        <time>2020-06-24T07:11:51Z</time>
      </trkpt>
      <trkpt lat="44.45793" lon="1.84729">
        <ele>172</ele>
        <time>2020-06-24T07:11:52Z</time>
      </trkpt>
      <trkpt lat="44.45794" lon="1.84731">
        <ele>172.6</ele>
        <time>2020-06-24T07:11:53Z</time>
      </trkpt>
      <trkpt lat="44.45796" lon="1.84733">
        <ele>173</ele>
        <time>2020-06-24T07:11:54Z</time>
      </trkpt>
      <trkpt lat="44.458" lon="1.84736">
        <ele>173</ele>
        <time>2020-06-24T07:11:56Z</time>
      </trkpt>
      <trkpt lat="44.45809" lon="1.84742">
        <ele>173.4</ele>
        <time>2020-06-24T07:12:00Z</time>
      </trkpt>
      <trkpt lat="44.45811" lon="1.84744">
        <ele>173.8</ele>
        <time>2020-06-24T07:12:01Z</time>
      </trkpt>
      <trkpt lat="44.45813" lon="1.84746">
        <ele>174.2</ele>
        <time>2020-06-24T07:12:02Z</time>
      </trkpt>
      <trkpt lat="44.45814" lon="1.84748">
        <ele>174.6</ele>
        <time>2020-06-24T07:12:03Z</time>
      </trkpt>
      <trkpt lat="44.45816" lon="1.8475">
        <ele>175</ele>
        <time>2020-06-24T07:12:04Z</time>
      </trkpt>
      <trkpt lat="44.45827" lon="1.84764">
        <ele>175.4</ele>
        <time>2020-06-24T07:12:10Z</time>
      </trkpt>
      <trkpt lat="44.45829" lon="1.84767">
        <ele>176.2</ele>
        <time>2020-06-24T07:12:11Z</time>
      </trkpt>
      <trkpt lat="44.45831" lon="1.84769">
        <ele>176.6</ele>
        <time>2020-06-24T07:12:12Z</time>
      </trkpt>
      <trkpt lat="44.45832" lon="1.84772">
        <ele>177</ele>
        <time>2020-06-24T07:12:13Z</time>
      </trkpt>
      <trkpt lat="44.45841" lon="1.84782">
        <ele>177</ele>
        <time>2020-06-24T07:12:17Z</time>
      </trkpt>
      <trkpt lat="44.45847" lon="1.8479">
        <ele>177.4</ele>
        <time>2020-06-24T07:12:20Z</time>
      </trkpt>
      <trkpt lat="44.45848" lon="1.84793">
        <ele>177.8</ele>
        <time>2020-06-24T07:12:21Z</time>
      </trkpt>
      <trkpt lat="44.4585" lon="1.84796">
        <ele>178.2</ele>
        <time>2020-06-24T07:12:22Z</time>
      </trkpt>
      <trkpt lat="44.45851" lon="1.84799">
        <ele>178.6</ele>
        <time>2020-06-24T07:12:23Z</time>
      </trkpt>
      <trkpt lat="44.45852" lon="1.84802">
        <ele>179</ele>
        <time>2020-06-24T07:12:24Z</time>
      </trkpt>
      <trkpt lat="44.45853" lon="1.84804">
        <ele>179</ele>
        <time>2020-06-24T07:12:25Z</time>
      </trkpt>
      <trkpt lat="44.45863" lon="1.84821">
        <ele>179.6</ele>
        <time>2020-06-24T07:12:31Z</time>
      </trkpt>
      <trkpt lat="44.45864" lon="1.84824">
        <ele>180</ele>
        <time>2020-06-24T07:12:32Z</time>
      </trkpt>
      <trkpt lat="44.45865" lon="1.84827">
        <ele>180.4</ele>
        <time>2020-06-24T07:12:33Z</time>
      </trkpt>
      <trkpt lat="44.45867" lon="1.8483">
        <ele>180.8</ele>
        <time>2020-06-24T07:12:34Z</time>
      </trkpt>
      <trkpt lat="44.45868" lon="1.84833">
        <ele>181.2</ele>
        <time>2020-06-24T07:12:35Z</time>
      </trkpt>
      <trkpt lat="44.45875" lon="1.84849">
        <ele>181.6</ele>
        <time>2020-06-24T07:12:40Z</time>
      </trkpt>
      <trkpt lat="44.45876" lon="1.84852">
        <ele>182</ele>
        <time>2020-06-24T07:12:41Z</time>
      </trkpt>
      <trkpt lat="44.45877" lon="1.84855">
        <ele>182.4</ele>
        <time>2020-06-24T07:12:42Z</time>
      </trkpt>
      <trkpt lat="44.45878" lon="1.84858">
        <ele>182.8</ele>
        <time>2020-06-24T07:12:43Z</time>
      </trkpt>
      <trkpt lat="44.45878" lon="1.84861">
        <ele>183.4</ele>
        <time>2020-06-24T07:12:44Z</time>
      </trkpt>
      <trkpt lat="44.45881" lon="1.8487">
        <ele>183.4</ele>
        <time>2020-06-24T07:12:47Z</time>
      </trkpt>
      <trkpt lat="44.45884" lon="1.84883">
        <ele>183.8</ele>
        <time>2020-06-24T07:12:51Z</time>
      </trkpt>
      <trkpt lat="44.45884" lon="1.84887">
        <ele>184.2</ele>
        <time>2020-06-24T07:12:52Z</time>
      </trkpt>
      <trkpt lat="44.45884" lon="1.8489">
        <ele>184.6</ele>
        <time>2020-06-24T07:12:53Z</time>
      </trkpt>
      <trkpt lat="44.45884" lon="1.84894">
        <ele>185</ele>
        <time>2020-06-24T07:12:54Z</time>
      </trkpt>
      <trkpt lat="44.45884" lon="1.84897">
        <ele>185.4</ele>
        <time>2020-06-24T07:12:55Z</time>
      </trkpt>
      <trkpt lat="44.45885" lon="1.84919">
        <ele>186.2</ele>
        <time>2020-06-24T07:13:01Z</time>
      </trkpt>
      <trkpt lat="44.45885" lon="1.84923">
        <ele>186.6</ele>
        <time>2020-06-24T07:13:02Z</time>
      </trkpt>
      <trkpt lat="44.45885" lon="1.84926">
        <ele>187</ele>
        <time>2020-06-24T07:13:03Z</time>
      </trkpt>
      <trkpt lat="44.45885" lon="1.8493">
        <ele>187.4</ele>
        <time>2020-06-24T07:13:04Z</time>
      </trkpt>
      <trkpt lat="44.45885" lon="1.84951">
        <ele>187.4</ele>
        <time>2020-06-24T07:13:10Z</time>
      </trkpt>
      <trkpt lat="44.45885" lon="1.84954">
        <ele>187.8</ele>
        <time>2020-06-24T07:13:11Z</time>
      </trkpt>
      <trkpt lat="44.45885" lon="1.84958">
        <ele>188.4</ele>
        <time>2020-06-24T07:13:12Z</time>
      </trkpt>
      <trkpt lat="44.45884" lon="1.84961">
        <ele>188.8</ele>
        <time>2020-06-24T07:13:13Z</time>
      </trkpt>
      <trkpt lat="44.45884" lon="1.84964">
        <ele>189.2</ele>
        <time>2020-06-24T07:13:14Z</time>
      </trkpt>
      <trkpt lat="44.45883" lon="1.84967">
        <ele>189.6</ele>
        <time>2020-06-24T07:13:15Z</time>
      </trkpt>
      <trkpt lat="44.45882" lon="1.84978">
        <ele>189.6</ele>
        <time>2020-06-24T07:13:18Z</time>
      </trkpt>
      <trkpt lat="44.45881" lon="1.84984">
        <ele>190.2</ele>
        <time>2020-06-24T07:13:20Z</time>
      </trkpt>
      <trkpt lat="44.4588" lon="1.84988">
        <ele>190.6</ele>
        <time>2020-06-24T07:13:21Z</time>
      </trkpt>
      <trkpt lat="44.45879" lon="1.84991">
        <ele>191</ele>
        <time>2020-06-24T07:13:22Z</time>
      </trkpt>
      <trkpt lat="44.45878" lon="1.84994">
        <ele>191.4</ele>
        <time>2020-06-24T07:13:23Z</time>
      </trkpt>
      <trkpt lat="44.45877" lon="1.84997">
        <ele>191.8</ele>
        <time>2020-06-24T07:13:24Z</time>
      </trkpt>
      <trkpt lat="44.45874" lon="1.8501">
        <ele>192.4</ele>
        <time>2020-06-24T07:13:28Z</time>
      </trkpt>
      <trkpt lat="44.45874" lon="1.85014">
        <ele>192.8</ele>
        <time>2020-06-24T07:13:29Z</time>
      </trkpt>
      <trkpt lat="44.45873" lon="1.85017">
        <ele>193.2</ele>
        <time>2020-06-24T07:13:30Z</time>
      </trkpt>
      <trkpt lat="44.45873" lon="1.85021">
        <ele>193.6</ele>
        <time>2020-06-24T07:13:31Z</time>
      </trkpt>
      <trkpt lat="44.45872" lon="1.85024">
        <ele>194</ele>
        <time>2020-06-24T07:13:32Z</time>
      </trkpt>
      <trkpt lat="44.45873" lon="1.85041">
        <ele>194.4</ele>
        <time>2020-06-24T07:13:37Z</time>
      </trkpt>
      <trkpt lat="44.45875" lon="1.85043">
        <ele>195</ele>
        <time>2020-06-24T07:13:38Z</time>
      </trkpt>
      <trkpt lat="44.45876" lon="1.85044">
        <ele>195.4</ele>
        <time>2020-06-24T07:13:39Z</time>
      </trkpt>
      <trkpt lat="44.45878" lon="1.85045">
        <ele>195.8</ele>
        <time>2020-06-24T07:13:40Z</time>
      </trkpt>
      <trkpt lat="44.45879" lon="1.85045">
        <ele>196.2</ele>
        <time>2020-06-24T07:13:41Z</time>
      </trkpt>
      <trkpt lat="44.45882" lon="1.85045">
        <ele>196.2</ele>
        <time>2020-06-24T07:13:42Z</time>
      </trkpt>
      <trkpt lat="44.45884" lon="1.85043">
        <ele>196.2</ele>
        <time>2020-06-24T07:13:43Z</time>
      </trkpt>
      <trkpt lat="44.45889" lon="1.85032">
        <ele>196.2</ele>
        <time>2020-06-24T07:13:47Z</time>
      </trkpt>
      <trkpt lat="44.45894" lon="1.85012">
        <ele>196.6</ele>
        <time>2020-06-24T07:13:53Z</time>
      </trkpt>
      <trkpt lat="44.45895" lon="1.85008">
        <ele>197</ele>
        <time>2020-06-24T07:13:54Z</time>
      </trkpt>
      <trkpt lat="44.45896" lon="1.85005">
        <ele>197.4</ele>
        <time>2020-06-24T07:13:55Z</time>
      </trkpt>
      <trkpt lat="44.45897" lon="1.85001">
        <ele>197.8</ele>
        <time>2020-06-24T07:13:56Z</time>
      </trkpt>
      <trkpt lat="44.45898" lon="1.84998">
        <ele>198.2</ele>
        <time>2020-06-24T07:13:57Z</time>
      </trkpt>
      <trkpt lat="44.45903" lon="1.84976">
        <ele>198.2</ele>
        <time>2020-06-24T07:14:03Z</time>
      </trkpt>
      <trkpt lat="44.45906" lon="1.84967">
        <ele>198.6</ele>
        <time>2020-06-24T07:14:06Z</time>
      </trkpt>
      <trkpt lat="44.45907" lon="1.84964">
        <ele>199</ele>
        <time>2020-06-24T07:14:07Z</time>
      </trkpt>
      <trkpt lat="44.45907" lon="1.84961">
        <ele>199.4</ele>
        <time>2020-06-24T07:14:08Z</time>
      </trkpt>
      <trkpt lat="44.45908" lon="1.84959">
        <ele>199.8</ele>
        <time>2020-06-24T07:14:09Z</time>
      </trkpt>
      <trkpt lat="44.45909" lon="1.84956">
        <ele>200.4</ele>
        <time>2020-06-24T07:14:10Z</time>
      </trkpt>
      <trkpt lat="44.45913" lon="1.84941">
        <ele>200.4</ele>
        <time>2020-06-24T07:14:14Z</time>
      </trkpt>
      <trkpt lat="44.45914" lon="1.84937">
        <ele>201.2</ele>
        <time>2020-06-24T07:14:15Z</time>
      </trkpt>
      <trkpt lat="44.45915" lon="1.84934">
        <ele>201.6</ele>
        <time>2020-06-24T07:14:16Z</time>
      </trkpt>
      <trkpt lat="44.45916" lon="1.84929">
        <ele>202</ele>
        <time>2020-06-24T07:14:17Z</time>
      </trkpt>
      <trkpt lat="44.45916" lon="1.84926">
        <ele>202.4</ele>
        <time>2020-06-24T07:14:18Z</time>
      </trkpt>
      <trkpt lat="44.45919" lon="1.84908">
        <ele>202.8</ele>
        <time>2020-06-24T07:14:23Z</time>
      </trkpt>
      <trkpt lat="44.4592" lon="1.84904">
        <ele>203.2</ele>
        <time>2020-06-24T07:14:24Z</time>
      </trkpt>
      <trkpt lat="44.4592" lon="1.849">
        <ele>203.6</ele>
        <time>2020-06-24T07:14:25Z</time>
      </trkpt>
      <trkpt lat="44.45921" lon="1.84897">
        <ele>204.2</ele>
        <time>2020-06-24T07:14:26Z</time>
      </trkpt>
      <trkpt lat="44.45921" lon="1.84893">
        <ele>204.6</ele>
        <time>2020-06-24T07:14:27Z</time>
      </trkpt>
      <trkpt lat="44.45923" lon="1.84887">
        <ele>204.6</ele>
        <time>2020-06-24T07:14:29Z</time>
      </trkpt>
      <trkpt lat="44.45923" lon="1.84883">
        <ele>204.6</ele>
        <time>2020-06-24T07:14:30Z</time>
      </trkpt>
      <trkpt lat="44.45923" lon="1.8487">
        <ele>205</ele>
        <time>2020-06-24T07:14:33Z</time>
      </trkpt>
      <trkpt lat="44.45923" lon="1.84866">
        <ele>205.4</ele>
        <time>2020-06-24T07:14:34Z</time>
      </trkpt>
      <trkpt lat="44.45923" lon="1.84862">
        <ele>205.8</ele>
        <time>2020-06-24T07:14:35Z</time>
      </trkpt>
      <trkpt lat="44.45923" lon="1.84859">
        <ele>206.2</ele>
        <time>2020-06-24T07:14:36Z</time>
      </trkpt>
      <trkpt lat="44.45923" lon="1.84854">
        <ele>206.6</ele>
        <time>2020-06-24T07:14:37Z</time>
      </trkpt>
      <trkpt lat="44.45923" lon="1.84851">
        <ele>206.6</ele>
        <time>2020-06-24T07:14:38Z</time>
      </trkpt>
      <trkpt lat="44.45922" lon="1.84844">
        <ele>207</ele>
        <time>2020-06-24T07:14:40Z</time>
      </trkpt>
      <trkpt lat="44.45922" lon="1.84841">
        <ele>207.4</ele>
        <time>2020-06-24T07:14:41Z</time>
      </trkpt>
      <trkpt lat="44.45922" lon="1.84837">
        <ele>207.8</ele>
        <time>2020-06-24T07:14:42Z</time>
      </trkpt>
      <trkpt lat="44.45921" lon="1.84834">
        <ele>208.2</ele>
        <time>2020-06-24T07:14:43Z</time>
      </trkpt>
      <trkpt lat="44.45921" lon="1.8483">
        <ele>208.6</ele>
        <time>2020-06-24T07:14:44Z</time>
      </trkpt>
      <trkpt lat="44.45916" lon="1.84811">
        <ele>209</ele>
        <time>2020-06-24T07:14:49Z</time>
      </trkpt>
      <trkpt lat="44.45915" lon="1.84808">
        <ele>209.4</ele>
        <time>2020-06-24T07:14:50Z</time>
      </trkpt>
      <trkpt lat="44.45914" lon="1.84805">
        <ele>210</ele>
        <time>2020-06-24T07:14:51Z</time>
      </trkpt>
      <trkpt lat="44.45913" lon="1.84801">
        <ele>210.4</ele>
        <time>2020-06-24T07:14:52Z</time>
      </trkpt>
      <trkpt lat="44.45912" lon="1.84798">
        <ele>210.8</ele>
        <time>2020-06-24T07:14:53Z</time>
      </trkpt>
      <trkpt lat="44.4591" lon="1.8479">
        <ele>210.8</ele>
        <time>2020-06-24T07:14:55Z</time>
      </trkpt>
      <trkpt lat="44.45907" lon="1.84778">
        <ele>211.2</ele>
        <time>2020-06-24T07:14:58Z</time>
      </trkpt>
      <trkpt lat="44.45906" lon="1.84774">
        <ele>211.6</ele>
        <time>2020-06-24T07:14:59Z</time>
      </trkpt>
      <trkpt lat="44.45905" lon="1.84771">
        <ele>212</ele>
        <time>2020-06-24T07:15:00Z</time>
      </trkpt>
      <trkpt lat="44.45903" lon="1.84768">
        <ele>212.4</ele>
        <time>2020-06-24T07:15:01Z</time>
      </trkpt>
      <trkpt lat="44.45902" lon="1.84765">
        <ele>212.8</ele>
        <time>2020-06-24T07:15:02Z</time>
      </trkpt>
      <trkpt lat="44.45901" lon="1.84761">
        <ele>212.8</ele>
        <time>2020-06-24T07:15:03Z</time>
      </trkpt>
      <trkpt lat="44.45898" lon="1.84748">
        <ele>213.4</ele>
        <time>2020-06-24T07:15:07Z</time>
      </trkpt>
      <trkpt lat="44.45896" lon="1.84745">
        <ele>213.8</ele>
        <time>2020-06-24T07:15:08Z</time>
      </trkpt>
      <trkpt lat="44.45895" lon="1.84742">
        <ele>214.2</ele>
        <time>2020-06-24T07:15:09Z</time>
      </trkpt>
      <trkpt lat="44.45894" lon="1.84739">
        <ele>214.6</ele>
        <time>2020-06-24T07:15:10Z</time>
      </trkpt>
      <trkpt lat="44.45893" lon="1.84735">
        <ele>215</ele>
        <time>2020-06-24T07:15:11Z</time>
      </trkpt>
      <trkpt lat="44.45891" lon="1.84728">
        <ele>215</ele>
        <time>2020-06-24T07:15:13Z</time>
      </trkpt>
      <trkpt lat="44.45887" lon="1.84714">
        <ele>215.6</ele>
        <time>2020-06-24T07:15:17Z</time>
      </trkpt>
      <trkpt lat="44.45886" lon="1.84711">
        <ele>216</ele>
        <time>2020-06-24T07:15:18Z</time>
      </trkpt>
      <trkpt lat="44.45885" lon="1.84707">
        <ele>216.4</ele>
        <time>2020-06-24T07:15:19Z</time>
      </trkpt>
      <trkpt lat="44.45884" lon="1.84705">
        <ele>216.8</ele>
        <time>2020-06-24T07:15:20Z</time>
      </trkpt>
      <trkpt lat="44.45883" lon="1.84701">
        <ele>217.4</ele>
        <time>2020-06-24T07:15:21Z</time>
      </trkpt>
      <trkpt lat="44.45877" lon="1.84683">
        <ele>217.4</ele>
        <time>2020-06-24T07:15:26Z</time>
      </trkpt>
      <trkpt lat="44.45876" lon="1.8468">
        <ele>217.8</ele>
        <time>2020-06-24T07:15:27Z</time>
      </trkpt>
      <trkpt lat="44.45874" lon="1.84676">
        <ele>218.2</ele>
        <time>2020-06-24T07:15:28Z</time>
      </trkpt>
      <trkpt lat="44.45873" lon="1.84672">
        <ele>219</ele>
        <time>2020-06-24T07:15:29Z</time>
      </trkpt>
      <trkpt lat="44.45872" lon="1.84668">
        <ele>219.4</ele>
        <time>2020-06-24T07:15:30Z</time>
      </trkpt>
      <trkpt lat="44.45869" lon="1.84661">
        <ele>219.4</ele>
        <time>2020-06-24T07:15:32Z</time>
      </trkpt>
      <trkpt lat="44.45866" lon="1.84651">
        <ele>219.8</ele>
        <time>2020-06-24T07:15:35Z</time>
      </trkpt>
      <trkpt lat="44.45865" lon="1.84647">
        <ele>220.2</ele>
        <time>2020-06-24T07:15:36Z</time>
      </trkpt>
      <trkpt lat="44.45864" lon="1.84644">
        <ele>220.6</ele>
        <time>2020-06-24T07:15:37Z</time>
      </trkpt>
      <trkpt lat="44.45863" lon="1.8464">
        <ele>221</ele>
        <time>2020-06-24T07:15:38Z</time>
      </trkpt>
      <trkpt lat="44.45861" lon="1.84637">
        <ele>221.4</ele>
        <time>2020-06-24T07:15:39Z</time>
      </trkpt>
      <trkpt lat="44.45855" lon="1.84622">
        <ele>221.8</ele>
        <time>2020-06-24T07:15:44Z</time>
      </trkpt>
      <trkpt lat="44.45854" lon="1.84619">
        <ele>222.2</ele>
        <time>2020-06-24T07:15:45Z</time>
      </trkpt>
      <trkpt lat="44.45853" lon="1.84615">
        <ele>222.6</ele>
        <time>2020-06-24T07:15:46Z</time>
      </trkpt>
      <trkpt lat="44.45852" lon="1.84612">
        <ele>223</ele>
        <time>2020-06-24T07:15:47Z</time>
      </trkpt>
      <trkpt lat="44.45851" lon="1.8461">
        <ele>223.4</ele>
        <time>2020-06-24T07:15:48Z</time>
      </trkpt>
      <trkpt lat="44.45844" lon="1.84595">
        <ele>223.8</ele>
        <time>2020-06-24T07:15:53Z</time>
      </trkpt>
      <trkpt lat="44.45843" lon="1.84591">
        <ele>224.8</ele>
        <time>2020-06-24T07:15:54Z</time>
      </trkpt>
      <trkpt lat="44.45841" lon="1.84588">
        <ele>225.2</ele>
        <time>2020-06-24T07:15:55Z</time>
      </trkpt>
      <trkpt lat="44.45839" lon="1.84585">
        <ele>225.6</ele>
        <time>2020-06-24T07:15:56Z</time>
      </trkpt>
      <trkpt lat="44.45834" lon="1.84573">
        <ele>225.6</ele>
        <time>2020-06-24T07:16:00Z</time>
      </trkpt>
      <trkpt lat="44.45832" lon="1.84569">
        <ele>226</ele>
        <time>2020-06-24T07:16:01Z</time>
      </trkpt>
      <trkpt lat="44.4583" lon="1.84566">
        <ele>226.4</ele>
        <time>2020-06-24T07:16:02Z</time>
      </trkpt>
      <trkpt lat="44.45829" lon="1.84563">
        <ele>226.8</ele>
        <time>2020-06-24T07:16:03Z</time>
      </trkpt>
      <trkpt lat="44.45827" lon="1.8456">
        <ele>227.2</ele>
        <time>2020-06-24T07:16:04Z</time>
      </trkpt>
      <trkpt lat="44.45826" lon="1.84556">
        <ele>227.8</ele>
        <time>2020-06-24T07:16:05Z</time>
      </trkpt>
      <trkpt lat="44.45823" lon="1.8455">
        <ele>227.8</ele>
        <time>2020-06-24T07:16:07Z</time>
      </trkpt>
      <trkpt lat="44.45825" lon="1.84539">
        <ele>228.2</ele>
        <time>2020-06-24T07:16:10Z</time>
      </trkpt>
      <trkpt lat="44.45828" lon="1.84538">
        <ele>228.6</ele>
        <time>2020-06-24T07:16:11Z</time>
      </trkpt>
      <trkpt lat="44.4583" lon="1.84538">
        <ele>229</ele>
        <time>2020-06-24T07:16:12Z</time>
      </trkpt>
      <trkpt lat="44.45833" lon="1.8454">
        <ele>229.4</ele>
        <time>2020-06-24T07:16:13Z</time>
      </trkpt>
      <trkpt lat="44.45834" lon="1.84543">
        <ele>229.8</ele>
        <time>2020-06-24T07:16:14Z</time>
      </trkpt>
      <trkpt lat="44.45839" lon="1.84552">
        <ele>230.2</ele>
        <time>2020-06-24T07:16:17Z</time>
      </trkpt>
      <trkpt lat="44.4584" lon="1.84556">
        <ele>230.6</ele>
        <time>2020-06-24T07:16:18Z</time>
      </trkpt>
      <trkpt lat="44.45842" lon="1.84559">
        <ele>231.4</ele>
        <time>2020-06-24T07:16:19Z</time>
      </trkpt>
      <trkpt lat="44.45843" lon="1.84562">
        <ele>231.8</ele>
        <time>2020-06-24T07:16:20Z</time>
      </trkpt>
      <trkpt lat="44.45846" lon="1.84569">
        <ele>231.8</ele>
        <time>2020-06-24T07:16:22Z</time>
      </trkpt>
      <trkpt lat="44.45856" lon="1.84583">
        <ele>232.2</ele>
        <time>2020-06-24T07:16:27Z</time>
      </trkpt>
      <trkpt lat="44.45858" lon="1.84586">
        <ele>232.6</ele>
        <time>2020-06-24T07:16:28Z</time>
      </trkpt>
      <trkpt lat="44.4586" lon="1.84589">
        <ele>233.2</ele>
        <time>2020-06-24T07:16:29Z</time>
      </trkpt>
      <trkpt lat="44.45861" lon="1.84592">
        <ele>233.6</ele>
        <time>2020-06-24T07:16:30Z</time>
      </trkpt>
      <trkpt lat="44.45863" lon="1.84595">
        <ele>234</ele>
        <time>2020-06-24T07:16:31Z</time>
      </trkpt>
      <trkpt lat="44.45874" lon="1.84612">
        <ele>234</ele>
        <time>2020-06-24T07:16:37Z</time>
      </trkpt>
      <trkpt lat="44.45875" lon="1.84614">
        <ele>234.4</ele>
        <time>2020-06-24T07:16:38Z</time>
      </trkpt>
      <trkpt lat="44.45877" lon="1.84617">
        <ele>234.8</ele>
        <time>2020-06-24T07:16:39Z</time>
      </trkpt>
      <trkpt lat="44.45879" lon="1.84619">
        <ele>235.2</ele>
        <time>2020-06-24T07:16:40Z</time>
      </trkpt>
      <trkpt lat="44.45881" lon="1.84622">
        <ele>235.6</ele>
        <time>2020-06-24T07:16:41Z</time>
      </trkpt>
      <trkpt lat="44.45883" lon="1.84625">
        <ele>236</ele>
        <time>2020-06-24T07:16:42Z</time>
      </trkpt>
      <trkpt lat="44.45885" lon="1.84628">
        <ele>236</ele>
        <time>2020-06-24T07:16:43Z</time>
      </trkpt>
      <trkpt lat="44.45892" lon="1.84638">
        <ele>236.6</ele>
        <time>2020-06-24T07:16:47Z</time>
      </trkpt>
      <trkpt lat="44.45894" lon="1.84641">
        <ele>237</ele>
        <time>2020-06-24T07:16:48Z</time>
      </trkpt>
      <trkpt lat="44.45896" lon="1.84644">
        <ele>237.4</ele>
        <time>2020-06-24T07:16:49Z</time>
      </trkpt>
      <trkpt lat="44.45899" lon="1.84646">
        <ele>237.8</ele>
        <time>2020-06-24T07:16:50Z</time>
      </trkpt>
      <trkpt lat="44.45901" lon="1.84649">
        <ele>238.2</ele>
        <time>2020-06-24T07:16:51Z</time>
      </trkpt>
      <trkpt lat="44.45909" lon="1.8466">
        <ele>238.6</ele>
        <time>2020-06-24T07:16:55Z</time>
      </trkpt>
      <trkpt lat="44.45911" lon="1.84662">
        <ele>239</ele>
        <time>2020-06-24T07:16:56Z</time>
      </trkpt>
      <trkpt lat="44.45913" lon="1.84665">
        <ele>239.4</ele>
        <time>2020-06-24T07:16:57Z</time>
      </trkpt>
      <trkpt lat="44.45915" lon="1.84668">
        <ele>239.8</ele>
        <time>2020-06-24T07:16:58Z</time>
      </trkpt>
      <trkpt lat="44.45917" lon="1.8467">
        <ele>240.2</ele>
        <time>2020-06-24T07:16:59Z</time>
      </trkpt>
      <trkpt lat="44.45923" lon="1.84679">
        <ele>240.2</ele>
        <time>2020-06-24T07:17:02Z</time>
      </trkpt>
      <trkpt lat="44.45926" lon="1.84684">
        <ele>240.8</ele>
        <time>2020-06-24T07:17:04Z</time>
      </trkpt>
      <trkpt lat="44.45928" lon="1.84686">
        <ele>241.2</ele>
        <time>2020-06-24T07:17:05Z</time>
      </trkpt>
      <trkpt lat="44.4593" lon="1.84689">
        <ele>241.6</ele>
        <time>2020-06-24T07:17:06Z</time>
      </trkpt>
      <trkpt lat="44.45931" lon="1.84692">
        <ele>242</ele>
        <time>2020-06-24T07:17:07Z</time>
      </trkpt>
      <trkpt lat="44.45933" lon="1.84695">
        <ele>242.4</ele>
        <time>2020-06-24T07:17:08Z</time>
      </trkpt>
      <trkpt lat="44.45936" lon="1.847">
        <ele>242.4</ele>
        <time>2020-06-24T07:17:10Z</time>
      </trkpt>
      <trkpt lat="44.4594" lon="1.84705">
        <ele>242.8</ele>
        <time>2020-06-24T07:17:12Z</time>
      </trkpt>
      <trkpt lat="44.45942" lon="1.84708">
        <ele>243.2</ele>
        <time>2020-06-24T07:17:13Z</time>
      </trkpt>
      <trkpt lat="44.45944" lon="1.8471">
        <ele>243.6</ele>
        <time>2020-06-24T07:17:14Z</time>
      </trkpt>
      <trkpt lat="44.45945" lon="1.84712">
        <ele>244.2</ele>
        <time>2020-06-24T07:17:15Z</time>
      </trkpt>
      <trkpt lat="44.45948" lon="1.84715">
        <ele>244.6</ele>
        <time>2020-06-24T07:17:16Z</time>
      </trkpt>
      <trkpt lat="44.4595" lon="1.84718">
        <ele>244.6</ele>
        <time>2020-06-24T07:17:17Z</time>
      </trkpt>
      <trkpt lat="44.45957" lon="1.84725">
        <ele>245</ele>
        <time>2020-06-24T07:17:21Z</time>
      </trkpt>
      <trkpt lat="44.45958" lon="1.84728">
        <ele>245.4</ele>
        <time>2020-06-24T07:17:22Z</time>
      </trkpt>
      <trkpt lat="44.45959" lon="1.84731">
        <ele>245.8</ele>
        <time>2020-06-24T07:17:23Z</time>
      </trkpt>
      <trkpt lat="44.45961" lon="1.84734">
        <ele>246.2</ele>
        <time>2020-06-24T07:17:24Z</time>
      </trkpt>
      <trkpt lat="44.45962" lon="1.84736">
        <ele>246.6</ele>
        <time>2020-06-24T07:17:25Z</time>
      </trkpt>
      <trkpt lat="44.4597" lon="1.84747">
        <ele>246.6</ele>
        <time>2020-06-24T07:17:29Z</time>
      </trkpt>
      <trkpt lat="44.45973" lon="1.84753">
        <ele>247</ele>
        <time>2020-06-24T07:17:31Z</time>
      </trkpt>
      <trkpt lat="44.45975" lon="1.84756">
        <ele>247.4</ele>
        <time>2020-06-24T07:17:32Z</time>
      </trkpt>
      <trkpt lat="44.45977" lon="1.84759">
        <ele>248.4</ele>
        <time>2020-06-24T07:17:33Z</time>
      </trkpt>
      <trkpt lat="44.45978" lon="1.84762">
        <ele>248.8</ele>
        <time>2020-06-24T07:17:34Z</time>
      </trkpt>
      <trkpt lat="44.45983" lon="1.84771">
        <ele>248.8</ele>
        <time>2020-06-24T07:17:37Z</time>
      </trkpt>
      <trkpt lat="44.45987" lon="1.84781">
        <ele>249.2</ele>
        <time>2020-06-24T07:17:40Z</time>
      </trkpt>
      <trkpt lat="44.45989" lon="1.84784">
        <ele>249.6</ele>
        <time>2020-06-24T07:17:41Z</time>
      </trkpt>
      <trkpt lat="44.4599" lon="1.84787">
        <ele>250</ele>
        <time>2020-06-24T07:17:42Z</time>
      </trkpt>
      <trkpt lat="44.45992" lon="1.8479">
        <ele>250.4</ele>
        <time>2020-06-24T07:17:43Z</time>
      </trkpt>
      <trkpt lat="44.45993" lon="1.84794">
        <ele>250.8</ele>
        <time>2020-06-24T07:17:44Z</time>
      </trkpt>
      <trkpt lat="44.46001" lon="1.84815">
        <ele>251.4</ele>
        <time>2020-06-24T07:17:50Z</time>
      </trkpt>
      <trkpt lat="44.46002" lon="1.84819">
        <ele>251.8</ele>
        <time>2020-06-24T07:17:51Z</time>
      </trkpt>
      <trkpt lat="44.46004" lon="1.84822">
        <ele>252.2</ele>
        <time>2020-06-24T07:17:52Z</time>
      </trkpt>
      <trkpt lat="44.46005" lon="1.84825">
        <ele>252.6</ele>
        <time>2020-06-24T07:17:53Z</time>
      </trkpt>
      <trkpt lat="44.46007" lon="1.84828">
        <ele>253</ele>
        <time>2020-06-24T07:17:54Z</time>
      </trkpt>
      <trkpt lat="44.46014" lon="1.84846">
        <ele>253.4</ele>
        <time>2020-06-24T07:17:59Z</time>
      </trkpt>
      <trkpt lat="44.46015" lon="1.8485">
        <ele>253.8</ele>
        <time>2020-06-24T07:18:00Z</time>
      </trkpt>
      <trkpt lat="44.46016" lon="1.84854">
        <ele>254.2</ele>
        <time>2020-06-24T07:18:01Z</time>
      </trkpt>
      <trkpt lat="44.46017" lon="1.84857">
        <ele>254.6</ele>
        <time>2020-06-24T07:18:02Z</time>
      </trkpt>
      <trkpt lat="44.46018" lon="1.8486">
        <ele>255</ele>
        <time>2020-06-24T07:18:03Z</time>
      </trkpt>
      <trkpt lat="44.46024" lon="1.84869">
        <ele>255.4</ele>
        <time>2020-06-24T07:18:07Z</time>
      </trkpt>
      <trkpt lat="44.46026" lon="1.8487">
        <ele>255.8</ele>
        <time>2020-06-24T07:18:08Z</time>
      </trkpt>
      <trkpt lat="44.46028" lon="1.84869">
        <ele>256.4</ele>
        <time>2020-06-24T07:18:09Z</time>
      </trkpt>
      <trkpt lat="44.4603" lon="1.84868">
        <ele>256.8</ele>
        <time>2020-06-24T07:18:10Z</time>
      </trkpt>
      <trkpt lat="44.46032" lon="1.84866">
        <ele>257.2</ele>
        <time>2020-06-24T07:18:11Z</time>
      </trkpt>
      <trkpt lat="44.46034" lon="1.84863">
        <ele>257.2</ele>
        <time>2020-06-24T07:18:12Z</time>
      </trkpt>
      <trkpt lat="44.46031" lon="1.84852">
        <ele>257.2</ele>
        <time>2020-06-24T07:18:15Z</time>
      </trkpt>
      <trkpt lat="44.46025" lon="1.84841">
        <ele>257.2</ele>
        <time>2020-06-24T07:18:18Z</time>
      </trkpt>
      <trkpt lat="44.4602" lon="1.84826">
        <ele>257.2</ele>
        <time>2020-06-24T07:18:22Z</time>
      </trkpt>
      <trkpt lat="44.46019" lon="1.84822">
        <ele>257.6</ele>
        <time>2020-06-24T07:18:23Z</time>
      </trkpt>
      <trkpt lat="44.46018" lon="1.84818">
        <ele>258</ele>
        <time>2020-06-24T07:18:24Z</time>
      </trkpt>
      <trkpt lat="44.46016" lon="1.84813">
        <ele>258.4</ele>
        <time>2020-06-24T07:18:25Z</time>
      </trkpt>
      <trkpt lat="44.46015" lon="1.8481">
        <ele>258.8</ele>
        <time>2020-06-24T07:18:26Z</time>
      </trkpt>
      <trkpt lat="44.46015" lon="1.84805">
        <ele>259.2</ele>
        <time>2020-06-24T07:18:27Z</time>
      </trkpt>
      <trkpt lat="44.46013" lon="1.84792">
        <ele>259.2</ele>
        <time>2020-06-24T07:18:30Z</time>
      </trkpt>
      <trkpt lat="44.4601" lon="1.8478">
        <ele>259.6</ele>
        <time>2020-06-24T07:18:33Z</time>
      </trkpt>
      <trkpt lat="44.46009" lon="1.84777">
        <ele>260</ele>
        <time>2020-06-24T07:18:34Z</time>
      </trkpt>
      <trkpt lat="44.46008" lon="1.84774">
        <ele>260.4</ele>
        <time>2020-06-24T07:18:35Z</time>
      </trkpt>
      <trkpt lat="44.46008" lon="1.8477">
        <ele>260.8</ele>
        <time>2020-06-24T07:18:36Z</time>
      </trkpt>
      <trkpt lat="44.46007" lon="1.84766">
        <ele>261.4</ele>
        <time>2020-06-24T07:18:37Z</time>
      </trkpt>
      <trkpt lat="44.46002" lon="1.84742">
        <ele>261.8</ele>
        <time>2020-06-24T07:18:43Z</time>
      </trkpt>
      <trkpt lat="44.46001" lon="1.84738">
        <ele>262.2</ele>
        <time>2020-06-24T07:18:44Z</time>
      </trkpt>
      <trkpt lat="44.46" lon="1.84734">
        <ele>262.6</ele>
        <time>2020-06-24T07:18:45Z</time>
      </trkpt>
      <trkpt lat="44.46" lon="1.8473">
        <ele>263</ele>
        <time>2020-06-24T07:18:46Z</time>
      </trkpt>
      <trkpt lat="44.45999" lon="1.84726">
        <ele>263.4</ele>
        <time>2020-06-24T07:18:47Z</time>
      </trkpt>
      <trkpt lat="44.45996" lon="1.84714">
        <ele>263.8</ele>
        <time>2020-06-24T07:18:50Z</time>
      </trkpt>
      <trkpt lat="44.45995" lon="1.8471">
        <ele>264.4</ele>
        <time>2020-06-24T07:18:51Z</time>
      </trkpt>
      <trkpt lat="44.45994" lon="1.84706">
        <ele>264.8</ele>
        <time>2020-06-24T07:18:52Z</time>
      </trkpt>
      <trkpt lat="44.45993" lon="1.84703">
        <ele>265.2</ele>
        <time>2020-06-24T07:18:53Z</time>
      </trkpt>
      <trkpt lat="44.45992" lon="1.84699">
        <ele>265.6</ele>
        <time>2020-06-24T07:18:54Z</time>
      </trkpt>
      <trkpt lat="44.45988" lon="1.84677">
        <ele>265.6</ele>
        <time>2020-06-24T07:19:00Z</time>
      </trkpt>
      <trkpt lat="44.45987" lon="1.84673">
        <ele>266</ele>
        <time>2020-06-24T07:19:01Z</time>
      </trkpt>
      <trkpt lat="44.45986" lon="1.84669">
        <ele>266.4</ele>
        <time>2020-06-24T07:19:02Z</time>
      </trkpt>
      <trkpt lat="44.45986" lon="1.84666">
        <ele>266.8</ele>
        <time>2020-06-24T07:19:03Z</time>
      </trkpt>
      <trkpt lat="44.45986" lon="1.84663">
        <ele>267.4</ele>
        <time>2020-06-24T07:19:04Z</time>
      </trkpt>
      <trkpt lat="44.45985" lon="1.84659">
        <ele>267.8</ele>
        <time>2020-06-24T07:19:05Z</time>
      </trkpt>
      <trkpt lat="44.45985" lon="1.84656">
        <ele>267.8</ele>
        <time>2020-06-24T07:19:06Z</time>
      </trkpt>
      <trkpt lat="44.45982" lon="1.84638">
        <ele>268.6</ele>
        <time>2020-06-24T07:19:11Z</time>
      </trkpt>
      <trkpt lat="44.45981" lon="1.84634">
        <ele>269</ele>
        <time>2020-06-24T07:19:12Z</time>
      </trkpt>
      <trkpt lat="44.4598" lon="1.8463">
        <ele>269.4</ele>
        <time>2020-06-24T07:19:13Z</time>
      </trkpt>
      <trkpt lat="44.45979" lon="1.84627">
        <ele>269.8</ele>
        <time>2020-06-24T07:19:14Z</time>
      </trkpt>
      <trkpt lat="44.45975" lon="1.84605">
        <ele>270.2</ele>
        <time>2020-06-24T07:19:20Z</time>
      </trkpt>
      <trkpt lat="44.45975" lon="1.84601">
        <ele>270.8</ele>
        <time>2020-06-24T07:19:21Z</time>
      </trkpt>
      <trkpt lat="44.45975" lon="1.84597">
        <ele>271.2</ele>
        <time>2020-06-24T07:19:22Z</time>
      </trkpt>
      <trkpt lat="44.45975" lon="1.84592">
        <ele>271.6</ele>
        <time>2020-06-24T07:19:23Z</time>
      </trkpt>
      <trkpt lat="44.45974" lon="1.84588">
        <ele>272</ele>
        <time>2020-06-24T07:19:24Z</time>
      </trkpt>
      <trkpt lat="44.45975" lon="1.84571">
        <ele>272.4</ele>
        <time>2020-06-24T07:19:28Z</time>
      </trkpt>
      <trkpt lat="44.45975" lon="1.84567">
        <ele>272.8</ele>
        <time>2020-06-24T07:19:29Z</time>
      </trkpt>
      <trkpt lat="44.45975" lon="1.84563">
        <ele>273.2</ele>
        <time>2020-06-24T07:19:30Z</time>
      </trkpt>
      <trkpt lat="44.45975" lon="1.84559">
        <ele>273.8</ele>
        <time>2020-06-24T07:19:31Z</time>
      </trkpt>
      <trkpt lat="44.45974" lon="1.84556">
        <ele>274.2</ele>
        <time>2020-06-24T07:19:32Z</time>
      </trkpt>
      <trkpt lat="44.45974" lon="1.84545">
        <ele>274.2</ele>
        <time>2020-06-24T07:19:35Z</time>
      </trkpt>
      <trkpt lat="44.45974" lon="1.84541">
        <ele>275</ele>
        <time>2020-06-24T07:19:36Z</time>
      </trkpt>
      <trkpt lat="44.45974" lon="1.84538">
        <ele>275.4</ele>
        <time>2020-06-24T07:19:37Z</time>
      </trkpt>
      <trkpt lat="44.45974" lon="1.84535">
        <ele>275.8</ele>
        <time>2020-06-24T07:19:38Z</time>
      </trkpt>
      <trkpt lat="44.45973" lon="1.84532">
        <ele>276.2</ele>
        <time>2020-06-24T07:19:39Z</time>
      </trkpt>
      <trkpt lat="44.45972" lon="1.84524">
        <ele>276.2</ele>
        <time>2020-06-24T07:19:41Z</time>
      </trkpt>
      <trkpt lat="44.45972" lon="1.84506">
        <ele>276.6</ele>
        <time>2020-06-24T07:19:46Z</time>
      </trkpt>
      <trkpt lat="44.45972" lon="1.84503">
        <ele>277</ele>
        <time>2020-06-24T07:19:47Z</time>
      </trkpt>
      <trkpt lat="44.45972" lon="1.84499">
        <ele>277.4</ele>
        <time>2020-06-24T07:19:48Z</time>
      </trkpt>
      <trkpt lat="44.45972" lon="1.84495">
        <ele>277.8</ele>
        <time>2020-06-24T07:19:49Z</time>
      </trkpt>
      <trkpt lat="44.45974" lon="1.84491">
        <ele>278.2</ele>
        <time>2020-06-24T07:19:50Z</time>
      </trkpt>
      <trkpt lat="44.45977" lon="1.84478">
        <ele>278.2</ele>
        <time>2020-06-24T07:19:54Z</time>
      </trkpt>
      <trkpt lat="44.45976" lon="1.84474">
        <ele>278.2</ele>
        <time>2020-06-24T07:19:56Z</time>
      </trkpt>
      <trkpt lat="44.45975" lon="1.84472">
        <ele>278.2</ele>
        <time>2020-06-24T07:19:58Z</time>
      </trkpt>
      <trkpt lat="44.45974" lon="1.84471">
        <ele>278.2</ele>
        <time>2020-06-24T07:19:59Z</time>
      </trkpt>
      <trkpt lat="44.45971" lon="1.84466">
        <ele>278.2</ele>
        <time>2020-06-24T07:20:03Z</time>
      </trkpt>
      <trkpt lat="44.45969" lon="1.8446">
        <ele>278.2</ele>
        <time>2020-06-24T07:20:06Z</time>
      </trkpt>
      <trkpt lat="44.45967" lon="1.84456">
        <ele>278.2</ele>
        <time>2020-06-24T07:20:08Z</time>
      </trkpt>
      <trkpt lat="44.45961" lon="1.84448">
        <ele>278.2</ele>
        <time>2020-06-24T07:20:13Z</time>
      </trkpt>
      <trkpt lat="44.45955" lon="1.84437">
        <ele>278.2</ele>
        <time>2020-06-24T07:20:19Z</time>
      </trkpt>
      <trkpt lat="44.45948" lon="1.84425">
        <ele>278.2</ele>
        <time>2020-06-24T07:20:25Z</time>
      </trkpt>
      <trkpt lat="44.45937" lon="1.84406">
        <ele>278.2</ele>
        <time>2020-06-24T07:20:30Z</time>
      </trkpt>
      <trkpt lat="44.45925" lon="1.84382">
        <ele>278.2</ele>
        <time>2020-06-24T07:20:34Z</time>
      </trkpt>
      <trkpt lat="44.45921" lon="1.84374">
        <ele>277.8</ele>
        <time>2020-06-24T07:20:35Z</time>
      </trkpt>
      <trkpt lat="44.45919" lon="1.84366">
        <ele>277.4</ele>
        <time>2020-06-24T07:20:36Z</time>
      </trkpt>
      <trkpt lat="44.45917" lon="1.84357">
        <ele>277</ele>
        <time>2020-06-24T07:20:37Z</time>
      </trkpt>
      <trkpt lat="44.45916" lon="1.84348">
        <ele>276.6</ele>
        <time>2020-06-24T07:20:38Z</time>
      </trkpt>
      <trkpt lat="44.45914" lon="1.84338">
        <ele>276</ele>
        <time>2020-06-24T07:20:39Z</time>
      </trkpt>
      <trkpt lat="44.45909" lon="1.84318">
        <ele>275.6</ele>
        <time>2020-06-24T07:20:41Z</time>
      </trkpt>
      <trkpt lat="44.45904" lon="1.84309">
        <ele>275.2</ele>
        <time>2020-06-24T07:20:42Z</time>
      </trkpt>
      <trkpt lat="44.45899" lon="1.84299">
        <ele>274.8</ele>
        <time>2020-06-24T07:20:43Z</time>
      </trkpt>
      <trkpt lat="44.45894" lon="1.84291">
        <ele>274.4</ele>
        <time>2020-06-24T07:20:44Z</time>
      </trkpt>
      <trkpt lat="44.45887" lon="1.84284">
        <ele>273.8</ele>
        <time>2020-06-24T07:20:45Z</time>
      </trkpt>
      <trkpt lat="44.45879" lon="1.84279">
        <ele>273.2</ele>
        <time>2020-06-24T07:20:46Z</time>
      </trkpt>
      <trkpt lat="44.45871" lon="1.84276">
        <ele>272.8</ele>
        <time>2020-06-24T07:20:47Z</time>
      </trkpt>
      <trkpt lat="44.45863" lon="1.84272">
        <ele>272.2</ele>
        <time>2020-06-24T07:20:48Z</time>
      </trkpt>
      <trkpt lat="44.45855" lon="1.84269">
        <ele>271.8</ele>
        <time>2020-06-24T07:20:49Z</time>
      </trkpt>
      <trkpt lat="44.4584" lon="1.84263">
        <ele>271.8</ele>
        <time>2020-06-24T07:20:51Z</time>
      </trkpt>
      <trkpt lat="44.45808" lon="1.84251">
        <ele>271.8</ele>
        <time>2020-06-24T07:20:56Z</time>
      </trkpt>
      <trkpt lat="44.45781" lon="1.84238">
        <ele>271.8</ele>
        <time>2020-06-24T07:21:02Z</time>
      </trkpt>
      <trkpt lat="44.45761" lon="1.84229">
        <ele>272.2</ele>
        <time>2020-06-24T07:21:07Z</time>
      </trkpt>
      <trkpt lat="44.45757" lon="1.84227">
        <ele>272.6</ele>
        <time>2020-06-24T07:21:08Z</time>
      </trkpt>
      <trkpt lat="44.45754" lon="1.84225">
        <ele>273</ele>
        <time>2020-06-24T07:21:09Z</time>
      </trkpt>
      <trkpt lat="44.45751" lon="1.84224">
        <ele>273.4</ele>
        <time>2020-06-24T07:21:10Z</time>
      </trkpt>
      <trkpt lat="44.45748" lon="1.84222">
        <ele>273.8</ele>
        <time>2020-06-24T07:21:11Z</time>
      </trkpt>
      <trkpt lat="44.4574" lon="1.84217">
        <ele>273.8</ele>
        <time>2020-06-24T07:21:14Z</time>
      </trkpt>
      <trkpt lat="44.45737" lon="1.84214">
        <ele>274.2</ele>
        <time>2020-06-24T07:21:15Z</time>
      </trkpt>
      <trkpt lat="44.45735" lon="1.84213">
        <ele>274.8</ele>
        <time>2020-06-24T07:21:16Z</time>
      </trkpt>
      <trkpt lat="44.45733" lon="1.84212">
        <ele>275.2</ele>
        <time>2020-06-24T07:21:17Z</time>
      </trkpt>
      <trkpt lat="44.4573" lon="1.8421">
        <ele>275.6</ele>
        <time>2020-06-24T07:21:18Z</time>
      </trkpt>
      <trkpt lat="44.45727" lon="1.84209">
        <ele>276</ele>
        <time>2020-06-24T07:21:19Z</time>
      </trkpt>
      <trkpt lat="44.45716" lon="1.84204">
        <ele>276.4</ele>
        <time>2020-06-24T07:21:23Z</time>
      </trkpt>
      <trkpt lat="44.45713" lon="1.84203">
        <ele>276.8</ele>
        <time>2020-06-24T07:21:24Z</time>
      </trkpt>
      <trkpt lat="44.4571" lon="1.84201">
        <ele>277.4</ele>
        <time>2020-06-24T07:21:25Z</time>
      </trkpt>
      <trkpt lat="44.45708" lon="1.842">
        <ele>277.8</ele>
        <time>2020-06-24T07:21:26Z</time>
      </trkpt>
      <trkpt lat="44.45705" lon="1.84199">
        <ele>278.2</ele>
        <time>2020-06-24T07:21:27Z</time>
      </trkpt>
      <trkpt lat="44.45697" lon="1.84193">
        <ele>278.6</ele>
        <time>2020-06-24T07:21:30Z</time>
      </trkpt>
      <trkpt lat="44.45694" lon="1.84191">
        <ele>279</ele>
        <time>2020-06-24T07:21:31Z</time>
      </trkpt>
      <trkpt lat="44.45692" lon="1.84189">
        <ele>279.6</ele>
        <time>2020-06-24T07:21:32Z</time>
      </trkpt>
      <trkpt lat="44.45689" lon="1.84188">
        <ele>280</ele>
        <time>2020-06-24T07:21:33Z</time>
      </trkpt>
      <trkpt lat="44.45686" lon="1.84186">
        <ele>280.4</ele>
        <time>2020-06-24T07:21:34Z</time>
      </trkpt>
      <trkpt lat="44.45676" lon="1.84182">
        <ele>280.8</ele>
        <time>2020-06-24T07:21:38Z</time>
      </trkpt>
      <trkpt lat="44.45673" lon="1.8418">
        <ele>281.2</ele>
        <time>2020-06-24T07:21:39Z</time>
      </trkpt>
      <trkpt lat="44.45671" lon="1.8418">
        <ele>282</ele>
        <time>2020-06-24T07:21:40Z</time>
      </trkpt>
      <trkpt lat="44.45668" lon="1.84178">
        <ele>282.6</ele>
        <time>2020-06-24T07:21:41Z</time>
      </trkpt>
      <trkpt lat="44.45661" lon="1.84174">
        <ele>282.6</ele>
        <time>2020-06-24T07:21:44Z</time>
      </trkpt>
      <trkpt lat="44.45653" lon="1.84171">
        <ele>283</ele>
        <time>2020-06-24T07:21:47Z</time>
      </trkpt>
      <trkpt lat="44.45651" lon="1.84169">
        <ele>283.4</ele>
        <time>2020-06-24T07:21:48Z</time>
      </trkpt>
      <trkpt lat="44.45648" lon="1.84167">
        <ele>283.8</ele>
        <time>2020-06-24T07:21:49Z</time>
      </trkpt>
      <trkpt lat="44.45646" lon="1.84166">
        <ele>284.2</ele>
        <time>2020-06-24T07:21:50Z</time>
      </trkpt>
      <trkpt lat="44.45643" lon="1.84164">
        <ele>284.6</ele>
        <time>2020-06-24T07:21:51Z</time>
      </trkpt>
      <trkpt lat="44.45626" lon="1.84153">
        <ele>284.6</ele>
        <time>2020-06-24T07:21:58Z</time>
      </trkpt>
      <trkpt lat="44.45606" lon="1.84144">
        <ele>285</ele>
        <time>2020-06-24T07:22:06Z</time>
      </trkpt>
      <trkpt lat="44.45604" lon="1.84143">
        <ele>285.4</ele>
        <time>2020-06-24T07:22:07Z</time>
      </trkpt>
      <trkpt lat="44.45601" lon="1.84141">
        <ele>285.8</ele>
        <time>2020-06-24T07:22:08Z</time>
      </trkpt>
      <trkpt lat="44.45598" lon="1.8414">
        <ele>286.2</ele>
        <time>2020-06-24T07:22:09Z</time>
      </trkpt>
      <trkpt lat="44.45595" lon="1.84139">
        <ele>286.6</ele>
        <time>2020-06-24T07:22:10Z</time>
      </trkpt>
      <trkpt lat="44.45586" lon="1.84134">
        <ele>286.6</ele>
        <time>2020-06-24T07:22:13Z</time>
      </trkpt>
      <trkpt lat="44.45563" lon="1.84124">
        <ele>286.6</ele>
        <time>2020-06-24T07:22:21Z</time>
      </trkpt>
      <trkpt lat="44.45537" lon="1.84112">
        <ele>286.6</ele>
        <time>2020-06-24T07:22:28Z</time>
      </trkpt>
      <trkpt lat="44.45504" lon="1.84095">
        <ele>286.2</ele>
        <time>2020-06-24T07:22:35Z</time>
      </trkpt>
      <trkpt lat="44.45498" lon="1.84092">
        <ele>285.8</ele>
        <time>2020-06-24T07:22:36Z</time>
      </trkpt>
      <trkpt lat="44.45492" lon="1.84089">
        <ele>285.4</ele>
        <time>2020-06-24T07:22:37Z</time>
      </trkpt>
      <trkpt lat="44.45486" lon="1.84087">
        <ele>285</ele>
        <time>2020-06-24T07:22:38Z</time>
      </trkpt>
      <trkpt lat="44.4548" lon="1.84084">
        <ele>284.6</ele>
        <time>2020-06-24T07:22:39Z</time>
      </trkpt>
      <trkpt lat="44.45473" lon="1.84081">
        <ele>284.6</ele>
        <time>2020-06-24T07:22:40Z</time>
      </trkpt>
      <trkpt lat="44.45466" lon="1.84078">
        <ele>284</ele>
        <time>2020-06-24T07:22:41Z</time>
      </trkpt>
      <trkpt lat="44.45459" lon="1.84075">
        <ele>283.6</ele>
        <time>2020-06-24T07:22:42Z</time>
      </trkpt>
      <trkpt lat="44.45453" lon="1.84069">
        <ele>283.2</ele>
        <time>2020-06-24T07:22:43Z</time>
      </trkpt>
      <trkpt lat="44.45448" lon="1.84063">
        <ele>282.8</ele>
        <time>2020-06-24T07:22:44Z</time>
      </trkpt>
      <trkpt lat="44.45443" lon="1.84057">
        <ele>282.4</ele>
        <time>2020-06-24T07:22:45Z</time>
      </trkpt>
      <trkpt lat="44.45439" lon="1.84051">
        <ele>282.4</ele>
        <time>2020-06-24T07:22:46Z</time>
      </trkpt>
      <trkpt lat="44.45436" lon="1.84047">
        <ele>282.4</ele>
        <time>2020-06-24T07:22:47Z</time>
      </trkpt>
      <trkpt lat="44.45434" lon="1.84038">
        <ele>282.4</ele>
        <time>2020-06-24T07:22:49Z</time>
      </trkpt>
      <trkpt lat="44.45435" lon="1.84033">
        <ele>282.4</ele>
        <time>2020-06-24T07:22:50Z</time>
      </trkpt>
      <trkpt lat="44.45442" lon="1.84003">
        <ele>282.4</ele>
        <time>2020-06-24T07:22:56Z</time>
      </trkpt>
      <trkpt lat="44.45453" lon="1.83985">
        <ele>282.4</ele>
        <time>2020-06-24T07:23:00Z</time>
      </trkpt>
      <trkpt lat="44.45455" lon="1.8398">
        <ele>282.4</ele>
        <time>2020-06-24T07:23:01Z</time>
      </trkpt>
      <trkpt lat="44.45466" lon="1.83961">
        <ele>282.4</ele>
        <time>2020-06-24T07:23:05Z</time>
      </trkpt>
      <trkpt lat="44.45469" lon="1.83955">
        <ele>282.4</ele>
        <time>2020-06-24T07:23:06Z</time>
      </trkpt>
      <trkpt lat="44.45478" lon="1.83933">
        <ele>282.4</ele>
        <time>2020-06-24T07:23:10Z</time>
      </trkpt>
      <trkpt lat="44.4549" lon="1.83907">
        <ele>282</ele>
        <time>2020-06-24T07:23:15Z</time>
      </trkpt>
      <trkpt lat="44.45492" lon="1.83902">
        <ele>281.6</ele>
        <time>2020-06-24T07:23:16Z</time>
      </trkpt>
      <trkpt lat="44.45495" lon="1.83897">
        <ele>281.2</ele>
        <time>2020-06-24T07:23:17Z</time>
      </trkpt>
      <trkpt lat="44.45498" lon="1.83891">
        <ele>280.2</ele>
        <time>2020-06-24T07:23:18Z</time>
      </trkpt>
      <trkpt lat="44.45514" lon="1.83866">
        <ele>280.2</ele>
        <time>2020-06-24T07:23:22Z</time>
      </trkpt>
      <trkpt lat="44.45519" lon="1.83859">
        <ele>279.8</ele>
        <time>2020-06-24T07:23:23Z</time>
      </trkpt>
      <trkpt lat="44.45524" lon="1.83852">
        <ele>279.2</ele>
        <time>2020-06-24T07:23:24Z</time>
      </trkpt>
      <trkpt lat="44.45528" lon="1.83845">
        <ele>278.8</ele>
        <time>2020-06-24T07:23:25Z</time>
      </trkpt>
      <trkpt lat="44.45531" lon="1.83837">
        <ele>278</ele>
        <time>2020-06-24T07:23:26Z</time>
      </trkpt>
      <trkpt lat="44.45534" lon="1.8383">
        <ele>277.4</ele>
        <time>2020-06-24T07:23:27Z</time>
      </trkpt>
      <trkpt lat="44.45536" lon="1.83821">
        <ele>276.6</ele>
        <time>2020-06-24T07:23:28Z</time>
      </trkpt>
      <trkpt lat="44.45537" lon="1.83813">
        <ele>275.6</ele>
        <time>2020-06-24T07:23:29Z</time>
      </trkpt>
      <trkpt lat="44.45537" lon="1.83805">
        <ele>274.8</ele>
        <time>2020-06-24T07:23:30Z</time>
      </trkpt>
      <trkpt lat="44.45535" lon="1.83797">
        <ele>273.8</ele>
        <time>2020-06-24T07:23:31Z</time>
      </trkpt>
      <trkpt lat="44.45534" lon="1.83788">
        <ele>272.8</ele>
        <time>2020-06-24T07:23:32Z</time>
      </trkpt>
      <trkpt lat="44.45531" lon="1.83778">
        <ele>272</ele>
        <time>2020-06-24T07:23:33Z</time>
      </trkpt>
      <trkpt lat="44.45528" lon="1.83768">
        <ele>271.2</ele>
        <time>2020-06-24T07:23:34Z</time>
      </trkpt>
      <trkpt lat="44.45524" lon="1.83758">
        <ele>270.6</ele>
        <time>2020-06-24T07:23:35Z</time>
      </trkpt>
      <trkpt lat="44.4552" lon="1.83749">
        <ele>269.8</ele>
        <time>2020-06-24T07:23:36Z</time>
      </trkpt>
      <trkpt lat="44.45515" lon="1.83739">
        <ele>269</ele>
        <time>2020-06-24T07:23:37Z</time>
      </trkpt>
      <trkpt lat="44.4551" lon="1.83729">
        <ele>268.2</ele>
        <time>2020-06-24T07:23:38Z</time>
      </trkpt>
      <trkpt lat="44.45505" lon="1.83722">
        <ele>267.4</ele>
        <time>2020-06-24T07:23:39Z</time>
      </trkpt>
      <trkpt lat="44.45501" lon="1.83714">
        <ele>266.6</ele>
        <time>2020-06-24T07:23:40Z</time>
      </trkpt>
      <trkpt lat="44.45495" lon="1.83706">
        <ele>266</ele>
        <time>2020-06-24T07:23:41Z</time>
      </trkpt>
      <trkpt lat="44.45491" lon="1.83697">
        <ele>264.4</ele>
        <time>2020-06-24T07:23:42Z</time>
      </trkpt>
      <trkpt lat="44.45486" lon="1.83688">
        <ele>263.8</ele>
        <time>2020-06-24T07:23:43Z</time>
      </trkpt>
      <trkpt lat="44.45481" lon="1.83679">
        <ele>262.8</ele>
        <time>2020-06-24T07:23:44Z</time>
      </trkpt>
      <trkpt lat="44.45476" lon="1.8367">
        <ele>262</ele>
        <time>2020-06-24T07:23:45Z</time>
      </trkpt>
      <trkpt lat="44.45471" lon="1.83661">
        <ele>261</ele>
        <time>2020-06-24T07:23:46Z</time>
      </trkpt>
      <trkpt lat="44.45466" lon="1.83653">
        <ele>260</ele>
        <time>2020-06-24T07:23:47Z</time>
      </trkpt>
      <trkpt lat="44.45461" lon="1.83645">
        <ele>258.8</ele>
        <time>2020-06-24T07:23:48Z</time>
      </trkpt>
      <trkpt lat="44.45456" lon="1.83638">
        <ele>257.6</ele>
        <time>2020-06-24T07:23:49Z</time>
      </trkpt>
      <trkpt lat="44.4545" lon="1.83633">
        <ele>256.4</ele>
        <time>2020-06-24T07:23:50Z</time>
      </trkpt>
      <trkpt lat="44.45444" lon="1.83629">
        <ele>255.2</ele>
        <time>2020-06-24T07:23:51Z</time>
      </trkpt>
      <trkpt lat="44.45438" lon="1.83626">
        <ele>254.2</ele>
        <time>2020-06-24T07:23:52Z</time>
      </trkpt>
      <trkpt lat="44.45432" lon="1.83623">
        <ele>253.2</ele>
        <time>2020-06-24T07:23:53Z</time>
      </trkpt>
      <trkpt lat="44.45425" lon="1.83621">
        <ele>252</ele>
        <time>2020-06-24T07:23:54Z</time>
      </trkpt>
      <trkpt lat="44.45417" lon="1.83619">
        <ele>251</ele>
        <time>2020-06-24T07:23:55Z</time>
      </trkpt>
      <trkpt lat="44.4541" lon="1.83617">
        <ele>250</ele>
        <time>2020-06-24T07:23:56Z</time>
      </trkpt>
      <trkpt lat="44.45402" lon="1.83615">
        <ele>249.2</ele>
        <time>2020-06-24T07:23:57Z</time>
      </trkpt>
      <trkpt lat="44.45394" lon="1.83614">
        <ele>248.2</ele>
        <time>2020-06-24T07:23:58Z</time>
      </trkpt>
      <trkpt lat="44.45388" lon="1.83614">
        <ele>247.4</ele>
        <time>2020-06-24T07:23:59Z</time>
      </trkpt>
      <trkpt lat="44.45382" lon="1.83613">
        <ele>246.6</ele>
        <time>2020-06-24T07:24:00Z</time>
      </trkpt>
      <trkpt lat="44.45379" lon="1.83607">
        <ele>245.8</ele>
        <time>2020-06-24T07:24:01Z</time>
      </trkpt>
      <trkpt lat="44.45379" lon="1.83601">
        <ele>244.8</ele>
        <time>2020-06-24T07:24:02Z</time>
      </trkpt>
      <trkpt lat="44.45383" lon="1.83594">
        <ele>244</ele>
        <time>2020-06-24T07:24:03Z</time>
      </trkpt>
      <trkpt lat="44.45387" lon="1.8359">
        <ele>243.4</ele>
        <time>2020-06-24T07:24:04Z</time>
      </trkpt>
      <trkpt lat="44.45391" lon="1.83587">
        <ele>242.8</ele>
        <time>2020-06-24T07:24:05Z</time>
      </trkpt>
      <trkpt lat="44.45395" lon="1.83585">
        <ele>242.2</ele>
        <time>2020-06-24T07:24:06Z</time>
      </trkpt>
      <trkpt lat="44.454" lon="1.83583">
        <ele>240.6</ele>
        <time>2020-06-24T07:24:07Z</time>
      </trkpt>
      <trkpt lat="44.45407" lon="1.83583">
        <ele>239.6</ele>
        <time>2020-06-24T07:24:08Z</time>
      </trkpt>
      <trkpt lat="44.45413" lon="1.83582">
        <ele>238.8</ele>
        <time>2020-06-24T07:24:09Z</time>
      </trkpt>
      <trkpt lat="44.45419" lon="1.8358">
        <ele>237.8</ele>
        <time>2020-06-24T07:24:10Z</time>
      </trkpt>
      <trkpt lat="44.45424" lon="1.83577">
        <ele>237</ele>
        <time>2020-06-24T07:24:11Z</time>
      </trkpt>
      <trkpt lat="44.45429" lon="1.83574">
        <ele>236</ele>
        <time>2020-06-24T07:24:12Z</time>
      </trkpt>
      <trkpt lat="44.45434" lon="1.83571">
        <ele>235.2</ele>
        <time>2020-06-24T07:24:13Z</time>
      </trkpt>
      <trkpt lat="44.45438" lon="1.83571">
        <ele>234.4</ele>
        <time>2020-06-24T07:24:14Z</time>
      </trkpt>
      <trkpt lat="44.45442" lon="1.8357">
        <ele>233.4</ele>
        <time>2020-06-24T07:24:15Z</time>
      </trkpt>
      <trkpt lat="44.45447" lon="1.8357">
        <ele>232.8</ele>
        <time>2020-06-24T07:24:16Z</time>
      </trkpt>
      <trkpt lat="44.45453" lon="1.83569">
        <ele>232.2</ele>
        <time>2020-06-24T07:24:17Z</time>
      </trkpt>
      <trkpt lat="44.45459" lon="1.83569">
        <ele>231.6</ele>
        <time>2020-06-24T07:24:18Z</time>
      </trkpt>
      <trkpt lat="44.45464" lon="1.83569">
        <ele>230.8</ele>
        <time>2020-06-24T07:24:19Z</time>
      </trkpt>
      <trkpt lat="44.45471" lon="1.8357">
        <ele>230.2</ele>
        <time>2020-06-24T07:24:20Z</time>
      </trkpt>
      <trkpt lat="44.45479" lon="1.83571">
        <ele>229.4</ele>
        <time>2020-06-24T07:24:21Z</time>
      </trkpt>
      <trkpt lat="44.45486" lon="1.83573">
        <ele>228.6</ele>
        <time>2020-06-24T07:24:22Z</time>
      </trkpt>
      <trkpt lat="44.45494" lon="1.83576">
        <ele>227.6</ele>
        <time>2020-06-24T07:24:23Z</time>
      </trkpt>
      <trkpt lat="44.45503" lon="1.83578">
        <ele>226.6</ele>
        <time>2020-06-24T07:24:24Z</time>
      </trkpt>
      <trkpt lat="44.45512" lon="1.83581">
        <ele>225.8</ele>
        <time>2020-06-24T07:24:25Z</time>
      </trkpt>
      <trkpt lat="44.4552" lon="1.83584">
        <ele>224.8</ele>
        <time>2020-06-24T07:24:26Z</time>
      </trkpt>
      <trkpt lat="44.45528" lon="1.83587">
        <ele>223.8</ele>
        <time>2020-06-24T07:24:27Z</time>
      </trkpt>
      <trkpt lat="44.45536" lon="1.8359">
        <ele>222.8</ele>
        <time>2020-06-24T07:24:28Z</time>
      </trkpt>
      <trkpt lat="44.45543" lon="1.83593">
        <ele>221.8</ele>
        <time>2020-06-24T07:24:29Z</time>
      </trkpt>
      <trkpt lat="44.45551" lon="1.83596">
        <ele>220.8</ele>
        <time>2020-06-24T07:24:30Z</time>
      </trkpt>
      <trkpt lat="44.45559" lon="1.83601">
        <ele>219</ele>
        <time>2020-06-24T07:24:31Z</time>
      </trkpt>
      <trkpt lat="44.45567" lon="1.83604">
        <ele>218</ele>
        <time>2020-06-24T07:24:32Z</time>
      </trkpt>
      <trkpt lat="44.45575" lon="1.83609">
        <ele>217.2</ele>
        <time>2020-06-24T07:24:33Z</time>
      </trkpt>
      <trkpt lat="44.45583" lon="1.83614">
        <ele>216.4</ele>
        <time>2020-06-24T07:24:34Z</time>
      </trkpt>
      <trkpt lat="44.45591" lon="1.83618">
        <ele>215.4</ele>
        <time>2020-06-24T07:24:35Z</time>
      </trkpt>
      <trkpt lat="44.45598" lon="1.83622">
        <ele>214.6</ele>
        <time>2020-06-24T07:24:36Z</time>
      </trkpt>
      <trkpt lat="44.45606" lon="1.83627">
        <ele>213.6</ele>
        <time>2020-06-24T07:24:37Z</time>
      </trkpt>
      <trkpt lat="44.45614" lon="1.83631">
        <ele>212.6</ele>
        <time>2020-06-24T07:24:38Z</time>
      </trkpt>
      <trkpt lat="44.45622" lon="1.83635">
        <ele>211.6</ele>
        <time>2020-06-24T07:24:39Z</time>
      </trkpt>
      <trkpt lat="44.45631" lon="1.83639">
        <ele>210.6</ele>
        <time>2020-06-24T07:24:40Z</time>
      </trkpt>
      <trkpt lat="44.4564" lon="1.83643">
        <ele>209.6</ele>
        <time>2020-06-24T07:24:41Z</time>
      </trkpt>
      <trkpt lat="44.45648" lon="1.83647">
        <ele>208.6</ele>
        <time>2020-06-24T07:24:42Z</time>
      </trkpt>
      <trkpt lat="44.45656" lon="1.83651">
        <ele>207.6</ele>
        <time>2020-06-24T07:24:43Z</time>
      </trkpt>
      <trkpt lat="44.45663" lon="1.83655">
        <ele>206.8</ele>
        <time>2020-06-24T07:24:44Z</time>
      </trkpt>
      <trkpt lat="44.45671" lon="1.83659">
        <ele>206</ele>
        <time>2020-06-24T07:24:45Z</time>
      </trkpt>
      <trkpt lat="44.45679" lon="1.83662">
        <ele>205</ele>
        <time>2020-06-24T07:24:46Z</time>
      </trkpt>
      <trkpt lat="44.45686" lon="1.83664">
        <ele>204.2</ele>
        <time>2020-06-24T07:24:47Z</time>
      </trkpt>
      <trkpt lat="44.45693" lon="1.83667">
        <ele>203.4</ele>
        <time>2020-06-24T07:24:48Z</time>
      </trkpt>
      <trkpt lat="44.45701" lon="1.83669">
        <ele>202.4</ele>
        <time>2020-06-24T07:24:49Z</time>
      </trkpt>
      <trkpt lat="44.45708" lon="1.83671">
        <ele>201.6</ele>
        <time>2020-06-24T07:24:50Z</time>
      </trkpt>
      <trkpt lat="44.45716" lon="1.83673">
        <ele>200.6</ele>
        <time>2020-06-24T07:24:51Z</time>
      </trkpt>
      <trkpt lat="44.45723" lon="1.83675">
        <ele>199.8</ele>
        <time>2020-06-24T07:24:52Z</time>
      </trkpt>
      <trkpt lat="44.4573" lon="1.83676">
        <ele>199</ele>
        <time>2020-06-24T07:24:53Z</time>
      </trkpt>
      <trkpt lat="44.45737" lon="1.83675">
        <ele>198.2</ele>
        <time>2020-06-24T07:24:54Z</time>
      </trkpt>
      <trkpt lat="44.45744" lon="1.83673">
        <ele>197.4</ele>
        <time>2020-06-24T07:24:55Z</time>
      </trkpt>
      <trkpt lat="44.4575" lon="1.83669">
        <ele>196</ele>
        <time>2020-06-24T07:24:56Z</time>
      </trkpt>
      <trkpt lat="44.45756" lon="1.83664">
        <ele>195.2</ele>
        <time>2020-06-24T07:24:57Z</time>
      </trkpt>
      <trkpt lat="44.45762" lon="1.83658">
        <ele>194.6</ele>
        <time>2020-06-24T07:24:58Z</time>
      </trkpt>
      <trkpt lat="44.45767" lon="1.83653">
        <ele>194</ele>
        <time>2020-06-24T07:24:59Z</time>
      </trkpt>
      <trkpt lat="44.45773" lon="1.83648">
        <ele>193.4</ele>
        <time>2020-06-24T07:25:00Z</time>
      </trkpt>
      <trkpt lat="44.45778" lon="1.83642">
        <ele>192.8</ele>
        <time>2020-06-24T07:25:01Z</time>
      </trkpt>
      <trkpt lat="44.45783" lon="1.83637">
        <ele>192.4</ele>
        <time>2020-06-24T07:25:02Z</time>
      </trkpt>
      <trkpt lat="44.45788" lon="1.83632">
        <ele>191.8</ele>
        <time>2020-06-24T07:25:03Z</time>
      </trkpt>
      <trkpt lat="44.45792" lon="1.83628">
        <ele>191.2</ele>
        <time>2020-06-24T07:25:04Z</time>
      </trkpt>
      <trkpt lat="44.45796" lon="1.83625">
        <ele>190.6</ele>
        <time>2020-06-24T07:25:05Z</time>
      </trkpt>
      <trkpt lat="44.45798" lon="1.83623">
        <ele>190</ele>
        <time>2020-06-24T07:25:06Z</time>
      </trkpt>
      <trkpt lat="44.45801" lon="1.83622">
        <ele>189.4</ele>
        <time>2020-06-24T07:25:07Z</time>
      </trkpt>
      <trkpt lat="44.45804" lon="1.8362">
        <ele>189</ele>
        <time>2020-06-24T07:25:08Z</time>
      </trkpt>
      <trkpt lat="44.45805" lon="1.8362">
        <ele>188.4</ele>
        <time>2020-06-24T07:25:09Z</time>
      </trkpt>
      <trkpt lat="44.45807" lon="1.83618">
        <ele>188</ele>
        <time>2020-06-24T07:25:10Z</time>
      </trkpt>
      <trkpt lat="44.45807" lon="1.83617">
        <ele>187.4</ele>
        <time>2020-06-24T07:25:11Z</time>
      </trkpt>
      <trkpt lat="44.45806" lon="1.83612">
        <ele>187.4</ele>
        <time>2020-06-24T07:25:13Z</time>
      </trkpt>
      <trkpt lat="44.45803" lon="1.83607">
        <ele>187.4</ele>
        <time>2020-06-24T07:25:15Z</time>
      </trkpt>
      <trkpt lat="44.45795" lon="1.83597">
        <ele>187.4</ele>
        <time>2020-06-24T07:25:21Z</time>
      </trkpt>
      <trkpt lat="44.45794" lon="1.83595">
        <ele>187.4</ele>
        <time>2020-06-24T07:25:22Z</time>
      </trkpt>
      <trkpt lat="44.45785" lon="1.83584">
        <ele>187.4</ele>
        <time>2020-06-24T07:25:28Z</time>
      </trkpt>
      <trkpt lat="44.45782" lon="1.83581">
        <ele>187.8</ele>
        <time>2020-06-24T07:25:30Z</time>
      </trkpt>
      <trkpt lat="44.4578" lon="1.8358">
        <ele>188.2</ele>
        <time>2020-06-24T07:25:31Z</time>
      </trkpt>
      <trkpt lat="44.45778" lon="1.83578">
        <ele>188.6</ele>
        <time>2020-06-24T07:25:32Z</time>
      </trkpt>
      <trkpt lat="44.45777" lon="1.83576">
        <ele>189</ele>
        <time>2020-06-24T07:25:33Z</time>
      </trkpt>
      <trkpt lat="44.45775" lon="1.83574">
        <ele>189.4</ele>
        <time>2020-06-24T07:25:34Z</time>
      </trkpt>
      <trkpt lat="44.45772" lon="1.8357">
        <ele>189.4</ele>
        <time>2020-06-24T07:25:36Z</time>
      </trkpt>
      <trkpt lat="44.4577" lon="1.83568">
        <ele>189.8</ele>
        <time>2020-06-24T07:25:37Z</time>
      </trkpt>
      <trkpt lat="44.45769" lon="1.83566">
        <ele>190.2</ele>
        <time>2020-06-24T07:25:38Z</time>
      </trkpt>
      <trkpt lat="44.45767" lon="1.83565">
        <ele>190.6</ele>
        <time>2020-06-24T07:25:39Z</time>
      </trkpt>
      <trkpt lat="44.45766" lon="1.83563">
        <ele>191</ele>
        <time>2020-06-24T07:25:40Z</time>
      </trkpt>
      <trkpt lat="44.45765" lon="1.83561">
        <ele>191.4</ele>
        <time>2020-06-24T07:25:41Z</time>
      </trkpt>
      <trkpt lat="44.45761" lon="1.83557">
        <ele>191.4</ele>
        <time>2020-06-24T07:25:43Z</time>
      </trkpt>
      <trkpt lat="44.45757" lon="1.83554">
        <ele>191.8</ele>
        <time>2020-06-24T07:25:45Z</time>
      </trkpt>
      <trkpt lat="44.45755" lon="1.83552">
        <ele>192.8</ele>
        <time>2020-06-24T07:25:46Z</time>
      </trkpt>
      <trkpt lat="44.45754" lon="1.83551">
        <ele>193.2</ele>
        <time>2020-06-24T07:25:47Z</time>
      </trkpt>
      <trkpt lat="44.45752" lon="1.8355">
        <ele>193.6</ele>
        <time>2020-06-24T07:25:48Z</time>
      </trkpt>
      <trkpt lat="44.4575" lon="1.83548">
        <ele>193.6</ele>
        <time>2020-06-24T07:25:50Z</time>
      </trkpt>
      <trkpt lat="44.45746" lon="1.83542">
        <ele>194</ele>
        <time>2020-06-24T07:25:53Z</time>
      </trkpt>
      <trkpt lat="44.45745" lon="1.83541">
        <ele>194.4</ele>
        <time>2020-06-24T07:25:54Z</time>
      </trkpt>
      <trkpt lat="44.45743" lon="1.83539">
        <ele>195</ele>
        <time>2020-06-24T07:25:55Z</time>
      </trkpt>
      <trkpt lat="44.45742" lon="1.83538">
        <ele>195.4</ele>
        <time>2020-06-24T07:25:56Z</time>
      </trkpt>
      <trkpt lat="44.45741" lon="1.83536">
        <ele>195.8</ele>
        <time>2020-06-24T07:25:57Z</time>
      </trkpt>
      <trkpt lat="44.45737" lon="1.83531">
        <ele>196.2</ele>
        <time>2020-06-24T07:26:00Z</time>
      </trkpt>
      <trkpt lat="44.45737" lon="1.83529">
        <ele>196.6</ele>
        <time>2020-06-24T07:26:01Z</time>
      </trkpt>
      <trkpt lat="44.45736" lon="1.83527">
        <ele>197.2</ele>
        <time>2020-06-24T07:26:02Z</time>
      </trkpt>
      <trkpt lat="44.45736" lon="1.83525">
        <ele>197.6</ele>
        <time>2020-06-24T07:26:03Z</time>
      </trkpt>
      <trkpt lat="44.45736" lon="1.83522">
        <ele>198</ele>
        <time>2020-06-24T07:26:04Z</time>
      </trkpt>
      <trkpt lat="44.45731" lon="1.83516">
        <ele>198</ele>
        <time>2020-06-24T07:26:07Z</time>
      </trkpt>
      <trkpt lat="44.45725" lon="1.83511">
        <ele>198.4</ele>
        <time>2020-06-24T07:26:10Z</time>
      </trkpt>
      <trkpt lat="44.45723" lon="1.8351">
        <ele>198.8</ele>
        <time>2020-06-24T07:26:11Z</time>
      </trkpt>
      <trkpt lat="44.45722" lon="1.83508">
        <ele>199.2</ele>
        <time>2020-06-24T07:26:12Z</time>
      </trkpt>
      <trkpt lat="44.45722" lon="1.83506">
        <ele>199.8</ele>
        <time>2020-06-24T07:26:13Z</time>
      </trkpt>
      <trkpt lat="44.45721" lon="1.83504">
        <ele>200.2</ele>
        <time>2020-06-24T07:26:14Z</time>
      </trkpt>
      <trkpt lat="44.45715" lon="1.83497">
        <ele>200.2</ele>
        <time>2020-06-24T07:26:19Z</time>
      </trkpt>
      <trkpt lat="44.45714" lon="1.83496">
        <ele>200.6</ele>
        <time>2020-06-24T07:26:20Z</time>
      </trkpt>
      <trkpt lat="44.45713" lon="1.83495">
        <ele>201</ele>
        <time>2020-06-24T07:26:21Z</time>
      </trkpt>
      <trkpt lat="44.45712" lon="1.83494">
        <ele>201.4</ele>
        <time>2020-06-24T07:26:22Z</time>
      </trkpt>
      <trkpt lat="44.45711" lon="1.83492">
        <ele>201.8</ele>
        <time>2020-06-24T07:26:23Z</time>
      </trkpt>
      <trkpt lat="44.4571" lon="1.83491">
        <ele>202.2</ele>
        <time>2020-06-24T07:26:24Z</time>
      </trkpt>
      <trkpt lat="44.45706" lon="1.83488">
        <ele>202.2</ele>
        <time>2020-06-24T07:26:27Z</time>
      </trkpt>
      <trkpt lat="44.45699" lon="1.83484">
        <ele>202.6</ele>
        <time>2020-06-24T07:26:32Z</time>
      </trkpt>
      <trkpt lat="44.45698" lon="1.83483">
        <ele>203</ele>
        <time>2020-06-24T07:26:33Z</time>
      </trkpt>
      <trkpt lat="44.45697" lon="1.83482">
        <ele>203.4</ele>
        <time>2020-06-24T07:26:34Z</time>
      </trkpt>
      <trkpt lat="44.45696" lon="1.8348">
        <ele>204.2</ele>
        <time>2020-06-24T07:26:35Z</time>
      </trkpt>
      <trkpt lat="44.45688" lon="1.83474">
        <ele>204.2</ele>
        <time>2020-06-24T07:26:42Z</time>
      </trkpt>
      <trkpt lat="44.45685" lon="1.83471">
        <ele>204.6</ele>
        <time>2020-06-24T07:26:44Z</time>
      </trkpt>
      <trkpt lat="44.45684" lon="1.8347">
        <ele>205.2</ele>
        <time>2020-06-24T07:26:45Z</time>
      </trkpt>
      <trkpt lat="44.45682" lon="1.83469">
        <ele>205.6</ele>
        <time>2020-06-24T07:26:46Z</time>
      </trkpt>
      <trkpt lat="44.45681" lon="1.83467">
        <ele>206</ele>
        <time>2020-06-24T07:26:47Z</time>
      </trkpt>
      <trkpt lat="44.45679" lon="1.83466">
        <ele>206.4</ele>
        <time>2020-06-24T07:26:48Z</time>
      </trkpt>
      <trkpt lat="44.45677" lon="1.83464">
        <ele>206.4</ele>
        <time>2020-06-24T07:26:50Z</time>
      </trkpt>
      <trkpt lat="44.4567" lon="1.8346">
        <ele>206.8</ele>
        <time>2020-06-24T07:26:55Z</time>
      </trkpt>
      <trkpt lat="44.45668" lon="1.83459">
        <ele>207.2</ele>
        <time>2020-06-24T07:26:56Z</time>
      </trkpt>
      <trkpt lat="44.45666" lon="1.83457">
        <ele>207.6</ele>
        <time>2020-06-24T07:26:57Z</time>
      </trkpt>
      <trkpt lat="44.45666" lon="1.83456">
        <ele>208</ele>
        <time>2020-06-24T07:26:58Z</time>
      </trkpt>
      <trkpt lat="44.45665" lon="1.83454">
        <ele>208.4</ele>
        <time>2020-06-24T07:26:59Z</time>
      </trkpt>
      <trkpt lat="44.45665" lon="1.83451">
        <ele>208.4</ele>
        <time>2020-06-24T07:27:01Z</time>
      </trkpt>
      <trkpt lat="44.45664" lon="1.8345">
        <ele>208.8</ele>
        <time>2020-06-24T07:27:02Z</time>
      </trkpt>
      <trkpt lat="44.45663" lon="1.83448">
        <ele>209.2</ele>
        <time>2020-06-24T07:27:03Z</time>
      </trkpt>
      <trkpt lat="44.45662" lon="1.83447">
        <ele>209.6</ele>
        <time>2020-06-24T07:27:04Z</time>
      </trkpt>
      <trkpt lat="44.45661" lon="1.83445">
        <ele>210</ele>
        <time>2020-06-24T07:27:05Z</time>
      </trkpt>
      <trkpt lat="44.4566" lon="1.83445">
        <ele>210.4</ele>
        <time>2020-06-24T07:27:06Z</time>
      </trkpt>
      <trkpt lat="44.45655" lon="1.83439">
        <ele>211</ele>
        <time>2020-06-24T07:27:11Z</time>
      </trkpt>
      <trkpt lat="44.45653" lon="1.83438">
        <ele>211.4</ele>
        <time>2020-06-24T07:27:12Z</time>
      </trkpt>
      <trkpt lat="44.45652" lon="1.83437">
        <ele>211.8</ele>
        <time>2020-06-24T07:27:13Z</time>
      </trkpt>
      <trkpt lat="44.4565" lon="1.83435">
        <ele>212.2</ele>
        <time>2020-06-24T07:27:14Z</time>
      </trkpt>
      <trkpt lat="44.4565" lon="1.83435">
        <ele>212.6</ele>
        <time>2020-06-24T07:27:15Z</time>
      </trkpt>
      <trkpt lat="44.45647" lon="1.83432">
        <ele>212.6</ele>
        <time>2020-06-24T07:27:17Z</time>
      </trkpt>
      <trkpt lat="44.45642" lon="1.83426">
        <ele>213</ele>
        <time>2020-06-24T07:27:21Z</time>
      </trkpt>
      <trkpt lat="44.45642" lon="1.83425">
        <ele>213.4</ele>
        <time>2020-06-24T07:27:22Z</time>
      </trkpt>
      <trkpt lat="44.4564" lon="1.83423">
        <ele>213.8</ele>
        <time>2020-06-24T07:27:23Z</time>
      </trkpt>
      <trkpt lat="44.45639" lon="1.83422">
        <ele>214.8</ele>
        <time>2020-06-24T07:27:24Z</time>
      </trkpt>
      <trkpt lat="44.45633" lon="1.83416">
        <ele>215.2</ele>
        <time>2020-06-24T07:27:28Z</time>
      </trkpt>
      <trkpt lat="44.45632" lon="1.83414">
        <ele>215.6</ele>
        <time>2020-06-24T07:27:29Z</time>
      </trkpt>
      <trkpt lat="44.4563" lon="1.83413">
        <ele>216</ele>
        <time>2020-06-24T07:27:30Z</time>
      </trkpt>
      <trkpt lat="44.45629" lon="1.83412">
        <ele>216.6</ele>
        <time>2020-06-24T07:27:31Z</time>
      </trkpt>
      <trkpt lat="44.45629" lon="1.83411">
        <ele>217</ele>
        <time>2020-06-24T07:27:32Z</time>
      </trkpt>
      <trkpt lat="44.45627" lon="1.8341">
        <ele>217</ele>
        <time>2020-06-24T07:27:33Z</time>
      </trkpt>
      <trkpt lat="44.45624" lon="1.83408">
        <ele>217</ele>
        <time>2020-06-24T07:27:35Z</time>
      </trkpt>
      <trkpt lat="44.45623" lon="1.83407">
        <ele>217.4</ele>
        <time>2020-06-24T07:27:36Z</time>
      </trkpt>
      <trkpt lat="44.45622" lon="1.83406">
        <ele>217.8</ele>
        <time>2020-06-24T07:27:37Z</time>
      </trkpt>
      <trkpt lat="44.45621" lon="1.83404">
        <ele>218.2</ele>
        <time>2020-06-24T07:27:38Z</time>
      </trkpt>
      <trkpt lat="44.4562" lon="1.83403">
        <ele>218.8</ele>
        <time>2020-06-24T07:27:39Z</time>
      </trkpt>
      <trkpt lat="44.45618" lon="1.83401">
        <ele>219.2</ele>
        <time>2020-06-24T07:27:40Z</time>
      </trkpt>
      <trkpt lat="44.45616" lon="1.83399">
        <ele>219.2</ele>
        <time>2020-06-24T07:27:42Z</time>
      </trkpt>
      <trkpt lat="44.45612" lon="1.83394">
        <ele>219.6</ele>
        <time>2020-06-24T07:27:47Z</time>
      </trkpt>
      <trkpt lat="44.45611" lon="1.83393">
        <ele>220</ele>
        <time>2020-06-24T07:27:48Z</time>
      </trkpt>
      <trkpt lat="44.4561" lon="1.83391">
        <ele>220.8</ele>
        <time>2020-06-24T07:27:49Z</time>
      </trkpt>
      <trkpt lat="44.4561" lon="1.8339">
        <ele>221.2</ele>
        <time>2020-06-24T07:27:50Z</time>
      </trkpt>
      <trkpt lat="44.45604" lon="1.83383">
        <ele>221.6</ele>
        <time>2020-06-24T07:27:56Z</time>
      </trkpt>
      <trkpt lat="44.45603" lon="1.8338">
        <ele>222</ele>
        <time>2020-06-24T07:27:57Z</time>
      </trkpt>
      <trkpt lat="44.45602" lon="1.83379">
        <ele>222.4</ele>
        <time>2020-06-24T07:27:58Z</time>
      </trkpt>
      <trkpt lat="44.45602" lon="1.83376">
        <ele>222.8</ele>
        <time>2020-06-24T07:27:59Z</time>
      </trkpt>
      <trkpt lat="44.45601" lon="1.83374">
        <ele>223.4</ele>
        <time>2020-06-24T07:28:00Z</time>
      </trkpt>
      <trkpt lat="44.456" lon="1.83369">
        <ele>223.4</ele>
        <time>2020-06-24T07:28:03Z</time>
      </trkpt>
      <trkpt lat="44.45597" lon="1.83367">
        <ele>223.8</ele>
        <time>2020-06-24T07:28:05Z</time>
      </trkpt>
      <trkpt lat="44.45596" lon="1.83365">
        <ele>224.2</ele>
        <time>2020-06-24T07:28:06Z</time>
      </trkpt>
      <trkpt lat="44.45595" lon="1.83363">
        <ele>224.6</ele>
        <time>2020-06-24T07:28:07Z</time>
      </trkpt>
      <trkpt lat="44.45594" lon="1.83362">
        <ele>225</ele>
        <time>2020-06-24T07:28:08Z</time>
      </trkpt>
      <trkpt lat="44.45593" lon="1.8336">
        <ele>225.4</ele>
        <time>2020-06-24T07:28:09Z</time>
      </trkpt>
      <trkpt lat="44.45592" lon="1.83359">
        <ele>225.4</ele>
        <time>2020-06-24T07:28:10Z</time>
      </trkpt>
      <trkpt lat="44.45587" lon="1.83352">
        <ele>225.8</ele>
        <time>2020-06-24T07:28:15Z</time>
      </trkpt>
      <trkpt lat="44.45586" lon="1.83351">
        <ele>226.2</ele>
        <time>2020-06-24T07:28:16Z</time>
      </trkpt>
      <trkpt lat="44.45584" lon="1.8335">
        <ele>226.6</ele>
        <time>2020-06-24T07:28:17Z</time>
      </trkpt>
      <trkpt lat="44.45583" lon="1.83349">
        <ele>227</ele>
        <time>2020-06-24T07:28:18Z</time>
      </trkpt>
      <trkpt lat="44.45582" lon="1.83347">
        <ele>227.6</ele>
        <time>2020-06-24T07:28:19Z</time>
      </trkpt>
      <trkpt lat="44.45579" lon="1.83341">
        <ele>227.6</ele>
        <time>2020-06-24T07:28:23Z</time>
      </trkpt>
      <trkpt lat="44.45578" lon="1.83338">
        <ele>228</ele>
        <time>2020-06-24T07:28:24Z</time>
      </trkpt>
      <trkpt lat="44.45577" lon="1.83336">
        <ele>228.4</ele>
        <time>2020-06-24T07:28:25Z</time>
      </trkpt>
      <trkpt lat="44.45576" lon="1.83335">
        <ele>228.8</ele>
        <time>2020-06-24T07:28:26Z</time>
      </trkpt>
      <trkpt lat="44.45575" lon="1.83334">
        <ele>229.4</ele>
        <time>2020-06-24T07:28:27Z</time>
      </trkpt>
      <trkpt lat="44.45574" lon="1.83333">
        <ele>229.8</ele>
        <time>2020-06-24T07:28:28Z</time>
      </trkpt>
      <trkpt lat="44.45569" lon="1.83327">
        <ele>229.8</ele>
        <time>2020-06-24T07:28:32Z</time>
      </trkpt>
      <trkpt lat="44.45566" lon="1.83324">
        <ele>229.8</ele>
        <time>2020-06-24T07:28:35Z</time>
      </trkpt>
      <trkpt lat="44.45564" lon="1.8332">
        <ele>230.2</ele>
        <time>2020-06-24T07:28:37Z</time>
      </trkpt>
      <trkpt lat="44.45562" lon="1.83319">
        <ele>231</ele>
        <time>2020-06-24T07:28:38Z</time>
      </trkpt>
      <trkpt lat="44.45561" lon="1.83317">
        <ele>231.4</ele>
        <time>2020-06-24T07:28:39Z</time>
      </trkpt>
      <trkpt lat="44.4556" lon="1.83316">
        <ele>232</ele>
        <time>2020-06-24T07:28:40Z</time>
      </trkpt>
      <trkpt lat="44.45555" lon="1.83308">
        <ele>232.4</ele>
        <time>2020-06-24T07:28:46Z</time>
      </trkpt>
      <trkpt lat="44.45554" lon="1.83307">
        <ele>232.8</ele>
        <time>2020-06-24T07:28:47Z</time>
      </trkpt>
      <trkpt lat="44.45552" lon="1.83305">
        <ele>233.2</ele>
        <time>2020-06-24T07:28:48Z</time>
      </trkpt>
      <trkpt lat="44.45551" lon="1.83303">
        <ele>233.6</ele>
        <time>2020-06-24T07:28:49Z</time>
      </trkpt>
      <trkpt lat="44.45551" lon="1.83302">
        <ele>234</ele>
        <time>2020-06-24T07:28:50Z</time>
      </trkpt>
      <trkpt lat="44.45547" lon="1.83295">
        <ele>234</ele>
        <time>2020-06-24T07:28:54Z</time>
      </trkpt>
      <trkpt lat="44.45541" lon="1.83288">
        <ele>234.4</ele>
        <time>2020-06-24T07:28:59Z</time>
      </trkpt>
      <trkpt lat="44.4554" lon="1.83286">
        <ele>234.8</ele>
        <time>2020-06-24T07:29:00Z</time>
      </trkpt>
      <trkpt lat="44.45538" lon="1.83285">
        <ele>235.2</ele>
        <time>2020-06-24T07:29:01Z</time>
      </trkpt>
      <trkpt lat="44.45537" lon="1.83284">
        <ele>235.8</ele>
        <time>2020-06-24T07:29:02Z</time>
      </trkpt>
      <trkpt lat="44.45536" lon="1.83282">
        <ele>236.2</ele>
        <time>2020-06-24T07:29:03Z</time>
      </trkpt>
      <trkpt lat="44.45532" lon="1.83279">
        <ele>236.6</ele>
        <time>2020-06-24T07:29:06Z</time>
      </trkpt>
      <trkpt lat="44.4553" lon="1.83278">
        <ele>237</ele>
        <time>2020-06-24T07:29:07Z</time>
      </trkpt>
      <trkpt lat="44.45529" lon="1.83277">
        <ele>237.4</ele>
        <time>2020-06-24T07:29:08Z</time>
      </trkpt>
      <trkpt lat="44.45529" lon="1.83276">
        <ele>237.8</ele>
        <time>2020-06-24T07:29:09Z</time>
      </trkpt>
      <trkpt lat="44.45528" lon="1.83275">
        <ele>238.2</ele>
        <time>2020-06-24T07:29:10Z</time>
      </trkpt>
      <trkpt lat="44.45526" lon="1.83269">
        <ele>238.2</ele>
        <time>2020-06-24T07:29:14Z</time>
      </trkpt>
      <trkpt lat="44.45524" lon="1.83264">
        <ele>238.2</ele>
        <time>2020-06-24T07:29:16Z</time>
      </trkpt>
      <trkpt lat="44.45524" lon="1.83263">
        <ele>238.6</ele>
        <time>2020-06-24T07:29:17Z</time>
      </trkpt>
      <trkpt lat="44.45523" lon="1.83261">
        <ele>239</ele>
        <time>2020-06-24T07:29:18Z</time>
      </trkpt>
      <trkpt lat="44.45522" lon="1.8326">
        <ele>239.4</ele>
        <time>2020-06-24T07:29:19Z</time>
      </trkpt>
      <trkpt lat="44.4552" lon="1.83259">
        <ele>240</ele>
        <time>2020-06-24T07:29:20Z</time>
      </trkpt>
      <trkpt lat="44.45519" lon="1.83258">
        <ele>240.4</ele>
        <time>2020-06-24T07:29:21Z</time>
      </trkpt>
      <trkpt lat="44.4551" lon="1.83251">
        <ele>240.8</ele>
        <time>2020-06-24T07:29:27Z</time>
      </trkpt>
      <trkpt lat="44.45509" lon="1.8325">
        <ele>241.6</ele>
        <time>2020-06-24T07:29:28Z</time>
      </trkpt>
      <trkpt lat="44.45507" lon="1.83248">
        <ele>242</ele>
        <time>2020-06-24T07:29:29Z</time>
      </trkpt>
      <trkpt lat="44.45506" lon="1.83247">
        <ele>242.4</ele>
        <time>2020-06-24T07:29:30Z</time>
      </trkpt>
      <trkpt lat="44.45503" lon="1.83243">
        <ele>242.4</ele>
        <time>2020-06-24T07:29:33Z</time>
      </trkpt>
      <trkpt lat="44.45501" lon="1.83242">
        <ele>242.4</ele>
        <time>2020-06-24T07:29:34Z</time>
      </trkpt>
      <trkpt lat="44.455" lon="1.83241">
        <ele>243</ele>
        <time>2020-06-24T07:29:35Z</time>
      </trkpt>
      <trkpt lat="44.45498" lon="1.8324">
        <ele>243.4</ele>
        <time>2020-06-24T07:29:36Z</time>
      </trkpt>
      <trkpt lat="44.45497" lon="1.83238">
        <ele>243.8</ele>
        <time>2020-06-24T07:29:37Z</time>
      </trkpt>
      <trkpt lat="44.45496" lon="1.83237">
        <ele>244.2</ele>
        <time>2020-06-24T07:29:38Z</time>
      </trkpt>
      <trkpt lat="44.45495" lon="1.83236">
        <ele>244.6</ele>
        <time>2020-06-24T07:29:39Z</time>
      </trkpt>
      <trkpt lat="44.45493" lon="1.83234">
        <ele>244.6</ele>
        <time>2020-06-24T07:29:41Z</time>
      </trkpt>
      <trkpt lat="44.45491" lon="1.83231">
        <ele>245</ele>
        <time>2020-06-24T07:29:43Z</time>
      </trkpt>
      <trkpt lat="44.4549" lon="1.8323">
        <ele>245.4</ele>
        <time>2020-06-24T07:29:44Z</time>
      </trkpt>
      <trkpt lat="44.45489" lon="1.83229">
        <ele>245.8</ele>
        <time>2020-06-24T07:29:45Z</time>
      </trkpt>
      <trkpt lat="44.45488" lon="1.83228">
        <ele>246.2</ele>
        <time>2020-06-24T07:29:46Z</time>
      </trkpt>
      <trkpt lat="44.45487" lon="1.83227">
        <ele>246.6</ele>
        <time>2020-06-24T07:29:47Z</time>
      </trkpt>
      <trkpt lat="44.45483" lon="1.83222">
        <ele>246.6</ele>
        <time>2020-06-24T07:29:50Z</time>
      </trkpt>
      <trkpt lat="44.45482" lon="1.83221">
        <ele>247</ele>
        <time>2020-06-24T07:29:51Z</time>
      </trkpt>
      <trkpt lat="44.45481" lon="1.8322">
        <ele>248</ele>
        <time>2020-06-24T07:29:52Z</time>
      </trkpt>
      <trkpt lat="44.4548" lon="1.83219">
        <ele>248.4</ele>
        <time>2020-06-24T07:29:53Z</time>
      </trkpt>
      <trkpt lat="44.45479" lon="1.83218">
        <ele>248.8</ele>
        <time>2020-06-24T07:29:54Z</time>
      </trkpt>
      <trkpt lat="44.45477" lon="1.83216">
        <ele>248.8</ele>
        <time>2020-06-24T07:29:56Z</time>
      </trkpt>
      <trkpt lat="44.45474" lon="1.83215">
        <ele>249.2</ele>
        <time>2020-06-24T07:29:58Z</time>
      </trkpt>
      <trkpt lat="44.45473" lon="1.83214">
        <ele>249.8</ele>
        <time>2020-06-24T07:29:59Z</time>
      </trkpt>
      <trkpt lat="44.45472" lon="1.83213">
        <ele>250.2</ele>
        <time>2020-06-24T07:30:00Z</time>
      </trkpt>
      <trkpt lat="44.4547" lon="1.83211">
        <ele>250.6</ele>
        <time>2020-06-24T07:30:01Z</time>
      </trkpt>
      <trkpt lat="44.45469" lon="1.8321">
        <ele>251</ele>
        <time>2020-06-24T07:30:02Z</time>
      </trkpt>
      <trkpt lat="44.45468" lon="1.83209">
        <ele>251</ele>
        <time>2020-06-24T07:30:03Z</time>
      </trkpt>
      <trkpt lat="44.45463" lon="1.83205">
        <ele>251.4</ele>
        <time>2020-06-24T07:30:07Z</time>
      </trkpt>
      <trkpt lat="44.45462" lon="1.83203">
        <ele>252</ele>
        <time>2020-06-24T07:30:08Z</time>
      </trkpt>
      <trkpt lat="44.45462" lon="1.83201">
        <ele>252.4</ele>
        <time>2020-06-24T07:30:09Z</time>
      </trkpt>
      <trkpt lat="44.45462" lon="1.83198">
        <ele>252.8</ele>
        <time>2020-06-24T07:30:10Z</time>
      </trkpt>
      <trkpt lat="44.45461" lon="1.83197">
        <ele>253.2</ele>
        <time>2020-06-24T07:30:11Z</time>
      </trkpt>
      <trkpt lat="44.45459" lon="1.83195">
        <ele>253.2</ele>
        <time>2020-06-24T07:30:13Z</time>
      </trkpt>
      <trkpt lat="44.45456" lon="1.83193">
        <ele>253.2</ele>
        <time>2020-06-24T07:30:16Z</time>
      </trkpt>
      <trkpt lat="44.45454" lon="1.83192">
        <ele>254.2</ele>
        <time>2020-06-24T07:30:17Z</time>
      </trkpt>
      <trkpt lat="44.45453" lon="1.83191">
        <ele>254.6</ele>
        <time>2020-06-24T07:30:18Z</time>
      </trkpt>
      <trkpt lat="44.45452" lon="1.8319">
        <ele>255</ele>
        <time>2020-06-24T07:30:19Z</time>
      </trkpt>
      <trkpt lat="44.45451" lon="1.8319">
        <ele>255.4</ele>
        <time>2020-06-24T07:30:20Z</time>
      </trkpt>
      <trkpt lat="44.45446" lon="1.83187">
        <ele>255.4</ele>
        <time>2020-06-24T07:30:24Z</time>
      </trkpt>
      <trkpt lat="44.45445" lon="1.83186">
        <ele>255.4</ele>
        <time>2020-06-24T07:30:25Z</time>
      </trkpt>
      <trkpt lat="44.45443" lon="1.83185">
        <ele>255.8</ele>
        <time>2020-06-24T07:30:26Z</time>
      </trkpt>
      <trkpt lat="44.45442" lon="1.83185">
        <ele>256.4</ele>
        <time>2020-06-24T07:30:27Z</time>
      </trkpt>
      <trkpt lat="44.45441" lon="1.83185">
        <ele>256.8</ele>
        <time>2020-06-24T07:30:28Z</time>
      </trkpt>
      <trkpt lat="44.45439" lon="1.83184">
        <ele>257.2</ele>
        <time>2020-06-24T07:30:29Z</time>
      </trkpt>
      <trkpt lat="44.45438" lon="1.83183">
        <ele>257.6</ele>
        <time>2020-06-24T07:30:30Z</time>
      </trkpt>
      <trkpt lat="44.45429" lon="1.83181">
        <ele>258</ele>
        <time>2020-06-24T07:30:36Z</time>
      </trkpt>
      <trkpt lat="44.45427" lon="1.83181">
        <ele>258.4</ele>
        <time>2020-06-24T07:30:37Z</time>
      </trkpt>
      <trkpt lat="44.45426" lon="1.8318">
        <ele>258.8</ele>
        <time>2020-06-24T07:30:38Z</time>
      </trkpt>
      <trkpt lat="44.45424" lon="1.8318">
        <ele>259.2</ele>
        <time>2020-06-24T07:30:39Z</time>
      </trkpt>
      <trkpt lat="44.45423" lon="1.8318">
        <ele>259.6</ele>
        <time>2020-06-24T07:30:40Z</time>
      </trkpt>
      <trkpt lat="44.45417" lon="1.83179">
        <ele>259.6</ele>
        <time>2020-06-24T07:30:44Z</time>
      </trkpt>
      <trkpt lat="44.45414" lon="1.83179">
        <ele>260.2</ele>
        <time>2020-06-24T07:30:46Z</time>
      </trkpt>
      <trkpt lat="44.45413" lon="1.83178">
        <ele>260.6</ele>
        <time>2020-06-24T07:30:47Z</time>
      </trkpt>
      <trkpt lat="44.45411" lon="1.83177">
        <ele>261</ele>
        <time>2020-06-24T07:30:48Z</time>
      </trkpt>
      <trkpt lat="44.45411" lon="1.83178">
        <ele>261.4</ele>
        <time>2020-06-24T07:30:49Z</time>
      </trkpt>
      <trkpt lat="44.45409" lon="1.83177">
        <ele>261.8</ele>
        <time>2020-06-24T07:30:50Z</time>
      </trkpt>
      <trkpt lat="44.45403" lon="1.83172">
        <ele>262.2</ele>
        <time>2020-06-24T07:30:56Z</time>
      </trkpt>
      <trkpt lat="44.45401" lon="1.83172">
        <ele>262.8</ele>
        <time>2020-06-24T07:30:57Z</time>
      </trkpt>
      <trkpt lat="44.45399" lon="1.83171">
        <ele>263.2</ele>
        <time>2020-06-24T07:30:58Z</time>
      </trkpt>
      <trkpt lat="44.45397" lon="1.8317">
        <ele>263.6</ele>
        <time>2020-06-24T07:30:59Z</time>
      </trkpt>
      <trkpt lat="44.45396" lon="1.8317">
        <ele>264</ele>
        <time>2020-06-24T07:31:00Z</time>
      </trkpt>
      <trkpt lat="44.45392" lon="1.8317">
        <ele>264</ele>
        <time>2020-06-24T07:31:02Z</time>
      </trkpt>
      <trkpt lat="44.45388" lon="1.83168">
        <ele>264.4</ele>
        <time>2020-06-24T07:31:05Z</time>
      </trkpt>
      <trkpt lat="44.45386" lon="1.83167">
        <ele>264.8</ele>
        <time>2020-06-24T07:31:06Z</time>
      </trkpt>
      <trkpt lat="44.45385" lon="1.83166">
        <ele>265.2</ele>
        <time>2020-06-24T07:31:07Z</time>
      </trkpt>
      <trkpt lat="44.45384" lon="1.83165">
        <ele>265.8</ele>
        <time>2020-06-24T07:31:08Z</time>
      </trkpt>
      <trkpt lat="44.45383" lon="1.83165">
        <ele>266.2</ele>
        <time>2020-06-24T07:31:09Z</time>
      </trkpt>
      <trkpt lat="44.45381" lon="1.83164">
        <ele>266.2</ele>
        <time>2020-06-24T07:31:10Z</time>
      </trkpt>
      <trkpt lat="44.45376" lon="1.83159">
        <ele>266.6</ele>
        <time>2020-06-24T07:31:14Z</time>
      </trkpt>
      <trkpt lat="44.45375" lon="1.83158">
        <ele>267</ele>
        <time>2020-06-24T07:31:15Z</time>
      </trkpt>
      <trkpt lat="44.45374" lon="1.83158">
        <ele>267.4</ele>
        <time>2020-06-24T07:31:16Z</time>
      </trkpt>
      <trkpt lat="44.45373" lon="1.83158">
        <ele>267.8</ele>
        <time>2020-06-24T07:31:17Z</time>
      </trkpt>
      <trkpt lat="44.45371" lon="1.83158">
        <ele>268.2</ele>
        <time>2020-06-24T07:31:18Z</time>
      </trkpt>
      <trkpt lat="44.45371" lon="1.83158">
        <ele>268.2</ele>
        <time>2020-06-24T07:31:19Z</time>
      </trkpt>
      <trkpt lat="44.45362" lon="1.83154">
        <ele>268.6</ele>
        <time>2020-06-24T07:31:25Z</time>
      </trkpt>
      <trkpt lat="44.4536" lon="1.83154">
        <ele>269</ele>
        <time>2020-06-24T07:31:26Z</time>
      </trkpt>
      <trkpt lat="44.45359" lon="1.83154">
        <ele>269.6</ele>
        <time>2020-06-24T07:31:27Z</time>
      </trkpt>
      <trkpt lat="44.45357" lon="1.83154">
        <ele>270</ele>
        <time>2020-06-24T07:31:28Z</time>
      </trkpt>
      <trkpt lat="44.45356" lon="1.83153">
        <ele>270.4</ele>
        <time>2020-06-24T07:31:29Z</time>
      </trkpt>
      <trkpt lat="44.45352" lon="1.8315">
        <ele>270.8</ele>
        <time>2020-06-24T07:31:32Z</time>
      </trkpt>
      <trkpt lat="44.45351" lon="1.8315">
        <ele>271.2</ele>
        <time>2020-06-24T07:31:33Z</time>
      </trkpt>
      <trkpt lat="44.45351" lon="1.8315">
        <ele>271.6</ele>
        <time>2020-06-24T07:31:34Z</time>
      </trkpt>
      <trkpt lat="44.45348" lon="1.83149">
        <ele>272</ele>
        <time>2020-06-24T07:31:35Z</time>
      </trkpt>
      <trkpt lat="44.45347" lon="1.83149">
        <ele>272.4</ele>
        <time>2020-06-24T07:31:36Z</time>
      </trkpt>
      <trkpt lat="44.45345" lon="1.83148">
        <ele>272.4</ele>
        <time>2020-06-24T07:31:38Z</time>
      </trkpt>
      <trkpt lat="44.45341" lon="1.83146">
        <ele>272.8</ele>
        <time>2020-06-24T07:31:41Z</time>
      </trkpt>
      <trkpt lat="44.45339" lon="1.83147">
        <ele>273.2</ele>
        <time>2020-06-24T07:31:42Z</time>
      </trkpt>
      <trkpt lat="44.45338" lon="1.83146">
        <ele>273.8</ele>
        <time>2020-06-24T07:31:43Z</time>
      </trkpt>
      <trkpt lat="44.45338" lon="1.83146">
        <ele>274.2</ele>
        <time>2020-06-24T07:31:44Z</time>
      </trkpt>
      <trkpt lat="44.45337" lon="1.83145">
        <ele>274.6</ele>
        <time>2020-06-24T07:31:45Z</time>
      </trkpt>
      <trkpt lat="44.45332" lon="1.83143">
        <ele>275</ele>
        <time>2020-06-24T07:31:49Z</time>
      </trkpt>
      <trkpt lat="44.45332" lon="1.83142">
        <ele>275.4</ele>
        <time>2020-06-24T07:31:50Z</time>
      </trkpt>
      <trkpt lat="44.4533" lon="1.83142">
        <ele>275.8</ele>
        <time>2020-06-24T07:31:51Z</time>
      </trkpt>
      <trkpt lat="44.45328" lon="1.83142">
        <ele>276.2</ele>
        <time>2020-06-24T07:31:52Z</time>
      </trkpt>
      <trkpt lat="44.45327" lon="1.83141">
        <ele>276.6</ele>
        <time>2020-06-24T07:31:53Z</time>
      </trkpt>
      <trkpt lat="44.45322" lon="1.83139">
        <ele>277</ele>
        <time>2020-06-24T07:31:56Z</time>
      </trkpt>
      <trkpt lat="44.45321" lon="1.83138">
        <ele>277.4</ele>
        <time>2020-06-24T07:31:57Z</time>
      </trkpt>
      <trkpt lat="44.4532" lon="1.83138">
        <ele>278</ele>
        <time>2020-06-24T07:31:58Z</time>
      </trkpt>
      <trkpt lat="44.45319" lon="1.83137">
        <ele>278.4</ele>
        <time>2020-06-24T07:31:59Z</time>
      </trkpt>
      <trkpt lat="44.45318" lon="1.83137">
        <ele>278.8</ele>
        <time>2020-06-24T07:32:00Z</time>
      </trkpt>
      <trkpt lat="44.45314" lon="1.83133">
        <ele>279.2</ele>
        <time>2020-06-24T07:32:04Z</time>
      </trkpt>
      <trkpt lat="44.45313" lon="1.83132">
        <ele>279.6</ele>
        <time>2020-06-24T07:32:05Z</time>
      </trkpt>
      <trkpt lat="44.45313" lon="1.83131">
        <ele>280.2</ele>
        <time>2020-06-24T07:32:06Z</time>
      </trkpt>
      <trkpt lat="44.45313" lon="1.83131">
        <ele>280.6</ele>
        <time>2020-06-24T07:32:07Z</time>
      </trkpt>
      <trkpt lat="44.45311" lon="1.8313">
        <ele>281</ele>
        <time>2020-06-24T07:32:08Z</time>
      </trkpt>
      <trkpt lat="44.45307" lon="1.83128">
        <ele>281.4</ele>
        <time>2020-06-24T07:32:11Z</time>
      </trkpt>
      <trkpt lat="44.45306" lon="1.83128">
        <ele>281.8</ele>
        <time>2020-06-24T07:32:12Z</time>
      </trkpt>
      <trkpt lat="44.45304" lon="1.83127">
        <ele>282.2</ele>
        <time>2020-06-24T07:32:13Z</time>
      </trkpt>
      <trkpt lat="44.45303" lon="1.83127">
        <ele>282.6</ele>
        <time>2020-06-24T07:32:14Z</time>
      </trkpt>
      <trkpt lat="44.45302" lon="1.83126">
        <ele>283</ele>
        <time>2020-06-24T07:32:15Z</time>
      </trkpt>
      <trkpt lat="44.45297" lon="1.83123">
        <ele>284</ele>
        <time>2020-06-24T07:32:19Z</time>
      </trkpt>
      <trkpt lat="44.45296" lon="1.83122">
        <ele>284.4</ele>
        <time>2020-06-24T07:32:20Z</time>
      </trkpt>
      <trkpt lat="44.45295" lon="1.83121">
        <ele>284.8</ele>
        <time>2020-06-24T07:32:21Z</time>
      </trkpt>
      <trkpt lat="44.45294" lon="1.8312">
        <ele>285.4</ele>
        <time>2020-06-24T07:32:22Z</time>
      </trkpt>
      <trkpt lat="44.4529" lon="1.83117">
        <ele>285.8</ele>
        <time>2020-06-24T07:32:25Z</time>
      </trkpt>
      <trkpt lat="44.45288" lon="1.83116">
        <ele>286.2</ele>
        <time>2020-06-24T07:32:26Z</time>
      </trkpt>
      <trkpt lat="44.45288" lon="1.83115">
        <ele>286.6</ele>
        <time>2020-06-24T07:32:27Z</time>
      </trkpt>
      <trkpt lat="44.45288" lon="1.83115">
        <ele>287</ele>
        <time>2020-06-24T07:32:28Z</time>
      </trkpt>
      <trkpt lat="44.45286" lon="1.83115">
        <ele>287.4</ele>
        <time>2020-06-24T07:32:29Z</time>
      </trkpt>
      <trkpt lat="44.45282" lon="1.83114">
        <ele>287.8</ele>
        <time>2020-06-24T07:32:32Z</time>
      </trkpt>
      <trkpt lat="44.45282" lon="1.83114">
        <ele>288.4</ele>
        <time>2020-06-24T07:32:33Z</time>
      </trkpt>
      <trkpt lat="44.4528" lon="1.83114">
        <ele>288.8</ele>
        <time>2020-06-24T07:32:34Z</time>
      </trkpt>
      <trkpt lat="44.45279" lon="1.83113">
        <ele>289.2</ele>
        <time>2020-06-24T07:32:35Z</time>
      </trkpt>
      <trkpt lat="44.45278" lon="1.83113">
        <ele>289.6</ele>
        <time>2020-06-24T07:32:36Z</time>
      </trkpt>
      <trkpt lat="44.45273" lon="1.83111">
        <ele>290</ele>
        <time>2020-06-24T07:32:41Z</time>
      </trkpt>
      <trkpt lat="44.45272" lon="1.83111">
        <ele>290.6</ele>
        <time>2020-06-24T07:32:42Z</time>
      </trkpt>
      <trkpt lat="44.45271" lon="1.83111">
        <ele>291</ele>
        <time>2020-06-24T07:32:43Z</time>
      </trkpt>
      <trkpt lat="44.4527" lon="1.83111">
        <ele>291.8</ele>
        <time>2020-06-24T07:32:44Z</time>
      </trkpt>
      <trkpt lat="44.45266" lon="1.83111">
        <ele>291.8</ele>
        <time>2020-06-24T07:32:47Z</time>
      </trkpt>
      <trkpt lat="44.45265" lon="1.83111">
        <ele>292.2</ele>
        <time>2020-06-24T07:32:48Z</time>
      </trkpt>
      <trkpt lat="44.45264" lon="1.8311">
        <ele>292.6</ele>
        <time>2020-06-24T07:32:49Z</time>
      </trkpt>
      <trkpt lat="44.45263" lon="1.8311">
        <ele>293</ele>
        <time>2020-06-24T07:32:50Z</time>
      </trkpt>
      <trkpt lat="44.45261" lon="1.83109">
        <ele>293.4</ele>
        <time>2020-06-24T07:32:51Z</time>
      </trkpt>
      <trkpt lat="44.4526" lon="1.83109">
        <ele>293.8</ele>
        <time>2020-06-24T07:32:52Z</time>
      </trkpt>
      <trkpt lat="44.45256" lon="1.83108">
        <ele>294.2</ele>
        <time>2020-06-24T07:32:55Z</time>
      </trkpt>
      <trkpt lat="44.45255" lon="1.83108">
        <ele>294.6</ele>
        <time>2020-06-24T07:32:56Z</time>
      </trkpt>
      <trkpt lat="44.45253" lon="1.83109">
        <ele>295</ele>
        <time>2020-06-24T07:32:57Z</time>
      </trkpt>
      <trkpt lat="44.45252" lon="1.8311">
        <ele>295.6</ele>
        <time>2020-06-24T07:32:58Z</time>
      </trkpt>
      <trkpt lat="44.45251" lon="1.83111">
        <ele>296</ele>
        <time>2020-06-24T07:32:59Z</time>
      </trkpt>
      <trkpt lat="44.45248" lon="1.83114">
        <ele>296</ele>
        <time>2020-06-24T07:33:02Z</time>
      </trkpt>
      <trkpt lat="44.45247" lon="1.83114">
        <ele>296.4</ele>
        <time>2020-06-24T07:33:03Z</time>
      </trkpt>
      <trkpt lat="44.45246" lon="1.83114">
        <ele>296.8</ele>
        <time>2020-06-24T07:33:04Z</time>
      </trkpt>
      <trkpt lat="44.45245" lon="1.83115">
        <ele>297.2</ele>
        <time>2020-06-24T07:33:05Z</time>
      </trkpt>
      <trkpt lat="44.45244" lon="1.83115">
        <ele>297.6</ele>
        <time>2020-06-24T07:33:06Z</time>
      </trkpt>
      <trkpt lat="44.45242" lon="1.83115">
        <ele>298</ele>
        <time>2020-06-24T07:33:07Z</time>
      </trkpt>
      <trkpt lat="44.4524" lon="1.83116">
        <ele>299</ele>
        <time>2020-06-24T07:33:09Z</time>
      </trkpt>
      <trkpt lat="44.45239" lon="1.83117">
        <ele>299.4</ele>
        <time>2020-06-24T07:33:10Z</time>
      </trkpt>
      <trkpt lat="44.45239" lon="1.83117">
        <ele>299.8</ele>
        <time>2020-06-24T07:33:11Z</time>
      </trkpt>
      <trkpt lat="44.45239" lon="1.83117">
        <ele>300.2</ele>
        <time>2020-06-24T07:33:12Z</time>
      </trkpt>
      <trkpt lat="44.45237" lon="1.83118">
        <ele>300.2</ele>
        <time>2020-06-24T07:33:18Z</time>
      </trkpt>
      <trkpt lat="44.45237" lon="1.83118">
        <ele>300.6</ele>
        <time>2020-06-24T07:33:20Z</time>
      </trkpt>
      <trkpt lat="44.45235" lon="1.83118">
        <ele>301.2</ele>
        <time>2020-06-24T07:33:21Z</time>
      </trkpt>
      <trkpt lat="44.45234" lon="1.83118">
        <ele>301.6</ele>
        <time>2020-06-24T07:33:22Z</time>
      </trkpt>
      <trkpt lat="44.45234" lon="1.83118">
        <ele>302</ele>
        <time>2020-06-24T07:33:23Z</time>
      </trkpt>
      <trkpt lat="44.45232" lon="1.83118">
        <ele>302.4</ele>
        <time>2020-06-24T07:33:24Z</time>
      </trkpt>
      <trkpt lat="44.45232" lon="1.83118">
        <ele>302.4</ele>
        <time>2020-06-24T07:33:25Z</time>
      </trkpt>
      <trkpt lat="44.4523" lon="1.83117">
        <ele>302.8</ele>
        <time>2020-06-24T07:33:30Z</time>
      </trkpt>
      <trkpt lat="44.4523" lon="1.83117">
        <ele>303.4</ele>
        <time>2020-06-24T07:33:31Z</time>
      </trkpt>
      <trkpt lat="44.45229" lon="1.83116">
        <ele>303.8</ele>
        <time>2020-06-24T07:33:32Z</time>
      </trkpt>
      <trkpt lat="44.45228" lon="1.83116">
        <ele>304.6</ele>
        <time>2020-06-24T07:33:33Z</time>
      </trkpt>
      <trkpt lat="44.45227" lon="1.83115">
        <ele>304.6</ele>
        <time>2020-06-24T07:33:34Z</time>
      </trkpt>
      <trkpt lat="44.45222" lon="1.83113">
        <ele>305</ele>
        <time>2020-06-24T07:33:39Z</time>
      </trkpt>
      <trkpt lat="44.45222" lon="1.83113">
        <ele>305.4</ele>
        <time>2020-06-24T07:33:40Z</time>
      </trkpt>
      <trkpt lat="44.45221" lon="1.83113">
        <ele>305.8</ele>
        <time>2020-06-24T07:33:41Z</time>
      </trkpt>
      <trkpt lat="44.45221" lon="1.83113">
        <ele>306.2</ele>
        <time>2020-06-24T07:33:42Z</time>
      </trkpt>
      <trkpt lat="44.45221" lon="1.83111">
        <ele>306.6</ele>
        <time>2020-06-24T07:33:43Z</time>
      </trkpt>
      <trkpt lat="44.4522" lon="1.83107">
        <ele>306.6</ele>
        <time>2020-06-24T07:33:47Z</time>
      </trkpt>
      <trkpt lat="44.4522" lon="1.83104">
        <ele>306.6</ele>
        <time>2020-06-24T07:33:50Z</time>
      </trkpt>
      <trkpt lat="44.45222" lon="1.83099">
        <ele>306.6</ele>
        <time>2020-06-24T07:33:56Z</time>
      </trkpt>
      <trkpt lat="44.45222" lon="1.83099">
        <ele>307</ele>
        <time>2020-06-24T07:34:04Z</time>
      </trkpt>
      <trkpt lat="44.45222" lon="1.83099">
        <ele>307.4</ele>
        <time>2020-06-24T07:34:05Z</time>
      </trkpt>
      <trkpt lat="44.45222" lon="1.83099">
        <ele>307.8</ele>
        <time>2020-06-24T07:34:06Z</time>
      </trkpt>
      <trkpt lat="44.45222" lon="1.83099">
        <ele>308.2</ele>
        <time>2020-06-24T07:34:07Z</time>
      </trkpt>
      <trkpt lat="44.45222" lon="1.83099">
        <ele>308.6</ele>
        <time>2020-06-24T07:34:08Z</time>
      </trkpt>
      <trkpt lat="44.45222" lon="1.83099">
        <ele>308.6</ele>
        <time>2020-06-24T07:34:20Z</time>
      </trkpt>
      <trkpt lat="44.45222" lon="1.83099">
        <ele>308.6</ele>
        <time>2020-06-24T07:34:34Z</time>
      </trkpt>
      <trkpt lat="44.45222" lon="1.83099">
        <ele>308.6</ele>
        <time>2020-06-24T07:34:46Z</time>
      </trkpt>
      <trkpt lat="44.45222" lon="1.83099">
        <ele>308.6</ele>
        <time>2020-06-24T07:34:57Z</time>
      </trkpt>
      <trkpt lat="44.45222" lon="1.83099">
        <ele>308.6</ele>
        <time>2020-06-24T07:35:14Z</time>
      </trkpt>
      <trkpt lat="44.45222" lon="1.83099">
        <ele>308.6</ele>
        <time>2020-06-24T07:35:31Z</time>
      </trkpt>
      <trkpt lat="44.45222" lon="1.83099">
        <ele>308.6</ele>
        <time>2020-06-24T07:35:42Z</time>
      </trkpt>
      <trkpt lat="44.45222" lon="1.83099">
        <ele>308.6</ele>
        <time>2020-06-24T07:35:54Z</time>
      </trkpt>
      <trkpt lat="44.45222" lon="1.83099">
        <ele>308.6</ele>
        <time>2020-06-24T07:36:05Z</time>
      </trkpt>
      <trkpt lat="44.45222" lon="1.83099">
        <ele>308.6</ele>
        <time>2020-06-24T07:36:20Z</time>
      </trkpt>
      <trkpt lat="44.45222" lon="1.83099">
        <ele>308.6</ele>
        <time>2020-06-24T07:36:35Z</time>
      </trkpt>
      <trkpt lat="44.45222" lon="1.83099">
        <ele>308.6</ele>
        <time>2020-06-24T07:36:53Z</time>
      </trkpt>
      <trkpt lat="44.45222" lon="1.83099">
        <ele>308.6</ele>
        <time>2020-06-24T07:37:09Z</time>
      </trkpt>
      <trkpt lat="44.45223" lon="1.83096">
        <ele>308.6</ele>
        <time>2020-06-24T07:37:22Z</time>
      </trkpt>
      <trkpt lat="44.45227" lon="1.83089">
        <ele>308.6</ele>
        <time>2020-06-24T07:37:26Z</time>
      </trkpt>
      <trkpt lat="44.4523" lon="1.83085">
        <ele>308.6</ele>
        <time>2020-06-24T07:37:29Z</time>
      </trkpt>
      <trkpt lat="44.4524" lon="1.83074">
        <ele>308.6</ele>
        <time>2020-06-24T07:37:36Z</time>
      </trkpt>
      <trkpt lat="44.45251" lon="1.83067">
        <ele>308.6</ele>
        <time>2020-06-24T07:37:42Z</time>
      </trkpt>
      <trkpt lat="44.45267" lon="1.83058">
        <ele>308.6</ele>
        <time>2020-06-24T07:37:50Z</time>
      </trkpt>
      <trkpt lat="44.45274" lon="1.83055">
        <ele>309.2</ele>
        <time>2020-06-24T07:37:54Z</time>
      </trkpt>
      <trkpt lat="44.45276" lon="1.83054">
        <ele>309.6</ele>
        <time>2020-06-24T07:37:55Z</time>
      </trkpt>
      <trkpt lat="44.45278" lon="1.83053">
        <ele>310</ele>
        <time>2020-06-24T07:37:56Z</time>
      </trkpt>
      <trkpt lat="44.45279" lon="1.83052">
        <ele>310.4</ele>
        <time>2020-06-24T07:37:57Z</time>
      </trkpt>
      <trkpt lat="44.45281" lon="1.83051">
        <ele>310.8</ele>
        <time>2020-06-24T07:37:58Z</time>
      </trkpt>
      <trkpt lat="44.45291" lon="1.83048">
        <ele>310.8</ele>
        <time>2020-06-24T07:38:03Z</time>
      </trkpt>
      <trkpt lat="44.45307" lon="1.83041">
        <ele>310.8</ele>
        <time>2020-06-24T07:38:10Z</time>
      </trkpt>
      <trkpt lat="44.45314" lon="1.83037">
        <ele>311.4</ele>
        <time>2020-06-24T07:38:14Z</time>
      </trkpt>
      <trkpt lat="44.45315" lon="1.83036">
        <ele>311.8</ele>
        <time>2020-06-24T07:38:15Z</time>
      </trkpt>
      <trkpt lat="44.45317" lon="1.83034">
        <ele>312.2</ele>
        <time>2020-06-24T07:38:16Z</time>
      </trkpt>
      <trkpt lat="44.45318" lon="1.83032">
        <ele>312.6</ele>
        <time>2020-06-24T07:38:17Z</time>
      </trkpt>
      <trkpt lat="44.45319" lon="1.8303">
        <ele>313.2</ele>
        <time>2020-06-24T07:38:18Z</time>
      </trkpt>
      <trkpt lat="44.45323" lon="1.83026">
        <ele>313.6</ele>
        <time>2020-06-24T07:38:20Z</time>
      </trkpt>
      <trkpt lat="44.45324" lon="1.83024">
        <ele>314</ele>
        <time>2020-06-24T07:38:21Z</time>
      </trkpt>
      <trkpt lat="44.45325" lon="1.83022">
        <ele>314.4</ele>
        <time>2020-06-24T07:38:22Z</time>
      </trkpt>
      <trkpt lat="44.45327" lon="1.8302">
        <ele>314.8</ele>
        <time>2020-06-24T07:38:23Z</time>
      </trkpt>
      <trkpt lat="44.45327" lon="1.83018">
        <ele>315.2</ele>
        <time>2020-06-24T07:38:24Z</time>
      </trkpt>
      <trkpt lat="44.45328" lon="1.83017">
        <ele>315.8</ele>
        <time>2020-06-24T07:38:25Z</time>
      </trkpt>
      <trkpt lat="44.45329" lon="1.83015">
        <ele>316.2</ele>
        <time>2020-06-24T07:38:26Z</time>
      </trkpt>
      <trkpt lat="44.4533" lon="1.83013">
        <ele>316.8</ele>
        <time>2020-06-24T07:38:27Z</time>
      </trkpt>
      <trkpt lat="44.45331" lon="1.83011">
        <ele>317.2</ele>
        <time>2020-06-24T07:38:28Z</time>
      </trkpt>
      <trkpt lat="44.45331" lon="1.83009">
        <ele>317.8</ele>
        <time>2020-06-24T07:38:29Z</time>
      </trkpt>
      <trkpt lat="44.45331" lon="1.83007">
        <ele>318.6</ele>
        <time>2020-06-24T07:38:30Z</time>
      </trkpt>
      <trkpt lat="44.45331" lon="1.83005">
        <ele>319</ele>
        <time>2020-06-24T07:38:31Z</time>
      </trkpt>
      <trkpt lat="44.45331" lon="1.83004">
        <ele>319.4</ele>
        <time>2020-06-24T07:38:32Z</time>
      </trkpt>
      <trkpt lat="44.4533" lon="1.83002">
        <ele>319.8</ele>
        <time>2020-06-24T07:38:33Z</time>
      </trkpt>
      <trkpt lat="44.45328" lon="1.82996">
        <ele>319.8</ele>
        <time>2020-06-24T07:38:37Z</time>
      </trkpt>
      <trkpt lat="44.45329" lon="1.82985">
        <ele>319.8</ele>
        <time>2020-06-24T07:38:44Z</time>
      </trkpt>
      <trkpt lat="44.45329" lon="1.82983">
        <ele>319.8</ele>
        <time>2020-06-24T07:38:45Z</time>
      </trkpt>
      <trkpt lat="44.45328" lon="1.82974">
        <ele>320.2</ele>
        <time>2020-06-24T07:38:51Z</time>
      </trkpt>
      <trkpt lat="44.45328" lon="1.82972">
        <ele>320.6</ele>
        <time>2020-06-24T07:38:52Z</time>
      </trkpt>
      <trkpt lat="44.45327" lon="1.82971">
        <ele>321</ele>
        <time>2020-06-24T07:38:53Z</time>
      </trkpt>
      <trkpt lat="44.45327" lon="1.8297">
        <ele>321.4</ele>
        <time>2020-06-24T07:38:54Z</time>
      </trkpt>
      <trkpt lat="44.45326" lon="1.82969">
        <ele>321.8</ele>
        <time>2020-06-24T07:38:55Z</time>
      </trkpt>
      <trkpt lat="44.45326" lon="1.82965">
        <ele>321.8</ele>
        <time>2020-06-24T07:38:57Z</time>
      </trkpt>
      <trkpt lat="44.45325" lon="1.82963">
        <ele>321.8</ele>
        <time>2020-06-24T07:38:59Z</time>
      </trkpt>
      <trkpt lat="44.45323" lon="1.82946">
        <ele>321.8</ele>
        <time>2020-06-24T07:39:06Z</time>
      </trkpt>
      <trkpt lat="44.45325" lon="1.82931">
        <ele>321.8</ele>
        <time>2020-06-24T07:39:11Z</time>
      </trkpt>
      <trkpt lat="44.45336" lon="1.82911">
        <ele>321.8</ele>
        <time>2020-06-24T07:39:17Z</time>
      </trkpt>
      <trkpt lat="44.45345" lon="1.82907">
        <ele>321.8</ele>
        <time>2020-06-24T07:39:21Z</time>
      </trkpt>
      <trkpt lat="44.45358" lon="1.82903">
        <ele>321.8</ele>
        <time>2020-06-24T07:39:27Z</time>
      </trkpt>
      <trkpt lat="44.45371" lon="1.82896">
        <ele>321.8</ele>
        <time>2020-06-24T07:39:33Z</time>
      </trkpt>
      <trkpt lat="44.45385" lon="1.82889">
        <ele>321.8</ele>
        <time>2020-06-24T07:39:40Z</time>
      </trkpt>
      <trkpt lat="44.454" lon="1.82886">
        <ele>321.8</ele>
        <time>2020-06-24T07:39:47Z</time>
      </trkpt>
      <trkpt lat="44.45415" lon="1.82884">
        <ele>321.8</ele>
        <time>2020-06-24T07:39:53Z</time>
      </trkpt>
      <trkpt lat="44.45432" lon="1.82883">
        <ele>321.8</ele>
        <time>2020-06-24T07:40:00Z</time>
      </trkpt>
      <trkpt lat="44.45448" lon="1.82886">
        <ele>321.8</ele>
        <time>2020-06-24T07:40:06Z</time>
      </trkpt>
      <trkpt lat="44.45452" lon="1.82886">
        <ele>322.2</ele>
        <time>2020-06-24T07:40:07Z</time>
      </trkpt>
      <trkpt lat="44.45456" lon="1.82885">
        <ele>322.8</ele>
        <time>2020-06-24T07:40:08Z</time>
      </trkpt>
      <trkpt lat="44.45461" lon="1.82886">
        <ele>323.6</ele>
        <time>2020-06-24T07:40:09Z</time>
      </trkpt>
      <trkpt lat="44.45465" lon="1.82887">
        <ele>324</ele>
        <time>2020-06-24T07:40:10Z</time>
      </trkpt>
      <trkpt lat="44.455" lon="1.82889">
        <ele>324</ele>
        <time>2020-06-24T07:40:17Z</time>
      </trkpt>
      <trkpt lat="44.45525" lon="1.82891">
        <ele>324</ele>
        <time>2020-06-24T07:40:21Z</time>
      </trkpt>
      <trkpt lat="44.45531" lon="1.82891">
        <ele>324</ele>
        <time>2020-06-24T07:40:22Z</time>
      </trkpt>
      <trkpt lat="44.45537" lon="1.8289">
        <ele>323.6</ele>
        <time>2020-06-24T07:40:23Z</time>
      </trkpt>
      <trkpt lat="44.45543" lon="1.82889">
        <ele>323.2</ele>
        <time>2020-06-24T07:40:24Z</time>
      </trkpt>
      <trkpt lat="44.45549" lon="1.82887">
        <ele>322.6</ele>
        <time>2020-06-24T07:40:25Z</time>
      </trkpt>
      <trkpt lat="44.45556" lon="1.82885">
        <ele>322.2</ele>
        <time>2020-06-24T07:40:26Z</time>
      </trkpt>
      <trkpt lat="44.45562" lon="1.82883">
        <ele>321.6</ele>
        <time>2020-06-24T07:40:27Z</time>
      </trkpt>
      <trkpt lat="44.45568" lon="1.82881">
        <ele>321.2</ele>
        <time>2020-06-24T07:40:28Z</time>
      </trkpt>
      <trkpt lat="44.45574" lon="1.82878">
        <ele>320.8</ele>
        <time>2020-06-24T07:40:29Z</time>
      </trkpt>
      <trkpt lat="44.4558" lon="1.82874">
        <ele>320.2</ele>
        <time>2020-06-24T07:40:30Z</time>
      </trkpt>
      <trkpt lat="44.45585" lon="1.8287">
        <ele>319.6</ele>
        <time>2020-06-24T07:40:31Z</time>
      </trkpt>
      <trkpt lat="44.4559" lon="1.82866">
        <ele>319</ele>
        <time>2020-06-24T07:40:32Z</time>
      </trkpt>
      <trkpt lat="44.45595" lon="1.82862">
        <ele>318.4</ele>
        <time>2020-06-24T07:40:33Z</time>
      </trkpt>
      <trkpt lat="44.45599" lon="1.82856">
        <ele>317.2</ele>
        <time>2020-06-24T07:40:34Z</time>
      </trkpt>
      <trkpt lat="44.45601" lon="1.82849">
        <ele>316.4</ele>
        <time>2020-06-24T07:40:35Z</time>
      </trkpt>
      <trkpt lat="44.45603" lon="1.82841">
        <ele>315.8</ele>
        <time>2020-06-24T07:40:36Z</time>
      </trkpt>
      <trkpt lat="44.45605" lon="1.82833">
        <ele>315.2</ele>
        <time>2020-06-24T07:40:37Z</time>
      </trkpt>
      <trkpt lat="44.45607" lon="1.82828">
        <ele>314.6</ele>
        <time>2020-06-24T07:40:38Z</time>
      </trkpt>
      <trkpt lat="44.45609" lon="1.82822">
        <ele>314</ele>
        <time>2020-06-24T07:40:39Z</time>
      </trkpt>
      <trkpt lat="44.45611" lon="1.82817">
        <ele>313.4</ele>
        <time>2020-06-24T07:40:40Z</time>
      </trkpt>
      <trkpt lat="44.45612" lon="1.82812">
        <ele>312.8</ele>
        <time>2020-06-24T07:40:41Z</time>
      </trkpt>
      <trkpt lat="44.45613" lon="1.82808">
        <ele>312.4</ele>
        <time>2020-06-24T07:40:42Z</time>
      </trkpt>
      <trkpt lat="44.45614" lon="1.82803">
        <ele>312</ele>
        <time>2020-06-24T07:40:43Z</time>
      </trkpt>
      <trkpt lat="44.45615" lon="1.82798">
        <ele>311.6</ele>
        <time>2020-06-24T07:40:44Z</time>
      </trkpt>
      <trkpt lat="44.45616" lon="1.82793">
        <ele>311.2</ele>
        <time>2020-06-24T07:40:45Z</time>
      </trkpt>
      <trkpt lat="44.45617" lon="1.82787">
        <ele>310.8</ele>
        <time>2020-06-24T07:40:46Z</time>
      </trkpt>
      <trkpt lat="44.45618" lon="1.82781">
        <ele>310.8</ele>
        <time>2020-06-24T07:40:47Z</time>
      </trkpt>
      <trkpt lat="44.45623" lon="1.82766">
        <ele>310.8</ele>
        <time>2020-06-24T07:40:49Z</time>
      </trkpt>
      <trkpt lat="44.45625" lon="1.82757">
        <ele>310.4</ele>
        <time>2020-06-24T07:40:50Z</time>
      </trkpt>
      <trkpt lat="44.45627" lon="1.82747">
        <ele>310</ele>
        <time>2020-06-24T07:40:51Z</time>
      </trkpt>
      <trkpt lat="44.4563" lon="1.82737">
        <ele>309.6</ele>
        <time>2020-06-24T07:40:52Z</time>
      </trkpt>
      <trkpt lat="44.45632" lon="1.82727">
        <ele>309.2</ele>
        <time>2020-06-24T07:40:53Z</time>
      </trkpt>
      <trkpt lat="44.45634" lon="1.82717">
        <ele>308.8</ele>
        <time>2020-06-24T07:40:54Z</time>
      </trkpt>
      <trkpt lat="44.45637" lon="1.82708">
        <ele>308.2</ele>
        <time>2020-06-24T07:40:55Z</time>
      </trkpt>
      <trkpt lat="44.45639" lon="1.82698">
        <ele>307.8</ele>
        <time>2020-06-24T07:40:56Z</time>
      </trkpt>
      <trkpt lat="44.4564" lon="1.82689">
        <ele>306.6</ele>
        <time>2020-06-24T07:40:57Z</time>
      </trkpt>
      <trkpt lat="44.45643" lon="1.82678">
        <ele>306</ele>
        <time>2020-06-24T07:40:58Z</time>
      </trkpt>
      <trkpt lat="44.45645" lon="1.82669">
        <ele>305.2</ele>
        <time>2020-06-24T07:40:59Z</time>
      </trkpt>
      <trkpt lat="44.45647" lon="1.8266">
        <ele>304.4</ele>
        <time>2020-06-24T07:41:00Z</time>
      </trkpt>
      <trkpt lat="44.45649" lon="1.82651">
        <ele>303.6</ele>
        <time>2020-06-24T07:41:01Z</time>
      </trkpt>
      <trkpt lat="44.45652" lon="1.82642">
        <ele>302.8</ele>
        <time>2020-06-24T07:41:02Z</time>
      </trkpt>
      <trkpt lat="44.45655" lon="1.82634">
        <ele>301.8</ele>
        <time>2020-06-24T07:41:03Z</time>
      </trkpt>
      <trkpt lat="44.45658" lon="1.82628">
        <ele>301</ele>
        <time>2020-06-24T07:41:04Z</time>
      </trkpt>
      <trkpt lat="44.45661" lon="1.82621">
        <ele>300.2</ele>
        <time>2020-06-24T07:41:05Z</time>
      </trkpt>
      <trkpt lat="44.45665" lon="1.82615">
        <ele>299.4</ele>
        <time>2020-06-24T07:41:06Z</time>
      </trkpt>
      <trkpt lat="44.45667" lon="1.82608">
        <ele>298.6</ele>
        <time>2020-06-24T07:41:07Z</time>
      </trkpt>
      <trkpt lat="44.45669" lon="1.826">
        <ele>297.8</ele>
        <time>2020-06-24T07:41:08Z</time>
      </trkpt>
      <trkpt lat="44.4567" lon="1.82592">
        <ele>296.8</ele>
        <time>2020-06-24T07:41:09Z</time>
      </trkpt>
      <trkpt lat="44.4567" lon="1.82582">
        <ele>296</ele>
        <time>2020-06-24T07:41:10Z</time>
      </trkpt>
      <trkpt lat="44.45669" lon="1.82573">
        <ele>295</ele>
        <time>2020-06-24T07:41:11Z</time>
      </trkpt>
      <trkpt lat="44.45668" lon="1.82563">
        <ele>294.2</ele>
        <time>2020-06-24T07:41:12Z</time>
      </trkpt>
      <trkpt lat="44.45666" lon="1.82553">
        <ele>293.4</ele>
        <time>2020-06-24T07:41:13Z</time>
      </trkpt>
      <trkpt lat="44.45665" lon="1.82545">
        <ele>292.4</ele>
        <time>2020-06-24T07:41:14Z</time>
      </trkpt>
      <trkpt lat="44.45663" lon="1.82537">
        <ele>291.6</ele>
        <time>2020-06-24T07:41:15Z</time>
      </trkpt>
      <trkpt lat="44.4566" lon="1.8253">
        <ele>290.8</ele>
        <time>2020-06-24T07:41:16Z</time>
      </trkpt>
      <trkpt lat="44.45657" lon="1.82524">
        <ele>290</ele>
        <time>2020-06-24T07:41:17Z</time>
      </trkpt>
      <trkpt lat="44.45654" lon="1.82517">
        <ele>289.2</ele>
        <time>2020-06-24T07:41:18Z</time>
      </trkpt>
      <trkpt lat="44.45653" lon="1.8251">
        <ele>288.2</ele>
        <time>2020-06-24T07:41:19Z</time>
      </trkpt>
      <trkpt lat="44.45654" lon="1.82503">
        <ele>287.6</ele>
        <time>2020-06-24T07:41:20Z</time>
      </trkpt>
      <trkpt lat="44.45656" lon="1.82496">
        <ele>286.8</ele>
        <time>2020-06-24T07:41:21Z</time>
      </trkpt>
      <trkpt lat="44.45658" lon="1.82488">
        <ele>285</ele>
        <time>2020-06-24T07:41:22Z</time>
      </trkpt>
      <trkpt lat="44.45661" lon="1.82481">
        <ele>284</ele>
        <time>2020-06-24T07:41:23Z</time>
      </trkpt>
      <trkpt lat="44.45662" lon="1.82474">
        <ele>283.2</ele>
        <time>2020-06-24T07:41:24Z</time>
      </trkpt>
      <trkpt lat="44.45664" lon="1.82466">
        <ele>282.6</ele>
        <time>2020-06-24T07:41:25Z</time>
      </trkpt>
      <trkpt lat="44.45666" lon="1.82459">
        <ele>281.8</ele>
        <time>2020-06-24T07:41:26Z</time>
      </trkpt>
      <trkpt lat="44.45669" lon="1.82452">
        <ele>280.8</ele>
        <time>2020-06-24T07:41:27Z</time>
      </trkpt>
      <trkpt lat="44.45672" lon="1.82445">
        <ele>280</ele>
        <time>2020-06-24T07:41:28Z</time>
      </trkpt>
      <trkpt lat="44.45675" lon="1.82438">
        <ele>279.2</ele>
        <time>2020-06-24T07:41:29Z</time>
      </trkpt>
      <trkpt lat="44.45679" lon="1.82433">
        <ele>278.2</ele>
        <time>2020-06-24T07:41:30Z</time>
      </trkpt>
      <trkpt lat="44.45684" lon="1.82428">
        <ele>277.6</ele>
        <time>2020-06-24T07:41:31Z</time>
      </trkpt>
      <trkpt lat="44.45688" lon="1.82425">
        <ele>277</ele>
        <time>2020-06-24T07:41:32Z</time>
      </trkpt>
      <trkpt lat="44.45693" lon="1.82422">
        <ele>276.4</ele>
        <time>2020-06-24T07:41:33Z</time>
      </trkpt>
      <trkpt lat="44.45697" lon="1.82419">
        <ele>275.6</ele>
        <time>2020-06-24T07:41:34Z</time>
      </trkpt>
      <trkpt lat="44.45699" lon="1.82418">
        <ele>275</ele>
        <time>2020-06-24T07:41:35Z</time>
      </trkpt>
      <trkpt lat="44.45703" lon="1.82417">
        <ele>275</ele>
        <time>2020-06-24T07:41:36Z</time>
      </trkpt>
      <trkpt lat="44.45714" lon="1.8242">
        <ele>275</ele>
        <time>2020-06-24T07:41:39Z</time>
      </trkpt>
      <trkpt lat="44.45718" lon="1.82421">
        <ele>274.6</ele>
        <time>2020-06-24T07:41:40Z</time>
      </trkpt>
      <trkpt lat="44.45722" lon="1.82421">
        <ele>274.2</ele>
        <time>2020-06-24T07:41:41Z</time>
      </trkpt>
      <trkpt lat="44.45726" lon="1.8242">
        <ele>273.8</ele>
        <time>2020-06-24T07:41:42Z</time>
      </trkpt>
      <trkpt lat="44.4573" lon="1.82417">
        <ele>273.4</ele>
        <time>2020-06-24T07:41:43Z</time>
      </trkpt>
      <trkpt lat="44.45731" lon="1.82414">
        <ele>273</ele>
        <time>2020-06-24T07:41:44Z</time>
      </trkpt>
      <trkpt lat="44.45731" lon="1.82405">
        <ele>272.4</ele>
        <time>2020-06-24T07:41:46Z</time>
      </trkpt>
      <trkpt lat="44.45731" lon="1.824">
        <ele>271.6</ele>
        <time>2020-06-24T07:41:47Z</time>
      </trkpt>
      <trkpt lat="44.45731" lon="1.82394">
        <ele>271.2</ele>
        <time>2020-06-24T07:41:48Z</time>
      </trkpt>
      <trkpt lat="44.45732" lon="1.82389">
        <ele>270.6</ele>
        <time>2020-06-24T07:41:49Z</time>
      </trkpt>
      <trkpt lat="44.45734" lon="1.82376">
        <ele>270.2</ele>
        <time>2020-06-24T07:41:51Z</time>
      </trkpt>
      <trkpt lat="44.45735" lon="1.8237">
        <ele>269.8</ele>
        <time>2020-06-24T07:41:52Z</time>
      </trkpt>
      <trkpt lat="44.45736" lon="1.82363">
        <ele>269.4</ele>
        <time>2020-06-24T07:41:53Z</time>
      </trkpt>
      <trkpt lat="44.45736" lon="1.82356">
        <ele>269</ele>
        <time>2020-06-24T07:41:54Z</time>
      </trkpt>
      <trkpt lat="44.45737" lon="1.82349">
        <ele>268.4</ele>
        <time>2020-06-24T07:41:55Z</time>
      </trkpt>
      <trkpt lat="44.45736" lon="1.82343">
        <ele>268</ele>
        <time>2020-06-24T07:41:56Z</time>
      </trkpt>
      <trkpt lat="44.45734" lon="1.82338">
        <ele>267.4</ele>
        <time>2020-06-24T07:41:57Z</time>
      </trkpt>
      <trkpt lat="44.45734" lon="1.82335">
        <ele>266.8</ele>
        <time>2020-06-24T07:41:58Z</time>
      </trkpt>
      <trkpt lat="44.45735" lon="1.82332">
        <ele>266.2</ele>
        <time>2020-06-24T07:41:59Z</time>
      </trkpt>
      <trkpt lat="44.45738" lon="1.8233">
        <ele>265.8</ele>
        <time>2020-06-24T07:42:00Z</time>
      </trkpt>
      <trkpt lat="44.45741" lon="1.82328">
        <ele>265.4</ele>
        <time>2020-06-24T07:42:01Z</time>
      </trkpt>
      <trkpt lat="44.45745" lon="1.82327">
        <ele>264.8</ele>
        <time>2020-06-24T07:42:02Z</time>
      </trkpt>
      <trkpt lat="44.45749" lon="1.82327">
        <ele>264.4</ele>
        <time>2020-06-24T07:42:03Z</time>
      </trkpt>
      <trkpt lat="44.45754" lon="1.82327">
        <ele>264</ele>
        <time>2020-06-24T07:42:04Z</time>
      </trkpt>
      <trkpt lat="44.45764" lon="1.82328">
        <ele>263.6</ele>
        <time>2020-06-24T07:42:06Z</time>
      </trkpt>
      <trkpt lat="44.45769" lon="1.8233">
        <ele>263</ele>
        <time>2020-06-24T07:42:07Z</time>
      </trkpt>
      <trkpt lat="44.45773" lon="1.82333">
        <ele>262.6</ele>
        <time>2020-06-24T07:42:08Z</time>
      </trkpt>
      <trkpt lat="44.45777" lon="1.82337">
        <ele>262</ele>
        <time>2020-06-24T07:42:09Z</time>
      </trkpt>
      <trkpt lat="44.45781" lon="1.8234">
        <ele>261.4</ele>
        <time>2020-06-24T07:42:10Z</time>
      </trkpt>
      <trkpt lat="44.45785" lon="1.82344">
        <ele>260.6</ele>
        <time>2020-06-24T07:42:11Z</time>
      </trkpt>
      <trkpt lat="44.45789" lon="1.82347">
        <ele>259.4</ele>
        <time>2020-06-24T07:42:12Z</time>
      </trkpt>
      <trkpt lat="44.45794" lon="1.8235">
        <ele>258.6</ele>
        <time>2020-06-24T07:42:13Z</time>
      </trkpt>
      <trkpt lat="44.45798" lon="1.82352">
        <ele>258</ele>
        <time>2020-06-24T07:42:14Z</time>
      </trkpt>
      <trkpt lat="44.45802" lon="1.82353">
        <ele>257.4</ele>
        <time>2020-06-24T07:42:15Z</time>
      </trkpt>
      <trkpt lat="44.45806" lon="1.82352">
        <ele>256.8</ele>
        <time>2020-06-24T07:42:16Z</time>
      </trkpt>
      <trkpt lat="44.4581" lon="1.8235">
        <ele>256</ele>
        <time>2020-06-24T07:42:17Z</time>
      </trkpt>
      <trkpt lat="44.45814" lon="1.82349">
        <ele>255.4</ele>
        <time>2020-06-24T07:42:18Z</time>
      </trkpt>
      <trkpt lat="44.45818" lon="1.82347">
        <ele>254.6</ele>
        <time>2020-06-24T07:42:19Z</time>
      </trkpt>
      <trkpt lat="44.45822" lon="1.82345">
        <ele>254.6</ele>
        <time>2020-06-24T07:42:20Z</time>
      </trkpt>
      <trkpt lat="44.45828" lon="1.82341">
        <ele>254.2</ele>
        <time>2020-06-24T07:42:21Z</time>
      </trkpt>
      <trkpt lat="44.45833" lon="1.82338">
        <ele>253.8</ele>
        <time>2020-06-24T07:42:22Z</time>
      </trkpt>
      <trkpt lat="44.45838" lon="1.82333">
        <ele>253.4</ele>
        <time>2020-06-24T07:42:23Z</time>
      </trkpt>
      <trkpt lat="44.45843" lon="1.82328">
        <ele>253</ele>
        <time>2020-06-24T07:42:24Z</time>
      </trkpt>
      <trkpt lat="44.45848" lon="1.82323">
        <ele>252.6</ele>
        <time>2020-06-24T07:42:25Z</time>
      </trkpt>
      <trkpt lat="44.45859" lon="1.82313">
        <ele>252.6</ele>
        <time>2020-06-24T07:42:27Z</time>
      </trkpt>
      <trkpt lat="44.45864" lon="1.82309">
        <ele>252.2</ele>
        <time>2020-06-24T07:42:28Z</time>
      </trkpt>
      <trkpt lat="44.4587" lon="1.82304">
        <ele>251.8</ele>
        <time>2020-06-24T07:42:29Z</time>
      </trkpt>
      <trkpt lat="44.45874" lon="1.82299">
        <ele>251.2</ele>
        <time>2020-06-24T07:42:30Z</time>
      </trkpt>
      <trkpt lat="44.45879" lon="1.82294">
        <ele>250.8</ele>
        <time>2020-06-24T07:42:31Z</time>
      </trkpt>
      <trkpt lat="44.45884" lon="1.82289">
        <ele>250.4</ele>
        <time>2020-06-24T07:42:32Z</time>
      </trkpt>
      <trkpt lat="44.459" lon="1.82275">
        <ele>250</ele>
        <time>2020-06-24T07:42:35Z</time>
      </trkpt>
      <trkpt lat="44.45905" lon="1.82271">
        <ele>249.4</ele>
        <time>2020-06-24T07:42:36Z</time>
      </trkpt>
      <trkpt lat="44.45911" lon="1.82266">
        <ele>248.6</ele>
        <time>2020-06-24T07:42:37Z</time>
      </trkpt>
      <trkpt lat="44.45916" lon="1.82262">
        <ele>248</ele>
        <time>2020-06-24T07:42:38Z</time>
      </trkpt>
      <trkpt lat="44.45921" lon="1.82257">
        <ele>247.6</ele>
        <time>2020-06-24T07:42:39Z</time>
      </trkpt>
      <trkpt lat="44.45927" lon="1.82253">
        <ele>247.2</ele>
        <time>2020-06-24T07:42:40Z</time>
      </trkpt>
      <trkpt lat="44.45932" lon="1.82249">
        <ele>246.6</ele>
        <time>2020-06-24T07:42:41Z</time>
      </trkpt>
      <trkpt lat="44.45937" lon="1.82246">
        <ele>246.2</ele>
        <time>2020-06-24T07:42:42Z</time>
      </trkpt>
      <trkpt lat="44.45943" lon="1.82242">
        <ele>245.6</ele>
        <time>2020-06-24T07:42:43Z</time>
      </trkpt>
      <trkpt lat="44.45949" lon="1.82239">
        <ele>245.2</ele>
        <time>2020-06-24T07:42:44Z</time>
      </trkpt>
      <trkpt lat="44.45955" lon="1.82237">
        <ele>244.6</ele>
        <time>2020-06-24T07:42:45Z</time>
      </trkpt>
      <trkpt lat="44.45962" lon="1.82235">
        <ele>244.2</ele>
        <time>2020-06-24T07:42:46Z</time>
      </trkpt>
      <trkpt lat="44.45967" lon="1.82233">
        <ele>243.6</ele>
        <time>2020-06-24T07:42:47Z</time>
      </trkpt>
      <trkpt lat="44.45973" lon="1.82232">
        <ele>243</ele>
        <time>2020-06-24T07:42:48Z</time>
      </trkpt>
      <trkpt lat="44.45979" lon="1.8223">
        <ele>242.4</ele>
        <time>2020-06-24T07:42:49Z</time>
      </trkpt>
      <trkpt lat="44.45985" lon="1.8223">
        <ele>241.8</ele>
        <time>2020-06-24T07:42:50Z</time>
      </trkpt>
      <trkpt lat="44.4599" lon="1.82229">
        <ele>241.2</ele>
        <time>2020-06-24T07:42:51Z</time>
      </trkpt>
      <trkpt lat="44.45995" lon="1.82229">
        <ele>240.6</ele>
        <time>2020-06-24T07:42:52Z</time>
      </trkpt>
      <trkpt lat="44.45999" lon="1.82229">
        <ele>240</ele>
        <time>2020-06-24T07:42:53Z</time>
      </trkpt>
      <trkpt lat="44.46002" lon="1.8223">
        <ele>239.2</ele>
        <time>2020-06-24T07:42:54Z</time>
      </trkpt>
      <trkpt lat="44.46007" lon="1.8223">
        <ele>238.6</ele>
        <time>2020-06-24T07:42:55Z</time>
      </trkpt>
      <trkpt lat="44.46012" lon="1.82231">
        <ele>238</ele>
        <time>2020-06-24T07:42:56Z</time>
      </trkpt>
      <trkpt lat="44.46018" lon="1.82232">
        <ele>237.2</ele>
        <time>2020-06-24T07:42:57Z</time>
      </trkpt>
      <trkpt lat="44.46023" lon="1.82235">
        <ele>236.6</ele>
        <time>2020-06-24T07:42:58Z</time>
      </trkpt>
      <trkpt lat="44.46026" lon="1.82237">
        <ele>236</ele>
        <time>2020-06-24T07:42:59Z</time>
      </trkpt>
      <trkpt lat="44.46029" lon="1.82239">
        <ele>235.4</ele>
        <time>2020-06-24T07:43:00Z</time>
      </trkpt>
      <trkpt lat="44.46031" lon="1.82242">
        <ele>234</ele>
        <time>2020-06-24T07:43:01Z</time>
      </trkpt>
      <trkpt lat="44.46033" lon="1.82245">
        <ele>233.4</ele>
        <time>2020-06-24T07:43:02Z</time>
      </trkpt>
      <trkpt lat="44.46035" lon="1.82247">
        <ele>232.8</ele>
        <time>2020-06-24T07:43:03Z</time>
      </trkpt>
      <trkpt lat="44.46038" lon="1.8225">
        <ele>232.2</ele>
        <time>2020-06-24T07:43:04Z</time>
      </trkpt>
      <trkpt lat="44.4604" lon="1.82253">
        <ele>231.6</ele>
        <time>2020-06-24T07:43:05Z</time>
      </trkpt>
      <trkpt lat="44.46041" lon="1.82256">
        <ele>231</ele>
        <time>2020-06-24T07:43:06Z</time>
      </trkpt>
      <trkpt lat="44.46043" lon="1.8226">
        <ele>230.6</ele>
        <time>2020-06-24T07:43:07Z</time>
      </trkpt>
      <trkpt lat="44.46045" lon="1.82264">
        <ele>230</ele>
        <time>2020-06-24T07:43:08Z</time>
      </trkpt>
      <trkpt lat="44.46047" lon="1.82267">
        <ele>229.6</ele>
        <time>2020-06-24T07:43:09Z</time>
      </trkpt>
      <trkpt lat="44.46049" lon="1.82271">
        <ele>229.2</ele>
        <time>2020-06-24T07:43:10Z</time>
      </trkpt>
      <trkpt lat="44.46051" lon="1.82276">
        <ele>228.8</ele>
        <time>2020-06-24T07:43:11Z</time>
      </trkpt>
      <trkpt lat="44.46053" lon="1.82282">
        <ele>228.4</ele>
        <time>2020-06-24T07:43:12Z</time>
      </trkpt>
      <trkpt lat="44.46058" lon="1.82294">
        <ele>228</ele>
        <time>2020-06-24T07:43:14Z</time>
      </trkpt>
      <trkpt lat="44.4606" lon="1.82302">
        <ele>227.6</ele>
        <time>2020-06-24T07:43:15Z</time>
      </trkpt>
      <trkpt lat="44.46062" lon="1.8231">
        <ele>227.2</ele>
        <time>2020-06-24T07:43:16Z</time>
      </trkpt>
      <trkpt lat="44.46064" lon="1.82318">
        <ele>226.6</ele>
        <time>2020-06-24T07:43:17Z</time>
      </trkpt>
      <trkpt lat="44.46067" lon="1.82326">
        <ele>226.2</ele>
        <time>2020-06-24T07:43:18Z</time>
      </trkpt>
      <trkpt lat="44.4607" lon="1.82333">
        <ele>226.2</ele>
        <time>2020-06-24T07:43:19Z</time>
      </trkpt>
      <trkpt lat="44.46073" lon="1.82339">
        <ele>225.8</ele>
        <time>2020-06-24T07:43:20Z</time>
      </trkpt>
      <trkpt lat="44.46076" lon="1.82345">
        <ele>225.2</ele>
        <time>2020-06-24T07:43:21Z</time>
      </trkpt>
      <trkpt lat="44.4608" lon="1.82352">
        <ele>224.8</ele>
        <time>2020-06-24T07:43:22Z</time>
      </trkpt>
      <trkpt lat="44.46084" lon="1.82359">
        <ele>224.2</ele>
        <time>2020-06-24T07:43:23Z</time>
      </trkpt>
      <trkpt lat="44.46088" lon="1.82367">
        <ele>223.8</ele>
        <time>2020-06-24T07:43:24Z</time>
      </trkpt>
      <trkpt lat="44.46092" lon="1.82374">
        <ele>223.2</ele>
        <time>2020-06-24T07:43:25Z</time>
      </trkpt>
      <trkpt lat="44.46096" lon="1.82381">
        <ele>222</ele>
        <time>2020-06-24T07:43:26Z</time>
      </trkpt>
      <trkpt lat="44.461" lon="1.82388">
        <ele>221.4</ele>
        <time>2020-06-24T07:43:27Z</time>
      </trkpt>
      <trkpt lat="44.46104" lon="1.82395">
        <ele>220.8</ele>
        <time>2020-06-24T07:43:28Z</time>
      </trkpt>
      <trkpt lat="44.46108" lon="1.82401">
        <ele>220.2</ele>
        <time>2020-06-24T07:43:29Z</time>
      </trkpt>
      <trkpt lat="44.46113" lon="1.82407">
        <ele>219.6</ele>
        <time>2020-06-24T07:43:30Z</time>
      </trkpt>
      <trkpt lat="44.46118" lon="1.82413">
        <ele>219</ele>
        <time>2020-06-24T07:43:31Z</time>
      </trkpt>
      <trkpt lat="44.46123" lon="1.82419">
        <ele>218.6</ele>
        <time>2020-06-24T07:43:32Z</time>
      </trkpt>
      <trkpt lat="44.46129" lon="1.82424">
        <ele>218.2</ele>
        <time>2020-06-24T07:43:33Z</time>
      </trkpt>
      <trkpt lat="44.46134" lon="1.82428">
        <ele>217.8</ele>
        <time>2020-06-24T07:43:34Z</time>
      </trkpt>
      <trkpt lat="44.46139" lon="1.82431">
        <ele>217.2</ele>
        <time>2020-06-24T07:43:35Z</time>
      </trkpt>
      <trkpt lat="44.46144" lon="1.82434">
        <ele>216.8</ele>
        <time>2020-06-24T07:43:36Z</time>
      </trkpt>
      <trkpt lat="44.46149" lon="1.82437">
        <ele>216.2</ele>
        <time>2020-06-24T07:43:37Z</time>
      </trkpt>
      <trkpt lat="44.46153" lon="1.82439">
        <ele>215.6</ele>
        <time>2020-06-24T07:43:38Z</time>
      </trkpt>
      <trkpt lat="44.46158" lon="1.82442">
        <ele>215.2</ele>
        <time>2020-06-24T07:43:39Z</time>
      </trkpt>
      <trkpt lat="44.46162" lon="1.82445">
        <ele>214.6</ele>
        <time>2020-06-24T07:43:40Z</time>
      </trkpt>
      <trkpt lat="44.46167" lon="1.82448">
        <ele>214</ele>
        <time>2020-06-24T07:43:41Z</time>
      </trkpt>
      <trkpt lat="44.46173" lon="1.82451">
        <ele>213.6</ele>
        <time>2020-06-24T07:43:42Z</time>
      </trkpt>
      <trkpt lat="44.46179" lon="1.82452">
        <ele>213</ele>
        <time>2020-06-24T07:43:43Z</time>
      </trkpt>
      <trkpt lat="44.46184" lon="1.82453">
        <ele>212.4</ele>
        <time>2020-06-24T07:43:44Z</time>
      </trkpt>
      <trkpt lat="44.46189" lon="1.82453">
        <ele>212</ele>
        <time>2020-06-24T07:43:45Z</time>
      </trkpt>
      <trkpt lat="44.46194" lon="1.82452">
        <ele>211.6</ele>
        <time>2020-06-24T07:43:46Z</time>
      </trkpt>
      <trkpt lat="44.46198" lon="1.82452">
        <ele>211</ele>
        <time>2020-06-24T07:43:47Z</time>
      </trkpt>
      <trkpt lat="44.46202" lon="1.82452">
        <ele>210.6</ele>
        <time>2020-06-24T07:43:48Z</time>
      </trkpt>
      <trkpt lat="44.46205" lon="1.82453">
        <ele>210</ele>
        <time>2020-06-24T07:43:49Z</time>
      </trkpt>
      <trkpt lat="44.46208" lon="1.82455">
        <ele>209.6</ele>
        <time>2020-06-24T07:43:50Z</time>
      </trkpt>
      <trkpt lat="44.46211" lon="1.82457">
        <ele>208.4</ele>
        <time>2020-06-24T07:43:51Z</time>
      </trkpt>
      <trkpt lat="44.46215" lon="1.82459">
        <ele>208</ele>
        <time>2020-06-24T07:43:52Z</time>
      </trkpt>
      <trkpt lat="44.46224" lon="1.82469">
        <ele>208</ele>
        <time>2020-06-24T07:43:55Z</time>
      </trkpt>
      <trkpt lat="44.46232" lon="1.82478">
        <ele>208</ele>
        <time>2020-06-24T07:43:57Z</time>
      </trkpt>
      <trkpt lat="44.46235" lon="1.82484">
        <ele>207.4</ele>
        <time>2020-06-24T07:43:58Z</time>
      </trkpt>
      <trkpt lat="44.46239" lon="1.8249">
        <ele>207</ele>
        <time>2020-06-24T07:43:59Z</time>
      </trkpt>
      <trkpt lat="44.46244" lon="1.82497">
        <ele>206.6</ele>
        <time>2020-06-24T07:44:00Z</time>
      </trkpt>
      <trkpt lat="44.46248" lon="1.82504">
        <ele>206.2</ele>
        <time>2020-06-24T07:44:01Z</time>
      </trkpt>
      <trkpt lat="44.46253" lon="1.82512">
        <ele>205.6</ele>
        <time>2020-06-24T07:44:02Z</time>
      </trkpt>
      <trkpt lat="44.46259" lon="1.8252">
        <ele>205.2</ele>
        <time>2020-06-24T07:44:03Z</time>
      </trkpt>
      <trkpt lat="44.46265" lon="1.82527">
        <ele>204.8</ele>
        <time>2020-06-24T07:44:04Z</time>
      </trkpt>
      <trkpt lat="44.46272" lon="1.82534">
        <ele>204.2</ele>
        <time>2020-06-24T07:44:05Z</time>
      </trkpt>
      <trkpt lat="44.46279" lon="1.82542">
        <ele>203.6</ele>
        <time>2020-06-24T07:44:06Z</time>
      </trkpt>
      <trkpt lat="44.46286" lon="1.82549">
        <ele>203</ele>
        <time>2020-06-24T07:44:07Z</time>
      </trkpt>
      <trkpt lat="44.46293" lon="1.82556">
        <ele>202.4</ele>
        <time>2020-06-24T07:44:08Z</time>
      </trkpt>
      <trkpt lat="44.463" lon="1.82561">
        <ele>201.6</ele>
        <time>2020-06-24T07:44:09Z</time>
      </trkpt>
      <trkpt lat="44.46306" lon="1.82567">
        <ele>201</ele>
        <time>2020-06-24T07:44:10Z</time>
      </trkpt>
      <trkpt lat="44.46313" lon="1.82572">
        <ele>200.4</ele>
        <time>2020-06-24T07:44:11Z</time>
      </trkpt>
      <trkpt lat="44.46319" lon="1.82577">
        <ele>199.8</ele>
        <time>2020-06-24T07:44:12Z</time>
      </trkpt>
      <trkpt lat="44.46326" lon="1.82581">
        <ele>199.2</ele>
        <time>2020-06-24T07:44:13Z</time>
      </trkpt>
      <trkpt lat="44.46332" lon="1.82586">
        <ele>198.6</ele>
        <time>2020-06-24T07:44:14Z</time>
      </trkpt>
      <trkpt lat="44.46339" lon="1.8259">
        <ele>198.2</ele>
        <time>2020-06-24T07:44:15Z</time>
      </trkpt>
      <trkpt lat="44.46345" lon="1.82594">
        <ele>197.6</ele>
        <time>2020-06-24T07:44:16Z</time>
      </trkpt>
      <trkpt lat="44.46352" lon="1.82597">
        <ele>197.2</ele>
        <time>2020-06-24T07:44:17Z</time>
      </trkpt>
      <trkpt lat="44.46359" lon="1.82601">
        <ele>196.8</ele>
        <time>2020-06-24T07:44:18Z</time>
      </trkpt>
      <trkpt lat="44.46366" lon="1.82604">
        <ele>196.2</ele>
        <time>2020-06-24T07:44:19Z</time>
      </trkpt>
      <trkpt lat="44.46387" lon="1.82616">
        <ele>196.2</ele>
        <time>2020-06-24T07:44:22Z</time>
      </trkpt>
      <trkpt lat="44.46422" lon="1.82649">
        <ele>196.2</ele>
        <time>2020-06-24T07:44:28Z</time>
      </trkpt>
      <trkpt lat="44.46456" lon="1.82689">
        <ele>196.2</ele>
        <time>2020-06-24T07:44:35Z</time>
      </trkpt>
      <trkpt lat="44.46474" lon="1.82715">
        <ele>195.8</ele>
        <time>2020-06-24T07:44:39Z</time>
      </trkpt>
      <trkpt lat="44.46479" lon="1.82722">
        <ele>195</ele>
        <time>2020-06-24T07:44:40Z</time>
      </trkpt>
      <trkpt lat="44.46484" lon="1.82728">
        <ele>194.6</ele>
        <time>2020-06-24T07:44:41Z</time>
      </trkpt>
      <trkpt lat="44.46489" lon="1.82734">
        <ele>194.2</ele>
        <time>2020-06-24T07:44:42Z</time>
      </trkpt>
      <trkpt lat="44.46516" lon="1.8277">
        <ele>194.2</ele>
        <time>2020-06-24T07:44:48Z</time>
      </trkpt>
      <trkpt lat="44.46525" lon="1.82784">
        <ele>193.8</ele>
        <time>2020-06-24T07:44:50Z</time>
      </trkpt>
      <trkpt lat="44.46529" lon="1.82791">
        <ele>193.4</ele>
        <time>2020-06-24T07:44:51Z</time>
      </trkpt>
      <trkpt lat="44.46532" lon="1.82798">
        <ele>193</ele>
        <time>2020-06-24T07:44:52Z</time>
      </trkpt>
      <trkpt lat="44.46536" lon="1.82803">
        <ele>192.6</ele>
        <time>2020-06-24T07:44:53Z</time>
      </trkpt>
      <trkpt lat="44.46539" lon="1.82809">
        <ele>192</ele>
        <time>2020-06-24T07:44:54Z</time>
      </trkpt>
      <trkpt lat="44.46542" lon="1.82814">
        <ele>191.6</ele>
        <time>2020-06-24T07:44:55Z</time>
      </trkpt>
      <trkpt lat="44.46544" lon="1.82819">
        <ele>191.2</ele>
        <time>2020-06-24T07:44:56Z</time>
      </trkpt>
      <trkpt lat="44.46546" lon="1.82825">
        <ele>190.8</ele>
        <time>2020-06-24T07:44:57Z</time>
      </trkpt>
      <trkpt lat="44.46549" lon="1.82831">
        <ele>190.2</ele>
        <time>2020-06-24T07:44:58Z</time>
      </trkpt>
      <trkpt lat="44.46551" lon="1.82836">
        <ele>189.8</ele>
        <time>2020-06-24T07:44:59Z</time>
      </trkpt>
      <trkpt lat="44.46554" lon="1.82841">
        <ele>189.8</ele>
        <time>2020-06-24T07:45:00Z</time>
      </trkpt>
      <trkpt lat="44.46562" lon="1.82846">
        <ele>189.4</ele>
        <time>2020-06-24T07:45:02Z</time>
      </trkpt>
      <trkpt lat="44.46566" lon="1.82849">
        <ele>189</ele>
        <time>2020-06-24T07:45:03Z</time>
      </trkpt>
      <trkpt lat="44.4657" lon="1.82851">
        <ele>188.4</ele>
        <time>2020-06-24T07:45:04Z</time>
      </trkpt>
      <trkpt lat="44.46574" lon="1.82851">
        <ele>187</ele>
        <time>2020-06-24T07:45:05Z</time>
      </trkpt>
      <trkpt lat="44.46577" lon="1.82848">
        <ele>186.4</ele>
        <time>2020-06-24T07:45:06Z</time>
      </trkpt>
      <trkpt lat="44.46578" lon="1.82844">
        <ele>185.6</ele>
        <time>2020-06-24T07:45:07Z</time>
      </trkpt>
      <trkpt lat="44.46579" lon="1.82838">
        <ele>185</ele>
        <time>2020-06-24T07:45:08Z</time>
      </trkpt>
      <trkpt lat="44.46578" lon="1.82832">
        <ele>184.6</ele>
        <time>2020-06-24T07:45:09Z</time>
      </trkpt>
      <trkpt lat="44.46576" lon="1.82827">
        <ele>184</ele>
        <time>2020-06-24T07:45:10Z</time>
      </trkpt>
      <trkpt lat="44.46574" lon="1.82821">
        <ele>183.4</ele>
        <time>2020-06-24T07:45:11Z</time>
      </trkpt>
      <trkpt lat="44.46572" lon="1.82815">
        <ele>182.8</ele>
        <time>2020-06-24T07:45:12Z</time>
      </trkpt>
      <trkpt lat="44.46568" lon="1.82803">
        <ele>182.8</ele>
        <time>2020-06-24T07:45:14Z</time>
      </trkpt>
      <trkpt lat="44.46566" lon="1.82796">
        <ele>182.8</ele>
        <time>2020-06-24T07:45:15Z</time>
      </trkpt>
      <trkpt lat="44.46563" lon="1.8279">
        <ele>182.4</ele>
        <time>2020-06-24T07:45:16Z</time>
      </trkpt>
      <trkpt lat="44.46561" lon="1.82784">
        <ele>182</ele>
        <time>2020-06-24T07:45:17Z</time>
      </trkpt>
      <trkpt lat="44.4656" lon="1.82779">
        <ele>181.6</ele>
        <time>2020-06-24T07:45:18Z</time>
      </trkpt>
      <trkpt lat="44.46559" lon="1.82775">
        <ele>181.2</ele>
        <time>2020-06-24T07:45:19Z</time>
      </trkpt>
      <trkpt lat="44.46559" lon="1.82772">
        <ele>180.6</ele>
        <time>2020-06-24T07:45:20Z</time>
      </trkpt>
      <trkpt lat="44.4656" lon="1.8277">
        <ele>180.6</ele>
        <time>2020-06-24T07:45:21Z</time>
      </trkpt>
      <trkpt lat="44.4656" lon="1.82769">
        <ele>180.6</ele>
        <time>2020-06-24T07:45:23Z</time>
      </trkpt>
      <trkpt lat="44.4656" lon="1.82769">
        <ele>180.6</ele>
        <time>2020-06-24T07:45:32Z</time>
      </trkpt>
      <trkpt lat="44.4656" lon="1.82769">
        <ele>180.2</ele>
        <time>2020-06-24T07:45:34Z</time>
      </trkpt>
      <trkpt lat="44.4656" lon="1.82769">
        <ele>179.8</ele>
        <time>2020-06-24T07:45:35Z</time>
      </trkpt>
      <trkpt lat="44.4656" lon="1.82769">
        <ele>179.2</ele>
        <time>2020-06-24T07:45:36Z</time>
      </trkpt>
      <trkpt lat="44.4656" lon="1.82769">
        <ele>178.8</ele>
        <time>2020-06-24T07:45:37Z</time>
      </trkpt>
      <trkpt lat="44.4656" lon="1.82769">
        <ele>178.4</ele>
        <time>2020-06-24T07:45:38Z</time>
      </trkpt>
      <trkpt lat="44.4656" lon="1.82769">
        <ele>178.4</ele>
        <time>2020-06-24T07:45:44Z</time>
      </trkpt>
      <trkpt lat="44.4656" lon="1.82769">
        <ele>178.4</ele>
        <time>2020-06-24T07:45:59Z</time>
      </trkpt>
      <trkpt lat="44.46561" lon="1.82769">
        <ele>178.4</ele>
        <time>2020-06-24T07:46:08Z</time>
      </trkpt>
      <trkpt lat="44.46561" lon="1.82769">
        <ele>178.4</ele>
        <time>2020-06-24T07:46:17Z</time>
      </trkpt>
      <trkpt lat="44.46562" lon="1.82769">
        <ele>178.4</ele>
        <time>2020-06-24T07:46:20Z</time>
      </trkpt>
      <trkpt lat="44.46566" lon="1.82769">
        <ele>178.4</ele>
        <time>2020-06-24T07:46:22Z</time>
      </trkpt>
      <trkpt lat="44.46574" lon="1.82776">
        <ele>178.4</ele>
        <time>2020-06-24T07:46:26Z</time>
      </trkpt>
      <trkpt lat="44.46583" lon="1.82797">
        <ele>178.4</ele>
        <time>2020-06-24T07:46:33Z</time>
      </trkpt>
      <trkpt lat="44.46592" lon="1.82818">
        <ele>178.4</ele>
        <time>2020-06-24T07:46:41Z</time>
      </trkpt>
      <trkpt lat="44.46598" lon="1.82833">
        <ele>178.8</ele>
        <time>2020-06-24T07:46:46Z</time>
      </trkpt>
      <trkpt lat="44.466" lon="1.82836">
        <ele>179.2</ele>
        <time>2020-06-24T07:46:47Z</time>
      </trkpt>
      <trkpt lat="44.46601" lon="1.82839">
        <ele>179.6</ele>
        <time>2020-06-24T07:46:48Z</time>
      </trkpt>
      <trkpt lat="44.46602" lon="1.82841">
        <ele>180</ele>
        <time>2020-06-24T07:46:49Z</time>
      </trkpt>
      <trkpt lat="44.46604" lon="1.82843">
        <ele>180.4</ele>
        <time>2020-06-24T07:46:50Z</time>
      </trkpt>
      <trkpt lat="44.4661" lon="1.82852">
        <ele>180.4</ele>
        <time>2020-06-24T07:46:54Z</time>
      </trkpt>
      <trkpt lat="44.46612" lon="1.82853">
        <ele>180.4</ele>
        <time>2020-06-24T07:46:55Z</time>
      </trkpt>
      <trkpt lat="44.4662" lon="1.82853">
        <ele>180.4</ele>
        <time>2020-06-24T07:46:59Z</time>
      </trkpt>
      <trkpt lat="44.46631" lon="1.82848">
        <ele>180.8</ele>
        <time>2020-06-24T07:47:04Z</time>
      </trkpt>
      <trkpt lat="44.46633" lon="1.82847">
        <ele>181.2</ele>
        <time>2020-06-24T07:47:05Z</time>
      </trkpt>
      <trkpt lat="44.46635" lon="1.82845">
        <ele>181.6</ele>
        <time>2020-06-24T07:47:06Z</time>
      </trkpt>
      <trkpt lat="44.46637" lon="1.82844">
        <ele>182</ele>
        <time>2020-06-24T07:47:07Z</time>
      </trkpt>
      <trkpt lat="44.46639" lon="1.82843">
        <ele>182.4</ele>
        <time>2020-06-24T07:47:08Z</time>
      </trkpt>
      <trkpt lat="44.46647" lon="1.8284">
        <ele>182.4</ele>
        <time>2020-06-24T07:47:12Z</time>
      </trkpt>
      <trkpt lat="44.46655" lon="1.82841">
        <ele>182.8</ele>
        <time>2020-06-24T07:47:15Z</time>
      </trkpt>
      <trkpt lat="44.46657" lon="1.82841">
        <ele>183.2</ele>
        <time>2020-06-24T07:47:16Z</time>
      </trkpt>
      <trkpt lat="44.46658" lon="1.82841">
        <ele>183.6</ele>
        <time>2020-06-24T07:47:17Z</time>
      </trkpt>
      <trkpt lat="44.4666" lon="1.82842">
        <ele>184.2</ele>
        <time>2020-06-24T07:47:18Z</time>
      </trkpt>
      <trkpt lat="44.46662" lon="1.82843">
        <ele>184.6</ele>
        <time>2020-06-24T07:47:19Z</time>
      </trkpt>
      <trkpt lat="44.46664" lon="1.82843">
        <ele>184.6</ele>
        <time>2020-06-24T07:47:20Z</time>
      </trkpt>
      <trkpt lat="44.4667" lon="1.82843">
        <ele>184.6</ele>
        <time>2020-06-24T07:47:23Z</time>
      </trkpt>
      <trkpt lat="44.46685" lon="1.82846">
        <ele>185</ele>
        <time>2020-06-24T07:47:30Z</time>
      </trkpt>
      <trkpt lat="44.46687" lon="1.82845">
        <ele>185.4</ele>
        <time>2020-06-24T07:47:31Z</time>
      </trkpt>
      <trkpt lat="44.46689" lon="1.82846">
        <ele>185.8</ele>
        <time>2020-06-24T07:47:32Z</time>
      </trkpt>
      <trkpt lat="44.46691" lon="1.82846">
        <ele>186.2</ele>
        <time>2020-06-24T07:47:33Z</time>
      </trkpt>
      <trkpt lat="44.46693" lon="1.82846">
        <ele>186.6</ele>
        <time>2020-06-24T07:47:34Z</time>
      </trkpt>
      <trkpt lat="44.46703" lon="1.82846">
        <ele>186.6</ele>
        <time>2020-06-24T07:47:38Z</time>
      </trkpt>
      <trkpt lat="44.46709" lon="1.82845">
        <ele>186.6</ele>
        <time>2020-06-24T07:47:41Z</time>
      </trkpt>
      <trkpt lat="44.46721" lon="1.8284">
        <ele>187</ele>
        <time>2020-06-24T07:47:46Z</time>
      </trkpt>
      <trkpt lat="44.46723" lon="1.8284">
        <ele>187.4</ele>
        <time>2020-06-24T07:47:47Z</time>
      </trkpt>
      <trkpt lat="44.46725" lon="1.82839">
        <ele>187.8</ele>
        <time>2020-06-24T07:47:48Z</time>
      </trkpt>
      <trkpt lat="44.46727" lon="1.82838">
        <ele>188.2</ele>
        <time>2020-06-24T07:47:49Z</time>
      </trkpt>
      <trkpt lat="44.4673" lon="1.82837">
        <ele>188.6</ele>
        <time>2020-06-24T07:47:50Z</time>
      </trkpt>
      <trkpt lat="44.46733" lon="1.82837">
        <ele>188.6</ele>
        <time>2020-06-24T07:47:52Z</time>
      </trkpt>
      <trkpt lat="44.4675" lon="1.82837">
        <ele>188.6</ele>
        <time>2020-06-24T07:47:59Z</time>
      </trkpt>
      <trkpt lat="44.4677" lon="1.82839">
        <ele>189</ele>
        <time>2020-06-24T07:48:07Z</time>
      </trkpt>
      <trkpt lat="44.46772" lon="1.82839">
        <ele>189.4</ele>
        <time>2020-06-24T07:48:08Z</time>
      </trkpt>
      <trkpt lat="44.46775" lon="1.8284">
        <ele>189.8</ele>
        <time>2020-06-24T07:48:09Z</time>
      </trkpt>
      <trkpt lat="44.46778" lon="1.82841">
        <ele>190.2</ele>
        <time>2020-06-24T07:48:10Z</time>
      </trkpt>
      <trkpt lat="44.4678" lon="1.82841">
        <ele>190.6</ele>
        <time>2020-06-24T07:48:11Z</time>
      </trkpt>
      <trkpt lat="44.4679" lon="1.82841">
        <ele>190.6</ele>
        <time>2020-06-24T07:48:15Z</time>
      </trkpt>
      <trkpt lat="44.46814" lon="1.82842">
        <ele>190.6</ele>
        <time>2020-06-24T07:48:23Z</time>
      </trkpt>
      <trkpt lat="44.46846" lon="1.82838">
        <ele>190.6</ele>
        <time>2020-06-24T07:48:32Z</time>
      </trkpt>
      <trkpt lat="44.46877" lon="1.82832">
        <ele>190.6</ele>
        <time>2020-06-24T07:48:40Z</time>
      </trkpt>
      <trkpt lat="44.46891" lon="1.82833">
        <ele>191.2</ele>
        <time>2020-06-24T07:48:44Z</time>
      </trkpt>
      <trkpt lat="44.46895" lon="1.82834">
        <ele>191.6</ele>
        <time>2020-06-24T07:48:45Z</time>
      </trkpt>
      <trkpt lat="44.46898" lon="1.82834">
        <ele>192</ele>
        <time>2020-06-24T07:48:46Z</time>
      </trkpt>
      <trkpt lat="44.46901" lon="1.82835">
        <ele>192.4</ele>
        <time>2020-06-24T07:48:47Z</time>
      </trkpt>
      <trkpt lat="44.46904" lon="1.82836">
        <ele>192.8</ele>
        <time>2020-06-24T07:48:48Z</time>
      </trkpt>
      <trkpt lat="44.4692" lon="1.82841">
        <ele>192.8</ele>
        <time>2020-06-24T07:48:53Z</time>
      </trkpt>
      <trkpt lat="44.4693" lon="1.82843">
        <ele>193.2</ele>
        <time>2020-06-24T07:48:56Z</time>
      </trkpt>
      <trkpt lat="44.46933" lon="1.82843">
        <ele>193.6</ele>
        <time>2020-06-24T07:48:57Z</time>
      </trkpt>
      <trkpt lat="44.46936" lon="1.82844">
        <ele>194</ele>
        <time>2020-06-24T07:48:58Z</time>
      </trkpt>
      <trkpt lat="44.46939" lon="1.82844">
        <ele>194.4</ele>
        <time>2020-06-24T07:48:59Z</time>
      </trkpt>
      <trkpt lat="44.46942" lon="1.82845">
        <ele>194.8</ele>
        <time>2020-06-24T07:49:00Z</time>
      </trkpt>
      <trkpt lat="44.46959" lon="1.82847">
        <ele>194.8</ele>
        <time>2020-06-24T07:49:06Z</time>
      </trkpt>
      <trkpt lat="44.46967" lon="1.82846">
        <ele>195.2</ele>
        <time>2020-06-24T07:49:09Z</time>
      </trkpt>
      <trkpt lat="44.4697" lon="1.82846">
        <ele>195.6</ele>
        <time>2020-06-24T07:49:10Z</time>
      </trkpt>
      <trkpt lat="44.46973" lon="1.82846">
        <ele>196</ele>
        <time>2020-06-24T07:49:11Z</time>
      </trkpt>
      <trkpt lat="44.46976" lon="1.82846">
        <ele>196.6</ele>
        <time>2020-06-24T07:49:12Z</time>
      </trkpt>
      <trkpt lat="44.46979" lon="1.82846">
        <ele>197</ele>
        <time>2020-06-24T07:49:13Z</time>
      </trkpt>
      <trkpt lat="44.46984" lon="1.82846">
        <ele>197</ele>
        <time>2020-06-24T07:49:15Z</time>
      </trkpt>
      <trkpt lat="44.47003" lon="1.82847">
        <ele>197.4</ele>
        <time>2020-06-24T07:49:21Z</time>
      </trkpt>
      <trkpt lat="44.47006" lon="1.82848">
        <ele>197.8</ele>
        <time>2020-06-24T07:49:22Z</time>
      </trkpt>
      <trkpt lat="44.47009" lon="1.82849">
        <ele>198.2</ele>
        <time>2020-06-24T07:49:23Z</time>
      </trkpt>
      <trkpt lat="44.47012" lon="1.8285">
        <ele>198.6</ele>
        <time>2020-06-24T07:49:24Z</time>
      </trkpt>
      <trkpt lat="44.47015" lon="1.82851">
        <ele>199</ele>
        <time>2020-06-24T07:49:25Z</time>
      </trkpt>
      <trkpt lat="44.47027" lon="1.82858">
        <ele>199</ele>
        <time>2020-06-24T07:49:29Z</time>
      </trkpt>
      <trkpt lat="44.47043" lon="1.82874">
        <ele>199</ele>
        <time>2020-06-24T07:49:36Z</time>
      </trkpt>
      <trkpt lat="44.4706" lon="1.82895">
        <ele>199</ele>
        <time>2020-06-24T07:49:42Z</time>
      </trkpt>
      <trkpt lat="44.47072" lon="1.82908">
        <ele>198.6</ele>
        <time>2020-06-24T07:49:45Z</time>
      </trkpt>
      <trkpt lat="44.47077" lon="1.82911">
        <ele>198.2</ele>
        <time>2020-06-24T07:49:46Z</time>
      </trkpt>
      <trkpt lat="44.47081" lon="1.82914">
        <ele>197.8</ele>
        <time>2020-06-24T07:49:47Z</time>
      </trkpt>
      <trkpt lat="44.47085" lon="1.82915">
        <ele>197.4</ele>
        <time>2020-06-24T07:49:48Z</time>
      </trkpt>
      <trkpt lat="44.47089" lon="1.82916">
        <ele>197</ele>
        <time>2020-06-24T07:49:49Z</time>
      </trkpt>
      <trkpt lat="44.47092" lon="1.82916">
        <ele>196.6</ele>
        <time>2020-06-24T07:49:50Z</time>
      </trkpt>
      <trkpt lat="44.47093" lon="1.82916">
        <ele>196</ele>
        <time>2020-06-24T07:49:51Z</time>
      </trkpt>
      <trkpt lat="44.47094" lon="1.82916">
        <ele>195.6</ele>
        <time>2020-06-24T07:49:52Z</time>
      </trkpt>
      <trkpt lat="44.47093" lon="1.82916">
        <ele>195.2</ele>
        <time>2020-06-24T07:49:53Z</time>
      </trkpt>
      <trkpt lat="44.47093" lon="1.82916">
        <ele>194.8</ele>
        <time>2020-06-24T07:49:54Z</time>
      </trkpt>
      <trkpt lat="44.47093" lon="1.82916">
        <ele>194.8</ele>
        <time>2020-06-24T07:49:57Z</time>
      </trkpt>
      <trkpt lat="44.47093" lon="1.82916">
        <ele>194.8</ele>
        <time>2020-06-24T07:50:13Z</time>
      </trkpt>
      <trkpt lat="44.47093" lon="1.82916">
        <ele>194.8</ele>
        <time>2020-06-24T07:50:19Z</time>
      </trkpt>
      <trkpt lat="44.47093" lon="1.82916">
        <ele>194.8</ele>
        <time>2020-06-24T07:50:25Z</time>
      </trkpt>
      <trkpt lat="44.471" lon="1.82915">
        <ele>194.8</ele>
        <time>2020-06-24T07:50:31Z</time>
      </trkpt>
      <trkpt lat="44.47103" lon="1.82914">
        <ele>194.4</ele>
        <time>2020-06-24T07:50:32Z</time>
      </trkpt>
      <trkpt lat="44.47107" lon="1.82912">
        <ele>194</ele>
        <time>2020-06-24T07:50:33Z</time>
      </trkpt>
      <trkpt lat="44.4711" lon="1.82911">
        <ele>193.4</ele>
        <time>2020-06-24T07:50:34Z</time>
      </trkpt>
      <trkpt lat="44.47114" lon="1.82909">
        <ele>193</ele>
        <time>2020-06-24T07:50:35Z</time>
      </trkpt>
      <trkpt lat="44.47117" lon="1.82906">
        <ele>192.6</ele>
        <time>2020-06-24T07:50:36Z</time>
      </trkpt>
      <trkpt lat="44.47122" lon="1.82901">
        <ele>192.2</ele>
        <time>2020-06-24T07:50:38Z</time>
      </trkpt>
      <trkpt lat="44.47125" lon="1.82898">
        <ele>191.8</ele>
        <time>2020-06-24T07:50:39Z</time>
      </trkpt>
      <trkpt lat="44.47127" lon="1.82895">
        <ele>191.2</ele>
        <time>2020-06-24T07:50:40Z</time>
      </trkpt>
      <trkpt lat="44.47129" lon="1.82892">
        <ele>190.8</ele>
        <time>2020-06-24T07:50:41Z</time>
      </trkpt>
      <trkpt lat="44.47132" lon="1.82888">
        <ele>190.4</ele>
        <time>2020-06-24T07:50:42Z</time>
      </trkpt>
      <trkpt lat="44.47134" lon="1.82885">
        <ele>190</ele>
        <time>2020-06-24T07:50:43Z</time>
      </trkpt>
      <trkpt lat="44.47137" lon="1.82883">
        <ele>189.4</ele>
        <time>2020-06-24T07:50:44Z</time>
      </trkpt>
      <trkpt lat="44.4714" lon="1.82881">
        <ele>189</ele>
        <time>2020-06-24T07:50:45Z</time>
      </trkpt>
      <trkpt lat="44.47143" lon="1.82879">
        <ele>188.6</ele>
        <time>2020-06-24T07:50:46Z</time>
      </trkpt>
      <trkpt lat="44.47146" lon="1.82877">
        <ele>188</ele>
        <time>2020-06-24T07:50:47Z</time>
      </trkpt>
      <trkpt lat="44.4715" lon="1.82876">
        <ele>187.6</ele>
        <time>2020-06-24T07:50:48Z</time>
      </trkpt>
      <trkpt lat="44.47154" lon="1.82875">
        <ele>187</ele>
        <time>2020-06-24T07:50:49Z</time>
      </trkpt>
      <trkpt lat="44.47158" lon="1.82875">
        <ele>186.4</ele>
        <time>2020-06-24T07:50:50Z</time>
      </trkpt>
      <trkpt lat="44.47162" lon="1.82875">
        <ele>186</ele>
        <time>2020-06-24T07:50:51Z</time>
      </trkpt>
      <trkpt lat="44.47166" lon="1.82875">
        <ele>185</ele>
        <time>2020-06-24T07:50:52Z</time>
      </trkpt>
      <trkpt lat="44.47171" lon="1.82875">
        <ele>184.6</ele>
        <time>2020-06-24T07:50:53Z</time>
      </trkpt>
      <trkpt lat="44.47176" lon="1.82875">
        <ele>184.2</ele>
        <time>2020-06-24T07:50:54Z</time>
      </trkpt>
      <trkpt lat="44.47181" lon="1.82875">
        <ele>183.8</ele>
        <time>2020-06-24T07:50:55Z</time>
      </trkpt>
      <trkpt lat="44.47186" lon="1.82874">
        <ele>183.2</ele>
        <time>2020-06-24T07:50:56Z</time>
      </trkpt>
      <trkpt lat="44.47191" lon="1.82874">
        <ele>182.8</ele>
        <time>2020-06-24T07:50:57Z</time>
      </trkpt>
      <trkpt lat="44.47196" lon="1.82873">
        <ele>182.4</ele>
        <time>2020-06-24T07:50:58Z</time>
      </trkpt>
      <trkpt lat="44.47201" lon="1.82871">
        <ele>182</ele>
        <time>2020-06-24T07:50:59Z</time>
      </trkpt>
      <trkpt lat="44.47206" lon="1.82869">
        <ele>181.4</ele>
        <time>2020-06-24T07:51:00Z</time>
      </trkpt>
      <trkpt lat="44.47211" lon="1.82867">
        <ele>180.8</ele>
        <time>2020-06-24T07:51:01Z</time>
      </trkpt>
      <trkpt lat="44.47217" lon="1.82865">
        <ele>180.4</ele>
        <time>2020-06-24T07:51:02Z</time>
      </trkpt>
      <trkpt lat="44.47221" lon="1.82862">
        <ele>179.8</ele>
        <time>2020-06-24T07:51:03Z</time>
      </trkpt>
      <trkpt lat="44.47227" lon="1.8286">
        <ele>179</ele>
        <time>2020-06-24T07:51:04Z</time>
      </trkpt>
      <trkpt lat="44.47232" lon="1.82857">
        <ele>178.4</ele>
        <time>2020-06-24T07:51:05Z</time>
      </trkpt>
      <trkpt lat="44.47237" lon="1.82855">
        <ele>177.6</ele>
        <time>2020-06-24T07:51:06Z</time>
      </trkpt>
      <trkpt lat="44.47242" lon="1.82852">
        <ele>177</ele>
        <time>2020-06-24T07:51:07Z</time>
      </trkpt>
      <trkpt lat="44.47246" lon="1.8285">
        <ele>176.2</ele>
        <time>2020-06-24T07:51:08Z</time>
      </trkpt>
      <trkpt lat="44.47251" lon="1.82848">
        <ele>175.4</ele>
        <time>2020-06-24T07:51:09Z</time>
      </trkpt>
      <trkpt lat="44.47256" lon="1.82846">
        <ele>174.8</ele>
        <time>2020-06-24T07:51:10Z</time>
      </trkpt>
      <trkpt lat="44.47261" lon="1.82844">
        <ele>174.2</ele>
        <time>2020-06-24T07:51:11Z</time>
      </trkpt>
      <trkpt lat="44.47265" lon="1.82842">
        <ele>173.6</ele>
        <time>2020-06-24T07:51:12Z</time>
      </trkpt>
      <trkpt lat="44.4727" lon="1.82841">
        <ele>173</ele>
        <time>2020-06-24T07:51:13Z</time>
      </trkpt>
      <trkpt lat="44.47274" lon="1.82842">
        <ele>172.4</ele>
        <time>2020-06-24T07:51:14Z</time>
      </trkpt>
      <trkpt lat="44.47278" lon="1.82843">
        <ele>171</ele>
        <time>2020-06-24T07:51:15Z</time>
      </trkpt>
      <trkpt lat="44.47281" lon="1.82845">
        <ele>170.2</ele>
        <time>2020-06-24T07:51:16Z</time>
      </trkpt>
      <trkpt lat="44.47283" lon="1.82846">
        <ele>169.6</ele>
        <time>2020-06-24T07:51:17Z</time>
      </trkpt>
      <trkpt lat="44.47285" lon="1.82849">
        <ele>169.2</ele>
        <time>2020-06-24T07:51:19Z</time>
      </trkpt>
      <trkpt lat="44.47285" lon="1.82852">
        <ele>168.8</ele>
        <time>2020-06-24T07:51:20Z</time>
      </trkpt>
      <trkpt lat="44.47285" lon="1.82855">
        <ele>168.2</ele>
        <time>2020-06-24T07:51:21Z</time>
      </trkpt>
      <trkpt lat="44.47285" lon="1.82858">
        <ele>167.8</ele>
        <time>2020-06-24T07:51:22Z</time>
      </trkpt>
      <trkpt lat="44.47284" lon="1.82861">
        <ele>167.4</ele>
        <time>2020-06-24T07:51:23Z</time>
      </trkpt>
      <trkpt lat="44.47283" lon="1.82864">
        <ele>167.4</ele>
        <time>2020-06-24T07:51:24Z</time>
      </trkpt>
      <trkpt lat="44.47273" lon="1.82887">
        <ele>167.4</ele>
        <time>2020-06-24T07:51:29Z</time>
      </trkpt>
      <trkpt lat="44.47266" lon="1.82904">
        <ele>167</ele>
        <time>2020-06-24T07:51:32Z</time>
      </trkpt>
      <trkpt lat="44.47263" lon="1.82911">
        <ele>166.6</ele>
        <time>2020-06-24T07:51:33Z</time>
      </trkpt>
      <trkpt lat="44.47261" lon="1.82918">
        <ele>166.2</ele>
        <time>2020-06-24T07:51:34Z</time>
      </trkpt>
      <trkpt lat="44.47258" lon="1.82925">
        <ele>165.8</ele>
        <time>2020-06-24T07:51:35Z</time>
      </trkpt>
      <trkpt lat="44.47256" lon="1.82933">
        <ele>165.4</ele>
        <time>2020-06-24T07:51:36Z</time>
      </trkpt>
      <trkpt lat="44.47253" lon="1.82941">
        <ele>164.8</ele>
        <time>2020-06-24T07:51:37Z</time>
      </trkpt>
      <trkpt lat="44.47251" lon="1.8295">
        <ele>164.4</ele>
        <time>2020-06-24T07:51:38Z</time>
      </trkpt>
      <trkpt lat="44.47248" lon="1.82958">
        <ele>163.4</ele>
        <time>2020-06-24T07:51:39Z</time>
      </trkpt>
      <trkpt lat="44.47245" lon="1.82967">
        <ele>162.8</ele>
        <time>2020-06-24T07:51:40Z</time>
      </trkpt>
      <trkpt lat="44.47241" lon="1.82976">
        <ele>162.2</ele>
        <time>2020-06-24T07:51:41Z</time>
      </trkpt>
      <trkpt lat="44.47239" lon="1.82984">
        <ele>161.6</ele>
        <time>2020-06-24T07:51:42Z</time>
      </trkpt>
      <trkpt lat="44.47236" lon="1.82993">
        <ele>161</ele>
        <time>2020-06-24T07:51:43Z</time>
      </trkpt>
      <trkpt lat="44.47232" lon="1.83001">
        <ele>160.4</ele>
        <time>2020-06-24T07:51:44Z</time>
      </trkpt>
      <trkpt lat="44.47229" lon="1.83009">
        <ele>159.8</ele>
        <time>2020-06-24T07:51:45Z</time>
      </trkpt>
      <trkpt lat="44.47223" lon="1.83016">
        <ele>159.2</ele>
        <time>2020-06-24T07:51:46Z</time>
      </trkpt>
      <trkpt lat="44.47217" lon="1.83021">
        <ele>158.4</ele>
        <time>2020-06-24T07:51:47Z</time>
      </trkpt>
      <trkpt lat="44.47209" lon="1.83026">
        <ele>158</ele>
        <time>2020-06-24T07:51:48Z</time>
      </trkpt>
      <trkpt lat="44.47202" lon="1.83027">
        <ele>157.6</ele>
        <time>2020-06-24T07:51:49Z</time>
      </trkpt>
      <trkpt lat="44.47193" lon="1.83028">
        <ele>157</ele>
        <time>2020-06-24T07:51:50Z</time>
      </trkpt>
      <trkpt lat="44.47186" lon="1.83028">
        <ele>156.6</ele>
        <time>2020-06-24T07:51:51Z</time>
      </trkpt>
      <trkpt lat="44.47178" lon="1.83027">
        <ele>156.2</ele>
        <time>2020-06-24T07:51:52Z</time>
      </trkpt>
      <trkpt lat="44.47171" lon="1.83026">
        <ele>156.2</ele>
        <time>2020-06-24T07:51:53Z</time>
      </trkpt>
      <trkpt lat="44.47131" lon="1.83011">
        <ele>156.2</ele>
        <time>2020-06-24T07:51:59Z</time>
      </trkpt>
      <trkpt lat="44.47106" lon="1.82998">
        <ele>156.2</ele>
        <time>2020-06-24T07:52:03Z</time>
      </trkpt>
      <trkpt lat="44.47092" lon="1.82993">
        <ele>156.2</ele>
        <time>2020-06-24T07:52:05Z</time>
      </trkpt>
      <trkpt lat="44.47036" lon="1.82966">
        <ele>156.2</ele>
        <time>2020-06-24T07:52:14Z</time>
      </trkpt>
      <trkpt lat="44.4703" lon="1.82962">
        <ele>156.2</ele>
        <time>2020-06-24T07:52:15Z</time>
      </trkpt>
      <trkpt lat="44.46999" lon="1.82945">
        <ele>156.2</ele>
        <time>2020-06-24T07:52:21Z</time>
      </trkpt>
      <trkpt lat="44.4697" lon="1.82925">
        <ele>156.2</ele>
        <time>2020-06-24T07:52:28Z</time>
      </trkpt>
      <trkpt lat="44.46956" lon="1.82914">
        <ele>156.6</ele>
        <time>2020-06-24T07:52:32Z</time>
      </trkpt>
      <trkpt lat="44.46953" lon="1.82911">
        <ele>157</ele>
        <time>2020-06-24T07:52:33Z</time>
      </trkpt>
      <trkpt lat="44.46949" lon="1.82909">
        <ele>157.4</ele>
        <time>2020-06-24T07:52:34Z</time>
      </trkpt>
      <trkpt lat="44.46946" lon="1.82907">
        <ele>157.8</ele>
        <time>2020-06-24T07:52:35Z</time>
      </trkpt>
      <trkpt lat="44.46942" lon="1.82904">
        <ele>158.2</ele>
        <time>2020-06-24T07:52:36Z</time>
      </trkpt>
      <trkpt lat="44.46932" lon="1.82895">
        <ele>158.2</ele>
        <time>2020-06-24T07:52:40Z</time>
      </trkpt>
      <trkpt lat="44.4692" lon="1.82889">
        <ele>158.8</ele>
        <time>2020-06-24T07:52:44Z</time>
      </trkpt>
      <trkpt lat="44.46917" lon="1.82887">
        <ele>159.2</ele>
        <time>2020-06-24T07:52:45Z</time>
      </trkpt>
      <trkpt lat="44.46916" lon="1.82885">
        <ele>159.6</ele>
        <time>2020-06-24T07:52:46Z</time>
      </trkpt>
      <trkpt lat="44.46915" lon="1.82883">
        <ele>160.2</ele>
        <time>2020-06-24T07:52:47Z</time>
      </trkpt>
      <trkpt lat="44.46914" lon="1.82882">
        <ele>160.6</ele>
        <time>2020-06-24T07:52:48Z</time>
      </trkpt>
      <trkpt lat="44.46905" lon="1.82877">
        <ele>160.6</ele>
        <time>2020-06-24T07:52:52Z</time>
      </trkpt>
      <trkpt lat="44.46887" lon="1.82866">
        <ele>161</ele>
        <time>2020-06-24T07:53:00Z</time>
      </trkpt>
      <trkpt lat="44.46883" lon="1.82866">
        <ele>161.4</ele>
        <time>2020-06-24T07:53:01Z</time>
      </trkpt>
      <trkpt lat="44.4688" lon="1.82866">
        <ele>161.8</ele>
        <time>2020-06-24T07:53:02Z</time>
      </trkpt>
      <trkpt lat="44.46877" lon="1.82865">
        <ele>162.2</ele>
        <time>2020-06-24T07:53:03Z</time>
      </trkpt>
      <trkpt lat="44.46874" lon="1.82866">
        <ele>162.6</ele>
        <time>2020-06-24T07:53:04Z</time>
      </trkpt>
      <trkpt lat="44.46864" lon="1.82866">
        <ele>162.6</ele>
        <time>2020-06-24T07:53:07Z</time>
      </trkpt>
      <trkpt lat="44.46847" lon="1.82872">
        <ele>162.6</ele>
        <time>2020-06-24T07:53:14Z</time>
      </trkpt>
      <trkpt lat="44.46842" lon="1.829">
        <ele>162.6</ele>
        <time>2020-06-24T07:53:19Z</time>
      </trkpt>
      <trkpt lat="44.46848" lon="1.82935">
        <ele>162.6</ele>
        <time>2020-06-24T07:53:24Z</time>
      </trkpt>
      <trkpt lat="44.46854" lon="1.82963">
        <ele>162.6</ele>
        <time>2020-06-24T07:53:28Z</time>
      </trkpt>
      <trkpt lat="44.46855" lon="1.82969">
        <ele>162.6</ele>
        <time>2020-06-24T07:53:29Z</time>
      </trkpt>
      <trkpt lat="44.46858" lon="1.83033">
        <ele>162.6</ele>
        <time>2020-06-24T07:53:38Z</time>
      </trkpt>
      <trkpt lat="44.46861" lon="1.83091">
        <ele>162.6</ele>
        <time>2020-06-24T07:53:46Z</time>
      </trkpt>
      <trkpt lat="44.46864" lon="1.83171">
        <ele>162.6</ele>
        <time>2020-06-24T07:53:57Z</time>
      </trkpt>
      <trkpt lat="44.46865" lon="1.83229">
        <ele>162.6</ele>
        <time>2020-06-24T07:54:05Z</time>
      </trkpt>
      <trkpt lat="44.46862" lon="1.8328">
        <ele>162.6</ele>
        <time>2020-06-24T07:54:12Z</time>
      </trkpt>
      <trkpt lat="44.46855" lon="1.83345">
        <ele>162.2</ele>
        <time>2020-06-24T07:54:21Z</time>
      </trkpt>
      <trkpt lat="44.46854" lon="1.83352">
        <ele>161.8</ele>
        <time>2020-06-24T07:54:22Z</time>
      </trkpt>
      <trkpt lat="44.46854" lon="1.83359">
        <ele>161.4</ele>
        <time>2020-06-24T07:54:23Z</time>
      </trkpt>
      <trkpt lat="44.46853" lon="1.83366">
        <ele>161</ele>
        <time>2020-06-24T07:54:24Z</time>
      </trkpt>
      <trkpt lat="44.46852" lon="1.83374">
        <ele>160.6</ele>
        <time>2020-06-24T07:54:25Z</time>
      </trkpt>
      <trkpt lat="44.46849" lon="1.83396">
        <ele>160.6</ele>
        <time>2020-06-24T07:54:28Z</time>
      </trkpt>
      <trkpt lat="44.46844" lon="1.83438">
        <ele>160.6</ele>
        <time>2020-06-24T07:54:34Z</time>
      </trkpt>
      <trkpt lat="44.46836" lon="1.83494">
        <ele>160.6</ele>
        <time>2020-06-24T07:54:42Z</time>
      </trkpt>
      <trkpt lat="44.46835" lon="1.835">
        <ele>160.6</ele>
        <time>2020-06-24T07:54:43Z</time>
      </trkpt>
      <trkpt lat="44.46826" lon="1.83532">
        <ele>160.6</ele>
        <time>2020-06-24T07:54:48Z</time>
      </trkpt>
      <trkpt lat="44.46819" lon="1.83577">
        <ele>160.6</ele>
        <time>2020-06-24T07:54:55Z</time>
      </trkpt>
      <trkpt lat="44.46815" lon="1.83638">
        <ele>160.6</ele>
        <time>2020-06-24T07:55:04Z</time>
      </trkpt>
      <trkpt lat="44.46812" lon="1.83686">
        <ele>160.6</ele>
        <time>2020-06-24T07:55:11Z</time>
      </trkpt>
      <trkpt lat="44.46806" lon="1.83749">
        <ele>160.6</ele>
        <time>2020-06-24T07:55:20Z</time>
      </trkpt>
      <trkpt lat="44.46807" lon="1.83778">
        <ele>160.6</ele>
        <time>2020-06-24T07:55:24Z</time>
      </trkpt>
      <trkpt lat="44.46811" lon="1.83789">
        <ele>160.6</ele>
        <time>2020-06-24T07:55:26Z</time>
      </trkpt>
      <trkpt lat="44.46822" lon="1.83809">
        <ele>160.6</ele>
        <time>2020-06-24T07:55:30Z</time>
      </trkpt>
      <trkpt lat="44.46826" lon="1.83814">
        <ele>160.6</ele>
        <time>2020-06-24T07:55:31Z</time>
      </trkpt>
      <trkpt lat="44.46837" lon="1.83823">
        <ele>160.6</ele>
        <time>2020-06-24T07:55:34Z</time>
      </trkpt>
      <trkpt lat="44.46844" lon="1.83827">
        <ele>160.6</ele>
        <time>2020-06-24T07:55:36Z</time>
      </trkpt>
      <trkpt lat="44.46867" lon="1.83835">
        <ele>160.6</ele>
        <time>2020-06-24T07:55:42Z</time>
      </trkpt>
      <trkpt lat="44.46887" lon="1.83839">
        <ele>161.4</ele>
        <time>2020-06-24T07:55:48Z</time>
      </trkpt>
      <trkpt lat="44.4689" lon="1.83839">
        <ele>162</ele>
        <time>2020-06-24T07:55:49Z</time>
      </trkpt>
      <trkpt lat="44.46893" lon="1.8384">
        <ele>162.4</ele>
        <time>2020-06-24T07:55:50Z</time>
      </trkpt>
      <trkpt lat="44.46896" lon="1.83841">
        <ele>162.8</ele>
        <time>2020-06-24T07:55:51Z</time>
      </trkpt>
      <trkpt lat="44.46912" lon="1.83843">
        <ele>162.8</ele>
        <time>2020-06-24T07:55:56Z</time>
      </trkpt>
      <trkpt lat="44.4693" lon="1.83845">
        <ele>163.2</ele>
        <time>2020-06-24T07:56:02Z</time>
      </trkpt>
      <trkpt lat="44.46933" lon="1.83846">
        <ele>163.6</ele>
        <time>2020-06-24T07:56:03Z</time>
      </trkpt>
      <trkpt lat="44.46936" lon="1.83846">
        <ele>164</ele>
        <time>2020-06-24T07:56:04Z</time>
      </trkpt>
      <trkpt lat="44.46939" lon="1.83845">
        <ele>164.4</ele>
        <time>2020-06-24T07:56:05Z</time>
      </trkpt>
      <trkpt lat="44.46942" lon="1.83845">
        <ele>164.8</ele>
        <time>2020-06-24T07:56:06Z</time>
      </trkpt>
      <trkpt lat="44.4695" lon="1.83845">
        <ele>165.4</ele>
        <time>2020-06-24T07:56:09Z</time>
      </trkpt>
      <trkpt lat="44.46953" lon="1.83844">
        <ele>165.8</ele>
        <time>2020-06-24T07:56:10Z</time>
      </trkpt>
      <trkpt lat="44.46956" lon="1.83844">
        <ele>166.2</ele>
        <time>2020-06-24T07:56:11Z</time>
      </trkpt>
      <trkpt lat="44.46959" lon="1.83844">
        <ele>166.6</ele>
        <time>2020-06-24T07:56:12Z</time>
      </trkpt>
      <trkpt lat="44.46962" lon="1.83844">
        <ele>167</ele>
        <time>2020-06-24T07:56:13Z</time>
      </trkpt>
      <trkpt lat="44.46975" lon="1.83842">
        <ele>167.4</ele>
        <time>2020-06-24T07:56:18Z</time>
      </trkpt>
      <trkpt lat="44.46977" lon="1.83842">
        <ele>167.8</ele>
        <time>2020-06-24T07:56:19Z</time>
      </trkpt>
      <trkpt lat="44.4698" lon="1.83842">
        <ele>168.2</ele>
        <time>2020-06-24T07:56:20Z</time>
      </trkpt>
      <trkpt lat="44.46982" lon="1.83841">
        <ele>168.8</ele>
        <time>2020-06-24T07:56:21Z</time>
      </trkpt>
      <trkpt lat="44.46985" lon="1.83841">
        <ele>169.2</ele>
        <time>2020-06-24T07:56:22Z</time>
      </trkpt>
      <trkpt lat="44.46988" lon="1.83842">
        <ele>169.2</ele>
        <time>2020-06-24T07:56:23Z</time>
      </trkpt>
      <trkpt lat="44.46998" lon="1.8384">
        <ele>169.6</ele>
        <time>2020-06-24T07:56:27Z</time>
      </trkpt>
      <trkpt lat="44.47" lon="1.8384">
        <ele>170</ele>
        <time>2020-06-24T07:56:28Z</time>
      </trkpt>
      <trkpt lat="44.47003" lon="1.83839">
        <ele>170.4</ele>
        <time>2020-06-24T07:56:29Z</time>
      </trkpt>
      <trkpt lat="44.47005" lon="1.83839">
        <ele>170.8</ele>
        <time>2020-06-24T07:56:30Z</time>
      </trkpt>
      <trkpt lat="44.47007" lon="1.83839">
        <ele>171.2</ele>
        <time>2020-06-24T07:56:31Z</time>
      </trkpt>
      <trkpt lat="44.47022" lon="1.83838">
        <ele>172.2</ele>
        <time>2020-06-24T07:56:37Z</time>
      </trkpt>
      <trkpt lat="44.47025" lon="1.83837">
        <ele>172.6</ele>
        <time>2020-06-24T07:56:38Z</time>
      </trkpt>
      <trkpt lat="44.47027" lon="1.83837">
        <ele>173</ele>
        <time>2020-06-24T07:56:39Z</time>
      </trkpt>
      <trkpt lat="44.4703" lon="1.83837">
        <ele>173.4</ele>
        <time>2020-06-24T07:56:40Z</time>
      </trkpt>
      <trkpt lat="44.47044" lon="1.83836">
        <ele>173.4</ele>
        <time>2020-06-24T07:56:46Z</time>
      </trkpt>
      <trkpt lat="44.47047" lon="1.83835">
        <ele>173.8</ele>
        <time>2020-06-24T07:56:47Z</time>
      </trkpt>
      <trkpt lat="44.4705" lon="1.83835">
        <ele>174.2</ele>
        <time>2020-06-24T07:56:48Z</time>
      </trkpt>
      <trkpt lat="44.47052" lon="1.83835">
        <ele>174.6</ele>
        <time>2020-06-24T07:56:49Z</time>
      </trkpt>
      <trkpt lat="44.47054" lon="1.83834">
        <ele>175</ele>
        <time>2020-06-24T07:56:50Z</time>
      </trkpt>
      <trkpt lat="44.47056" lon="1.83835">
        <ele>175.4</ele>
        <time>2020-06-24T07:56:51Z</time>
      </trkpt>
      <trkpt lat="44.4706" lon="1.83834">
        <ele>175.4</ele>
        <time>2020-06-24T07:56:53Z</time>
      </trkpt>
      <trkpt lat="44.4707" lon="1.83833">
        <ele>175.8</ele>
        <time>2020-06-24T07:56:57Z</time>
      </trkpt>
      <trkpt lat="44.47072" lon="1.83832">
        <ele>176.2</ele>
        <time>2020-06-24T07:56:58Z</time>
      </trkpt>
      <trkpt lat="44.47075" lon="1.83832">
        <ele>176.8</ele>
        <time>2020-06-24T07:56:59Z</time>
      </trkpt>
      <trkpt lat="44.47078" lon="1.83831">
        <ele>177.2</ele>
        <time>2020-06-24T07:57:00Z</time>
      </trkpt>
      <trkpt lat="44.4708" lon="1.83831">
        <ele>177.6</ele>
        <time>2020-06-24T07:57:01Z</time>
      </trkpt>
      <trkpt lat="44.47092" lon="1.8383">
        <ele>178</ele>
        <time>2020-06-24T07:57:06Z</time>
      </trkpt>
      <trkpt lat="44.47095" lon="1.8383">
        <ele>178.4</ele>
        <time>2020-06-24T07:57:07Z</time>
      </trkpt>
      <trkpt lat="44.47097" lon="1.8383">
        <ele>178.8</ele>
        <time>2020-06-24T07:57:08Z</time>
      </trkpt>
      <trkpt lat="44.47099" lon="1.83829">
        <ele>179.2</ele>
        <time>2020-06-24T07:57:09Z</time>
      </trkpt>
      <trkpt lat="44.47102" lon="1.83829">
        <ele>179.6</ele>
        <time>2020-06-24T07:57:10Z</time>
      </trkpt>
      <trkpt lat="44.47114" lon="1.83825">
        <ele>180</ele>
        <time>2020-06-24T07:57:15Z</time>
      </trkpt>
      <trkpt lat="44.47117" lon="1.83824">
        <ele>180.4</ele>
        <time>2020-06-24T07:57:16Z</time>
      </trkpt>
      <trkpt lat="44.47119" lon="1.83823">
        <ele>180.8</ele>
        <time>2020-06-24T07:57:17Z</time>
      </trkpt>
      <trkpt lat="44.47121" lon="1.83823">
        <ele>181.2</ele>
        <time>2020-06-24T07:57:18Z</time>
      </trkpt>
      <trkpt lat="44.47124" lon="1.83822">
        <ele>181.6</ele>
        <time>2020-06-24T07:57:19Z</time>
      </trkpt>
      <trkpt lat="44.47141" lon="1.83814">
        <ele>181.6</ele>
        <time>2020-06-24T07:57:26Z</time>
      </trkpt>
      <trkpt lat="44.47146" lon="1.83812">
        <ele>182.2</ele>
        <time>2020-06-24T07:57:28Z</time>
      </trkpt>
      <trkpt lat="44.47149" lon="1.83811">
        <ele>182.6</ele>
        <time>2020-06-24T07:57:29Z</time>
      </trkpt>
      <trkpt lat="44.47151" lon="1.8381">
        <ele>183</ele>
        <time>2020-06-24T07:57:30Z</time>
      </trkpt>
      <trkpt lat="44.47154" lon="1.83809">
        <ele>183.4</ele>
        <time>2020-06-24T07:57:31Z</time>
      </trkpt>
      <trkpt lat="44.47157" lon="1.83808">
        <ele>183.8</ele>
        <time>2020-06-24T07:57:32Z</time>
      </trkpt>
      <trkpt lat="44.47165" lon="1.83803">
        <ele>183.8</ele>
        <time>2020-06-24T07:57:35Z</time>
      </trkpt>
      <trkpt lat="44.47184" lon="1.83795">
        <ele>183.8</ele>
        <time>2020-06-24T07:57:42Z</time>
      </trkpt>
      <trkpt lat="44.47208" lon="1.8378">
        <ele>184.2</ele>
        <time>2020-06-24T07:57:50Z</time>
      </trkpt>
      <trkpt lat="44.47211" lon="1.83779">
        <ele>185</ele>
        <time>2020-06-24T07:57:51Z</time>
      </trkpt>
      <trkpt lat="44.47214" lon="1.83777">
        <ele>185.6</ele>
        <time>2020-06-24T07:57:52Z</time>
      </trkpt>
      <trkpt lat="44.47217" lon="1.83775">
        <ele>186</ele>
        <time>2020-06-24T07:57:53Z</time>
      </trkpt>
      <trkpt lat="44.4724" lon="1.83764">
        <ele>186</ele>
        <time>2020-06-24T07:58:00Z</time>
      </trkpt>
      <trkpt lat="44.47252" lon="1.83756">
        <ele>186.4</ele>
        <time>2020-06-24T07:58:04Z</time>
      </trkpt>
      <trkpt lat="44.47255" lon="1.83753">
        <ele>186.8</ele>
        <time>2020-06-24T07:58:05Z</time>
      </trkpt>
      <trkpt lat="44.47258" lon="1.83751">
        <ele>187.2</ele>
        <time>2020-06-24T07:58:06Z</time>
      </trkpt>
      <trkpt lat="44.47262" lon="1.83749">
        <ele>187.6</ele>
        <time>2020-06-24T07:58:07Z</time>
      </trkpt>
      <trkpt lat="44.47265" lon="1.83747">
        <ele>188</ele>
        <time>2020-06-24T07:58:08Z</time>
      </trkpt>
      <trkpt lat="44.47291" lon="1.83731">
        <ele>188</ele>
        <time>2020-06-24T07:58:16Z</time>
      </trkpt>
      <trkpt lat="44.47301" lon="1.83725">
        <ele>188.4</ele>
        <time>2020-06-24T07:58:19Z</time>
      </trkpt>
      <trkpt lat="44.47305" lon="1.83723">
        <ele>188.8</ele>
        <time>2020-06-24T07:58:20Z</time>
      </trkpt>
      <trkpt lat="44.47308" lon="1.83721">
        <ele>189.2</ele>
        <time>2020-06-24T07:58:21Z</time>
      </trkpt>
      <trkpt lat="44.47311" lon="1.83719">
        <ele>189.6</ele>
        <time>2020-06-24T07:58:22Z</time>
      </trkpt>
      <trkpt lat="44.47314" lon="1.83717">
        <ele>190</ele>
        <time>2020-06-24T07:58:23Z</time>
      </trkpt>
      <trkpt lat="44.47339" lon="1.83701">
        <ele>190</ele>
        <time>2020-06-24T07:58:31Z</time>
      </trkpt>
      <trkpt lat="44.47347" lon="1.83695">
        <ele>190.4</ele>
        <time>2020-06-24T07:58:34Z</time>
      </trkpt>
      <trkpt lat="44.4735" lon="1.83692">
        <ele>190.8</ele>
        <time>2020-06-24T07:58:35Z</time>
      </trkpt>
      <trkpt lat="44.47353" lon="1.8369">
        <ele>191.2</ele>
        <time>2020-06-24T07:58:36Z</time>
      </trkpt>
      <trkpt lat="44.47356" lon="1.83688">
        <ele>191.6</ele>
        <time>2020-06-24T07:58:37Z</time>
      </trkpt>
      <trkpt lat="44.47359" lon="1.83686">
        <ele>192</ele>
        <time>2020-06-24T07:58:38Z</time>
      </trkpt>
      <trkpt lat="44.47371" lon="1.83677">
        <ele>192.4</ele>
        <time>2020-06-24T07:58:42Z</time>
      </trkpt>
      <trkpt lat="44.47374" lon="1.83674">
        <ele>192.8</ele>
        <time>2020-06-24T07:58:43Z</time>
      </trkpt>
      <trkpt lat="44.47377" lon="1.83672">
        <ele>193.2</ele>
        <time>2020-06-24T07:58:44Z</time>
      </trkpt>
      <trkpt lat="44.4738" lon="1.8367">
        <ele>193.6</ele>
        <time>2020-06-24T07:58:45Z</time>
      </trkpt>
      <trkpt lat="44.47383" lon="1.83667">
        <ele>194</ele>
        <time>2020-06-24T07:58:46Z</time>
      </trkpt>
      <trkpt lat="44.47415" lon="1.83644">
        <ele>194</ele>
        <time>2020-06-24T07:58:56Z</time>
      </trkpt>
      <trkpt lat="44.47447" lon="1.83629">
        <ele>194</ele>
        <time>2020-06-24T07:59:03Z</time>
      </trkpt>
      <trkpt lat="44.47482" lon="1.83618">
        <ele>194</ele>
        <time>2020-06-24T07:59:10Z</time>
      </trkpt>
      <trkpt lat="44.47505" lon="1.8361">
        <ele>194</ele>
        <time>2020-06-24T07:59:15Z</time>
      </trkpt>
      <trkpt lat="44.47514" lon="1.83612">
        <ele>194</ele>
        <time>2020-06-24T07:59:17Z</time>
      </trkpt>
      <trkpt lat="44.47524" lon="1.83613">
        <ele>193.6</ele>
        <time>2020-06-24T07:59:19Z</time>
      </trkpt>
      <trkpt lat="44.47528" lon="1.83615">
        <ele>193.2</ele>
        <time>2020-06-24T07:59:20Z</time>
      </trkpt>
      <trkpt lat="44.47533" lon="1.83617">
        <ele>192.8</ele>
        <time>2020-06-24T07:59:21Z</time>
      </trkpt>
      <trkpt lat="44.47538" lon="1.8362">
        <ele>192.4</ele>
        <time>2020-06-24T07:59:22Z</time>
      </trkpt>
      <trkpt lat="44.47542" lon="1.83623">
        <ele>192</ele>
        <time>2020-06-24T07:59:23Z</time>
      </trkpt>
      <trkpt lat="44.47546" lon="1.83626">
        <ele>192</ele>
        <time>2020-06-24T07:59:24Z</time>
      </trkpt>
      <trkpt lat="44.47566" lon="1.8364">
        <ele>192</ele>
        <time>2020-06-24T07:59:29Z</time>
      </trkpt>
      <trkpt lat="44.47569" lon="1.83643">
        <ele>192</ele>
        <time>2020-06-24T07:59:30Z</time>
      </trkpt>
      <trkpt lat="44.47594" lon="1.8366">
        <ele>192</ele>
        <time>2020-06-24T07:59:37Z</time>
      </trkpt>
      <trkpt lat="44.47603" lon="1.83662">
        <ele>192</ele>
        <time>2020-06-24T07:59:39Z</time>
      </trkpt>
      <trkpt lat="44.47618" lon="1.83661">
        <ele>192</ele>
        <time>2020-06-24T07:59:42Z</time>
      </trkpt>
      <trkpt lat="44.47624" lon="1.8366">
        <ele>192</ele>
        <time>2020-06-24T07:59:43Z</time>
      </trkpt>
      <trkpt lat="44.4763" lon="1.83659">
        <ele>191.6</ele>
        <time>2020-06-24T07:59:44Z</time>
      </trkpt>
      <trkpt lat="44.47637" lon="1.83657">
        <ele>191.2</ele>
        <time>2020-06-24T07:59:45Z</time>
      </trkpt>
      <trkpt lat="44.47644" lon="1.83656">
        <ele>190.6</ele>
        <time>2020-06-24T07:59:46Z</time>
      </trkpt>
      <trkpt lat="44.4765" lon="1.83655">
        <ele>190.2</ele>
        <time>2020-06-24T07:59:47Z</time>
      </trkpt>
      <trkpt lat="44.47656" lon="1.83654">
        <ele>189.8</ele>
        <time>2020-06-24T07:59:48Z</time>
      </trkpt>
      <trkpt lat="44.47668" lon="1.83652">
        <ele>189.4</ele>
        <time>2020-06-24T07:59:51Z</time>
      </trkpt>
      <trkpt lat="44.47671" lon="1.83651">
        <ele>189</ele>
        <time>2020-06-24T07:59:52Z</time>
      </trkpt>
      <trkpt lat="44.47674" lon="1.83651">
        <ele>188.6</ele>
        <time>2020-06-24T07:59:53Z</time>
      </trkpt>
      <trkpt lat="44.47677" lon="1.83649">
        <ele>188.2</ele>
        <time>2020-06-24T07:59:54Z</time>
      </trkpt>
      <trkpt lat="44.47679" lon="1.83648">
        <ele>187.8</ele>
        <time>2020-06-24T07:59:55Z</time>
      </trkpt>
      <trkpt lat="44.47683" lon="1.83646">
        <ele>187.8</ele>
        <time>2020-06-24T07:59:58Z</time>
      </trkpt>
      <trkpt lat="44.47683" lon="1.83645">
        <ele>187.8</ele>
        <time>2020-06-24T08:00:02Z</time>
      </trkpt>
      <trkpt lat="44.47684" lon="1.83645">
        <ele>187.8</ele>
        <time>2020-06-24T08:00:17Z</time>
      </trkpt>
      <trkpt lat="44.47681" lon="1.83635">
        <ele>187.8</ele>
        <time>2020-06-24T08:00:21Z</time>
      </trkpt>
      <trkpt lat="44.47677" lon="1.83631">
        <ele>187.8</ele>
        <time>2020-06-24T08:00:23Z</time>
      </trkpt>
      <trkpt lat="44.47668" lon="1.83627">
        <ele>187.8</ele>
        <time>2020-06-24T08:00:26Z</time>
      </trkpt>
      <trkpt lat="44.4765" lon="1.83614">
        <ele>187.8</ele>
        <time>2020-06-24T08:00:33Z</time>
      </trkpt>
      <trkpt lat="44.47629" lon="1.83597">
        <ele>187.8</ele>
        <time>2020-06-24T08:00:40Z</time>
      </trkpt>
      <trkpt lat="44.47612" lon="1.83575">
        <ele>187.8</ele>
        <time>2020-06-24T08:00:47Z</time>
      </trkpt>
      <trkpt lat="44.47597" lon="1.83549">
        <ele>187.8</ele>
        <time>2020-06-24T08:00:54Z</time>
      </trkpt>
      <trkpt lat="44.47582" lon="1.83521">
        <ele>187.8</ele>
        <time>2020-06-24T08:01:02Z</time>
      </trkpt>
      <trkpt lat="44.4758" lon="1.83513">
        <ele>187.8</ele>
        <time>2020-06-24T08:01:08Z</time>
      </trkpt>
      <trkpt lat="44.47579" lon="1.83513">
        <ele>187.8</ele>
        <time>2020-06-24T08:01:18Z</time>
      </trkpt>
      <trkpt lat="44.47579" lon="1.83513">
        <ele>187.8</ele>
        <time>2020-06-24T08:01:29Z</time>
      </trkpt>
      <trkpt lat="44.47579" lon="1.83513">
        <ele>187.8</ele>
        <time>2020-06-24T08:01:45Z</time>
      </trkpt>
      <trkpt lat="44.4758" lon="1.83513">
        <ele>187.8</ele>
        <time>2020-06-24T08:01:55Z</time>
      </trkpt>
      <trkpt lat="44.47581" lon="1.8351">
        <ele>187.8</ele>
        <time>2020-06-24T08:02:02Z</time>
      </trkpt>
      <trkpt lat="44.47582" lon="1.83507">
        <ele>187.8</ele>
        <time>2020-06-24T08:02:03Z</time>
      </trkpt>
      <trkpt lat="44.47589" lon="1.83494">
        <ele>187.8</ele>
        <time>2020-06-24T08:02:08Z</time>
      </trkpt>
      <trkpt lat="44.47591" lon="1.83492">
        <ele>188.2</ele>
        <time>2020-06-24T08:02:09Z</time>
      </trkpt>
      <trkpt lat="44.47592" lon="1.8349">
        <ele>188.6</ele>
        <time>2020-06-24T08:02:10Z</time>
      </trkpt>
      <trkpt lat="44.47593" lon="1.83488">
        <ele>189</ele>
        <time>2020-06-24T08:02:11Z</time>
      </trkpt>
      <trkpt lat="44.47594" lon="1.83486">
        <ele>189.4</ele>
        <time>2020-06-24T08:02:12Z</time>
      </trkpt>
      <trkpt lat="44.47595" lon="1.83485">
        <ele>189.8</ele>
        <time>2020-06-24T08:02:13Z</time>
      </trkpt>
      <trkpt lat="44.47599" lon="1.83481">
        <ele>189.8</ele>
        <time>2020-06-24T08:02:16Z</time>
      </trkpt>
      <trkpt lat="44.47607" lon="1.83477">
        <ele>190.2</ele>
        <time>2020-06-24T08:02:21Z</time>
      </trkpt>
      <trkpt lat="44.47609" lon="1.83476">
        <ele>190.6</ele>
        <time>2020-06-24T08:02:22Z</time>
      </trkpt>
      <trkpt lat="44.4761" lon="1.83476">
        <ele>191</ele>
        <time>2020-06-24T08:02:23Z</time>
      </trkpt>
      <trkpt lat="44.47612" lon="1.83475">
        <ele>191.8</ele>
        <time>2020-06-24T08:02:24Z</time>
      </trkpt>
      <trkpt lat="44.47622" lon="1.83474">
        <ele>192.4</ele>
        <time>2020-06-24T08:02:29Z</time>
      </trkpt>
      <trkpt lat="44.47625" lon="1.83474">
        <ele>192.8</ele>
        <time>2020-06-24T08:02:30Z</time>
      </trkpt>
      <trkpt lat="44.47627" lon="1.83473">
        <ele>193.2</ele>
        <time>2020-06-24T08:02:31Z</time>
      </trkpt>
      <trkpt lat="44.47629" lon="1.83474">
        <ele>193.8</ele>
        <time>2020-06-24T08:02:32Z</time>
      </trkpt>
      <trkpt lat="44.47631" lon="1.83474">
        <ele>194.2</ele>
        <time>2020-06-24T08:02:33Z</time>
      </trkpt>
      <trkpt lat="44.47638" lon="1.83473">
        <ele>194.2</ele>
        <time>2020-06-24T08:02:36Z</time>
      </trkpt>
      <trkpt lat="44.47654" lon="1.83472">
        <ele>194.6</ele>
        <time>2020-06-24T08:02:43Z</time>
      </trkpt>
      <trkpt lat="44.47656" lon="1.83472">
        <ele>195</ele>
        <time>2020-06-24T08:02:44Z</time>
      </trkpt>
      <trkpt lat="44.47658" lon="1.83471">
        <ele>195.4</ele>
        <time>2020-06-24T08:02:45Z</time>
      </trkpt>
      <trkpt lat="44.4766" lon="1.83471">
        <ele>195.8</ele>
        <time>2020-06-24T08:02:46Z</time>
      </trkpt>
      <trkpt lat="44.47663" lon="1.83471">
        <ele>196.2</ele>
        <time>2020-06-24T08:02:47Z</time>
      </trkpt>
      <trkpt lat="44.47675" lon="1.83472">
        <ele>196.2</ele>
        <time>2020-06-24T08:02:52Z</time>
      </trkpt>
      <trkpt lat="44.47679" lon="1.83471">
        <ele>196.6</ele>
        <time>2020-06-24T08:02:54Z</time>
      </trkpt>
      <trkpt lat="44.47681" lon="1.83471">
        <ele>197</ele>
        <time>2020-06-24T08:02:55Z</time>
      </trkpt>
      <trkpt lat="44.47684" lon="1.83471">
        <ele>197.4</ele>
        <time>2020-06-24T08:02:56Z</time>
      </trkpt>
      <trkpt lat="44.47686" lon="1.83471">
        <ele>197.8</ele>
        <time>2020-06-24T08:02:57Z</time>
      </trkpt>
      <trkpt lat="44.47688" lon="1.83471">
        <ele>198.2</ele>
        <time>2020-06-24T08:02:58Z</time>
      </trkpt>
      <trkpt lat="44.47691" lon="1.8347">
        <ele>198.2</ele>
        <time>2020-06-24T08:02:59Z</time>
      </trkpt>
      <trkpt lat="44.47703" lon="1.83471">
        <ele>198.6</ele>
        <time>2020-06-24T08:03:05Z</time>
      </trkpt>
      <trkpt lat="44.47705" lon="1.83471">
        <ele>199</ele>
        <time>2020-06-24T08:03:06Z</time>
      </trkpt>
      <trkpt lat="44.47708" lon="1.83472">
        <ele>199.4</ele>
        <time>2020-06-24T08:03:07Z</time>
      </trkpt>
      <trkpt lat="44.4771" lon="1.83472">
        <ele>199.8</ele>
        <time>2020-06-24T08:03:08Z</time>
      </trkpt>
      <trkpt lat="44.47712" lon="1.83472">
        <ele>200.2</ele>
        <time>2020-06-24T08:03:09Z</time>
      </trkpt>
      <trkpt lat="44.47723" lon="1.83475">
        <ele>200.2</ele>
        <time>2020-06-24T08:03:14Z</time>
      </trkpt>
      <trkpt lat="44.47725" lon="1.83475">
        <ele>200.6</ele>
        <time>2020-06-24T08:03:15Z</time>
      </trkpt>
      <trkpt lat="44.47728" lon="1.83476">
        <ele>201</ele>
        <time>2020-06-24T08:03:16Z</time>
      </trkpt>
      <trkpt lat="44.4773" lon="1.83476">
        <ele>201.4</ele>
        <time>2020-06-24T08:03:17Z</time>
      </trkpt>
      <trkpt lat="44.47732" lon="1.83476">
        <ele>201.8</ele>
        <time>2020-06-24T08:03:18Z</time>
      </trkpt>
      <trkpt lat="44.47734" lon="1.83477">
        <ele>202.2</ele>
        <time>2020-06-24T08:03:19Z</time>
      </trkpt>
      <trkpt lat="44.47736" lon="1.83478">
        <ele>202.2</ele>
        <time>2020-06-24T08:03:20Z</time>
      </trkpt>
      <trkpt lat="44.47741" lon="1.8348">
        <ele>202.2</ele>
        <time>2020-06-24T08:03:22Z</time>
      </trkpt>
      <trkpt lat="44.47748" lon="1.83482">
        <ele>202.8</ele>
        <time>2020-06-24T08:03:26Z</time>
      </trkpt>
      <trkpt lat="44.4775" lon="1.83483">
        <ele>203.2</ele>
        <time>2020-06-24T08:03:27Z</time>
      </trkpt>
      <trkpt lat="44.47752" lon="1.83483">
        <ele>203.6</ele>
        <time>2020-06-24T08:03:28Z</time>
      </trkpt>
      <trkpt lat="44.47755" lon="1.83484">
        <ele>204</ele>
        <time>2020-06-24T08:03:29Z</time>
      </trkpt>
      <trkpt lat="44.47757" lon="1.83485">
        <ele>204.4</ele>
        <time>2020-06-24T08:03:30Z</time>
      </trkpt>
      <trkpt lat="44.4777" lon="1.83492">
        <ele>204.8</ele>
        <time>2020-06-24T08:03:37Z</time>
      </trkpt>
      <trkpt lat="44.47772" lon="1.83494">
        <ele>205.6</ele>
        <time>2020-06-24T08:03:38Z</time>
      </trkpt>
      <trkpt lat="44.47775" lon="1.83495">
        <ele>206</ele>
        <time>2020-06-24T08:03:39Z</time>
      </trkpt>
      <trkpt lat="44.47777" lon="1.83497">
        <ele>206.4</ele>
        <time>2020-06-24T08:03:40Z</time>
      </trkpt>
      <trkpt lat="44.47784" lon="1.83504">
        <ele>206.4</ele>
        <time>2020-06-24T08:03:44Z</time>
      </trkpt>
      <trkpt lat="44.47786" lon="1.83506">
        <ele>206.8</ele>
        <time>2020-06-24T08:03:45Z</time>
      </trkpt>
      <trkpt lat="44.47788" lon="1.83508">
        <ele>207.4</ele>
        <time>2020-06-24T08:03:46Z</time>
      </trkpt>
      <trkpt lat="44.4779" lon="1.8351">
        <ele>207.8</ele>
        <time>2020-06-24T08:03:47Z</time>
      </trkpt>
      <trkpt lat="44.47792" lon="1.83511">
        <ele>208.2</ele>
        <time>2020-06-24T08:03:48Z</time>
      </trkpt>
      <trkpt lat="44.47793" lon="1.83513">
        <ele>208.6</ele>
        <time>2020-06-24T08:03:49Z</time>
      </trkpt>
      <trkpt lat="44.47796" lon="1.83515">
        <ele>208.6</ele>
        <time>2020-06-24T08:03:51Z</time>
      </trkpt>
      <trkpt lat="44.47802" lon="1.83518">
        <ele>209</ele>
        <time>2020-06-24T08:03:54Z</time>
      </trkpt>
      <trkpt lat="44.47804" lon="1.83518">
        <ele>209.4</ele>
        <time>2020-06-24T08:03:55Z</time>
      </trkpt>
      <trkpt lat="44.47806" lon="1.83519">
        <ele>209.8</ele>
        <time>2020-06-24T08:03:56Z</time>
      </trkpt>
      <trkpt lat="44.47808" lon="1.83519">
        <ele>210.2</ele>
        <time>2020-06-24T08:03:57Z</time>
      </trkpt>
      <trkpt lat="44.47811" lon="1.83519">
        <ele>210.6</ele>
        <time>2020-06-24T08:03:58Z</time>
      </trkpt>
      <trkpt lat="44.47821" lon="1.83515">
        <ele>211</ele>
        <time>2020-06-24T08:04:03Z</time>
      </trkpt>
      <trkpt lat="44.47823" lon="1.83514">
        <ele>211.4</ele>
        <time>2020-06-24T08:04:04Z</time>
      </trkpt>
      <trkpt lat="44.47825" lon="1.83513">
        <ele>212</ele>
        <time>2020-06-24T08:04:05Z</time>
      </trkpt>
      <trkpt lat="44.47827" lon="1.83511">
        <ele>212.4</ele>
        <time>2020-06-24T08:04:06Z</time>
      </trkpt>
      <trkpt lat="44.47829" lon="1.83509">
        <ele>212.8</ele>
        <time>2020-06-24T08:04:07Z</time>
      </trkpt>
      <trkpt lat="44.47838" lon="1.83499">
        <ele>212.8</ele>
        <time>2020-06-24T08:04:12Z</time>
      </trkpt>
      <trkpt lat="44.47842" lon="1.83494">
        <ele>213.2</ele>
        <time>2020-06-24T08:04:14Z</time>
      </trkpt>
      <trkpt lat="44.47844" lon="1.83492">
        <ele>213.6</ele>
        <time>2020-06-24T08:04:15Z</time>
      </trkpt>
      <trkpt lat="44.47845" lon="1.83489">
        <ele>214</ele>
        <time>2020-06-24T08:04:16Z</time>
      </trkpt>
      <trkpt lat="44.47846" lon="1.83487">
        <ele>214.4</ele>
        <time>2020-06-24T08:04:17Z</time>
      </trkpt>
      <trkpt lat="44.47848" lon="1.83485">
        <ele>215</ele>
        <time>2020-06-24T08:04:18Z</time>
      </trkpt>
      <trkpt lat="44.47851" lon="1.83481">
        <ele>215</ele>
        <time>2020-06-24T08:04:20Z</time>
      </trkpt>
      <trkpt lat="44.47859" lon="1.83472">
        <ele>215.4</ele>
        <time>2020-06-24T08:04:25Z</time>
      </trkpt>
      <trkpt lat="44.47861" lon="1.8347">
        <ele>215.8</ele>
        <time>2020-06-24T08:04:26Z</time>
      </trkpt>
      <trkpt lat="44.47862" lon="1.83468">
        <ele>216.2</ele>
        <time>2020-06-24T08:04:27Z</time>
      </trkpt>
      <trkpt lat="44.47864" lon="1.83467">
        <ele>217.2</ele>
        <time>2020-06-24T08:04:28Z</time>
      </trkpt>
      <trkpt lat="44.4787" lon="1.83458">
        <ele>217.2</ele>
        <time>2020-06-24T08:04:34Z</time>
      </trkpt>
      <trkpt lat="44.47871" lon="1.83458">
        <ele>217.2</ele>
        <time>2020-06-24T08:04:38Z</time>
      </trkpt>
      <trkpt lat="44.47871" lon="1.83458">
        <ele>217.2</ele>
        <time>2020-06-24T08:04:48Z</time>
      </trkpt>
      <trkpt lat="44.47871" lon="1.83458">
        <ele>217.2</ele>
        <time>2020-06-24T08:05:00Z</time>
      </trkpt>
      <trkpt lat="44.47873" lon="1.83455">
        <ele>217.2</ele>
        <time>2020-06-24T08:05:05Z</time>
      </trkpt>
      <trkpt lat="44.47874" lon="1.83453">
        <ele>217.6</ele>
        <time>2020-06-24T08:05:06Z</time>
      </trkpt>
      <trkpt lat="44.47875" lon="1.83451">
        <ele>218</ele>
        <time>2020-06-24T08:05:07Z</time>
      </trkpt>
      <trkpt lat="44.47876" lon="1.83449">
        <ele>218.4</ele>
        <time>2020-06-24T08:05:08Z</time>
      </trkpt>
      <trkpt lat="44.47877" lon="1.83447">
        <ele>218.8</ele>
        <time>2020-06-24T08:05:09Z</time>
      </trkpt>
      <trkpt lat="44.47879" lon="1.83446">
        <ele>219.2</ele>
        <time>2020-06-24T08:05:10Z</time>
      </trkpt>
      <trkpt lat="44.4788" lon="1.83444">
        <ele>219.2</ele>
        <time>2020-06-24T08:05:11Z</time>
      </trkpt>
      <trkpt lat="44.4789" lon="1.83431">
        <ele>219.6</ele>
        <time>2020-06-24T08:05:17Z</time>
      </trkpt>
      <trkpt lat="44.47892" lon="1.83429">
        <ele>220</ele>
        <time>2020-06-24T08:05:18Z</time>
      </trkpt>
      <trkpt lat="44.47894" lon="1.83427">
        <ele>220.4</ele>
        <time>2020-06-24T08:05:19Z</time>
      </trkpt>
      <trkpt lat="44.47895" lon="1.83425">
        <ele>220.8</ele>
        <time>2020-06-24T08:05:20Z</time>
      </trkpt>
      <trkpt lat="44.47897" lon="1.83424">
        <ele>221.4</ele>
        <time>2020-06-24T08:05:21Z</time>
      </trkpt>
      <trkpt lat="44.47911" lon="1.83408">
        <ele>221.8</ele>
        <time>2020-06-24T08:05:29Z</time>
      </trkpt>
      <trkpt lat="44.47913" lon="1.83407">
        <ele>222.2</ele>
        <time>2020-06-24T08:05:30Z</time>
      </trkpt>
      <trkpt lat="44.47915" lon="1.83405">
        <ele>222.6</ele>
        <time>2020-06-24T08:05:31Z</time>
      </trkpt>
      <trkpt lat="44.47917" lon="1.83404">
        <ele>223</ele>
        <time>2020-06-24T08:05:32Z</time>
      </trkpt>
      <trkpt lat="44.47919" lon="1.83403">
        <ele>223.6</ele>
        <time>2020-06-24T08:05:33Z</time>
      </trkpt>
      <trkpt lat="44.47924" lon="1.83398">
        <ele>223.6</ele>
        <time>2020-06-24T08:05:36Z</time>
      </trkpt>
      <trkpt lat="44.47933" lon="1.83394">
        <ele>224</ele>
        <time>2020-06-24T08:05:40Z</time>
      </trkpt>
      <trkpt lat="44.47935" lon="1.83393">
        <ele>224.4</ele>
        <time>2020-06-24T08:05:41Z</time>
      </trkpt>
      <trkpt lat="44.47936" lon="1.83393">
        <ele>225.2</ele>
        <time>2020-06-24T08:05:42Z</time>
      </trkpt>
      <trkpt lat="44.47938" lon="1.83393">
        <ele>225.8</ele>
        <time>2020-06-24T08:05:43Z</time>
      </trkpt>
      <trkpt lat="44.47949" lon="1.8339">
        <ele>225.8</ele>
        <time>2020-06-24T08:05:50Z</time>
      </trkpt>
      <trkpt lat="44.4795" lon="1.83394">
        <ele>226.2</ele>
        <time>2020-06-24T08:05:53Z</time>
      </trkpt>
      <trkpt lat="44.47949" lon="1.83395">
        <ele>226.6</ele>
        <time>2020-06-24T08:05:54Z</time>
      </trkpt>
      <trkpt lat="44.47948" lon="1.83397">
        <ele>227</ele>
        <time>2020-06-24T08:05:55Z</time>
      </trkpt>
      <trkpt lat="44.47947" lon="1.83398">
        <ele>227.4</ele>
        <time>2020-06-24T08:05:56Z</time>
      </trkpt>
      <trkpt lat="44.47945" lon="1.83399">
        <ele>227.8</ele>
        <time>2020-06-24T08:05:57Z</time>
      </trkpt>
      <trkpt lat="44.47941" lon="1.83401">
        <ele>227.8</ele>
        <time>2020-06-24T08:06:00Z</time>
      </trkpt>
      <trkpt lat="44.47932" lon="1.83411">
        <ele>228.6</ele>
        <time>2020-06-24T08:06:07Z</time>
      </trkpt>
      <trkpt lat="44.47931" lon="1.83414">
        <ele>229</ele>
        <time>2020-06-24T08:06:08Z</time>
      </trkpt>
      <trkpt lat="44.4793" lon="1.83416">
        <ele>229.4</ele>
        <time>2020-06-24T08:06:09Z</time>
      </trkpt>
      <trkpt lat="44.47929" lon="1.83418">
        <ele>229.8</ele>
        <time>2020-06-24T08:06:10Z</time>
      </trkpt>
      <trkpt lat="44.47924" lon="1.83424">
        <ele>229.8</ele>
        <time>2020-06-24T08:06:13Z</time>
      </trkpt>
      <trkpt lat="44.47924" lon="1.83435">
        <ele>229.8</ele>
        <time>2020-06-24T08:06:18Z</time>
      </trkpt>
      <trkpt lat="44.47931" lon="1.83433">
        <ele>229.8</ele>
        <time>2020-06-24T08:06:22Z</time>
      </trkpt>
      <trkpt lat="44.47935" lon="1.83432">
        <ele>230.2</ele>
        <time>2020-06-24T08:06:26Z</time>
      </trkpt>
      <trkpt lat="44.47935" lon="1.83432">
        <ele>230.6</ele>
        <time>2020-06-24T08:06:27Z</time>
      </trkpt>
      <trkpt lat="44.47935" lon="1.83432">
        <ele>231</ele>
        <time>2020-06-24T08:06:28Z</time>
      </trkpt>
      <trkpt lat="44.47935" lon="1.83432">
        <ele>231.4</ele>
        <time>2020-06-24T08:06:29Z</time>
      </trkpt>
      <trkpt lat="44.47935" lon="1.83432">
        <ele>231.8</ele>
        <time>2020-06-24T08:06:30Z</time>
      </trkpt>
      <trkpt lat="44.47936" lon="1.8343">
        <ele>231.8</ele>
        <time>2020-06-24T08:06:40Z</time>
      </trkpt>
      <trkpt lat="44.47936" lon="1.8343">
        <ele>231.8</ele>
        <time>2020-06-24T08:06:46Z</time>
      </trkpt>
      <trkpt lat="44.47936" lon="1.8343">
        <ele>231.8</ele>
        <time>2020-06-24T08:06:59Z</time>
      </trkpt>
      <trkpt lat="44.47938" lon="1.83429">
        <ele>231.8</ele>
        <time>2020-06-24T08:07:04Z</time>
      </trkpt>
      <trkpt lat="44.4794" lon="1.83427">
        <ele>231.8</ele>
        <time>2020-06-24T08:07:05Z</time>
      </trkpt>
      <trkpt lat="44.47948" lon="1.83426">
        <ele>231.8</ele>
        <time>2020-06-24T08:07:10Z</time>
      </trkpt>
      <trkpt lat="44.4795" lon="1.83425">
        <ele>231.8</ele>
        <time>2020-06-24T08:07:11Z</time>
      </trkpt>
      <trkpt lat="44.47956" lon="1.83424">
        <ele>232.2</ele>
        <time>2020-06-24T08:07:14Z</time>
      </trkpt>
      <trkpt lat="44.47958" lon="1.83423">
        <ele>232.6</ele>
        <time>2020-06-24T08:07:15Z</time>
      </trkpt>
      <trkpt lat="44.47959" lon="1.83421">
        <ele>233.2</ele>
        <time>2020-06-24T08:07:16Z</time>
      </trkpt>
      <trkpt lat="44.4796" lon="1.8342">
        <ele>233.6</ele>
        <time>2020-06-24T08:07:17Z</time>
      </trkpt>
      <trkpt lat="44.47961" lon="1.8342">
        <ele>234</ele>
        <time>2020-06-24T08:07:18Z</time>
      </trkpt>
      <trkpt lat="44.47964" lon="1.8342">
        <ele>234</ele>
        <time>2020-06-24T08:07:22Z</time>
      </trkpt>
      <trkpt lat="44.47966" lon="1.83418">
        <ele>234</ele>
        <time>2020-06-24T08:07:24Z</time>
      </trkpt>
      <trkpt lat="44.47969" lon="1.83413">
        <ele>234</ele>
        <time>2020-06-24T08:07:27Z</time>
      </trkpt>
      <trkpt lat="44.47972" lon="1.83414">
        <ele>234</ele>
        <time>2020-06-24T08:07:29Z</time>
      </trkpt>
      <trkpt lat="44.47976" lon="1.83419">
        <ele>234.4</ele>
        <time>2020-06-24T08:07:32Z</time>
      </trkpt>
      <trkpt lat="44.47975" lon="1.83419">
        <ele>235</ele>
        <time>2020-06-24T08:07:33Z</time>
      </trkpt>
      <trkpt lat="44.47975" lon="1.83419">
        <ele>235.4</ele>
        <time>2020-06-24T08:07:34Z</time>
      </trkpt>
      <trkpt lat="44.47975" lon="1.83419">
        <ele>236</ele>
        <time>2020-06-24T08:07:35Z</time>
      </trkpt>
      <trkpt lat="44.47976" lon="1.83419">
        <ele>236.4</ele>
        <time>2020-06-24T08:07:36Z</time>
      </trkpt>
      <trkpt lat="44.47977" lon="1.83419">
        <ele>236.4</ele>
        <time>2020-06-24T08:07:38Z</time>
      </trkpt>
      <trkpt lat="44.47979" lon="1.83423">
        <ele>236.8</ele>
        <time>2020-06-24T08:07:42Z</time>
      </trkpt>
      <trkpt lat="44.47979" lon="1.83424">
        <ele>237.2</ele>
        <time>2020-06-24T08:07:43Z</time>
      </trkpt>
      <trkpt lat="44.4798" lon="1.83425">
        <ele>238</ele>
        <time>2020-06-24T08:07:44Z</time>
      </trkpt>
      <trkpt lat="44.4798" lon="1.83425">
        <ele>238.4</ele>
        <time>2020-06-24T08:07:45Z</time>
      </trkpt>
      <trkpt lat="44.4798" lon="1.83425">
        <ele>238.4</ele>
        <time>2020-06-24T08:07:49Z</time>
      </trkpt>
      <trkpt lat="44.47981" lon="1.83426">
        <ele>238.4</ele>
        <time>2020-06-24T08:08:01Z</time>
      </trkpt>
      <trkpt lat="44.47981" lon="1.83426">
        <ele>238.4</ele>
        <time>2020-06-24T08:08:22Z</time>
      </trkpt>
      <trkpt lat="44.47981" lon="1.83426">
        <ele>238.4</ele>
        <time>2020-06-24T08:08:42Z</time>
      </trkpt>
      <trkpt lat="44.47981" lon="1.83426">
        <ele>238.4</ele>
        <time>2020-06-24T08:09:02Z</time>
      </trkpt>
      <trkpt lat="44.47981" lon="1.83426">
        <ele>238.4</ele>
        <time>2020-06-24T08:09:14Z</time>
      </trkpt>
      <trkpt lat="44.47981" lon="1.83427">
        <ele>238.4</ele>
        <time>2020-06-24T08:09:23Z</time>
      </trkpt>
      <trkpt lat="44.47981" lon="1.83427">
        <ele>238.4</ele>
        <time>2020-06-24T08:09:44Z</time>
      </trkpt>
      <trkpt lat="44.47981" lon="1.83427">
        <ele>238.4</ele>
        <time>2020-06-24T08:10:01Z</time>
      </trkpt>
      <trkpt lat="44.47981" lon="1.83427">
        <ele>238.4</ele>
        <time>2020-06-24T08:10:04Z</time>
      </trkpt>
      <trkpt lat="44.47981" lon="1.83427">
        <ele>238.4</ele>
        <time>2020-06-24T08:10:23Z</time>
      </trkpt>
      <trkpt lat="44.47982" lon="1.83427">
        <ele>238.4</ele>
        <time>2020-06-24T08:10:43Z</time>
      </trkpt>
      <trkpt lat="44.47982" lon="1.83427">
        <ele>238.4</ele>
        <time>2020-06-24T08:10:46Z</time>
      </trkpt>
      <trkpt lat="44.47981" lon="1.83427">
        <ele>238.4</ele>
        <time>2020-06-24T08:11:00Z</time>
      </trkpt>
      <trkpt lat="44.47981" lon="1.83427">
        <ele>238.4</ele>
        <time>2020-06-24T08:11:01Z</time>
      </trkpt>
      <trkpt lat="44.47977" lon="1.8343">
        <ele>238.4</ele>
        <time>2020-06-24T08:11:05Z</time>
      </trkpt>
      <trkpt lat="44.47974" lon="1.83436">
        <ele>238.4</ele>
        <time>2020-06-24T08:11:10Z</time>
      </trkpt>
      <trkpt lat="44.47962" lon="1.83448">
        <ele>238.4</ele>
        <time>2020-06-24T08:11:17Z</time>
      </trkpt>
      <trkpt lat="44.47949" lon="1.83466">
        <ele>238.4</ele>
        <time>2020-06-24T08:11:22Z</time>
      </trkpt>
      <trkpt lat="44.47931" lon="1.83495">
        <ele>238.4</ele>
        <time>2020-06-24T08:11:28Z</time>
      </trkpt>
      <trkpt lat="44.47924" lon="1.83516">
        <ele>238.4</ele>
        <time>2020-06-24T08:11:32Z</time>
      </trkpt>
      <trkpt lat="44.47922" lon="1.83519">
        <ele>238.4</ele>
        <time>2020-06-24T08:11:33Z</time>
      </trkpt>
      <trkpt lat="44.47917" lon="1.83527">
        <ele>238</ele>
        <time>2020-06-24T08:11:35Z</time>
      </trkpt>
      <trkpt lat="44.47915" lon="1.83531">
        <ele>237.6</ele>
        <time>2020-06-24T08:11:36Z</time>
      </trkpt>
      <trkpt lat="44.47913" lon="1.83536">
        <ele>237.2</ele>
        <time>2020-06-24T08:11:37Z</time>
      </trkpt>
      <trkpt lat="44.47911" lon="1.8354">
        <ele>236.8</ele>
        <time>2020-06-24T08:11:38Z</time>
      </trkpt>
      <trkpt lat="44.47909" lon="1.83544">
        <ele>236.4</ele>
        <time>2020-06-24T08:11:39Z</time>
      </trkpt>
      <trkpt lat="44.47906" lon="1.83551">
        <ele>236.4</ele>
        <time>2020-06-24T08:11:41Z</time>
      </trkpt>
      <trkpt lat="44.47905" lon="1.83554">
        <ele>236</ele>
        <time>2020-06-24T08:11:42Z</time>
      </trkpt>
      <trkpt lat="44.47905" lon="1.83556">
        <ele>235.4</ele>
        <time>2020-06-24T08:11:43Z</time>
      </trkpt>
      <trkpt lat="44.47905" lon="1.83557">
        <ele>235</ele>
        <time>2020-06-24T08:11:44Z</time>
      </trkpt>
      <trkpt lat="44.47906" lon="1.83558">
        <ele>234.6</ele>
        <time>2020-06-24T08:11:45Z</time>
      </trkpt>
      <trkpt lat="44.47907" lon="1.83558">
        <ele>234</ele>
        <time>2020-06-24T08:11:46Z</time>
      </trkpt>
      <trkpt lat="44.47911" lon="1.83557">
        <ele>234</ele>
        <time>2020-06-24T08:11:51Z</time>
      </trkpt>
      <trkpt lat="44.47919" lon="1.83557">
        <ele>234.4</ele>
        <time>2020-06-24T08:11:57Z</time>
      </trkpt>
      <trkpt lat="44.4792" lon="1.83556">
        <ele>235</ele>
        <time>2020-06-24T08:11:58Z</time>
      </trkpt>
      <trkpt lat="44.47921" lon="1.83556">
        <ele>235.4</ele>
        <time>2020-06-24T08:11:59Z</time>
      </trkpt>
      <trkpt lat="44.47922" lon="1.83555">
        <ele>235.8</ele>
        <time>2020-06-24T08:12:00Z</time>
      </trkpt>
      <trkpt lat="44.47923" lon="1.83555">
        <ele>236.2</ele>
        <time>2020-06-24T08:12:01Z</time>
      </trkpt>
      <trkpt lat="44.47925" lon="1.83554">
        <ele>236.2</ele>
        <time>2020-06-24T08:12:03Z</time>
      </trkpt>
      <trkpt lat="44.47927" lon="1.83553">
        <ele>236.6</ele>
        <time>2020-06-24T08:12:04Z</time>
      </trkpt>
      <trkpt lat="44.47928" lon="1.83552">
        <ele>237</ele>
        <time>2020-06-24T08:12:05Z</time>
      </trkpt>
      <trkpt lat="44.47928" lon="1.83552">
        <ele>237.4</ele>
        <time>2020-06-24T08:12:06Z</time>
      </trkpt>
      <trkpt lat="44.47929" lon="1.83551">
        <ele>237.8</ele>
        <time>2020-06-24T08:12:07Z</time>
      </trkpt>
      <trkpt lat="44.47931" lon="1.83551">
        <ele>238.2</ele>
        <time>2020-06-24T08:12:08Z</time>
      </trkpt>
      <trkpt lat="44.47938" lon="1.83546">
        <ele>238.6</ele>
        <time>2020-06-24T08:12:14Z</time>
      </trkpt>
      <trkpt lat="44.47939" lon="1.83546">
        <ele>239.4</ele>
        <time>2020-06-24T08:12:15Z</time>
      </trkpt>
      <trkpt lat="44.4794" lon="1.83545">
        <ele>239.8</ele>
        <time>2020-06-24T08:12:16Z</time>
      </trkpt>
      <trkpt lat="44.4794" lon="1.83545">
        <ele>240.2</ele>
        <time>2020-06-24T08:12:17Z</time>
      </trkpt>
      <trkpt lat="44.47942" lon="1.83543">
        <ele>240.2</ele>
        <time>2020-06-24T08:12:20Z</time>
      </trkpt>
      <trkpt lat="44.47946" lon="1.83542">
        <ele>240.6</ele>
        <time>2020-06-24T08:12:25Z</time>
      </trkpt>
      <trkpt lat="44.47947" lon="1.83542">
        <ele>241</ele>
        <time>2020-06-24T08:12:26Z</time>
      </trkpt>
      <trkpt lat="44.47947" lon="1.83541">
        <ele>241.6</ele>
        <time>2020-06-24T08:12:27Z</time>
      </trkpt>
      <trkpt lat="44.47948" lon="1.83541">
        <ele>242</ele>
        <time>2020-06-24T08:12:28Z</time>
      </trkpt>
      <trkpt lat="44.47949" lon="1.83541">
        <ele>242.4</ele>
        <time>2020-06-24T08:12:29Z</time>
      </trkpt>
      <trkpt lat="44.47951" lon="1.83539">
        <ele>242.4</ele>
        <time>2020-06-24T08:12:32Z</time>
      </trkpt>
      <trkpt lat="44.47955" lon="1.83539">
        <ele>242.8</ele>
        <time>2020-06-24T08:12:39Z</time>
      </trkpt>
      <trkpt lat="44.47955" lon="1.83539">
        <ele>243.6</ele>
        <time>2020-06-24T08:12:40Z</time>
      </trkpt>
      <trkpt lat="44.47956" lon="1.83538">
        <ele>244</ele>
        <time>2020-06-24T08:12:41Z</time>
      </trkpt>
      <trkpt lat="44.47957" lon="1.83538">
        <ele>244.4</ele>
        <time>2020-06-24T08:12:42Z</time>
      </trkpt>
      <trkpt lat="44.4796" lon="1.83538">
        <ele>244.4</ele>
        <time>2020-06-24T08:12:45Z</time>
      </trkpt>
      <trkpt lat="44.47964" lon="1.83538">
        <ele>244.8</ele>
        <time>2020-06-24T08:12:50Z</time>
      </trkpt>
      <trkpt lat="44.47964" lon="1.83538">
        <ele>245.2</ele>
        <time>2020-06-24T08:12:51Z</time>
      </trkpt>
      <trkpt lat="44.47965" lon="1.83538">
        <ele>245.6</ele>
        <time>2020-06-24T08:12:52Z</time>
      </trkpt>
      <trkpt lat="44.47966" lon="1.83537">
        <ele>246</ele>
        <time>2020-06-24T08:12:53Z</time>
      </trkpt>
      <trkpt lat="44.47967" lon="1.83537">
        <ele>246.4</ele>
        <time>2020-06-24T08:12:54Z</time>
      </trkpt>
      <trkpt lat="44.4797" lon="1.83536">
        <ele>246.4</ele>
        <time>2020-06-24T08:12:58Z</time>
      </trkpt>
      <trkpt lat="44.47973" lon="1.83534">
        <ele>246.8</ele>
        <time>2020-06-24T08:13:02Z</time>
      </trkpt>
      <trkpt lat="44.47974" lon="1.83533">
        <ele>247.2</ele>
        <time>2020-06-24T08:13:03Z</time>
      </trkpt>
      <trkpt lat="44.47975" lon="1.83533">
        <ele>248.2</ele>
        <time>2020-06-24T08:13:04Z</time>
      </trkpt>
      <trkpt lat="44.47975" lon="1.83532">
        <ele>248.6</ele>
        <time>2020-06-24T08:13:05Z</time>
      </trkpt>
      <trkpt lat="44.47976" lon="1.83532">
        <ele>248.6</ele>
        <time>2020-06-24T08:13:06Z</time>
      </trkpt>
      <trkpt lat="44.47978" lon="1.83529">
        <ele>248.6</ele>
        <time>2020-06-24T08:13:10Z</time>
      </trkpt>
      <trkpt lat="44.47979" lon="1.83526">
        <ele>248.6</ele>
        <time>2020-06-24T08:13:12Z</time>
      </trkpt>
      <trkpt lat="44.4798" lon="1.83525">
        <ele>249</ele>
        <time>2020-06-24T08:13:13Z</time>
      </trkpt>
      <trkpt lat="44.47981" lon="1.83524">
        <ele>249.4</ele>
        <time>2020-06-24T08:13:15Z</time>
      </trkpt>
      <trkpt lat="44.47982" lon="1.83523">
        <ele>249.8</ele>
        <time>2020-06-24T08:13:16Z</time>
      </trkpt>
      <trkpt lat="44.47983" lon="1.83523">
        <ele>250.2</ele>
        <time>2020-06-24T08:13:17Z</time>
      </trkpt>
      <trkpt lat="44.47983" lon="1.83522">
        <ele>250.6</ele>
        <time>2020-06-24T08:13:18Z</time>
      </trkpt>
      <trkpt lat="44.47985" lon="1.8352">
        <ele>250.6</ele>
        <time>2020-06-24T08:13:20Z</time>
      </trkpt>
      <trkpt lat="44.47989" lon="1.83519">
        <ele>251</ele>
        <time>2020-06-24T08:13:26Z</time>
      </trkpt>
      <trkpt lat="44.4799" lon="1.83519">
        <ele>251.4</ele>
        <time>2020-06-24T08:13:27Z</time>
      </trkpt>
      <trkpt lat="44.47991" lon="1.83519">
        <ele>252</ele>
        <time>2020-06-24T08:13:28Z</time>
      </trkpt>
      <trkpt lat="44.47991" lon="1.83519">
        <ele>252.8</ele>
        <time>2020-06-24T08:13:29Z</time>
      </trkpt>
      <trkpt lat="44.47994" lon="1.83519">
        <ele>252.8</ele>
        <time>2020-06-24T08:13:32Z</time>
      </trkpt>
      <trkpt lat="44.47997" lon="1.8352">
        <ele>253.2</ele>
        <time>2020-06-24T08:13:35Z</time>
      </trkpt>
      <trkpt lat="44.47998" lon="1.83521">
        <ele>253.6</ele>
        <time>2020-06-24T08:13:36Z</time>
      </trkpt>
      <trkpt lat="44.47998" lon="1.83521">
        <ele>254</ele>
        <time>2020-06-24T08:13:37Z</time>
      </trkpt>
      <trkpt lat="44.47999" lon="1.83521">
        <ele>254.4</ele>
        <time>2020-06-24T08:13:38Z</time>
      </trkpt>
      <trkpt lat="44.48" lon="1.83522">
        <ele>254.8</ele>
        <time>2020-06-24T08:13:39Z</time>
      </trkpt>
      <trkpt lat="44.48001" lon="1.83522">
        <ele>254.8</ele>
        <time>2020-06-24T08:13:40Z</time>
      </trkpt>
      <trkpt lat="44.48003" lon="1.83523">
        <ele>255.4</ele>
        <time>2020-06-24T08:13:43Z</time>
      </trkpt>
      <trkpt lat="44.48004" lon="1.83523">
        <ele>255.8</ele>
        <time>2020-06-24T08:13:44Z</time>
      </trkpt>
      <trkpt lat="44.48004" lon="1.83524">
        <ele>256.2</ele>
        <time>2020-06-24T08:13:45Z</time>
      </trkpt>
      <trkpt lat="44.48005" lon="1.83525">
        <ele>256.6</ele>
        <time>2020-06-24T08:13:46Z</time>
      </trkpt>
      <trkpt lat="44.48006" lon="1.83525">
        <ele>257</ele>
        <time>2020-06-24T08:13:47Z</time>
      </trkpt>
      <trkpt lat="44.48008" lon="1.83529">
        <ele>257.4</ele>
        <time>2020-06-24T08:13:51Z</time>
      </trkpt>
      <trkpt lat="44.48008" lon="1.83529">
        <ele>257.8</ele>
        <time>2020-06-24T08:13:52Z</time>
      </trkpt>
      <trkpt lat="44.48009" lon="1.8353">
        <ele>258.2</ele>
        <time>2020-06-24T08:13:53Z</time>
      </trkpt>
      <trkpt lat="44.48009" lon="1.8353">
        <ele>259.2</ele>
        <time>2020-06-24T08:13:54Z</time>
      </trkpt>
      <trkpt lat="44.4801" lon="1.83531">
        <ele>259.2</ele>
        <time>2020-06-24T08:13:55Z</time>
      </trkpt>
      <trkpt lat="44.4801" lon="1.83534">
        <ele>259.2</ele>
        <time>2020-06-24T08:13:58Z</time>
      </trkpt>
      <trkpt lat="44.48011" lon="1.83535">
        <ele>259.6</ele>
        <time>2020-06-24T08:13:59Z</time>
      </trkpt>
      <trkpt lat="44.48011" lon="1.83536">
        <ele>260</ele>
        <time>2020-06-24T08:14:00Z</time>
      </trkpt>
      <trkpt lat="44.48011" lon="1.83537">
        <ele>260.4</ele>
        <time>2020-06-24T08:14:01Z</time>
      </trkpt>
      <trkpt lat="44.48011" lon="1.83537">
        <ele>260.8</ele>
        <time>2020-06-24T08:14:02Z</time>
      </trkpt>
      <trkpt lat="44.48012" lon="1.83538">
        <ele>261.2</ele>
        <time>2020-06-24T08:14:03Z</time>
      </trkpt>
      <trkpt lat="44.48012" lon="1.83538">
        <ele>261.2</ele>
        <time>2020-06-24T08:14:04Z</time>
      </trkpt>
      <trkpt lat="44.48012" lon="1.83538">
        <ele>261.2</ele>
        <time>2020-06-24T08:14:12Z</time>
      </trkpt>
      <trkpt lat="44.48015" lon="1.83539">
        <ele>261.2</ele>
        <time>2020-06-24T08:14:18Z</time>
      </trkpt>
      <trkpt lat="44.48018" lon="1.83539">
        <ele>261.6</ele>
        <time>2020-06-24T08:14:23Z</time>
      </trkpt>
      <trkpt lat="44.48019" lon="1.83538">
        <ele>262</ele>
        <time>2020-06-24T08:14:24Z</time>
      </trkpt>
      <trkpt lat="44.4802" lon="1.83538">
        <ele>262.4</ele>
        <time>2020-06-24T08:14:25Z</time>
      </trkpt>
      <trkpt lat="44.48021" lon="1.83537">
        <ele>262.8</ele>
        <time>2020-06-24T08:14:26Z</time>
      </trkpt>
      <trkpt lat="44.48021" lon="1.83537">
        <ele>263.2</ele>
        <time>2020-06-24T08:14:27Z</time>
      </trkpt>
      <trkpt lat="44.48023" lon="1.83537">
        <ele>263.2</ele>
        <time>2020-06-24T08:14:30Z</time>
      </trkpt>
      <trkpt lat="44.48026" lon="1.83538">
        <ele>263.6</ele>
        <time>2020-06-24T08:14:33Z</time>
      </trkpt>
      <trkpt lat="44.48026" lon="1.83538">
        <ele>264</ele>
        <time>2020-06-24T08:14:34Z</time>
      </trkpt>
      <trkpt lat="44.48027" lon="1.83538">
        <ele>264.4</ele>
        <time>2020-06-24T08:14:35Z</time>
      </trkpt>
      <trkpt lat="44.48028" lon="1.83538">
        <ele>264.8</ele>
        <time>2020-06-24T08:14:36Z</time>
      </trkpt>
      <trkpt lat="44.48029" lon="1.83538">
        <ele>265.2</ele>
        <time>2020-06-24T08:14:37Z</time>
      </trkpt>
      <trkpt lat="44.48034" lon="1.83541">
        <ele>266</ele>
        <time>2020-06-24T08:14:44Z</time>
      </trkpt>
      <trkpt lat="44.48034" lon="1.83541">
        <ele>266.4</ele>
        <time>2020-06-24T08:14:45Z</time>
      </trkpt>
      <trkpt lat="44.48035" lon="1.83541">
        <ele>266.8</ele>
        <time>2020-06-24T08:14:46Z</time>
      </trkpt>
      <trkpt lat="44.48035" lon="1.83541">
        <ele>267.2</ele>
        <time>2020-06-24T08:14:47Z</time>
      </trkpt>
      <trkpt lat="44.48038" lon="1.83541">
        <ele>267.2</ele>
        <time>2020-06-24T08:14:50Z</time>
      </trkpt>
      <trkpt lat="44.48039" lon="1.83541">
        <ele>267.8</ele>
        <time>2020-06-24T08:14:52Z</time>
      </trkpt>
      <trkpt lat="44.4804" lon="1.83541">
        <ele>268.2</ele>
        <time>2020-06-24T08:14:53Z</time>
      </trkpt>
      <trkpt lat="44.48041" lon="1.83541">
        <ele>268.6</ele>
        <time>2020-06-24T08:14:54Z</time>
      </trkpt>
      <trkpt lat="44.48041" lon="1.83541">
        <ele>269</ele>
        <time>2020-06-24T08:14:55Z</time>
      </trkpt>
      <trkpt lat="44.48041" lon="1.8354">
        <ele>269.4</ele>
        <time>2020-06-24T08:14:56Z</time>
      </trkpt>
      <trkpt lat="44.48041" lon="1.8354">
        <ele>269.4</ele>
        <time>2020-06-24T08:14:57Z</time>
      </trkpt>
      <trkpt lat="44.48045" lon="1.8354">
        <ele>269.4</ele>
        <time>2020-06-24T08:15:04Z</time>
      </trkpt>
      <trkpt lat="44.48046" lon="1.83541">
        <ele>269.8</ele>
        <time>2020-06-24T08:15:07Z</time>
      </trkpt>
      <trkpt lat="44.48047" lon="1.83541">
        <ele>270.2</ele>
        <time>2020-06-24T08:15:08Z</time>
      </trkpt>
      <trkpt lat="44.48048" lon="1.8354">
        <ele>271.2</ele>
        <time>2020-06-24T08:15:09Z</time>
      </trkpt>
      <trkpt lat="44.48049" lon="1.8354">
        <ele>271.6</ele>
        <time>2020-06-24T08:15:10Z</time>
      </trkpt>
      <trkpt lat="44.48055" lon="1.8354">
        <ele>271.6</ele>
        <time>2020-06-24T08:15:15Z</time>
      </trkpt>
      <trkpt lat="44.48055" lon="1.8354">
        <ele>272</ele>
        <time>2020-06-24T08:15:16Z</time>
      </trkpt>
      <trkpt lat="44.48056" lon="1.8354">
        <ele>272.4</ele>
        <time>2020-06-24T08:15:17Z</time>
      </trkpt>
      <trkpt lat="44.48057" lon="1.83541">
        <ele>272.8</ele>
        <time>2020-06-24T08:15:18Z</time>
      </trkpt>
      <trkpt lat="44.48058" lon="1.83541">
        <ele>273.4</ele>
        <time>2020-06-24T08:15:19Z</time>
      </trkpt>
      <trkpt lat="44.48059" lon="1.8354">
        <ele>273.8</ele>
        <time>2020-06-24T08:15:20Z</time>
      </trkpt>
      <trkpt lat="44.48062" lon="1.83539">
        <ele>273.8</ele>
        <time>2020-06-24T08:15:24Z</time>
      </trkpt>
      <trkpt lat="44.48063" lon="1.83539">
        <ele>274.2</ele>
        <time>2020-06-24T08:15:26Z</time>
      </trkpt>
      <trkpt lat="44.48064" lon="1.83539">
        <ele>274.6</ele>
        <time>2020-06-24T08:15:27Z</time>
      </trkpt>
      <trkpt lat="44.48065" lon="1.83539">
        <ele>275</ele>
        <time>2020-06-24T08:15:28Z</time>
      </trkpt>
      <trkpt lat="44.48066" lon="1.83538">
        <ele>275.4</ele>
        <time>2020-06-24T08:15:29Z</time>
      </trkpt>
      <trkpt lat="44.48067" lon="1.83538">
        <ele>275.8</ele>
        <time>2020-06-24T08:15:30Z</time>
      </trkpt>
      <trkpt lat="44.48068" lon="1.83538">
        <ele>275.8</ele>
        <time>2020-06-24T08:15:31Z</time>
      </trkpt>
      <trkpt lat="44.48073" lon="1.83536">
        <ele>276.2</ele>
        <time>2020-06-24T08:15:37Z</time>
      </trkpt>
      <trkpt lat="44.48073" lon="1.83537">
        <ele>276.6</ele>
        <time>2020-06-24T08:15:38Z</time>
      </trkpt>
      <trkpt lat="44.48074" lon="1.83536">
        <ele>277</ele>
        <time>2020-06-24T08:15:39Z</time>
      </trkpt>
      <trkpt lat="44.48075" lon="1.83536">
        <ele>277.4</ele>
        <time>2020-06-24T08:15:40Z</time>
      </trkpt>
      <trkpt lat="44.48076" lon="1.83536">
        <ele>277.8</ele>
        <time>2020-06-24T08:15:41Z</time>
      </trkpt>
      <trkpt lat="44.48078" lon="1.83537">
        <ele>277.8</ele>
        <time>2020-06-24T08:15:44Z</time>
      </trkpt>
      <trkpt lat="44.4808" lon="1.83537">
        <ele>278.4</ele>
        <time>2020-06-24T08:15:47Z</time>
      </trkpt>
      <trkpt lat="44.48081" lon="1.83536">
        <ele>278.8</ele>
        <time>2020-06-24T08:15:48Z</time>
      </trkpt>
      <trkpt lat="44.48081" lon="1.83536">
        <ele>279.2</ele>
        <time>2020-06-24T08:15:49Z</time>
      </trkpt>
      <trkpt lat="44.48082" lon="1.83535">
        <ele>279.6</ele>
        <time>2020-06-24T08:15:50Z</time>
      </trkpt>
      <trkpt lat="44.48083" lon="1.83534">
        <ele>280</ele>
        <time>2020-06-24T08:15:51Z</time>
      </trkpt>
      <trkpt lat="44.48083" lon="1.83533">
        <ele>280</ele>
        <time>2020-06-24T08:15:52Z</time>
      </trkpt>
      <trkpt lat="44.48084" lon="1.83533">
        <ele>280</ele>
        <time>2020-06-24T08:15:53Z</time>
      </trkpt>
      <trkpt lat="44.48085" lon="1.83532">
        <ele>280</ele>
        <time>2020-06-24T08:15:55Z</time>
      </trkpt>
      <trkpt lat="44.48088" lon="1.83532">
        <ele>280</ele>
        <time>2020-06-24T08:15:58Z</time>
      </trkpt>
      <trkpt lat="44.48089" lon="1.83532">
        <ele>280.4</ele>
        <time>2020-06-24T08:15:59Z</time>
      </trkpt>
      <trkpt lat="44.4809" lon="1.83532">
        <ele>280.8</ele>
        <time>2020-06-24T08:16:00Z</time>
      </trkpt>
      <trkpt lat="44.4809" lon="1.83532">
        <ele>281.2</ele>
        <time>2020-06-24T08:16:01Z</time>
      </trkpt>
      <trkpt lat="44.48091" lon="1.83532">
        <ele>281.6</ele>
        <time>2020-06-24T08:16:02Z</time>
      </trkpt>
      <trkpt lat="44.48092" lon="1.83532">
        <ele>282</ele>
        <time>2020-06-24T08:16:03Z</time>
      </trkpt>
      <trkpt lat="44.48095" lon="1.83533">
        <ele>282</ele>
        <time>2020-06-24T08:16:06Z</time>
      </trkpt>
      <trkpt lat="44.48097" lon="1.83531">
        <ele>282.4</ele>
        <time>2020-06-24T08:16:10Z</time>
      </trkpt>
      <trkpt lat="44.48097" lon="1.8353">
        <ele>282.8</ele>
        <time>2020-06-24T08:16:11Z</time>
      </trkpt>
      <trkpt lat="44.48097" lon="1.8353">
        <ele>283.4</ele>
        <time>2020-06-24T08:16:12Z</time>
      </trkpt>
      <trkpt lat="44.48097" lon="1.8353">
        <ele>283.8</ele>
        <time>2020-06-24T08:16:13Z</time>
      </trkpt>
      <trkpt lat="44.48097" lon="1.8353">
        <ele>284.2</ele>
        <time>2020-06-24T08:16:14Z</time>
      </trkpt>
      <trkpt lat="44.48101" lon="1.83525">
        <ele>284.2</ele>
        <time>2020-06-24T08:16:18Z</time>
      </trkpt>
      <trkpt lat="44.48104" lon="1.83523">
        <ele>284.2</ele>
        <time>2020-06-24T08:16:21Z</time>
      </trkpt>
      <trkpt lat="44.48107" lon="1.83523">
        <ele>284.2</ele>
        <time>2020-06-24T08:16:23Z</time>
      </trkpt>
      <trkpt lat="44.48109" lon="1.83524">
        <ele>284.6</ele>
        <time>2020-06-24T08:16:25Z</time>
      </trkpt>
      <trkpt lat="44.4811" lon="1.83525">
        <ele>285</ele>
        <time>2020-06-24T08:16:26Z</time>
      </trkpt>
      <trkpt lat="44.4811" lon="1.83525">
        <ele>285.4</ele>
        <time>2020-06-24T08:16:27Z</time>
      </trkpt>
      <trkpt lat="44.4811" lon="1.83525">
        <ele>285.8</ele>
        <time>2020-06-24T08:16:28Z</time>
      </trkpt>
      <trkpt lat="44.48111" lon="1.83525">
        <ele>286.2</ele>
        <time>2020-06-24T08:16:29Z</time>
      </trkpt>
      <trkpt lat="44.48113" lon="1.83526">
        <ele>286.2</ele>
        <time>2020-06-24T08:16:31Z</time>
      </trkpt>
      <trkpt lat="44.48113" lon="1.83526">
        <ele>286.2</ele>
        <time>2020-06-24T08:16:33Z</time>
      </trkpt>
      <trkpt lat="44.48114" lon="1.83527">
        <ele>286.6</ele>
        <time>2020-06-24T08:16:34Z</time>
      </trkpt>
      <trkpt lat="44.48114" lon="1.83527">
        <ele>287</ele>
        <time>2020-06-24T08:16:35Z</time>
      </trkpt>
      <trkpt lat="44.48115" lon="1.83529">
        <ele>287.4</ele>
        <time>2020-06-24T08:16:36Z</time>
      </trkpt>
      <trkpt lat="44.48115" lon="1.8353">
        <ele>287.8</ele>
        <time>2020-06-24T08:16:37Z</time>
      </trkpt>
      <trkpt lat="44.48115" lon="1.8353">
        <ele>288.2</ele>
        <time>2020-06-24T08:16:38Z</time>
      </trkpt>
      <trkpt lat="44.48116" lon="1.83531">
        <ele>288.2</ele>
        <time>2020-06-24T08:16:39Z</time>
      </trkpt>
      <trkpt lat="44.48116" lon="1.83531">
        <ele>288.2</ele>
        <time>2020-06-24T08:16:40Z</time>
      </trkpt>
      <trkpt lat="44.48117" lon="1.83532">
        <ele>288.2</ele>
        <time>2020-06-24T08:16:41Z</time>
      </trkpt>
      <trkpt lat="44.48119" lon="1.83532">
        <ele>288.2</ele>
        <time>2020-06-24T08:16:43Z</time>
      </trkpt>
      <trkpt lat="44.48122" lon="1.83531">
        <ele>289.2</ele>
        <time>2020-06-24T08:16:47Z</time>
      </trkpt>
      <trkpt lat="44.48123" lon="1.83531">
        <ele>289.6</ele>
        <time>2020-06-24T08:16:48Z</time>
      </trkpt>
      <trkpt lat="44.48124" lon="1.83532">
        <ele>290</ele>
        <time>2020-06-24T08:16:49Z</time>
      </trkpt>
      <trkpt lat="44.48125" lon="1.83533">
        <ele>290.4</ele>
        <time>2020-06-24T08:16:50Z</time>
      </trkpt>
      <trkpt lat="44.48129" lon="1.83536">
        <ele>290.4</ele>
        <time>2020-06-24T08:16:56Z</time>
      </trkpt>
      <trkpt lat="44.48129" lon="1.83537">
        <ele>290.8</ele>
        <time>2020-06-24T08:16:57Z</time>
      </trkpt>
      <trkpt lat="44.4813" lon="1.83538">
        <ele>291.2</ele>
        <time>2020-06-24T08:16:58Z</time>
      </trkpt>
      <trkpt lat="44.4813" lon="1.83539">
        <ele>291.6</ele>
        <time>2020-06-24T08:16:59Z</time>
      </trkpt>
      <trkpt lat="44.48131" lon="1.8354">
        <ele>292</ele>
        <time>2020-06-24T08:17:00Z</time>
      </trkpt>
      <trkpt lat="44.48131" lon="1.83541">
        <ele>292.4</ele>
        <time>2020-06-24T08:17:01Z</time>
      </trkpt>
      <trkpt lat="44.48132" lon="1.83542">
        <ele>292.4</ele>
        <time>2020-06-24T08:17:03Z</time>
      </trkpt>
      <trkpt lat="44.48137" lon="1.83539">
        <ele>292.4</ele>
        <time>2020-06-24T08:17:09Z</time>
      </trkpt>
      <trkpt lat="44.48141" lon="1.83536">
        <ele>292.8</ele>
        <time>2020-06-24T08:17:14Z</time>
      </trkpt>
      <trkpt lat="44.48142" lon="1.83535">
        <ele>293.4</ele>
        <time>2020-06-24T08:17:15Z</time>
      </trkpt>
      <trkpt lat="44.48142" lon="1.83534">
        <ele>293.8</ele>
        <time>2020-06-24T08:17:16Z</time>
      </trkpt>
      <trkpt lat="44.48143" lon="1.83534">
        <ele>294.2</ele>
        <time>2020-06-24T08:17:17Z</time>
      </trkpt>
      <trkpt lat="44.48144" lon="1.83533">
        <ele>294.6</ele>
        <time>2020-06-24T08:17:18Z</time>
      </trkpt>
      <trkpt lat="44.48148" lon="1.8353">
        <ele>294.6</ele>
        <time>2020-06-24T08:17:23Z</time>
      </trkpt>
      <trkpt lat="44.48156" lon="1.83526">
        <ele>294.6</ele>
        <time>2020-06-24T08:17:31Z</time>
      </trkpt>
      <trkpt lat="44.48159" lon="1.83526">
        <ele>294.6</ele>
        <time>2020-06-24T08:17:34Z</time>
      </trkpt>
      <trkpt lat="44.4816" lon="1.83525">
        <ele>295</ele>
        <time>2020-06-24T08:17:35Z</time>
      </trkpt>
      <trkpt lat="44.48161" lon="1.83525">
        <ele>295.4</ele>
        <time>2020-06-24T08:17:36Z</time>
      </trkpt>
      <trkpt lat="44.48162" lon="1.83525">
        <ele>296.2</ele>
        <time>2020-06-24T08:17:37Z</time>
      </trkpt>
      <trkpt lat="44.48162" lon="1.83525">
        <ele>296.6</ele>
        <time>2020-06-24T08:17:38Z</time>
      </trkpt>
      <trkpt lat="44.48164" lon="1.83525">
        <ele>296.6</ele>
        <time>2020-06-24T08:17:41Z</time>
      </trkpt>
      <trkpt lat="44.48169" lon="1.83519">
        <ele>296.6</ele>
        <time>2020-06-24T08:17:48Z</time>
      </trkpt>
      <trkpt lat="44.48175" lon="1.83518">
        <ele>296.6</ele>
        <time>2020-06-24T08:17:54Z</time>
      </trkpt>
      <trkpt lat="44.48179" lon="1.83517">
        <ele>297</ele>
        <time>2020-06-24T08:17:58Z</time>
      </trkpt>
      <trkpt lat="44.4818" lon="1.83517">
        <ele>297.4</ele>
        <time>2020-06-24T08:17:59Z</time>
      </trkpt>
      <trkpt lat="44.48181" lon="1.83516">
        <ele>297.8</ele>
        <time>2020-06-24T08:18:00Z</time>
      </trkpt>
      <trkpt lat="44.48182" lon="1.83515">
        <ele>298.8</ele>
        <time>2020-06-24T08:18:01Z</time>
      </trkpt>
      <trkpt lat="44.48188" lon="1.83511">
        <ele>298.8</ele>
        <time>2020-06-24T08:18:08Z</time>
      </trkpt>
      <trkpt lat="44.48189" lon="1.8351">
        <ele>298.8</ele>
        <time>2020-06-24T08:18:10Z</time>
      </trkpt>
      <trkpt lat="44.48192" lon="1.83509">
        <ele>298.8</ele>
        <time>2020-06-24T08:18:14Z</time>
      </trkpt>
      <trkpt lat="44.48196" lon="1.83507">
        <ele>298.8</ele>
        <time>2020-06-24T08:18:21Z</time>
      </trkpt>
      <trkpt lat="44.48196" lon="1.83507">
        <ele>298.8</ele>
        <time>2020-06-24T08:18:31Z</time>
      </trkpt>
      <trkpt lat="44.48198" lon="1.83504">
        <ele>298.8</ele>
        <time>2020-06-24T08:18:42Z</time>
      </trkpt>
      <trkpt lat="44.48203" lon="1.83494">
        <ele>298.8</ele>
        <time>2020-06-24T08:18:49Z</time>
      </trkpt>
      <trkpt lat="44.48207" lon="1.83486">
        <ele>298.8</ele>
        <time>2020-06-24T08:18:58Z</time>
      </trkpt>
      <trkpt lat="44.48207" lon="1.83486">
        <ele>298.8</ele>
        <time>2020-06-24T08:19:09Z</time>
      </trkpt>
      <trkpt lat="44.48206" lon="1.83486">
        <ele>298.8</ele>
        <time>2020-06-24T08:19:14Z</time>
      </trkpt>
      <trkpt lat="44.48206" lon="1.83486">
        <ele>298.8</ele>
        <time>2020-06-24T08:19:27Z</time>
      </trkpt>
      <trkpt lat="44.48206" lon="1.83486">
        <ele>298.8</ele>
        <time>2020-06-24T08:19:42Z</time>
      </trkpt>
      <trkpt lat="44.48213" lon="1.83479">
        <ele>298.8</ele>
        <time>2020-06-24T08:19:47Z</time>
      </trkpt>
      <trkpt lat="44.48223" lon="1.83461">
        <ele>298.8</ele>
        <time>2020-06-24T08:19:53Z</time>
      </trkpt>
      <trkpt lat="44.48229" lon="1.83445">
        <ele>298.8</ele>
        <time>2020-06-24T08:19:56Z</time>
      </trkpt>
      <trkpt lat="44.48234" lon="1.83442">
        <ele>298.8</ele>
        <time>2020-06-24T08:19:57Z</time>
      </trkpt>
      <trkpt lat="44.48249" lon="1.83444">
        <ele>298.8</ele>
        <time>2020-06-24T08:20:00Z</time>
      </trkpt>
      <trkpt lat="44.48254" lon="1.83446">
        <ele>298.8</ele>
        <time>2020-06-24T08:20:01Z</time>
      </trkpt>
      <trkpt lat="44.48265" lon="1.83451">
        <ele>298.2</ele>
        <time>2020-06-24T08:20:03Z</time>
      </trkpt>
      <trkpt lat="44.4827" lon="1.83452">
        <ele>297.8</ele>
        <time>2020-06-24T08:20:04Z</time>
      </trkpt>
      <trkpt lat="44.48275" lon="1.83454">
        <ele>297.4</ele>
        <time>2020-06-24T08:20:05Z</time>
      </trkpt>
      <trkpt lat="44.4828" lon="1.83456">
        <ele>296.6</ele>
        <time>2020-06-24T08:20:06Z</time>
      </trkpt>
      <trkpt lat="44.48289" lon="1.8346">
        <ele>296.6</ele>
        <time>2020-06-24T08:20:08Z</time>
      </trkpt>
      <trkpt lat="44.48312" lon="1.83469">
        <ele>296.6</ele>
        <time>2020-06-24T08:20:14Z</time>
      </trkpt>
      <trkpt lat="44.48333" lon="1.83472">
        <ele>296.6</ele>
        <time>2020-06-24T08:20:20Z</time>
      </trkpt>
      <trkpt lat="44.48359" lon="1.83476">
        <ele>296.6</ele>
        <time>2020-06-24T08:20:28Z</time>
      </trkpt>
      <trkpt lat="44.48374" lon="1.83487">
        <ele>297</ele>
        <time>2020-06-24T08:20:34Z</time>
      </trkpt>
      <trkpt lat="44.48376" lon="1.83489">
        <ele>297.4</ele>
        <time>2020-06-24T08:20:35Z</time>
      </trkpt>
      <trkpt lat="44.48378" lon="1.83492">
        <ele>297.8</ele>
        <time>2020-06-24T08:20:36Z</time>
      </trkpt>
      <trkpt lat="44.4838" lon="1.83495">
        <ele>298.4</ele>
        <time>2020-06-24T08:20:37Z</time>
      </trkpt>
      <trkpt lat="44.48382" lon="1.83498">
        <ele>298.8</ele>
        <time>2020-06-24T08:20:38Z</time>
      </trkpt>
      <trkpt lat="44.48391" lon="1.83512">
        <ele>298.8</ele>
        <time>2020-06-24T08:20:43Z</time>
      </trkpt>
      <trkpt lat="44.48406" lon="1.83527">
        <ele>298.8</ele>
        <time>2020-06-24T08:20:50Z</time>
      </trkpt>
      <trkpt lat="44.48428" lon="1.83535">
        <ele>299.2</ele>
        <time>2020-06-24T08:20:58Z</time>
      </trkpt>
      <trkpt lat="44.4843" lon="1.83535">
        <ele>299.6</ele>
        <time>2020-06-24T08:20:59Z</time>
      </trkpt>
      <trkpt lat="44.48433" lon="1.83535">
        <ele>300</ele>
        <time>2020-06-24T08:21:00Z</time>
      </trkpt>
      <trkpt lat="44.48435" lon="1.83535">
        <ele>300.4</ele>
        <time>2020-06-24T08:21:01Z</time>
      </trkpt>
      <trkpt lat="44.48437" lon="1.83535">
        <ele>300.8</ele>
        <time>2020-06-24T08:21:02Z</time>
      </trkpt>
      <trkpt lat="44.48443" lon="1.83535">
        <ele>300.8</ele>
        <time>2020-06-24T08:21:05Z</time>
      </trkpt>
      <trkpt lat="44.48455" lon="1.83528">
        <ele>301.2</ele>
        <time>2020-06-24T08:21:11Z</time>
      </trkpt>
      <trkpt lat="44.48457" lon="1.83527">
        <ele>301.6</ele>
        <time>2020-06-24T08:21:12Z</time>
      </trkpt>
      <trkpt lat="44.48459" lon="1.83525">
        <ele>302</ele>
        <time>2020-06-24T08:21:13Z</time>
      </trkpt>
      <trkpt lat="44.48461" lon="1.83524">
        <ele>302.6</ele>
        <time>2020-06-24T08:21:14Z</time>
      </trkpt>
      <trkpt lat="44.48462" lon="1.83523">
        <ele>303</ele>
        <time>2020-06-24T08:21:15Z</time>
      </trkpt>
      <trkpt lat="44.48465" lon="1.83522">
        <ele>303</ele>
        <time>2020-06-24T08:21:17Z</time>
      </trkpt>
      <trkpt lat="44.48473" lon="1.83528">
        <ele>303</ele>
        <time>2020-06-24T08:21:22Z</time>
      </trkpt>
      <trkpt lat="44.48479" lon="1.83532">
        <ele>303.4</ele>
        <time>2020-06-24T08:21:25Z</time>
      </trkpt>
      <trkpt lat="44.48481" lon="1.83533">
        <ele>303.8</ele>
        <time>2020-06-24T08:21:26Z</time>
      </trkpt>
      <trkpt lat="44.48483" lon="1.83535">
        <ele>304.2</ele>
        <time>2020-06-24T08:21:27Z</time>
      </trkpt>
      <trkpt lat="44.48485" lon="1.83537">
        <ele>304.6</ele>
        <time>2020-06-24T08:21:28Z</time>
      </trkpt>
      <trkpt lat="44.48487" lon="1.83538">
        <ele>305</ele>
        <time>2020-06-24T08:21:29Z</time>
      </trkpt>
      <trkpt lat="44.48497" lon="1.83547">
        <ele>305.4</ele>
        <time>2020-06-24T08:21:35Z</time>
      </trkpt>
      <trkpt lat="44.48499" lon="1.83547">
        <ele>305.8</ele>
        <time>2020-06-24T08:21:36Z</time>
      </trkpt>
      <trkpt lat="44.48501" lon="1.83547">
        <ele>306.2</ele>
        <time>2020-06-24T08:21:37Z</time>
      </trkpt>
      <trkpt lat="44.48503" lon="1.83547">
        <ele>306.6</ele>
        <time>2020-06-24T08:21:38Z</time>
      </trkpt>
      <trkpt lat="44.48505" lon="1.83547">
        <ele>307</ele>
        <time>2020-06-24T08:21:39Z</time>
      </trkpt>
      <trkpt lat="44.48507" lon="1.83547">
        <ele>307</ele>
        <time>2020-06-24T08:21:40Z</time>
      </trkpt>
      <trkpt lat="44.48514" lon="1.83543">
        <ele>307</ele>
        <time>2020-06-24T08:21:44Z</time>
      </trkpt>
      <trkpt lat="44.48519" lon="1.8354">
        <ele>307</ele>
        <time>2020-06-24T08:21:47Z</time>
      </trkpt>
      <trkpt lat="44.48521" lon="1.8354">
        <ele>307.6</ele>
        <time>2020-06-24T08:21:48Z</time>
      </trkpt>
      <trkpt lat="44.48523" lon="1.83539">
        <ele>308</ele>
        <time>2020-06-24T08:21:49Z</time>
      </trkpt>
      <trkpt lat="44.48525" lon="1.83539">
        <ele>308.4</ele>
        <time>2020-06-24T08:21:50Z</time>
      </trkpt>
      <trkpt lat="44.48527" lon="1.83538">
        <ele>308.8</ele>
        <time>2020-06-24T08:21:51Z</time>
      </trkpt>
      <trkpt lat="44.48529" lon="1.83538">
        <ele>309.2</ele>
        <time>2020-06-24T08:21:52Z</time>
      </trkpt>
      <trkpt lat="44.48534" lon="1.83537">
        <ele>309.2</ele>
        <time>2020-06-24T08:21:54Z</time>
      </trkpt>
      <trkpt lat="44.48544" lon="1.83531">
        <ele>309.2</ele>
        <time>2020-06-24T08:22:01Z</time>
      </trkpt>
      <trkpt lat="44.48544" lon="1.83531">
        <ele>309.2</ele>
        <time>2020-06-24T08:22:08Z</time>
      </trkpt>
      <trkpt lat="44.48544" lon="1.83531">
        <ele>309.2</ele>
        <time>2020-06-24T08:22:19Z</time>
      </trkpt>
      <trkpt lat="44.48547" lon="1.83527">
        <ele>309.2</ele>
        <time>2020-06-24T08:22:23Z</time>
      </trkpt>
      <trkpt lat="44.48558" lon="1.83518">
        <ele>309.2</ele>
        <time>2020-06-24T08:22:28Z</time>
      </trkpt>
      <trkpt lat="44.4856" lon="1.83516">
        <ele>309.6</ele>
        <time>2020-06-24T08:22:29Z</time>
      </trkpt>
      <trkpt lat="44.48562" lon="1.83515">
        <ele>310</ele>
        <time>2020-06-24T08:22:30Z</time>
      </trkpt>
      <trkpt lat="44.48564" lon="1.83513">
        <ele>310.4</ele>
        <time>2020-06-24T08:22:31Z</time>
      </trkpt>
      <trkpt lat="44.48566" lon="1.83511">
        <ele>310.8</ele>
        <time>2020-06-24T08:22:32Z</time>
      </trkpt>
      <trkpt lat="44.48569" lon="1.83509">
        <ele>311.2</ele>
        <time>2020-06-24T08:22:33Z</time>
      </trkpt>
      <trkpt lat="44.48576" lon="1.83502">
        <ele>311.2</ele>
        <time>2020-06-24T08:22:36Z</time>
      </trkpt>
      <trkpt lat="44.48593" lon="1.83488">
        <ele>311.2</ele>
        <time>2020-06-24T08:22:43Z</time>
      </trkpt>
      <trkpt lat="44.48605" lon="1.83481">
        <ele>311.2</ele>
        <time>2020-06-24T08:22:48Z</time>
      </trkpt>
      <trkpt lat="44.48617" lon="1.83475">
        <ele>311.2</ele>
        <time>2020-06-24T08:22:54Z</time>
      </trkpt>
      <trkpt lat="44.48631" lon="1.83477">
        <ele>311.2</ele>
        <time>2020-06-24T08:23:00Z</time>
      </trkpt>
      <trkpt lat="44.4864" lon="1.8348">
        <ele>311.2</ele>
        <time>2020-06-24T08:23:05Z</time>
      </trkpt>
      <trkpt lat="44.48645" lon="1.8348">
        <ele>311.2</ele>
        <time>2020-06-24T08:23:11Z</time>
      </trkpt>
      <trkpt lat="44.48645" lon="1.8348">
        <ele>311.2</ele>
        <time>2020-06-24T08:23:20Z</time>
      </trkpt>
      <trkpt lat="44.4865" lon="1.83482">
        <ele>311.2</ele>
        <time>2020-06-24T08:23:28Z</time>
      </trkpt>
      <trkpt lat="44.48663" lon="1.83484">
        <ele>310.8</ele>
        <time>2020-06-24T08:23:32Z</time>
      </trkpt>
      <trkpt lat="44.48666" lon="1.83483">
        <ele>310.4</ele>
        <time>2020-06-24T08:23:33Z</time>
      </trkpt>
      <trkpt lat="44.48668" lon="1.83482">
        <ele>310</ele>
        <time>2020-06-24T08:23:34Z</time>
      </trkpt>
      <trkpt lat="44.4867" lon="1.83481">
        <ele>309.6</ele>
        <time>2020-06-24T08:23:35Z</time>
      </trkpt>
      <trkpt lat="44.48672" lon="1.83481">
        <ele>309.2</ele>
        <time>2020-06-24T08:23:36Z</time>
      </trkpt>
      <trkpt lat="44.48675" lon="1.8348">
        <ele>309.2</ele>
        <time>2020-06-24T08:23:38Z</time>
      </trkpt>
      <trkpt lat="44.48687" lon="1.83488">
        <ele>309.2</ele>
        <time>2020-06-24T08:23:43Z</time>
      </trkpt>
      <trkpt lat="44.48696" lon="1.83491">
        <ele>308.6</ele>
        <time>2020-06-24T08:23:46Z</time>
      </trkpt>
      <trkpt lat="44.48699" lon="1.8349">
        <ele>308.2</ele>
        <time>2020-06-24T08:23:47Z</time>
      </trkpt>
      <trkpt lat="44.48702" lon="1.83488">
        <ele>307.8</ele>
        <time>2020-06-24T08:23:48Z</time>
      </trkpt>
      <trkpt lat="44.48705" lon="1.83486">
        <ele>307</ele>
        <time>2020-06-24T08:23:49Z</time>
      </trkpt>
      <trkpt lat="44.48714" lon="1.8348">
        <ele>307</ele>
        <time>2020-06-24T08:23:52Z</time>
      </trkpt>
      <trkpt lat="44.48718" lon="1.83477">
        <ele>306.6</ele>
        <time>2020-06-24T08:23:53Z</time>
      </trkpt>
      <trkpt lat="44.48721" lon="1.83474">
        <ele>306.2</ele>
        <time>2020-06-24T08:23:54Z</time>
      </trkpt>
      <trkpt lat="44.48723" lon="1.83472">
        <ele>305.8</ele>
        <time>2020-06-24T08:23:55Z</time>
      </trkpt>
      <trkpt lat="44.48725" lon="1.83471">
        <ele>305.4</ele>
        <time>2020-06-24T08:23:56Z</time>
      </trkpt>
      <trkpt lat="44.48727" lon="1.83471">
        <ele>305</ele>
        <time>2020-06-24T08:23:57Z</time>
      </trkpt>
      <trkpt lat="44.48735" lon="1.83464">
        <ele>305</ele>
        <time>2020-06-24T08:24:01Z</time>
      </trkpt>
      <trkpt lat="44.4874" lon="1.83458">
        <ele>304.6</ele>
        <time>2020-06-24T08:24:03Z</time>
      </trkpt>
      <trkpt lat="44.48742" lon="1.83456">
        <ele>304.2</ele>
        <time>2020-06-24T08:24:04Z</time>
      </trkpt>
      <trkpt lat="44.48745" lon="1.83453">
        <ele>303.8</ele>
        <time>2020-06-24T08:24:05Z</time>
      </trkpt>
      <trkpt lat="44.48747" lon="1.83452">
        <ele>303.4</ele>
        <time>2020-06-24T08:24:06Z</time>
      </trkpt>
      <trkpt lat="44.4875" lon="1.83451">
        <ele>303</ele>
        <time>2020-06-24T08:24:07Z</time>
      </trkpt>
      <trkpt lat="44.48752" lon="1.83451">
        <ele>303</ele>
        <time>2020-06-24T08:24:08Z</time>
      </trkpt>
      <trkpt lat="44.48756" lon="1.8345">
        <ele>302.6</ele>
        <time>2020-06-24T08:24:11Z</time>
      </trkpt>
      <trkpt lat="44.48758" lon="1.83449">
        <ele>302.2</ele>
        <time>2020-06-24T08:24:12Z</time>
      </trkpt>
      <trkpt lat="44.48759" lon="1.8345">
        <ele>301.8</ele>
        <time>2020-06-24T08:24:13Z</time>
      </trkpt>
      <trkpt lat="44.48761" lon="1.8345">
        <ele>301</ele>
        <time>2020-06-24T08:24:14Z</time>
      </trkpt>
      <trkpt lat="44.48776" lon="1.8345">
        <ele>301</ele>
        <time>2020-06-24T08:24:20Z</time>
      </trkpt>
      <trkpt lat="44.48779" lon="1.8345">
        <ele>300.4</ele>
        <time>2020-06-24T08:24:21Z</time>
      </trkpt>
      <trkpt lat="44.48783" lon="1.8345">
        <ele>300</ele>
        <time>2020-06-24T08:24:22Z</time>
      </trkpt>
      <trkpt lat="44.48787" lon="1.83451">
        <ele>299.6</ele>
        <time>2020-06-24T08:24:23Z</time>
      </trkpt>
      <trkpt lat="44.48792" lon="1.83452">
        <ele>299.2</ele>
        <time>2020-06-24T08:24:24Z</time>
      </trkpt>
      <trkpt lat="44.48796" lon="1.83453">
        <ele>298.8</ele>
        <time>2020-06-24T08:24:25Z</time>
      </trkpt>
      <trkpt lat="44.48801" lon="1.83455">
        <ele>298.8</ele>
        <time>2020-06-24T08:24:26Z</time>
      </trkpt>
      <trkpt lat="44.48811" lon="1.83458">
        <ele>298.8</ele>
        <time>2020-06-24T08:24:29Z</time>
      </trkpt>
      <trkpt lat="44.48813" lon="1.83458">
        <ele>298.4</ele>
        <time>2020-06-24T08:24:30Z</time>
      </trkpt>
      <trkpt lat="44.48816" lon="1.83457">
        <ele>298</ele>
        <time>2020-06-24T08:24:31Z</time>
      </trkpt>
      <trkpt lat="44.48818" lon="1.83456">
        <ele>297.6</ele>
        <time>2020-06-24T08:24:32Z</time>
      </trkpt>
      <trkpt lat="44.48821" lon="1.83454">
        <ele>297</ele>
        <time>2020-06-24T08:24:33Z</time>
      </trkpt>
      <trkpt lat="44.48822" lon="1.83452">
        <ele>296.6</ele>
        <time>2020-06-24T08:24:34Z</time>
      </trkpt>
      <trkpt lat="44.4883" lon="1.83444">
        <ele>296.6</ele>
        <time>2020-06-24T08:24:38Z</time>
      </trkpt>
      <trkpt lat="44.48844" lon="1.8343">
        <ele>296.6</ele>
        <time>2020-06-24T08:24:45Z</time>
      </trkpt>
      <trkpt lat="44.48861" lon="1.83421">
        <ele>296.6</ele>
        <time>2020-06-24T08:24:52Z</time>
      </trkpt>
      <trkpt lat="44.48883" lon="1.83409">
        <ele>296.6</ele>
        <time>2020-06-24T08:25:01Z</time>
      </trkpt>
      <trkpt lat="44.48901" lon="1.83399">
        <ele>296.6</ele>
        <time>2020-06-24T08:25:09Z</time>
      </trkpt>
      <trkpt lat="44.48918" lon="1.83394">
        <ele>296.6</ele>
        <time>2020-06-24T08:25:15Z</time>
      </trkpt>
      <trkpt lat="44.48937" lon="1.834">
        <ele>296.6</ele>
        <time>2020-06-24T08:25:22Z</time>
      </trkpt>
      <trkpt lat="44.48945" lon="1.83405">
        <ele>296.6</ele>
        <time>2020-06-24T08:25:25Z</time>
      </trkpt>
      <trkpt lat="44.48955" lon="1.83412">
        <ele>296.6</ele>
        <time>2020-06-24T08:25:30Z</time>
      </trkpt>
      <trkpt lat="44.48956" lon="1.83415">
        <ele>296.6</ele>
        <time>2020-06-24T08:25:36Z</time>
      </trkpt>
      <trkpt lat="44.48956" lon="1.83415">
        <ele>296.6</ele>
        <time>2020-06-24T08:25:42Z</time>
      </trkpt>
      <trkpt lat="44.48956" lon="1.83415">
        <ele>296.6</ele>
        <time>2020-06-24T08:25:49Z</time>
      </trkpt>
      <trkpt lat="44.48956" lon="1.83415">
        <ele>296.2</ele>
        <time>2020-06-24T08:25:58Z</time>
      </trkpt>
      <trkpt lat="44.48956" lon="1.83415">
        <ele>295.8</ele>
        <time>2020-06-24T08:25:59Z</time>
      </trkpt>
      <trkpt lat="44.48956" lon="1.83415">
        <ele>295.4</ele>
        <time>2020-06-24T08:26:00Z</time>
      </trkpt>
      <trkpt lat="44.48956" lon="1.83415">
        <ele>295</ele>
        <time>2020-06-24T08:26:01Z</time>
      </trkpt>
      <trkpt lat="44.48956" lon="1.83415">
        <ele>294.6</ele>
        <time>2020-06-24T08:26:02Z</time>
      </trkpt>
      <trkpt lat="44.48956" lon="1.83415">
        <ele>294.6</ele>
        <time>2020-06-24T08:26:03Z</time>
      </trkpt>
      <trkpt lat="44.48956" lon="1.83415">
        <ele>294.6</ele>
        <time>2020-06-24T08:26:17Z</time>
      </trkpt>
      <trkpt lat="44.48956" lon="1.83415">
        <ele>294.6</ele>
        <time>2020-06-24T08:26:28Z</time>
      </trkpt>
      <trkpt lat="44.48959" lon="1.83419">
        <ele>294.6</ele>
        <time>2020-06-24T08:26:39Z</time>
      </trkpt>
      <trkpt lat="44.48967" lon="1.83422">
        <ele>294.6</ele>
        <time>2020-06-24T08:26:44Z</time>
      </trkpt>
      <trkpt lat="44.4897" lon="1.83424">
        <ele>294.2</ele>
        <time>2020-06-24T08:26:47Z</time>
      </trkpt>
      <trkpt lat="44.4897" lon="1.83424">
        <ele>293.8</ele>
        <time>2020-06-24T08:26:48Z</time>
      </trkpt>
      <trkpt lat="44.48971" lon="1.83425">
        <ele>293.4</ele>
        <time>2020-06-24T08:26:49Z</time>
      </trkpt>
      <trkpt lat="44.48971" lon="1.83425">
        <ele>293</ele>
        <time>2020-06-24T08:26:50Z</time>
      </trkpt>
      <trkpt lat="44.48971" lon="1.83425">
        <ele>292.6</ele>
        <time>2020-06-24T08:26:51Z</time>
      </trkpt>
      <trkpt lat="44.48971" lon="1.83427">
        <ele>292.6</ele>
        <time>2020-06-24T08:26:55Z</time>
      </trkpt>
      <trkpt lat="44.48971" lon="1.83428">
        <ele>292.6</ele>
        <time>2020-06-24T08:26:56Z</time>
      </trkpt>
      <trkpt lat="44.48971" lon="1.83434">
        <ele>292.6</ele>
        <time>2020-06-24T08:26:59Z</time>
      </trkpt>
      <trkpt lat="44.4897" lon="1.83434">
        <ele>292</ele>
        <time>2020-06-24T08:27:00Z</time>
      </trkpt>
      <trkpt lat="44.48971" lon="1.83434">
        <ele>291.6</ele>
        <time>2020-06-24T08:27:01Z</time>
      </trkpt>
      <trkpt lat="44.48971" lon="1.83434">
        <ele>291.2</ele>
        <time>2020-06-24T08:27:02Z</time>
      </trkpt>
      <trkpt lat="44.48971" lon="1.83434">
        <ele>290.8</ele>
        <time>2020-06-24T08:27:03Z</time>
      </trkpt>
      <trkpt lat="44.48971" lon="1.83434">
        <ele>290.4</ele>
        <time>2020-06-24T08:27:04Z</time>
      </trkpt>
      <trkpt lat="44.4897" lon="1.83434">
        <ele>290.4</ele>
        <time>2020-06-24T08:27:11Z</time>
      </trkpt>
      <trkpt lat="44.48968" lon="1.83432">
        <ele>290</ele>
        <time>2020-06-24T08:27:15Z</time>
      </trkpt>
      <trkpt lat="44.48967" lon="1.83433">
        <ele>289.4</ele>
        <time>2020-06-24T08:27:16Z</time>
      </trkpt>
      <trkpt lat="44.48967" lon="1.83434">
        <ele>289</ele>
        <time>2020-06-24T08:27:17Z</time>
      </trkpt>
      <trkpt lat="44.48967" lon="1.83435">
        <ele>288.6</ele>
        <time>2020-06-24T08:27:18Z</time>
      </trkpt>
      <trkpt lat="44.48967" lon="1.83438">
        <ele>288.2</ele>
        <time>2020-06-24T08:27:19Z</time>
      </trkpt>
      <trkpt lat="44.48967" lon="1.83443">
        <ele>287.8</ele>
        <time>2020-06-24T08:27:22Z</time>
      </trkpt>
      <trkpt lat="44.48965" lon="1.83443">
        <ele>287.4</ele>
        <time>2020-06-24T08:27:23Z</time>
      </trkpt>
      <trkpt lat="44.48965" lon="1.83443">
        <ele>287</ele>
        <time>2020-06-24T08:27:24Z</time>
      </trkpt>
      <trkpt lat="44.48964" lon="1.83441">
        <ele>286.6</ele>
        <time>2020-06-24T08:27:25Z</time>
      </trkpt>
      <trkpt lat="44.48963" lon="1.83439">
        <ele>286.2</ele>
        <time>2020-06-24T08:27:26Z</time>
      </trkpt>
      <trkpt lat="44.48963" lon="1.83438">
        <ele>286.2</ele>
        <time>2020-06-24T08:27:27Z</time>
      </trkpt>
      <trkpt lat="44.48962" lon="1.83436">
        <ele>286.2</ele>
        <time>2020-06-24T08:27:28Z</time>
      </trkpt>
      <trkpt lat="44.48961" lon="1.83435">
        <ele>285.8</ele>
        <time>2020-06-24T08:27:29Z</time>
      </trkpt>
      <trkpt lat="44.4896" lon="1.83434">
        <ele>285.4</ele>
        <time>2020-06-24T08:27:30Z</time>
      </trkpt>
      <trkpt lat="44.48959" lon="1.83433">
        <ele>285</ele>
        <time>2020-06-24T08:27:31Z</time>
      </trkpt>
      <trkpt lat="44.48958" lon="1.83433">
        <ele>284.6</ele>
        <time>2020-06-24T08:27:32Z</time>
      </trkpt>
      <trkpt lat="44.48958" lon="1.83433">
        <ele>284.2</ele>
        <time>2020-06-24T08:27:33Z</time>
      </trkpt>
      <trkpt lat="44.48956" lon="1.83433">
        <ele>283.8</ele>
        <time>2020-06-24T08:27:35Z</time>
      </trkpt>
      <trkpt lat="44.48956" lon="1.83434">
        <ele>283.4</ele>
        <time>2020-06-24T08:27:36Z</time>
      </trkpt>
      <trkpt lat="44.48955" lon="1.83435">
        <ele>283</ele>
        <time>2020-06-24T08:27:37Z</time>
      </trkpt>
      <trkpt lat="44.48955" lon="1.83435">
        <ele>282.6</ele>
        <time>2020-06-24T08:27:38Z</time>
      </trkpt>
      <trkpt lat="44.48955" lon="1.83435">
        <ele>282.2</ele>
        <time>2020-06-24T08:27:39Z</time>
      </trkpt>
      <trkpt lat="44.48957" lon="1.83439">
        <ele>281.8</ele>
        <time>2020-06-24T08:27:45Z</time>
      </trkpt>
      <trkpt lat="44.48957" lon="1.8344">
        <ele>281.2</ele>
        <time>2020-06-24T08:27:46Z</time>
      </trkpt>
      <trkpt lat="44.48957" lon="1.83442">
        <ele>280.8</ele>
        <time>2020-06-24T08:27:47Z</time>
      </trkpt>
      <trkpt lat="44.48957" lon="1.83443">
        <ele>280.4</ele>
        <time>2020-06-24T08:27:48Z</time>
      </trkpt>
      <trkpt lat="44.48957" lon="1.83444">
        <ele>280</ele>
        <time>2020-06-24T08:27:49Z</time>
      </trkpt>
      <trkpt lat="44.48958" lon="1.83446">
        <ele>279.6</ele>
        <time>2020-06-24T08:27:51Z</time>
      </trkpt>
      <trkpt lat="44.48958" lon="1.83448">
        <ele>279.2</ele>
        <time>2020-06-24T08:27:52Z</time>
      </trkpt>
      <trkpt lat="44.48958" lon="1.83449">
        <ele>278.8</ele>
        <time>2020-06-24T08:27:53Z</time>
      </trkpt>
      <trkpt lat="44.48959" lon="1.8345">
        <ele>278.4</ele>
        <time>2020-06-24T08:27:54Z</time>
      </trkpt>
      <trkpt lat="44.48959" lon="1.8345">
        <ele>278</ele>
        <time>2020-06-24T08:27:55Z</time>
      </trkpt>
      <trkpt lat="44.48961" lon="1.83449">
        <ele>278</ele>
        <time>2020-06-24T08:27:58Z</time>
      </trkpt>
      <trkpt lat="44.48962" lon="1.83456">
        <ele>277.6</ele>
        <time>2020-06-24T08:28:01Z</time>
      </trkpt>
      <trkpt lat="44.48963" lon="1.83459">
        <ele>277.2</ele>
        <time>2020-06-24T08:28:02Z</time>
      </trkpt>
      <trkpt lat="44.48963" lon="1.83462">
        <ele>276.6</ele>
        <time>2020-06-24T08:28:03Z</time>
      </trkpt>
      <trkpt lat="44.48963" lon="1.83464">
        <ele>276.2</ele>
        <time>2020-06-24T08:28:04Z</time>
      </trkpt>
      <trkpt lat="44.48963" lon="1.83465">
        <ele>275.8</ele>
        <time>2020-06-24T08:28:05Z</time>
      </trkpt>
      <trkpt lat="44.48964" lon="1.83465">
        <ele>275.8</ele>
        <time>2020-06-24T08:28:06Z</time>
      </trkpt>
      <trkpt lat="44.48964" lon="1.83465">
        <ele>275.8</ele>
        <time>2020-06-24T08:28:12Z</time>
      </trkpt>
      <trkpt lat="44.48964" lon="1.83465">
        <ele>275.8</ele>
        <time>2020-06-24T08:28:13Z</time>
      </trkpt>
      <trkpt lat="44.4896" lon="1.83464">
        <ele>275.8</ele>
        <time>2020-06-24T08:28:16Z</time>
      </trkpt>
      <trkpt lat="44.48959" lon="1.83462">
        <ele>275.4</ele>
        <time>2020-06-24T08:28:17Z</time>
      </trkpt>
      <trkpt lat="44.48958" lon="1.83461">
        <ele>275</ele>
        <time>2020-06-24T08:28:18Z</time>
      </trkpt>
      <trkpt lat="44.48957" lon="1.83461">
        <ele>274.6</ele>
        <time>2020-06-24T08:28:19Z</time>
      </trkpt>
      <trkpt lat="44.48955" lon="1.8346">
        <ele>274.2</ele>
        <time>2020-06-24T08:28:20Z</time>
      </trkpt>
      <trkpt lat="44.48954" lon="1.83459">
        <ele>273.8</ele>
        <time>2020-06-24T08:28:21Z</time>
      </trkpt>
      <trkpt lat="44.48948" lon="1.83457">
        <ele>273.4</ele>
        <time>2020-06-24T08:28:24Z</time>
      </trkpt>
      <trkpt lat="44.48946" lon="1.83457">
        <ele>272.8</ele>
        <time>2020-06-24T08:28:25Z</time>
      </trkpt>
      <trkpt lat="44.48945" lon="1.83456">
        <ele>272.4</ele>
        <time>2020-06-24T08:28:26Z</time>
      </trkpt>
      <trkpt lat="44.48943" lon="1.83455">
        <ele>272</ele>
        <time>2020-06-24T08:28:27Z</time>
      </trkpt>
      <trkpt lat="44.4894" lon="1.83454">
        <ele>271.6</ele>
        <time>2020-06-24T08:28:28Z</time>
      </trkpt>
      <trkpt lat="44.48935" lon="1.83452">
        <ele>271.2</ele>
        <time>2020-06-24T08:28:30Z</time>
      </trkpt>
      <trkpt lat="44.48932" lon="1.83451">
        <ele>270.8</ele>
        <time>2020-06-24T08:28:31Z</time>
      </trkpt>
      <trkpt lat="44.48929" lon="1.83451">
        <ele>270.4</ele>
        <time>2020-06-24T08:28:32Z</time>
      </trkpt>
      <trkpt lat="44.48927" lon="1.8345">
        <ele>270</ele>
        <time>2020-06-24T08:28:33Z</time>
      </trkpt>
      <trkpt lat="44.48924" lon="1.83451">
        <ele>269.6</ele>
        <time>2020-06-24T08:28:34Z</time>
      </trkpt>
      <trkpt lat="44.48922" lon="1.83452">
        <ele>269.2</ele>
        <time>2020-06-24T08:28:35Z</time>
      </trkpt>
      <trkpt lat="44.48919" lon="1.83453">
        <ele>268.8</ele>
        <time>2020-06-24T08:28:36Z</time>
      </trkpt>
      <trkpt lat="44.48917" lon="1.83454">
        <ele>268.4</ele>
        <time>2020-06-24T08:28:37Z</time>
      </trkpt>
      <trkpt lat="44.48915" lon="1.83455">
        <ele>268</ele>
        <time>2020-06-24T08:28:38Z</time>
      </trkpt>
      <trkpt lat="44.48912" lon="1.83456">
        <ele>267.4</ele>
        <time>2020-06-24T08:28:39Z</time>
      </trkpt>
      <trkpt lat="44.48907" lon="1.83459">
        <ele>267</ele>
        <time>2020-06-24T08:28:41Z</time>
      </trkpt>
      <trkpt lat="44.48904" lon="1.8346">
        <ele>266.6</ele>
        <time>2020-06-24T08:28:42Z</time>
      </trkpt>
      <trkpt lat="44.48902" lon="1.83461">
        <ele>266</ele>
        <time>2020-06-24T08:28:43Z</time>
      </trkpt>
      <trkpt lat="44.489" lon="1.83462">
        <ele>265.6</ele>
        <time>2020-06-24T08:28:44Z</time>
      </trkpt>
      <trkpt lat="44.48898" lon="1.83464">
        <ele>265.2</ele>
        <time>2020-06-24T08:28:45Z</time>
      </trkpt>
      <trkpt lat="44.48894" lon="1.83468">
        <ele>264.2</ele>
        <time>2020-06-24T08:28:47Z</time>
      </trkpt>
      <trkpt lat="44.48892" lon="1.83471">
        <ele>263.8</ele>
        <time>2020-06-24T08:28:48Z</time>
      </trkpt>
      <trkpt lat="44.4889" lon="1.83474">
        <ele>263.4</ele>
        <time>2020-06-24T08:28:49Z</time>
      </trkpt>
      <trkpt lat="44.48889" lon="1.83476">
        <ele>262.8</ele>
        <time>2020-06-24T08:28:50Z</time>
      </trkpt>
      <trkpt lat="44.48888" lon="1.83476">
        <ele>262.4</ele>
        <time>2020-06-24T08:28:51Z</time>
      </trkpt>
      <trkpt lat="44.48886" lon="1.83477">
        <ele>262</ele>
        <time>2020-06-24T08:28:52Z</time>
      </trkpt>
      <trkpt lat="44.48884" lon="1.83478">
        <ele>261.6</ele>
        <time>2020-06-24T08:28:53Z</time>
      </trkpt>
      <trkpt lat="44.48883" lon="1.83478">
        <ele>261</ele>
        <time>2020-06-24T08:28:54Z</time>
      </trkpt>
      <trkpt lat="44.48883" lon="1.83479">
        <ele>260.6</ele>
        <time>2020-06-24T08:28:55Z</time>
      </trkpt>
      <trkpt lat="44.48883" lon="1.83479">
        <ele>260.6</ele>
        <time>2020-06-24T08:28:58Z</time>
      </trkpt>
      <trkpt lat="44.48883" lon="1.83479">
        <ele>260.2</ele>
        <time>2020-06-24T08:28:59Z</time>
      </trkpt>
      <trkpt lat="44.48884" lon="1.83479">
        <ele>259.8</ele>
        <time>2020-06-24T08:29:00Z</time>
      </trkpt>
      <trkpt lat="44.48887" lon="1.8348">
        <ele>259.4</ele>
        <time>2020-06-24T08:29:01Z</time>
      </trkpt>
      <trkpt lat="44.4889" lon="1.8348">
        <ele>259</ele>
        <time>2020-06-24T08:29:02Z</time>
      </trkpt>
      <trkpt lat="44.48893" lon="1.8348">
        <ele>258.4</ele>
        <time>2020-06-24T08:29:03Z</time>
      </trkpt>
      <trkpt lat="44.48896" lon="1.83481">
        <ele>258</ele>
        <time>2020-06-24T08:29:04Z</time>
      </trkpt>
      <trkpt lat="44.48899" lon="1.8348">
        <ele>257.6</ele>
        <time>2020-06-24T08:29:05Z</time>
      </trkpt>
      <trkpt lat="44.48901" lon="1.8348">
        <ele>257.2</ele>
        <time>2020-06-24T08:29:06Z</time>
      </trkpt>
      <trkpt lat="44.48903" lon="1.8348">
        <ele>256.8</ele>
        <time>2020-06-24T08:29:07Z</time>
      </trkpt>
      <trkpt lat="44.48905" lon="1.8348">
        <ele>256.4</ele>
        <time>2020-06-24T08:29:08Z</time>
      </trkpt>
      <trkpt lat="44.48913" lon="1.8348">
        <ele>256</ele>
        <time>2020-06-24T08:29:11Z</time>
      </trkpt>
      <trkpt lat="44.48915" lon="1.83481">
        <ele>255.2</ele>
        <time>2020-06-24T08:29:12Z</time>
      </trkpt>
      <trkpt lat="44.48918" lon="1.83482">
        <ele>254.6</ele>
        <time>2020-06-24T08:29:13Z</time>
      </trkpt>
      <trkpt lat="44.4892" lon="1.83483">
        <ele>254.2</ele>
        <time>2020-06-24T08:29:14Z</time>
      </trkpt>
      <trkpt lat="44.48924" lon="1.83487">
        <ele>253.8</ele>
        <time>2020-06-24T08:29:16Z</time>
      </trkpt>
      <trkpt lat="44.48926" lon="1.83488">
        <ele>253.4</ele>
        <time>2020-06-24T08:29:17Z</time>
      </trkpt>
      <trkpt lat="44.48928" lon="1.83488">
        <ele>252.8</ele>
        <time>2020-06-24T08:29:18Z</time>
      </trkpt>
      <trkpt lat="44.4893" lon="1.83489">
        <ele>252.4</ele>
        <time>2020-06-24T08:29:19Z</time>
      </trkpt>
      <trkpt lat="44.48932" lon="1.8349">
        <ele>251.8</ele>
        <time>2020-06-24T08:29:20Z</time>
      </trkpt>
      <trkpt lat="44.48935" lon="1.83494">
        <ele>251.4</ele>
        <time>2020-06-24T08:29:22Z</time>
      </trkpt>
      <trkpt lat="44.48936" lon="1.83498">
        <ele>251</ele>
        <time>2020-06-24T08:29:23Z</time>
      </trkpt>
      <trkpt lat="44.48938" lon="1.83501">
        <ele>250.6</ele>
        <time>2020-06-24T08:29:24Z</time>
      </trkpt>
      <trkpt lat="44.48939" lon="1.83504">
        <ele>250.2</ele>
        <time>2020-06-24T08:29:25Z</time>
      </trkpt>
      <trkpt lat="44.48941" lon="1.83508">
        <ele>249.6</ele>
        <time>2020-06-24T08:29:26Z</time>
      </trkpt>
      <trkpt lat="44.48942" lon="1.83511">
        <ele>249.2</ele>
        <time>2020-06-24T08:29:27Z</time>
      </trkpt>
      <trkpt lat="44.48943" lon="1.83514">
        <ele>248.6</ele>
        <time>2020-06-24T08:29:28Z</time>
      </trkpt>
      <trkpt lat="44.48945" lon="1.83517">
        <ele>248.2</ele>
        <time>2020-06-24T08:29:29Z</time>
      </trkpt>
      <trkpt lat="44.48947" lon="1.83521">
        <ele>247.6</ele>
        <time>2020-06-24T08:29:30Z</time>
      </trkpt>
      <trkpt lat="44.48948" lon="1.83525">
        <ele>247.2</ele>
        <time>2020-06-24T08:29:31Z</time>
      </trkpt>
      <trkpt lat="44.4895" lon="1.8353">
        <ele>246.6</ele>
        <time>2020-06-24T08:29:32Z</time>
      </trkpt>
      <trkpt lat="44.48952" lon="1.83534">
        <ele>246.2</ele>
        <time>2020-06-24T08:29:33Z</time>
      </trkpt>
      <trkpt lat="44.48954" lon="1.83538">
        <ele>245.6</ele>
        <time>2020-06-24T08:29:34Z</time>
      </trkpt>
      <trkpt lat="44.48956" lon="1.83541">
        <ele>245</ele>
        <time>2020-06-24T08:29:35Z</time>
      </trkpt>
      <trkpt lat="44.48958" lon="1.83544">
        <ele>244.4</ele>
        <time>2020-06-24T08:29:36Z</time>
      </trkpt>
      <trkpt lat="44.48961" lon="1.83547">
        <ele>243</ele>
        <time>2020-06-24T08:29:37Z</time>
      </trkpt>
      <trkpt lat="44.48963" lon="1.83551">
        <ele>242.6</ele>
        <time>2020-06-24T08:29:38Z</time>
      </trkpt>
      <trkpt lat="44.48965" lon="1.83553">
        <ele>242</ele>
        <time>2020-06-24T08:29:39Z</time>
      </trkpt>
      <trkpt lat="44.48968" lon="1.83555">
        <ele>241.4</ele>
        <time>2020-06-24T08:29:40Z</time>
      </trkpt>
      <trkpt lat="44.48971" lon="1.83557">
        <ele>241</ele>
        <time>2020-06-24T08:29:41Z</time>
      </trkpt>
      <trkpt lat="44.48974" lon="1.83559">
        <ele>240.4</ele>
        <time>2020-06-24T08:29:42Z</time>
      </trkpt>
      <trkpt lat="44.48977" lon="1.83561">
        <ele>240</ele>
        <time>2020-06-24T08:29:43Z</time>
      </trkpt>
      <trkpt lat="44.48981" lon="1.83562">
        <ele>239.4</ele>
        <time>2020-06-24T08:29:44Z</time>
      </trkpt>
      <trkpt lat="44.48983" lon="1.83564">
        <ele>239</ele>
        <time>2020-06-24T08:29:45Z</time>
      </trkpt>
      <trkpt lat="44.48985" lon="1.83567">
        <ele>238.4</ele>
        <time>2020-06-24T08:29:46Z</time>
      </trkpt>
      <trkpt lat="44.48986" lon="1.83569">
        <ele>238</ele>
        <time>2020-06-24T08:29:47Z</time>
      </trkpt>
      <trkpt lat="44.48988" lon="1.83569">
        <ele>237.4</ele>
        <time>2020-06-24T08:29:48Z</time>
      </trkpt>
      <trkpt lat="44.4899" lon="1.83571">
        <ele>236.8</ele>
        <time>2020-06-24T08:29:49Z</time>
      </trkpt>
      <trkpt lat="44.48991" lon="1.83574">
        <ele>236.4</ele>
        <time>2020-06-24T08:29:50Z</time>
      </trkpt>
      <trkpt lat="44.48993" lon="1.83577">
        <ele>235.8</ele>
        <time>2020-06-24T08:29:51Z</time>
      </trkpt>
      <trkpt lat="44.48996" lon="1.83579">
        <ele>235.4</ele>
        <time>2020-06-24T08:29:52Z</time>
      </trkpt>
      <trkpt lat="44.48999" lon="1.83581">
        <ele>235</ele>
        <time>2020-06-24T08:29:53Z</time>
      </trkpt>
      <trkpt lat="44.49001" lon="1.83583">
        <ele>234.4</ele>
        <time>2020-06-24T08:29:54Z</time>
      </trkpt>
      <trkpt lat="44.49002" lon="1.83585">
        <ele>234</ele>
        <time>2020-06-24T08:29:55Z</time>
      </trkpt>
      <trkpt lat="44.49004" lon="1.83587">
        <ele>233.4</ele>
        <time>2020-06-24T08:29:56Z</time>
      </trkpt>
      <trkpt lat="44.49005" lon="1.83589">
        <ele>233</ele>
        <time>2020-06-24T08:29:57Z</time>
      </trkpt>
      <trkpt lat="44.49007" lon="1.83591">
        <ele>232.4</ele>
        <time>2020-06-24T08:29:58Z</time>
      </trkpt>
      <trkpt lat="44.49009" lon="1.83593">
        <ele>232</ele>
        <time>2020-06-24T08:29:59Z</time>
      </trkpt>
      <trkpt lat="44.4901" lon="1.83595">
        <ele>231.4</ele>
        <time>2020-06-24T08:30:00Z</time>
      </trkpt>
      <trkpt lat="44.49013" lon="1.83597">
        <ele>230.6</ele>
        <time>2020-06-24T08:30:01Z</time>
      </trkpt>
      <trkpt lat="44.49016" lon="1.83599">
        <ele>230.2</ele>
        <time>2020-06-24T08:30:02Z</time>
      </trkpt>
      <trkpt lat="44.49018" lon="1.83602">
        <ele>229.8</ele>
        <time>2020-06-24T08:30:03Z</time>
      </trkpt>
      <trkpt lat="44.49022" lon="1.83606">
        <ele>229.2</ele>
        <time>2020-06-24T08:30:04Z</time>
      </trkpt>
      <trkpt lat="44.49026" lon="1.8361">
        <ele>228.8</ele>
        <time>2020-06-24T08:30:05Z</time>
      </trkpt>
      <trkpt lat="44.49032" lon="1.83613">
        <ele>228.2</ele>
        <time>2020-06-24T08:30:06Z</time>
      </trkpt>
      <trkpt lat="44.49036" lon="1.83616">
        <ele>227.6</ele>
        <time>2020-06-24T08:30:07Z</time>
      </trkpt>
      <trkpt lat="44.49039" lon="1.83618">
        <ele>226.8</ele>
        <time>2020-06-24T08:30:08Z</time>
      </trkpt>
      <trkpt lat="44.49042" lon="1.8362">
        <ele>226.2</ele>
        <time>2020-06-24T08:30:09Z</time>
      </trkpt>
      <trkpt lat="44.49046" lon="1.83622">
        <ele>225.6</ele>
        <time>2020-06-24T08:30:10Z</time>
      </trkpt>
      <trkpt lat="44.49049" lon="1.83624">
        <ele>225</ele>
        <time>2020-06-24T08:30:11Z</time>
      </trkpt>
      <trkpt lat="44.49053" lon="1.83626">
        <ele>224.6</ele>
        <time>2020-06-24T08:30:12Z</time>
      </trkpt>
      <trkpt lat="44.49056" lon="1.83629">
        <ele>224.2</ele>
        <time>2020-06-24T08:30:13Z</time>
      </trkpt>
      <trkpt lat="44.49059" lon="1.83631">
        <ele>223.8</ele>
        <time>2020-06-24T08:30:14Z</time>
      </trkpt>
      <trkpt lat="44.49062" lon="1.83632">
        <ele>223.2</ele>
        <time>2020-06-24T08:30:15Z</time>
      </trkpt>
      <trkpt lat="44.49064" lon="1.83634">
        <ele>222.8</ele>
        <time>2020-06-24T08:30:16Z</time>
      </trkpt>
      <trkpt lat="44.49067" lon="1.83635">
        <ele>222.4</ele>
        <time>2020-06-24T08:30:17Z</time>
      </trkpt>
      <trkpt lat="44.49069" lon="1.83636">
        <ele>222</ele>
        <time>2020-06-24T08:30:18Z</time>
      </trkpt>
      <trkpt lat="44.49072" lon="1.83637">
        <ele>221.6</ele>
        <time>2020-06-24T08:30:19Z</time>
      </trkpt>
      <trkpt lat="44.49074" lon="1.83638">
        <ele>221.2</ele>
        <time>2020-06-24T08:30:20Z</time>
      </trkpt>
      <trkpt lat="44.49076" lon="1.83639">
        <ele>220.8</ele>
        <time>2020-06-24T08:30:21Z</time>
      </trkpt>
      <trkpt lat="44.49079" lon="1.83642">
        <ele>220.2</ele>
        <time>2020-06-24T08:30:23Z</time>
      </trkpt>
      <trkpt lat="44.49081" lon="1.83642">
        <ele>219.8</ele>
        <time>2020-06-24T08:30:24Z</time>
      </trkpt>
      <trkpt lat="44.49083" lon="1.83643">
        <ele>219.2</ele>
        <time>2020-06-24T08:30:25Z</time>
      </trkpt>
      <trkpt lat="44.49084" lon="1.83643">
        <ele>218.2</ele>
        <time>2020-06-24T08:30:26Z</time>
      </trkpt>
      <trkpt lat="44.49084" lon="1.83644">
        <ele>217.8</ele>
        <time>2020-06-24T08:30:27Z</time>
      </trkpt>
      <trkpt lat="44.49084" lon="1.83643">
        <ele>217.4</ele>
        <time>2020-06-24T08:30:28Z</time>
      </trkpt>
      <trkpt lat="44.49084" lon="1.83643">
        <ele>217</ele>
        <time>2020-06-24T08:30:29Z</time>
      </trkpt>
      <trkpt lat="44.49084" lon="1.83643">
        <ele>216.6</ele>
        <time>2020-06-24T08:30:30Z</time>
      </trkpt>
      <trkpt lat="44.49084" lon="1.83643">
        <ele>216.2</ele>
        <time>2020-06-24T08:30:31Z</time>
      </trkpt>
      <trkpt lat="44.49084" lon="1.83643">
        <ele>216.2</ele>
        <time>2020-06-24T08:30:43Z</time>
      </trkpt>
      <trkpt lat="44.49084" lon="1.83643">
        <ele>216.2</ele>
        <time>2020-06-24T08:30:55Z</time>
      </trkpt>
      <trkpt lat="44.49082" lon="1.83644">
        <ele>216.2</ele>
        <time>2020-06-24T08:31:00Z</time>
      </trkpt>
      <trkpt lat="44.4908" lon="1.83644">
        <ele>216.2</ele>
        <time>2020-06-24T08:31:01Z</time>
      </trkpt>
      <trkpt lat="44.49068" lon="1.83645">
        <ele>215.8</ele>
        <time>2020-06-24T08:31:04Z</time>
      </trkpt>
      <trkpt lat="44.49064" lon="1.83646">
        <ele>215.4</ele>
        <time>2020-06-24T08:31:05Z</time>
      </trkpt>
      <trkpt lat="44.49059" lon="1.83646">
        <ele>214.8</ele>
        <time>2020-06-24T08:31:06Z</time>
      </trkpt>
      <trkpt lat="44.49054" lon="1.83648">
        <ele>214.4</ele>
        <time>2020-06-24T08:31:07Z</time>
      </trkpt>
      <trkpt lat="44.49049" lon="1.83649">
        <ele>213.8</ele>
        <time>2020-06-24T08:31:08Z</time>
      </trkpt>
      <trkpt lat="44.49044" lon="1.8365">
        <ele>213.2</ele>
        <time>2020-06-24T08:31:09Z</time>
      </trkpt>
      <trkpt lat="44.4904" lon="1.83651">
        <ele>212.2</ele>
        <time>2020-06-24T08:31:10Z</time>
      </trkpt>
      <trkpt lat="44.49036" lon="1.83652">
        <ele>211.4</ele>
        <time>2020-06-24T08:31:11Z</time>
      </trkpt>
      <trkpt lat="44.49032" lon="1.83652">
        <ele>210.6</ele>
        <time>2020-06-24T08:31:12Z</time>
      </trkpt>
      <trkpt lat="44.49028" lon="1.83653">
        <ele>209.6</ele>
        <time>2020-06-24T08:31:13Z</time>
      </trkpt>
      <trkpt lat="44.49023" lon="1.83654">
        <ele>208.8</ele>
        <time>2020-06-24T08:31:14Z</time>
      </trkpt>
      <trkpt lat="44.49018" lon="1.83656">
        <ele>206.6</ele>
        <time>2020-06-24T08:31:15Z</time>
      </trkpt>
      <trkpt lat="44.49012" lon="1.83656">
        <ele>205.6</ele>
        <time>2020-06-24T08:31:16Z</time>
      </trkpt>
      <trkpt lat="44.49007" lon="1.83657">
        <ele>204.6</ele>
        <time>2020-06-24T08:31:17Z</time>
      </trkpt>
      <trkpt lat="44.49002" lon="1.83658">
        <ele>203.8</ele>
        <time>2020-06-24T08:31:18Z</time>
      </trkpt>
      <trkpt lat="44.48995" lon="1.83659">
        <ele>203.2</ele>
        <time>2020-06-24T08:31:19Z</time>
      </trkpt>
      <trkpt lat="44.48989" lon="1.8366">
        <ele>202.2</ele>
        <time>2020-06-24T08:31:20Z</time>
      </trkpt>
      <trkpt lat="44.48981" lon="1.83662">
        <ele>201.4</ele>
        <time>2020-06-24T08:31:21Z</time>
      </trkpt>
      <trkpt lat="44.48973" lon="1.83666">
        <ele>200.4</ele>
        <time>2020-06-24T08:31:22Z</time>
      </trkpt>
      <trkpt lat="44.48965" lon="1.8367">
        <ele>199.4</ele>
        <time>2020-06-24T08:31:23Z</time>
      </trkpt>
      <trkpt lat="44.48957" lon="1.83675">
        <ele>198.4</ele>
        <time>2020-06-24T08:31:24Z</time>
      </trkpt>
      <trkpt lat="44.4895" lon="1.83679">
        <ele>197.2</ele>
        <time>2020-06-24T08:31:25Z</time>
      </trkpt>
      <trkpt lat="44.48943" lon="1.83684">
        <ele>196.2</ele>
        <time>2020-06-24T08:31:26Z</time>
      </trkpt>
      <trkpt lat="44.48937" lon="1.83688">
        <ele>195</ele>
        <time>2020-06-24T08:31:27Z</time>
      </trkpt>
      <trkpt lat="44.4893" lon="1.83692">
        <ele>194</ele>
        <time>2020-06-24T08:31:28Z</time>
      </trkpt>
      <trkpt lat="44.48923" lon="1.83697">
        <ele>193</ele>
        <time>2020-06-24T08:31:29Z</time>
      </trkpt>
      <trkpt lat="44.48916" lon="1.83703">
        <ele>191.8</ele>
        <time>2020-06-24T08:31:30Z</time>
      </trkpt>
      <trkpt lat="44.48909" lon="1.83711">
        <ele>190.8</ele>
        <time>2020-06-24T08:31:31Z</time>
      </trkpt>
      <trkpt lat="44.48905" lon="1.83719">
        <ele>189.8</ele>
        <time>2020-06-24T08:31:32Z</time>
      </trkpt>
      <trkpt lat="44.489" lon="1.8373">
        <ele>189</ele>
        <time>2020-06-24T08:31:33Z</time>
      </trkpt>
      <trkpt lat="44.48895" lon="1.83741">
        <ele>188</ele>
        <time>2020-06-24T08:31:34Z</time>
      </trkpt>
      <trkpt lat="44.48891" lon="1.83754">
        <ele>187.2</ele>
        <time>2020-06-24T08:31:35Z</time>
      </trkpt>
      <trkpt lat="44.48887" lon="1.83766">
        <ele>186.2</ele>
        <time>2020-06-24T08:31:36Z</time>
      </trkpt>
      <trkpt lat="44.48883" lon="1.8378">
        <ele>185.4</ele>
        <time>2020-06-24T08:31:37Z</time>
      </trkpt>
      <trkpt lat="44.4888" lon="1.83793">
        <ele>184.6</ele>
        <time>2020-06-24T08:31:38Z</time>
      </trkpt>
      <trkpt lat="44.48877" lon="1.83807">
        <ele>183.6</ele>
        <time>2020-06-24T08:31:39Z</time>
      </trkpt>
      <trkpt lat="44.48875" lon="1.8382">
        <ele>182.8</ele>
        <time>2020-06-24T08:31:40Z</time>
      </trkpt>
      <trkpt lat="44.48872" lon="1.83832">
        <ele>180.8</ele>
        <time>2020-06-24T08:31:41Z</time>
      </trkpt>
      <trkpt lat="44.4887" lon="1.83844">
        <ele>179.8</ele>
        <time>2020-06-24T08:31:42Z</time>
      </trkpt>
      <trkpt lat="44.48868" lon="1.83857">
        <ele>178.8</ele>
        <time>2020-06-24T08:31:43Z</time>
      </trkpt>
      <trkpt lat="44.48866" lon="1.83869">
        <ele>178</ele>
        <time>2020-06-24T08:31:44Z</time>
      </trkpt>
      <trkpt lat="44.48863" lon="1.83881">
        <ele>177</ele>
        <time>2020-06-24T08:31:45Z</time>
      </trkpt>
      <trkpt lat="44.48861" lon="1.83894">
        <ele>176</ele>
        <time>2020-06-24T08:31:46Z</time>
      </trkpt>
      <trkpt lat="44.48857" lon="1.83905">
        <ele>175</ele>
        <time>2020-06-24T08:31:47Z</time>
      </trkpt>
      <trkpt lat="44.48853" lon="1.83917">
        <ele>174.4</ele>
        <time>2020-06-24T08:31:48Z</time>
      </trkpt>
      <trkpt lat="44.4885" lon="1.83928">
        <ele>174</ele>
        <time>2020-06-24T08:31:49Z</time>
      </trkpt>
      <trkpt lat="44.48846" lon="1.83939">
        <ele>173.4</ele>
        <time>2020-06-24T08:31:50Z</time>
      </trkpt>
      <trkpt lat="44.48843" lon="1.8395">
        <ele>173</ele>
        <time>2020-06-24T08:31:51Z</time>
      </trkpt>
      <trkpt lat="44.4884" lon="1.8396">
        <ele>172.4</ele>
        <time>2020-06-24T08:31:52Z</time>
      </trkpt>
      <trkpt lat="44.48835" lon="1.83981">
        <ele>172.4</ele>
        <time>2020-06-24T08:31:54Z</time>
      </trkpt>
      <trkpt lat="44.48827" lon="1.8401">
        <ele>172</ele>
        <time>2020-06-24T08:31:57Z</time>
      </trkpt>
      <trkpt lat="44.48824" lon="1.8402">
        <ele>171.6</ele>
        <time>2020-06-24T08:31:58Z</time>
      </trkpt>
      <trkpt lat="44.48822" lon="1.8403">
        <ele>171</ele>
        <time>2020-06-24T08:31:59Z</time>
      </trkpt>
      <trkpt lat="44.48819" lon="1.84039">
        <ele>170.6</ele>
        <time>2020-06-24T08:32:00Z</time>
      </trkpt>
      <trkpt lat="44.48816" lon="1.84048">
        <ele>170.2</ele>
        <time>2020-06-24T08:32:01Z</time>
      </trkpt>
      <trkpt lat="44.48805" lon="1.84081">
        <ele>170.2</ele>
        <time>2020-06-24T08:32:05Z</time>
      </trkpt>
      <trkpt lat="44.48796" lon="1.84101">
        <ele>170.2</ele>
        <time>2020-06-24T08:32:08Z</time>
      </trkpt>
      <trkpt lat="44.48793" lon="1.84107">
        <ele>170.2</ele>
        <time>2020-06-24T08:32:09Z</time>
      </trkpt>
      <trkpt lat="44.48774" lon="1.84117">
        <ele>170.2</ele>
        <time>2020-06-24T08:32:12Z</time>
      </trkpt>
      <trkpt lat="44.48746" lon="1.84133">
        <ele>170.2</ele>
        <time>2020-06-24T08:32:17Z</time>
      </trkpt>
      <trkpt lat="44.48741" lon="1.84136">
        <ele>169.8</ele>
        <time>2020-06-24T08:32:18Z</time>
      </trkpt>
      <trkpt lat="44.48735" lon="1.8414">
        <ele>169.4</ele>
        <time>2020-06-24T08:32:19Z</time>
      </trkpt>
      <trkpt lat="44.4873" lon="1.84144">
        <ele>168.8</ele>
        <time>2020-06-24T08:32:20Z</time>
      </trkpt>
      <trkpt lat="44.48724" lon="1.84149">
        <ele>168.4</ele>
        <time>2020-06-24T08:32:21Z</time>
      </trkpt>
      <trkpt lat="44.48718" lon="1.84155">
        <ele>167.8</ele>
        <time>2020-06-24T08:32:22Z</time>
      </trkpt>
      <trkpt lat="44.48712" lon="1.8416">
        <ele>167.4</ele>
        <time>2020-06-24T08:32:23Z</time>
      </trkpt>
      <trkpt lat="44.48706" lon="1.84165">
        <ele>166.8</ele>
        <time>2020-06-24T08:32:24Z</time>
      </trkpt>
      <trkpt lat="44.487" lon="1.84169">
        <ele>166.4</ele>
        <time>2020-06-24T08:32:25Z</time>
      </trkpt>
      <trkpt lat="44.48693" lon="1.84173">
        <ele>165.8</ele>
        <time>2020-06-24T08:32:26Z</time>
      </trkpt>
      <trkpt lat="44.48682" lon="1.84182">
        <ele>165.8</ele>
        <time>2020-06-24T08:32:28Z</time>
      </trkpt>
      <trkpt lat="44.48668" lon="1.84192">
        <ele>165.8</ele>
        <time>2020-06-24T08:32:32Z</time>
      </trkpt>
      <trkpt lat="44.48662" lon="1.84199">
        <ele>165.8</ele>
        <time>2020-06-24T08:32:38Z</time>
      </trkpt>
      <trkpt lat="44.48662" lon="1.842">
        <ele>165.8</ele>
        <time>2020-06-24T08:32:39Z</time>
      </trkpt>
      <trkpt lat="44.4866" lon="1.84205">
        <ele>165.8</ele>
        <time>2020-06-24T08:32:42Z</time>
      </trkpt>
      <trkpt lat="44.48662" lon="1.84212">
        <ele>165.8</ele>
        <time>2020-06-24T08:32:44Z</time>
      </trkpt>
      <trkpt lat="44.48667" lon="1.84223">
        <ele>165.8</ele>
        <time>2020-06-24T08:32:47Z</time>
      </trkpt>
      <trkpt lat="44.48673" lon="1.84229">
        <ele>165.8</ele>
        <time>2020-06-24T08:32:49Z</time>
      </trkpt>
      <trkpt lat="44.4869" lon="1.84254">
        <ele>165.8</ele>
        <time>2020-06-24T08:32:55Z</time>
      </trkpt>
      <trkpt lat="44.48698" lon="1.84273">
        <ele>165.8</ele>
        <time>2020-06-24T08:33:00Z</time>
      </trkpt>
      <trkpt lat="44.48696" lon="1.84278">
        <ele>165.8</ele>
        <time>2020-06-24T08:33:03Z</time>
      </trkpt>
      <trkpt lat="44.48694" lon="1.8428">
        <ele>165.8</ele>
        <time>2020-06-24T08:33:04Z</time>
      </trkpt>
      <trkpt lat="44.48681" lon="1.84291">
        <ele>165.8</ele>
        <time>2020-06-24T08:33:09Z</time>
      </trkpt>
      <trkpt lat="44.48676" lon="1.84294">
        <ele>165.8</ele>
        <time>2020-06-24T08:33:10Z</time>
      </trkpt>
      <trkpt lat="44.48656" lon="1.84309">
        <ele>165.8</ele>
        <time>2020-06-24T08:33:15Z</time>
      </trkpt>
      <trkpt lat="44.4865" lon="1.84321">
        <ele>165.2</ele>
        <time>2020-06-24T08:33:19Z</time>
      </trkpt>
    </trkseg>
  </trk>
</gpx>